<?xml version='1.0' encoding='UTF-8'?><gpx version="1.1" creator="JPX - https://github.com/jenetics/jpx" xmlns="http://www.topografix.com/GPX/1/1"><trk><trkseg><trkpt lat="46.043899604198835" lon="12.129298024410206"><ele>661.0</ele><time>2026-04-23T11:56:21Z</time></trkpt><trkpt lat="46.04397792426378" lon="12.129286600579759"><ele>661.0</ele><time>2026-04-23T11:56:23Z</time></trkpt><trkpt lat="46.04407246601816" lon="12.12927519947993"><ele>661.0</ele><time>2026-04-23T11:56:25Z</time></trkpt><trkpt lat="46.04417128220664" lon="12.129272937943785"><ele>661.0</ele><time>2026-04-23T11:56:27Z</time></trkpt><trkpt lat="46.0442433802445" lon="12.12932461358926"><ele>661.0</ele><time>2026-04-23T11:56:29Z</time></trkpt><trkpt lat="46.04432904671265" lon="12.12938078239644"><ele>661.0</ele><time>2026-04-23T11:56:31Z</time></trkpt><trkpt lat="46.0444017591488" lon="12.129428029365453"><ele>660.0</ele><time>2026-04-23T11:56:33Z</time></trkpt><trkpt lat="46.04451553850749" lon="12.129485436102133"><ele>659.0</ele><time>2026-04-23T11:56:36Z</time></trkpt><trkpt lat="46.04459338750556" lon="12.129475969100573"><ele>658.0</ele><time>2026-04-23T11:56:38Z</time></trkpt><trkpt lat="46.04468476345347" lon="12.129466630322003"><ele>657.0</ele><time>2026-04-23T11:56:40Z</time></trkpt><trkpt lat="46.044747014203" lon="12.129415012359182"><ele>656.0</ele><time>2026-04-23T11:56:41Z</time></trkpt><trkpt lat="46.044827197803336" lon="12.129291274418458"><ele>656.0</ele><time>2026-04-23T11:56:43Z</time></trkpt><trkpt lat="46.044915077851215" lon="12.129211983388378"><ele>656.0</ele><time>2026-04-23T11:56:45Z</time></trkpt><trkpt lat="46.04501629836042" lon="12.129138289692774"><ele>656.0</ele><time>2026-04-23T11:56:47Z</time></trkpt><trkpt lat="46.04511684705926" lon="12.129062550330172"><ele>656.0</ele><time>2026-04-23T11:56:49Z</time></trkpt><trkpt lat="46.04522473376446" lon="12.129044348664685"><ele>656.0</ele><time>2026-04-23T11:56:51Z</time></trkpt><trkpt lat="46.045328546457235" lon="12.129037324841464"><ele>656.3333333333333</ele><time>2026-04-23T11:56:53Z</time></trkpt><trkpt lat="46.045456708756554" lon="12.12905983146293"><ele>656.6666666666666</ele><time>2026-04-23T11:56:55Z</time></trkpt><trkpt lat="46.04552714815345" lon="12.129045827642553"><ele>657.0</ele><time>2026-04-23T11:56:56Z</time></trkpt><trkpt lat="46.04559520305193" lon="12.129027208021055"><ele>657.3333333333334</ele><time>2026-04-23T11:56:57Z</time></trkpt><trkpt lat="46.045682003204625" lon="12.128984398607109"><ele>657.6666666666667</ele><time>2026-04-23T11:56:58Z</time></trkpt><trkpt lat="46.045754739178065" lon="12.128914354968742"><ele>658.0</ele><time>2026-04-23T11:56:59Z</time></trkpt><trkpt lat="46.04581837672329" lon="12.12884076031606"><ele>655.8333333333334</ele><time>2026-04-23T11:57:00Z</time></trkpt><trkpt lat="46.04588229797819" lon="12.128751993962863"><ele>653.6666666666667</ele><time>2026-04-23T11:57:01Z</time></trkpt><trkpt lat="46.04593550648586" lon="12.128682978167953"><ele>651.5</ele><time>2026-04-23T11:57:02Z</time></trkpt><trkpt lat="46.04599474264228" lon="12.128600129472499"><ele>649.3333333333334</ele><time>2026-04-23T11:57:03Z</time></trkpt><trkpt lat="46.04605558569387" lon="12.128548958786615"><ele>647.1666666666666</ele><time>2026-04-23T11:57:04Z</time></trkpt><trkpt lat="46.04612747137144" lon="12.128511234526092"><ele>645.0</ele><time>2026-04-23T11:57:05Z</time></trkpt><trkpt lat="46.046200592708686" lon="12.128476877835658"><ele>645.0</ele><time>2026-04-23T11:57:06Z</time></trkpt><trkpt lat="46.04626774660103" lon="12.128461646103538"><ele>645.0</ele><time>2026-04-23T11:57:07Z</time></trkpt><trkpt lat="46.046335202335534" lon="12.128441590754466"><ele>645.0</ele><time>2026-04-23T11:57:08Z</time></trkpt><trkpt lat="46.04640070741088" lon="12.128406888387632"><ele>645.0</ele><time>2026-04-23T11:57:09Z</time></trkpt><trkpt lat="46.0465213081431" lon="12.128412254031412"><ele>645.0</ele><time>2026-04-23T11:57:11Z</time></trkpt><trkpt lat="46.04658477676598" lon="12.12841259754953"><ele>645.0</ele><time>2026-04-23T11:57:12Z</time></trkpt><trkpt lat="46.04665356783534" lon="12.12841348192172"><ele>642.8333333333334</ele><time>2026-04-23T11:57:13Z</time></trkpt><trkpt lat="46.04672971945766" lon="12.128409328673657"><ele>640.6666666666666</ele><time>2026-04-23T11:57:14Z</time></trkpt><trkpt lat="46.046804524792364" lon="12.128398619490973"><ele>638.5</ele><time>2026-04-23T11:57:15Z</time></trkpt><trkpt lat="46.04688454285001" lon="12.128384488283453"><ele>636.3333333333333</ele><time>2026-04-23T11:57:16Z</time></trkpt><trkpt lat="46.04696221266983" lon="12.128363595426197"><ele>634.1666666666666</ele><time>2026-04-23T11:57:17Z</time></trkpt><trkpt lat="46.04705432966353" lon="12.128325932059301"><ele>632.0</ele><time>2026-04-23T11:57:18Z</time></trkpt><trkpt lat="46.047124707887065" lon="12.128269598955573"><ele>632.4</ele><time>2026-04-23T11:57:19Z</time></trkpt><trkpt lat="46.04719088815633" lon="12.128203145880006"><ele>632.8000000000001</ele><time>2026-04-23T11:57:20Z</time></trkpt><trkpt lat="46.04726709273282" lon="12.128119014815884"><ele>633.2</ele><time>2026-04-23T11:57:21Z</time></trkpt><trkpt lat="46.0473417207732" lon="12.128034060628071"><ele>633.6</ele><time>2026-04-23T11:57:22Z</time></trkpt><trkpt lat="46.04741754943957" lon="12.127942310299122"><ele>634.0</ele><time>2026-04-23T11:57:23Z</time></trkpt><trkpt lat="46.04749339483272" lon="12.127849217521195"><ele>631.0</ele><time>2026-04-23T11:57:24Z</time></trkpt><trkpt lat="46.047568142804515" lon="12.127756546241734"><ele>628.0</ele><time>2026-04-23T11:57:25Z</time></trkpt><trkpt lat="46.04762098181674" lon="12.127662393817362"><ele>625.0</ele><time>2026-04-23T11:57:26Z</time></trkpt><trkpt lat="46.04768965116103" lon="12.12759179765372"><ele>622.0</ele><time>2026-04-23T11:57:27Z</time></trkpt><trkpt lat="46.047751852803515" lon="12.12750002409267"><ele>619.0</ele><time>2026-04-23T11:57:28Z</time></trkpt><trkpt lat="46.04783795385811" lon="12.127372755356314"><ele>618.5</ele><time>2026-04-23T11:57:30Z</time></trkpt><trkpt lat="46.047882178571875" lon="12.127296562110399"><ele>618.0</ele><time>2026-04-23T11:57:31Z</time></trkpt><trkpt lat="46.0479209834261" lon="12.1271969229559"><ele>617.5</ele><time>2026-04-23T11:57:32Z</time></trkpt><trkpt lat="46.0479790318076" lon="12.127105870019069"><ele>617.0</ele><time>2026-04-23T11:57:33Z</time></trkpt><trkpt lat="46.04801056359929" lon="12.126974807130946"><ele>616.5</ele><time>2026-04-23T11:57:34Z</time></trkpt><trkpt lat="46.04805307132206" lon="12.126864091980272"><ele>616.0</ele><time>2026-04-23T11:57:35Z</time></trkpt><trkpt lat="46.04809210098966" lon="12.126758028203865"><ele>616.0</ele><time>2026-04-23T11:57:36Z</time></trkpt><trkpt lat="46.048127660604955" lon="12.126658024277509"><ele>616.0</ele><time>2026-04-23T11:57:37Z</time></trkpt><trkpt lat="46.04817224032737" lon="12.126551629579414"><ele>616.0</ele><time>2026-04-23T11:57:38Z</time></trkpt><trkpt lat="46.04821714322015" lon="12.126449113422527"><ele>616.0</ele><time>2026-04-23T11:57:39Z</time></trkpt><trkpt lat="46.04827317785739" lon="12.126349758758346"><ele>616.0</ele><time>2026-04-23T11:57:40Z</time></trkpt><trkpt lat="46.048335903502995" lon="12.126262009259902"><ele>616.0</ele><time>2026-04-23T11:57:41Z</time></trkpt><trkpt lat="46.048404698750524" lon="12.12618120556265"><ele>614.8</ele><time>2026-04-23T11:57:42Z</time></trkpt><trkpt lat="46.04847604329645" lon="12.126094621497984"><ele>613.6</ele><time>2026-04-23T11:57:43Z</time></trkpt><trkpt lat="46.04854606215009" lon="12.12600684474203"><ele>612.4</ele><time>2026-04-23T11:57:44Z</time></trkpt><trkpt lat="46.048612413728314" lon="12.125915205161284"><ele>611.2</ele><time>2026-04-23T11:57:45Z</time></trkpt><trkpt lat="46.04867539690632" lon="12.125808143299615"><ele>610.0</ele><time>2026-04-23T11:57:46Z</time></trkpt><trkpt lat="46.04871603104952" lon="12.125690284981564"><ele>608.5</ele><time>2026-04-23T11:57:47Z</time></trkpt><trkpt lat="46.04875529360607" lon="12.125567242830561"><ele>607.0</ele><time>2026-04-23T11:57:48Z</time></trkpt><trkpt lat="46.0487772031244" lon="12.125445455352057"><ele>605.5</ele><time>2026-04-23T11:57:49Z</time></trkpt><trkpt lat="46.048785816914815" lon="12.12533186110547"><ele>604.0</ele><time>2026-04-23T11:57:50Z</time></trkpt><trkpt lat="46.04876997402066" lon="12.125225959374013"><ele>602.5</ele><time>2026-04-23T11:57:51Z</time></trkpt><trkpt lat="46.04872326023822" lon="12.125139595062906"><ele>601.0</ele><time>2026-04-23T11:57:52Z</time></trkpt><trkpt lat="46.048665959679525" lon="12.125075769480787"><ele>601.0</ele><time>2026-04-23T11:57:53Z</time></trkpt><trkpt lat="46.048602893086645" lon="12.125007780257544"><ele>601.0</ele><time>2026-04-23T11:57:54Z</time></trkpt><trkpt lat="46.048538130670025" lon="12.124932212848552"><ele>601.0</ele><time>2026-04-23T11:57:55Z</time></trkpt><trkpt lat="46.04846523497204" lon="12.124869536964537"><ele>601.0</ele><time>2026-04-23T11:57:56Z</time></trkpt><trkpt lat="46.04839338004532" lon="12.12478458198792"><ele>601.0</ele><time>2026-04-23T11:57:57Z</time></trkpt><trkpt lat="46.04832347397479" lon="12.124714465037405"><ele>601.0</ele><time>2026-04-23T11:57:58Z</time></trkpt><trkpt lat="46.04824906506582" lon="12.12465986797677"><ele>601.6666666666667</ele><time>2026-04-23T11:57:59Z</time></trkpt><trkpt lat="46.0481830120954" lon="12.12460075899935"><ele>602.3333333333334</ele><time>2026-04-23T11:58:00Z</time></trkpt><trkpt lat="46.048133232224565" lon="12.1245283491653"><ele>603.0</ele><time>2026-04-23T11:58:01Z</time></trkpt><trkpt lat="46.04809956882714" lon="12.124429927799234"><ele>603.6666666666666</ele><time>2026-04-23T11:58:02Z</time></trkpt><trkpt lat="46.048098175995776" lon="12.124317965706176"><ele>604.3333333333333</ele><time>2026-04-23T11:58:03Z</time></trkpt><trkpt lat="46.04812154473409" lon="12.124209203577067"><ele>605.0</ele><time>2026-04-23T11:58:04Z</time></trkpt><trkpt lat="46.0481726588208" lon="12.124109245520144"><ele>603.4</ele><time>2026-04-23T11:58:05Z</time></trkpt><trkpt lat="46.048261090908206" lon="12.124050248429663"><ele>601.8</ele><time>2026-04-23T11:58:06Z</time></trkpt><trkpt lat="46.04835715831549" lon="12.124032710999503"><ele>600.2</ele><time>2026-04-23T11:58:07Z</time></trkpt><trkpt lat="46.048440953514984" lon="12.124055196634346"><ele>598.6</ele><time>2026-04-23T11:58:08Z</time></trkpt><trkpt lat="46.04854190679547" lon="12.124077067956799"><ele>597.0</ele><time>2026-04-23T11:58:09Z</time></trkpt><trkpt lat="46.048641635153366" lon="12.124048775696954"><ele>594.8333333333334</ele><time>2026-04-23T11:58:10Z</time></trkpt><trkpt lat="46.04872435340904" lon="12.124018305698522"><ele>592.6666666666666</ele><time>2026-04-23T11:58:11Z</time></trkpt><trkpt lat="46.048808131755" lon="12.123990245301579"><ele>590.5</ele><time>2026-04-23T11:58:12Z</time></trkpt><trkpt lat="46.048883755951344" lon="12.123985304902476"><ele>588.3333333333333</ele><time>2026-04-23T11:58:13Z</time></trkpt><trkpt lat="46.04895514879215" lon="12.124072256086453"><ele>586.1666666666666</ele><time>2026-04-23T11:58:14Z</time></trkpt><trkpt lat="46.04903594151224" lon="12.124104741944105"><ele>584.0</ele><time>2026-04-23T11:58:15Z</time></trkpt><trkpt lat="46.04910159462043" lon="12.124118232390325"><ele>579.3333333333333</ele><time>2026-04-23T11:58:16Z</time></trkpt><trkpt lat="46.04916548188011" lon="12.124059087904294"><ele>574.6666666666666</ele><time>2026-04-23T11:58:17Z</time></trkpt><trkpt lat="46.049211801491204" lon="12.123947184321658"><ele>570.0</ele><time>2026-04-23T11:58:18Z</time></trkpt><trkpt lat="46.04922385669179" lon="12.123829099081673"><ele>565.3333333333334</ele><time>2026-04-23T11:58:19Z</time></trkpt><trkpt lat="46.049226675971305" lon="12.123695675014122"><ele>560.6666666666667</ele><time>2026-04-23T11:58:20Z</time></trkpt><trkpt lat="46.04923471672382" lon="12.123556442103729"><ele>556.0</ele><time>2026-04-23T11:58:21Z</time></trkpt><trkpt lat="46.04928117826589" lon="12.123440466730447"><ele>556.0</ele><time>2026-04-23T11:58:22Z</time></trkpt><trkpt lat="46.04933476048845" lon="12.123333726196991"><ele>556.0</ele><time>2026-04-23T11:58:23Z</time></trkpt><trkpt lat="46.049400236218645" lon="12.12324922752368"><ele>556.0</ele><time>2026-04-23T11:58:24Z</time></trkpt><trkpt lat="46.049470936553185" lon="12.123188288615841"><ele>556.0</ele><time>2026-04-23T11:58:25Z</time></trkpt><trkpt lat="46.04954993472164" lon="12.123155898279228"><ele>556.0</ele><time>2026-04-23T11:58:26Z</time></trkpt><trkpt lat="46.049636102445156" lon="12.123184886322948"><ele>556.0</ele><time>2026-04-23T11:58:27Z</time></trkpt><trkpt lat="46.049726939576786" lon="12.123202367424039"><ele>556.0</ele><time>2026-04-23T11:58:28Z</time></trkpt><trkpt lat="46.04981126522497" lon="12.123228379301572"><ele>556.0</ele><time>2026-04-23T11:58:29Z</time></trkpt><trkpt lat="46.04989163953373" lon="12.123274675324412"><ele>556.0</ele><time>2026-04-23T11:58:30Z</time></trkpt><trkpt lat="46.04996393598231" lon="12.123331752896526"><ele>556.0</ele><time>2026-04-23T11:58:31Z</time></trkpt><trkpt lat="46.05001907796265" lon="12.1233866216123"><ele>556.0</ele><time>2026-04-23T11:58:32Z</time></trkpt><trkpt lat="46.05007345184142" lon="12.12345256576331"><ele>556.0</ele><time>2026-04-23T11:58:33Z</time></trkpt><trkpt lat="46.05010214933685" lon="12.123561811600425"><ele>552.6</ele><time>2026-04-23T11:58:34Z</time></trkpt><trkpt lat="46.050120418037224" lon="12.123655385681552"><ele>549.2</ele><time>2026-04-23T11:58:35Z</time></trkpt><trkpt lat="46.050128576135606" lon="12.123756693442118"><ele>545.8</ele><time>2026-04-23T11:58:36Z</time></trkpt><trkpt lat="46.05018958961139" lon="12.123928022544966"><ele>542.4</ele><time>2026-04-23T11:58:38Z</time></trkpt><trkpt lat="46.050337364035386" lon="12.123918008086223"><ele>539.0</ele><time>2026-04-23T11:58:40Z</time></trkpt><trkpt lat="46.050409020425626" lon="12.12389139235807"><ele>539.0</ele><time>2026-04-23T11:58:41Z</time></trkpt><trkpt lat="46.05052535852799" lon="12.1238324333022"><ele>539.0</ele><time>2026-04-23T11:58:43Z</time></trkpt><trkpt lat="46.05064527852203" lon="12.123796448603349"><ele>539.0</ele><time>2026-04-23T11:58:45Z</time></trkpt><trkpt lat="46.050710325127625" lon="12.123786814236068"><ele>539.0</ele><time>2026-04-23T11:58:46Z</time></trkpt><trkpt lat="46.05078287261343" lon="12.123807801333072"><ele>539.0</ele><time>2026-04-23T11:58:47Z</time></trkpt><trkpt lat="46.05085089890975" lon="12.123810026277695"><ele>536.8571428571429</ele><time>2026-04-23T11:58:48Z</time></trkpt><trkpt lat="46.05091502790319" lon="12.123799192997986"><ele>534.7142857142858</ele><time>2026-04-23T11:58:49Z</time></trkpt><trkpt lat="46.05098004649153" lon="12.12380587927646"><ele>532.5714285714286</ele><time>2026-04-23T11:58:50Z</time></trkpt><trkpt lat="46.05104401865103" lon="12.12383353586733"><ele>530.4285714285714</ele><time>2026-04-23T11:58:51Z</time></trkpt><trkpt lat="46.051121722974514" lon="12.12386567981303"><ele>528.2857142857143</ele><time>2026-04-23T11:58:53Z</time></trkpt><trkpt lat="46.05118182159069" lon="12.123901394452142"><ele>526.1428571428571</ele><time>2026-04-23T12:00:03Z</time></trkpt><trkpt lat="46.05123027807753" lon="12.123835636813434"><ele>524.0</ele><time>2026-04-23T12:00:05Z</time></trkpt><trkpt lat="46.051293197482906" lon="12.123776596776805"><ele>524.0</ele><time>2026-04-23T12:00:06Z</time></trkpt><trkpt lat="46.05135359274101" lon="12.1236800657476"><ele>524.0</ele><time>2026-04-23T12:00:07Z</time></trkpt><trkpt lat="46.05136943343915" lon="12.123525709915297"><ele>524.0</ele><time>2026-04-23T12:00:08Z</time></trkpt><trkpt lat="46.05138116917187" lon="12.123389437525086"><ele>524.0</ele><time>2026-04-23T12:00:09Z</time></trkpt><trkpt lat="46.05138723471454" lon="12.1232544371135"><ele>524.0</ele><time>2026-04-23T12:00:10Z</time></trkpt><trkpt lat="46.05138883256517" lon="12.12312024980127"><ele>523.4</ele><time>2026-04-23T12:00:11Z</time></trkpt><trkpt lat="46.05137927972093" lon="12.122986237030894"><ele>522.8</ele><time>2026-04-23T12:00:12Z</time></trkpt><trkpt lat="46.0513595760091" lon="12.122841585630585"><ele>522.2</ele><time>2026-04-23T12:00:13Z</time></trkpt><trkpt lat="46.05133954333674" lon="12.122681380623337"><ele>521.6</ele><time>2026-04-23T12:00:14Z</time></trkpt><trkpt lat="46.051315006851844" lon="12.122532367961506"><ele>521.0</ele><time>2026-04-23T12:00:15Z</time></trkpt><trkpt lat="46.05128218869612" lon="12.122390056950554"><ele>519.5</ele><time>2026-04-23T12:00:16Z</time></trkpt><trkpt lat="46.051246209956425" lon="12.122266923873815"><ele>518.0</ele><time>2026-04-23T12:00:17Z</time></trkpt><trkpt lat="46.0512212498647" lon="12.12216303700755"><ele>516.5</ele><time>2026-04-23T12:00:18Z</time></trkpt><trkpt lat="46.05120956217661" lon="12.122065230319068"><ele>515.0</ele><time>2026-04-23T12:00:19Z</time></trkpt><trkpt lat="46.051241709732714" lon="12.121958490742138"><ele>513.5</ele><time>2026-04-23T12:00:20Z</time></trkpt><trkpt lat="46.05128203045682" lon="12.121821218969936"><ele>512.0</ele><time>2026-04-23T12:00:21Z</time></trkpt><trkpt lat="46.05132237585635" lon="12.121674985463752"><ele>510.6</ele><time>2026-04-23T12:00:22Z</time></trkpt><trkpt lat="46.051378335025326" lon="12.121546952104037"><ele>509.20000000000005</ele><time>2026-04-23T12:00:23Z</time></trkpt><trkpt lat="46.05142489509687" lon="12.121416582458128"><ele>507.8</ele><time>2026-04-23T12:00:24Z</time></trkpt><trkpt lat="46.05146613210456" lon="12.121290978040877"><ele>506.4</ele><time>2026-04-23T12:00:25Z</time></trkpt><trkpt lat="46.05153016203088" lon="12.121171625971673"><ele>505.0</ele><time>2026-04-23T12:00:26Z</time></trkpt><trkpt lat="46.05161326693847" lon="12.121078893429495"><ele>503.4</ele><time>2026-04-23T12:00:27Z</time></trkpt><trkpt lat="46.051685306438856" lon="12.120961017192245"><ele>501.8</ele><time>2026-04-23T12:00:28Z</time></trkpt><trkpt lat="46.051770624964284" lon="12.120875610151732"><ele>500.20000000000005</ele><time>2026-04-23T12:00:29Z</time></trkpt><trkpt lat="46.05184521503099" lon="12.120788842711688"><ele>498.6</ele><time>2026-04-23T12:00:30Z</time></trkpt><trkpt lat="46.05190837047948" lon="12.120707942130961"><ele>497.0</ele><time>2026-04-23T12:00:31Z</time></trkpt><trkpt lat="46.05197351509128" lon="12.120626634685674"><ele>496.40000000000003</ele><time>2026-04-23T12:00:32Z</time></trkpt><trkpt lat="46.05203955413831" lon="12.120533690193048"><ele>495.80000000000007</ele><time>2026-04-23T12:00:33Z</time></trkpt><trkpt lat="46.05210424463397" lon="12.120428587236782"><ele>495.2</ele><time>2026-04-23T12:00:34Z</time></trkpt><trkpt lat="46.05217538160243" lon="12.120329859728336"><ele>494.6</ele><time>2026-04-23T12:00:35Z</time></trkpt><trkpt lat="46.05223364155845" lon="12.120221480605592"><ele>494.0</ele><time>2026-04-23T12:00:36Z</time></trkpt><trkpt lat="46.052292850699935" lon="12.1201168548418"><ele>494.0</ele><time>2026-04-23T12:00:37Z</time></trkpt><trkpt lat="46.05235641586135" lon="12.120013708706244"><ele>494.0</ele><time>2026-04-23T12:00:38Z</time></trkpt><trkpt lat="46.0524226126091" lon="12.119923599456472"><ele>494.0</ele><time>2026-04-23T12:00:39Z</time></trkpt><trkpt lat="46.05249509189967" lon="12.119840198205639"><ele>494.0</ele><time>2026-04-23T12:00:40Z</time></trkpt><trkpt lat="46.05257627613453" lon="12.119765592618482"><ele>494.0</ele><time>2026-04-23T12:00:41Z</time></trkpt><trkpt lat="46.05267435104986" lon="12.119699186745397"><ele>493.2</ele><time>2026-04-23T12:00:42Z</time></trkpt><trkpt lat="46.052770397084856" lon="12.119644466577336"><ele>492.4</ele><time>2026-04-23T12:00:43Z</time></trkpt><trkpt lat="46.05285645245211" lon="12.119586268038157"><ele>491.6</ele><time>2026-04-23T12:00:44Z</time></trkpt><trkpt lat="46.05293917636761" lon="12.119528753766067"><ele>490.8</ele><time>2026-04-23T12:00:45Z</time></trkpt><trkpt lat="46.053011890562246" lon="12.119457334208601"><ele>490.0</ele><time>2026-04-23T12:00:46Z</time></trkpt><trkpt lat="46.05306901313112" lon="12.119366024765107"><ele>490.00000000000006</ele><time>2026-04-23T12:00:47Z</time></trkpt><trkpt lat="46.05311126589222" lon="12.119281994166007"><ele>490.0</ele><time>2026-04-23T12:00:48Z</time></trkpt><trkpt lat="46.05315318763632" lon="12.119214320669817"><ele>490.0</ele><time>2026-04-23T12:00:49Z</time></trkpt><trkpt lat="46.053228117023096" lon="12.119111543694293"><ele>490.0</ele><time>2026-04-23T12:00:51Z</time></trkpt><trkpt lat="46.053283163147" lon="12.119033695729605"><ele>490.00000000000006</ele><time>2026-04-23T12:00:54Z</time></trkpt><trkpt lat="46.05334778211188" lon="12.118976633076656"><ele>490.0</ele><time>2026-04-23T12:01:15Z</time></trkpt><trkpt lat="46.05337181854831" lon="12.118802094330519"><ele>489.8</ele><time>2026-04-23T12:01:17Z</time></trkpt><trkpt lat="46.05336459124774" lon="12.118683343862925"><ele>489.6</ele><time>2026-04-23T12:01:18Z</time></trkpt><trkpt lat="46.05337139586712" lon="12.118541836068646"><ele>489.4</ele><time>2026-04-23T12:01:19Z</time></trkpt><trkpt lat="46.053371664235925" lon="12.118408326788176"><ele>489.2</ele><time>2026-04-23T12:01:20Z</time></trkpt><trkpt lat="46.05337481964729" lon="12.11828145069956"><ele>489.0</ele><time>2026-04-23T12:01:21Z</time></trkpt><trkpt lat="46.05339202762975" lon="12.118139520009855"><ele>488.0</ele><time>2026-04-23T12:01:22Z</time></trkpt><trkpt lat="46.05342892636125" lon="12.117992444556059"><ele>487.0</ele><time>2026-04-23T12:01:23Z</time></trkpt><trkpt lat="46.05347373323333" lon="12.117855330224257"><ele>486.0</ele><time>2026-04-23T12:01:24Z</time></trkpt><trkpt lat="46.05352222348735" lon="12.117719623696"><ele>485.0</ele><time>2026-04-23T12:01:25Z</time></trkpt><trkpt lat="46.05356967051844" lon="12.117619847278114"><ele>484.0</ele><time>2026-04-23T12:01:26Z</time></trkpt><trkpt lat="46.053615442750115" lon="12.11753912855334"><ele>484.00000000000006</ele><time>2026-04-23T12:01:27Z</time></trkpt><trkpt lat="46.05367972070353" lon="12.117437060147642"><ele>484.0</ele><time>2026-04-23T12:01:29Z</time></trkpt><trkpt lat="46.05375429467779" lon="12.117329362088036"><ele>484.0</ele><time>2026-04-23T12:01:32Z</time></trkpt><trkpt lat="46.0537990471565" lon="12.117250837956878"><ele>484.0</ele><time>2026-04-23T12:01:32.999Z</time></trkpt><trkpt lat="46.05385196465514" lon="12.117156553060173"><ele>484.00000000000006</ele><time>2026-04-23T12:01:33.999Z</time></trkpt><trkpt lat="46.0539088994692" lon="12.117062777600998"><ele>484.0</ele><time>2026-04-23T12:01:34.999Z</time></trkpt><trkpt lat="46.05396710062191" lon="12.116966102227341"><ele>483.6</ele><time>2026-04-23T12:01:35.999Z</time></trkpt><trkpt lat="46.05402498738283" lon="12.116867570995629"><ele>483.2</ele><time>2026-04-23T12:01:36.999Z</time></trkpt><trkpt lat="46.054080176420484" lon="12.116773444216918"><ele>482.80000000000007</ele><time>2026-04-23T12:01:37.999Z</time></trkpt><trkpt lat="46.05412739163168" lon="12.116696013608523"><ele>482.40000000000003</ele><time>2026-04-23T12:01:38.999Z</time></trkpt><trkpt lat="46.05417942493325" lon="12.116615590436892"><ele>482.0</ele><time>2026-04-23T12:01:40.999Z</time></trkpt><trkpt lat="46.054232142807415" lon="12.116834767101015"><ele>481.20000000000005</ele><time>2026-04-23T12:01:44.999Z</time></trkpt><trkpt lat="46.054255070766715" lon="12.116942795289674"><ele>480.40000000000003</ele><time>2026-04-23T12:01:45.999Z</time></trkpt><trkpt lat="46.05426247263225" lon="12.117067611821147"><ele>479.59999999999997</ele><time>2026-04-23T12:01:46.999Z</time></trkpt><trkpt lat="46.054286334724516" lon="12.117206002734935"><ele>478.79999999999995</ele><time>2026-04-23T12:01:47.999Z</time></trkpt><trkpt lat="46.054314408951804" lon="12.117349167760644"><ele>478.0</ele><time>2026-04-23T12:01:48.999Z</time></trkpt><trkpt lat="46.05434374769423" lon="12.117484912432126"><ele>478.00000000000006</ele><time>2026-04-23T12:01:49.999Z</time></trkpt><trkpt lat="46.05437286906071" lon="12.11760977944328"><ele>478.0</ele><time>2026-04-23T12:01:50.999Z</time></trkpt><trkpt lat="46.05439974666574" lon="12.117721889714852"><ele>478.0</ele><time>2026-04-23T12:01:51.999Z</time></trkpt><trkpt lat="46.054427552754824" lon="12.117825304632976"><ele>478.0</ele><time>2026-04-23T12:01:52.999Z</time></trkpt><trkpt lat="46.054452705420964" lon="12.117937290277236"><ele>478.00000000000006</ele><time>2026-04-23T12:01:53.999Z</time></trkpt><trkpt lat="46.05448431092767" lon="12.11807160813137"><ele>478.0</ele><time>2026-04-23T12:01:54.999Z</time></trkpt><trkpt lat="46.054524658945304" lon="12.11822071840053"><ele>478.75</ele><time>2026-04-23T12:01:55.999Z</time></trkpt><trkpt lat="46.05456199713717" lon="12.118375072778914"><ele>479.5</ele><time>2026-04-23T12:01:56.999Z</time></trkpt><trkpt lat="46.05459286553646" lon="12.118523202694867"><ele>480.25</ele><time>2026-04-23T12:01:57.999Z</time></trkpt><trkpt lat="46.05462931182509" lon="12.118678747538906"><ele>481.0</ele><time>2026-04-23T12:01:59Z</time></trkpt><trkpt lat="46.054692370862725" lon="12.118824007367811"><ele>481.0</ele><time>2026-04-23T12:02:00Z</time></trkpt><trkpt lat="46.05477701927668" lon="12.118970048998571"><ele>481.0</ele><time>2026-04-23T12:02:01Z</time></trkpt><trkpt lat="46.0548568991842" lon="12.119112814805181"><ele>481.0</ele><time>2026-04-23T12:02:02Z</time></trkpt><trkpt lat="46.05492060839374" lon="12.11925639531247"><ele>481.0</ele><time>2026-04-23T12:02:03Z</time></trkpt><trkpt lat="46.05497644900481" lon="12.119397598072593"><ele>480.20000000000005</ele><time>2026-04-23T12:02:04Z</time></trkpt><trkpt lat="46.05503043723133" lon="12.119531269958784"><ele>479.40000000000003</ele><time>2026-04-23T12:02:05Z</time></trkpt><trkpt lat="46.05507734425865" lon="12.119664477689565"><ele>478.6</ele><time>2026-04-23T12:02:06Z</time></trkpt><trkpt lat="46.05512622073109" lon="12.119789107269971"><ele>477.8</ele><time>2026-04-23T12:02:07Z</time></trkpt><trkpt lat="46.05517418535814" lon="12.119901249312303"><ele>477.0</ele><time>2026-04-23T12:02:08Z</time></trkpt><trkpt lat="46.05521982831564" lon="12.120011392801265"><ele>477.0</ele><time>2026-04-23T12:02:09Z</time></trkpt><trkpt lat="46.05525671449682" lon="12.12011713305388"><ele>477.00000000000006</ele><time>2026-04-23T12:02:10Z</time></trkpt><trkpt lat="46.055290863238405" lon="12.120203120800056"><ele>477.00000000000006</ele><time>2026-04-23T12:02:11Z</time></trkpt><trkpt lat="46.05533849708241" lon="12.120291729551825"><ele>477.0</ele><time>2026-04-23T12:02:13Z</time></trkpt><trkpt lat="46.05547496750698" lon="12.12011720955641"><ele>477.0</ele><time>2026-04-23T12:02:15Z</time></trkpt><trkpt lat="46.05550894855222" lon="12.120036716120168"><ele>477.0</ele><time>2026-04-23T12:02:16Z</time></trkpt><trkpt lat="46.05557308917436" lon="12.119963511885032"><ele>477.0</ele><time>2026-04-23T12:02:18Z</time></trkpt><trkpt lat="46.05564266419915" lon="12.119956464277395"><ele>477.0</ele><time>2026-04-23T12:02:19Z</time></trkpt><trkpt lat="46.05572493433615" lon="12.11998238436663"><ele>477.0</ele><time>2026-04-23T12:02:20Z</time></trkpt><trkpt lat="46.05580942840742" lon="12.120024360124564"><ele>477.0</ele><time>2026-04-23T12:02:21Z</time></trkpt><trkpt lat="46.0559189479716" lon="12.120068212841513"><ele>477.0</ele><time>2026-04-23T12:02:22Z</time></trkpt><trkpt lat="46.05602998987529" lon="12.120129997533846"><ele>475.20000000000005</ele><time>2026-04-23T12:02:23Z</time></trkpt><trkpt lat="46.056134766163495" lon="12.12019366454158"><ele>473.40000000000003</ele><time>2026-04-23T12:02:24Z</time></trkpt><trkpt lat="46.05622782277003" lon="12.120252237127357"><ele>471.59999999999997</ele><time>2026-04-23T12:02:25Z</time></trkpt><trkpt lat="46.05632918614432" lon="12.12030586085975"><ele>469.79999999999995</ele><time>2026-04-23T12:02:26Z</time></trkpt><trkpt lat="46.05641233675474" lon="12.12040431337199"><ele>468.0</ele><time>2026-04-23T12:02:27Z</time></trkpt><trkpt lat="46.05649237167544" lon="12.120506674562051"><ele>468.0</ele><time>2026-04-23T12:02:28Z</time></trkpt><trkpt lat="46.05655275901882" lon="12.12062421856003"><ele>467.99999999999994</ele><time>2026-04-23T12:02:29Z</time></trkpt><trkpt lat="46.05661312671167" lon="12.120759136421688"><ele>467.99999999999994</ele><time>2026-04-23T12:02:30Z</time></trkpt><trkpt lat="46.05666218798411" lon="12.120917312865865"><ele>468.0</ele><time>2026-04-23T12:02:31Z</time></trkpt><trkpt lat="46.05669557336189" lon="12.121066495342019"><ele>468.0</ele><time>2026-04-23T12:02:32Z</time></trkpt><trkpt lat="46.05672581894874" lon="12.121201272911843"><ele>467.2</ele><time>2026-04-23T12:02:33Z</time></trkpt><trkpt lat="46.056750565017616" lon="12.121309280333051"><ele>466.4</ele><time>2026-04-23T12:02:34Z</time></trkpt><trkpt lat="46.05678310262018" lon="12.121401531797149"><ele>465.59999999999997</ele><time>2026-04-23T12:02:35Z</time></trkpt><trkpt lat="46.05684560326311" lon="12.121503104789152"><ele>464.79999999999995</ele><time>2026-04-23T12:02:36Z</time></trkpt><trkpt lat="46.056929626400986" lon="12.121600860127993"><ele>464.0</ele><time>2026-04-23T12:02:37Z</time></trkpt><trkpt lat="46.05701397834948" lon="12.121694156330705"><ele>464.0</ele><time>2026-04-23T12:02:38Z</time></trkpt><trkpt lat="46.057101028047946" lon="12.1217877420157"><ele>464.0</ele><time>2026-04-23T12:02:39Z</time></trkpt><trkpt lat="46.05717962253518" lon="12.12189260647666"><ele>464.0</ele><time>2026-04-23T12:02:40Z</time></trkpt><trkpt lat="46.05725171959702" lon="12.122001032807185"><ele>464.0</ele><time>2026-04-23T12:02:41Z</time></trkpt><trkpt lat="46.05731939968507" lon="12.122096885787947"><ele>464.0</ele><time>2026-04-23T12:02:42Z</time></trkpt><trkpt lat="46.05738857285818" lon="12.122175761903522"><ele>461.2</ele><time>2026-04-23T12:02:43Z</time></trkpt><trkpt lat="46.05745406410555" lon="12.12224014102441"><ele>458.4</ele><time>2026-04-23T12:02:44Z</time></trkpt><trkpt lat="46.05754673970863" lon="12.12220262894901"><ele>455.6</ele><time>2026-04-23T12:02:45Z</time></trkpt><trkpt lat="46.057632044580416" lon="12.122154371685825"><ele>452.8</ele><time>2026-04-23T12:02:46Z</time></trkpt><trkpt lat="46.05765752240213" lon="12.121975462798343"><ele>450.0</ele><time>2026-04-23T12:02:47Z</time></trkpt><trkpt lat="46.05767818196134" lon="12.121827787711927"><ele>450.0</ele><time>2026-04-23T12:02:48Z</time></trkpt><trkpt lat="46.05773741578324" lon="12.121710875197612"><ele>450.0</ele><time>2026-04-23T12:02:49Z</time></trkpt><trkpt lat="46.05780237065508" lon="12.121597731269395"><ele>450.0</ele><time>2026-04-23T12:02:50Z</time></trkpt><trkpt lat="46.05788270289792" lon="12.121507717353547"><ele>450.0</ele><time>2026-04-23T12:02:51Z</time></trkpt><trkpt lat="46.05798231838466" lon="12.121444911345344"><ele>450.0</ele><time>2026-04-23T12:02:52Z</time></trkpt><trkpt lat="46.05809704398966" lon="12.121421583626207"><ele>449.6</ele><time>2026-04-23T12:02:53Z</time></trkpt><trkpt lat="46.0582053793526" lon="12.12138167499812"><ele>449.2</ele><time>2026-04-23T12:02:54Z</time></trkpt><trkpt lat="46.05831366664009" lon="12.121341786075964"><ele>448.79999999999995</ele><time>2026-04-23T12:02:55Z</time></trkpt><trkpt lat="46.058418328999046" lon="12.121300565868022"><ele>448.4</ele><time>2026-04-23T12:02:56Z</time></trkpt><trkpt lat="46.058524667324875" lon="12.121350937154304"><ele>448.0</ele><time>2026-04-23T12:02:57Z</time></trkpt><trkpt lat="46.05863802879103" lon="12.121403236557768"><ele>445.0</ele><time>2026-04-23T12:02:58Z</time></trkpt><trkpt lat="46.05875724448742" lon="12.121423433592074"><ele>442.0</ele><time>2026-04-23T12:02:59Z</time></trkpt><trkpt lat="46.05887325352107" lon="12.121458816965616"><ele>439.0</ele><time>2026-04-23T12:03:00Z</time></trkpt><trkpt lat="46.058986342645156" lon="12.121478385115159"><ele>436.0</ele><time>2026-04-23T12:03:01Z</time></trkpt><trkpt lat="46.05909523383007" lon="12.121498874330037"><ele>432.5</ele><time>2026-04-23T12:03:02Z</time></trkpt><trkpt lat="46.05921039889241" lon="12.121521718745191"><ele>429.0</ele><time>2026-04-23T12:03:03Z</time></trkpt><trkpt lat="46.05931830027339" lon="12.1215598721037"><ele>425.5</ele><time>2026-04-23T12:03:04Z</time></trkpt><trkpt lat="46.059437053955385" lon="12.121551752836517"><ele>422.0</ele><time>2026-04-23T12:03:05Z</time></trkpt><trkpt lat="46.05955336353929" lon="12.121524631990233"><ele>422.0</ele><time>2026-04-23T12:03:06Z</time></trkpt><trkpt lat="46.05966934085693" lon="12.121515952087453"><ele>422.0</ele><time>2026-04-23T12:03:07Z</time></trkpt><trkpt lat="46.05978512767584" lon="12.121529469793218"><ele>422.0</ele><time>2026-04-23T12:03:08Z</time></trkpt><trkpt lat="46.059903066442736" lon="12.121559274721639"><ele>422.0</ele><time>2026-04-23T12:03:09Z</time></trkpt><trkpt lat="46.06001958705514" lon="12.121587259502562"><ele>419.75</ele><time>2026-04-23T12:03:10Z</time></trkpt><trkpt lat="46.06013199998435" lon="12.121528508727597"><ele>417.5</ele><time>2026-04-23T12:03:11Z</time></trkpt><trkpt lat="46.0602397740935" lon="12.121437002823797"><ele>415.25</ele><time>2026-04-23T12:03:12Z</time></trkpt><trkpt lat="46.06032825464306" lon="12.121290947666665"><ele>413.0</ele><time>2026-04-23T12:03:13Z</time></trkpt><trkpt lat="46.0604019030975" lon="12.121107676150897"><ele>413.0</ele><time>2026-04-23T12:03:14Z</time></trkpt><trkpt lat="46.060473892452166" lon="12.12093459767972"><ele>413.0</ele><time>2026-04-23T12:03:15Z</time></trkpt><trkpt lat="46.06055643428301" lon="12.120795173744717"><ele>413.0</ele><time>2026-04-23T12:03:16Z</time></trkpt><trkpt lat="46.06062446847066" lon="12.120647665265327"><ele>413.0</ele><time>2026-04-23T12:03:17Z</time></trkpt><trkpt lat="46.06071081505462" lon="12.120531598370475"><ele>409.5</ele><time>2026-04-23T12:03:18Z</time></trkpt><trkpt lat="46.060803542656664" lon="12.12041145989219"><ele>406.0</ele><time>2026-04-23T12:03:19Z</time></trkpt><trkpt lat="46.06090651451363" lon="12.120336922881041"><ele>402.5</ele><time>2026-04-23T12:03:20Z</time></trkpt><trkpt lat="46.0610108772204" lon="12.120273627919891"><ele>399.0</ele><time>2026-04-23T12:03:21Z</time></trkpt><trkpt lat="46.06111751059878" lon="12.12020016118144"><ele>399.0</ele><time>2026-04-23T12:03:22Z</time></trkpt><trkpt lat="46.06122212978488" lon="12.120134457019228"><ele>399.0</ele><time>2026-04-23T12:03:23Z</time></trkpt><trkpt lat="46.061315201012206" lon="12.120019140572774"><ele>399.0</ele><time>2026-04-23T12:03:24Z</time></trkpt><trkpt lat="46.06137999470076" lon="12.119873032660411"><ele>399.0</ele><time>2026-04-23T12:03:25Z</time></trkpt><trkpt lat="46.061425054073645" lon="12.119718128939954"><ele>399.2</ele><time>2026-04-23T12:03:26Z</time></trkpt><trkpt lat="46.06145513467756" lon="12.119568140107596"><ele>399.4</ele><time>2026-04-23T12:03:27Z</time></trkpt><trkpt lat="46.06149253383916" lon="12.119433887676282"><ele>399.6</ele><time>2026-04-23T12:03:28Z</time></trkpt><trkpt lat="46.06157428411647" lon="12.11934906006856"><ele>399.8</ele><time>2026-04-23T12:03:29Z</time></trkpt><trkpt lat="46.061655729445825" lon="12.119279284404511"><ele>400.0</ele><time>2026-04-23T12:03:30Z</time></trkpt><trkpt lat="46.061742678873514" lon="12.11918801014566"><ele>396.5</ele><time>2026-04-23T12:03:31Z</time></trkpt><trkpt lat="46.06184943613387" lon="12.119117875537198"><ele>393.0</ele><time>2026-04-23T12:03:32Z</time></trkpt><trkpt lat="46.061948441799814" lon="12.119019906136566"><ele>389.5</ele><time>2026-04-23T12:03:33Z</time></trkpt><trkpt lat="46.0620457001053" lon="12.11889228279815"><ele>386.0</ele><time>2026-04-23T12:03:34Z</time></trkpt><trkpt lat="46.06213992914771" lon="12.118770080695377"><ele>385.75</ele><time>2026-04-23T12:03:35Z</time></trkpt><trkpt lat="46.06221719398559" lon="12.11864785283652"><ele>385.5</ele><time>2026-04-23T12:03:36Z</time></trkpt><trkpt lat="46.06228547459901" lon="12.118518706276305"><ele>385.25</ele><time>2026-04-23T12:03:37Z</time></trkpt><trkpt lat="46.06233301687117" lon="12.11836994493175"><ele>385.0</ele><time>2026-04-23T12:03:38Z</time></trkpt><trkpt lat="46.06235420121962" lon="12.118199673236575"><ele>385.75</ele><time>2026-04-23T12:03:39Z</time></trkpt><trkpt lat="46.06237314052185" lon="12.118021600544969"><ele>386.5</ele><time>2026-04-23T12:03:40Z</time></trkpt><trkpt lat="46.06239493452588" lon="12.117846358659657"><ele>387.25</ele><time>2026-04-23T12:03:41Z</time></trkpt><trkpt lat="46.062406027971775" lon="12.117696342316918"><ele>388.0</ele><time>2026-04-23T12:03:42Z</time></trkpt><trkpt lat="46.06242325798725" lon="12.11755220581203"><ele>387.79999999999995</ele><time>2026-04-23T12:03:43Z</time></trkpt><trkpt lat="46.06243260579766" lon="12.117378355705196"><ele>387.6</ele><time>2026-04-23T12:03:44Z</time></trkpt><trkpt lat="46.06243780139825" lon="12.117209490496075"><ele>387.4</ele><time>2026-04-23T12:03:45Z</time></trkpt><trkpt lat="46.06244036338115" lon="12.117055945607053"><ele>387.20000000000005</ele><time>2026-04-23T12:03:46Z</time></trkpt><trkpt lat="46.062442220055026" lon="12.11690844592534"><ele>387.0</ele><time>2026-04-23T12:03:47Z</time></trkpt><trkpt lat="46.062439348994175" lon="12.116767497263583"><ele>386.6</ele><time>2026-04-23T12:03:48Z</time></trkpt><trkpt lat="46.06245490351539" lon="12.116633245054917"><ele>386.20000000000005</ele><time>2026-04-23T12:03:49Z</time></trkpt><trkpt lat="46.0624484016904" lon="12.116499089963954"><ele>385.8</ele><time>2026-04-23T12:03:50Z</time></trkpt><trkpt lat="46.06243265695972" lon="12.11636820147903"><ele>385.4</ele><time>2026-04-23T12:03:51Z</time></trkpt><trkpt lat="46.06241223509189" lon="12.116243779011704"><ele>385.0</ele><time>2026-04-23T12:03:52Z</time></trkpt><trkpt lat="46.06239920836414" lon="12.116116659920653"><ele>385.0</ele><time>2026-04-23T12:03:53Z</time></trkpt><trkpt lat="46.06239539451532" lon="12.115975945019319"><ele>385.0</ele><time>2026-04-23T12:03:54Z</time></trkpt><trkpt lat="46.062402719225986" lon="12.11582118419863"><ele>385.0</ele><time>2026-04-23T12:03:55Z</time></trkpt><trkpt lat="46.06242261153421" lon="12.115659785081922"><ele>385.0</ele><time>2026-04-23T12:03:56Z</time></trkpt><trkpt lat="46.06244782633288" lon="12.115507242478026"><ele>385.0</ele><time>2026-04-23T12:03:57Z</time></trkpt><trkpt lat="46.0624883429804" lon="12.11537004262987"><ele>381.75</ele><time>2026-04-23T12:03:58Z</time></trkpt><trkpt lat="46.0625559539693" lon="12.115237549300026"><ele>378.5</ele><time>2026-04-23T12:03:59Z</time></trkpt><trkpt lat="46.062623932238914" lon="12.115098828775253"><ele>375.25</ele><time>2026-04-23T12:04:00Z</time></trkpt><trkpt lat="46.062692640937335" lon="12.114969137554176"><ele>372.0</ele><time>2026-04-23T12:04:01Z</time></trkpt><trkpt lat="46.0627690212495" lon="12.114854317149053"><ele>371.0</ele><time>2026-04-23T12:04:02Z</time></trkpt><trkpt lat="46.06286178886659" lon="12.114745646021545"><ele>370.0</ele><time>2026-04-23T12:04:03Z</time></trkpt><trkpt lat="46.062945100199045" lon="12.114629734363533"><ele>369.0</ele><time>2026-04-23T12:04:04Z</time></trkpt><trkpt lat="46.06302918832092" lon="12.114525011827471"><ele>368.0</ele><time>2026-04-23T12:04:05Z</time></trkpt><trkpt lat="46.063116282231945" lon="12.114414651323116"><ele>368.0</ele><time>2026-04-23T12:04:06Z</time></trkpt><trkpt lat="46.06320238280872" lon="12.114297549231981"><ele>368.0</ele><time>2026-04-23T12:04:07Z</time></trkpt><trkpt lat="46.06327074200449" lon="12.114178050307986"><ele>368.0</ele><time>2026-04-23T12:04:08Z</time></trkpt><trkpt lat="46.063329156605924" lon="12.114066058180997"><ele>368.0</ele><time>2026-04-23T12:04:09Z</time></trkpt><trkpt lat="46.063388596249055" lon="12.113962811308703"><ele>368.0</ele><time>2026-04-23T12:04:10Z</time></trkpt><trkpt lat="46.06346491972453" lon="12.113884069197745"><ele>366.79999999999995</ele><time>2026-04-23T12:04:11Z</time></trkpt><trkpt lat="46.063530295450626" lon="12.113783171022556"><ele>365.6</ele><time>2026-04-23T12:04:12Z</time></trkpt><trkpt lat="46.06359242269344" lon="12.11369661016633"><ele>364.4</ele><time>2026-04-23T12:04:13Z</time></trkpt><trkpt lat="46.063701431629106" lon="12.11362515202621"><ele>363.20000000000005</ele><time>2026-04-23T12:04:15Z</time></trkpt><trkpt lat="46.06382292607166" lon="12.113729925051166"><ele>362.0</ele><time>2026-04-23T12:04:16Z</time></trkpt><trkpt lat="46.063914059250635" lon="12.113821747451725"><ele>362.0</ele><time>2026-04-23T12:04:17Z</time></trkpt><trkpt lat="46.06399138105795" lon="12.113950003451034"><ele>362.0</ele><time>2026-04-23T12:04:18Z</time></trkpt><trkpt lat="46.06408269581702" lon="12.114080475163453"><ele>362.0</ele><time>2026-04-23T12:04:19Z</time></trkpt><trkpt lat="46.06418170229222" lon="12.114214891965922"><ele>362.0</ele><time>2026-04-23T12:04:20Z</time></trkpt><trkpt lat="46.064274682058915" lon="12.114339288995964"><ele>361.5</ele><time>2026-04-23T12:04:21Z</time></trkpt><trkpt lat="46.06434492338693" lon="12.1144332906952"><ele>361.0</ele><time>2026-04-23T12:04:22Z</time></trkpt><trkpt lat="46.06445105107162" lon="12.114568867088517"><ele>360.5</ele><time>2026-04-23T12:04:23Z</time></trkpt><trkpt lat="46.06454253820969" lon="12.114689781404346"><ele>360.0</ele><time>2026-04-23T12:04:24Z</time></trkpt><trkpt lat="46.06462406275307" lon="12.114818512358854"><ele>359.0</ele><time>2026-04-23T12:04:25Z</time></trkpt><trkpt lat="46.064691758781095" lon="12.114953566813272"><ele>358.0</ele><time>2026-04-23T12:04:26Z</time></trkpt><trkpt lat="46.06475122578986" lon="12.11509332988721"><ele>357.0</ele><time>2026-04-23T12:04:27Z</time></trkpt><trkpt lat="46.06481501921854" lon="12.115229907244778"><ele>356.0</ele><time>2026-04-23T12:04:28Z</time></trkpt><trkpt lat="46.06489310181541" lon="12.115357554140054"><ele>354.75</ele><time>2026-04-23T12:04:29Z</time></trkpt><trkpt lat="46.06499525378525" lon="12.11545859731026"><ele>353.5</ele><time>2026-04-23T12:04:30Z</time></trkpt><trkpt lat="46.065123623673884" lon="12.115515130859048"><ele>352.25</ele><time>2026-04-23T12:04:31Z</time></trkpt><trkpt lat="46.06526280266282" lon="12.115531403462706"><ele>351.0</ele><time>2026-04-23T12:04:32Z</time></trkpt><trkpt lat="46.06539430085945" lon="12.115536591997895"><ele>351.0</ele><time>2026-04-23T12:04:33Z</time></trkpt><trkpt lat="46.06551675720852" lon="12.115542363660994"><ele>351.0</ele><time>2026-04-23T12:04:34Z</time></trkpt><trkpt lat="46.06563186762201" lon="12.1155379562302"><ele>351.0</ele><time>2026-04-23T12:04:35Z</time></trkpt><trkpt lat="46.065751918252516" lon="12.115524577040093"><ele>351.0</ele><time>2026-04-23T12:04:36Z</time></trkpt><trkpt lat="46.065868969332044" lon="12.115509999010424"><ele>349.5</ele><time>2026-04-23T12:04:37Z</time></trkpt><trkpt lat="46.06597225872955" lon="12.115500709986582"><ele>348.0</ele><time>2026-04-23T12:04:38Z</time></trkpt><trkpt lat="46.06606976303077" lon="12.115486545661659"><ele>346.5</ele><time>2026-04-23T12:04:39Z</time></trkpt><trkpt lat="46.06618737114635" lon="12.115440085474999"><ele>345.0</ele><time>2026-04-23T12:04:40Z</time></trkpt><trkpt lat="46.066318523487936" lon="12.115398225297044"><ele>345.0</ele><time>2026-04-23T12:04:41Z</time></trkpt><trkpt lat="46.0664436665856" lon="12.115354454661338"><ele>345.0</ele><time>2026-04-23T12:04:42Z</time></trkpt><trkpt lat="46.0665483314175" lon="12.115318812395559"><ele>345.0</ele><time>2026-04-23T12:04:43Z</time></trkpt><trkpt lat="46.06664908539818" lon="12.11528425666297"><ele>345.0</ele><time>2026-04-23T12:04:44Z</time></trkpt><trkpt lat="46.066754286112044" lon="12.115254582980201"><ele>345.0</ele><time>2026-04-23T12:04:45Z</time></trkpt><trkpt lat="46.066858470720895" lon="12.115244310516598"><ele>345.2</ele><time>2026-04-23T12:04:46Z</time></trkpt><trkpt lat="46.06695887504793" lon="12.11521460392051"><ele>345.4</ele><time>2026-04-23T12:04:47Z</time></trkpt><trkpt lat="46.06705597594152" lon="12.115185874703979"><ele>345.6</ele><time>2026-04-23T12:04:48Z</time></trkpt><trkpt lat="46.06715424952358" lon="12.115133547508394"><ele>345.8</ele><time>2026-04-23T12:04:49Z</time></trkpt><trkpt lat="46.067262175878305" lon="12.115107845108371"><ele>346.0</ele><time>2026-04-23T12:04:50Z</time></trkpt><trkpt lat="46.06738310140497" lon="12.115078577012405"><ele>346.0</ele><time>2026-04-23T12:04:51Z</time></trkpt><trkpt lat="46.067507610310145" lon="12.115046050874884"><ele>346.0</ele><time>2026-04-23T12:04:52Z</time></trkpt><trkpt lat="46.06764109606524" lon="12.11499220920119"><ele>346.0</ele><time>2026-04-23T12:04:53Z</time></trkpt><trkpt lat="46.06777997446713" lon="12.114913254312116"><ele>346.0</ele><time>2026-04-23T12:04:54Z</time></trkpt><trkpt lat="46.06792476350388" lon="12.114819307178038"><ele>346.75</ele><time>2026-04-23T12:04:55Z</time></trkpt><trkpt lat="46.06805677427214" lon="12.114721415417378"><ele>347.5</ele><time>2026-04-23T12:04:56Z</time></trkpt><trkpt lat="46.06818148648244" lon="12.11462071851838"><ele>348.25</ele><time>2026-04-23T12:04:57Z</time></trkpt><trkpt lat="46.06830881909616" lon="12.11451420650801"><ele>349.0</ele><time>2026-04-23T12:04:58Z</time></trkpt><trkpt lat="46.06842929994995" lon="12.114410415886075"><ele>349.0</ele><time>2026-04-23T12:04:59Z</time></trkpt><trkpt lat="46.06853529078816" lon="12.114319810910963"><ele>349.0</ele><time>2026-04-23T12:05:00Z</time></trkpt><trkpt lat="46.06862740412441" lon="12.11422656124208"><ele>349.0</ele><time>2026-04-23T12:05:01Z</time></trkpt><trkpt lat="46.068714082361225" lon="12.114136133146427"><ele>349.0</ele><time>2026-04-23T12:05:02Z</time></trkpt><trkpt lat="46.068784623338885" lon="12.114028481495088"><ele>349.0</ele><time>2026-04-23T12:05:03Z</time></trkpt><trkpt lat="46.06886507114086" lon="12.113937933033409"><ele>349.6</ele><time>2026-04-23T12:05:04Z</time></trkpt><trkpt lat="46.068965458167014" lon="12.11386077991467"><ele>350.2</ele><time>2026-04-23T12:05:05Z</time></trkpt><trkpt lat="46.069070162291645" lon="12.113805657131355"><ele>350.8</ele><time>2026-04-23T12:05:06Z</time></trkpt><trkpt lat="46.06916893131485" lon="12.113759177042112"><ele>351.40000000000003</ele><time>2026-04-23T12:05:07Z</time></trkpt><trkpt lat="46.069256828441745" lon="12.113719658117908"><ele>352.0</ele><time>2026-04-23T12:05:08Z</time></trkpt><trkpt lat="46.069340763762185" lon="12.113674956202432"><ele>350.20000000000005</ele><time>2026-04-23T12:05:09Z</time></trkpt><trkpt lat="46.06942353541892" lon="12.113641727322978"><ele>348.4</ele><time>2026-04-23T12:05:10Z</time></trkpt><trkpt lat="46.06950643998533" lon="12.113605977896956"><ele>346.6</ele><time>2026-04-23T12:05:11Z</time></trkpt><trkpt lat="46.06957440565396" lon="12.113581511860007"><ele>344.79999999999995</ele><time>2026-04-23T12:05:12Z</time></trkpt><trkpt lat="46.06958407555242" lon="12.11331341851403"><ele>343.0</ele><time>2026-04-23T12:05:14Z</time></trkpt><trkpt lat="46.069558744326805" lon="12.113186383210532"><ele>342.25</ele><time>2026-04-23T12:05:15Z</time></trkpt><trkpt lat="46.069535836295614" lon="12.113049309788774"><ele>341.5</ele><time>2026-04-23T12:05:16Z</time></trkpt><trkpt lat="46.069512966395486" lon="12.112898243850088"><ele>340.75</ele><time>2026-04-23T12:05:17Z</time></trkpt><trkpt lat="46.06949600975131" lon="12.112725110518783"><ele>340.0</ele><time>2026-04-23T12:05:18Z</time></trkpt><trkpt lat="46.06945376744686" lon="12.112548395611453"><ele>339.75</ele><time>2026-04-23T12:05:19Z</time></trkpt><trkpt lat="46.069406624690735" lon="12.112360127489675"><ele>339.5</ele><time>2026-04-23T12:05:20Z</time></trkpt><trkpt lat="46.069360041930814" lon="12.112172440058565"><ele>339.25</ele><time>2026-04-23T12:05:21Z</time></trkpt><trkpt lat="46.06931878595051" lon="12.112012347214772"><ele>339.0</ele><time>2026-04-23T12:05:22Z</time></trkpt><trkpt lat="46.0692806452916" lon="12.111864476315338"><ele>339.0</ele><time>2026-04-23T12:05:23Z</time></trkpt><trkpt lat="46.069246241251754" lon="12.111728520870289"><ele>339.0</ele><time>2026-04-23T12:05:24Z</time></trkpt><trkpt lat="46.0692137416572" lon="12.111602231804094"><ele>339.0</ele><time>2026-04-23T12:05:25Z</time></trkpt><trkpt lat="46.06918945264971" lon="12.111494174421289"><ele>339.0</ele><time>2026-04-23T12:05:26Z</time></trkpt><trkpt lat="46.06901743101102" lon="12.111452079673224"><ele>339.0</ele><time>2026-04-23T12:05:28Z</time></trkpt><trkpt lat="46.06894409279391" lon="12.111521284838311"><ele>339.2</ele><time>2026-04-23T12:05:30Z</time></trkpt><trkpt lat="46.06887517383156" lon="12.111564646193973"><ele>339.4</ele><time>2026-04-23T12:05:36Z</time></trkpt><trkpt lat="46.06885602800831" lon="12.111696654379948"><ele>339.6</ele><time>2026-04-23T12:05:37Z</time></trkpt><trkpt lat="46.0688684905452" lon="12.111859015866902"><ele>339.8</ele><time>2026-04-23T12:05:38Z</time></trkpt><trkpt lat="46.06888669429152" lon="12.112009478112071"><ele>340.0</ele><time>2026-04-23T12:05:39Z</time></trkpt><trkpt lat="46.06889741240835" lon="12.112167389680929"><ele>341.5</ele><time>2026-04-23T12:05:40Z</time></trkpt><trkpt lat="46.06890849439273" lon="12.112343108950903"><ele>343.0</ele><time>2026-04-23T12:05:41Z</time></trkpt><trkpt lat="46.068919045645025" lon="12.112531543476205"><ele>344.5</ele><time>2026-04-23T12:05:42Z</time></trkpt><trkpt lat="46.06894053201003" lon="12.112733278502564"><ele>346.0</ele><time>2026-04-23T12:05:43Z</time></trkpt><trkpt lat="46.068959179779604" lon="12.112944575456476"><ele>347.3333333333333</ele><time>2026-04-23T12:05:44Z</time></trkpt><trkpt lat="46.06897890941653" lon="12.113169824720824"><ele>348.6666666666667</ele><time>2026-04-23T12:05:45Z</time></trkpt><trkpt lat="46.068992351451854" lon="12.11340044914301"><ele>350.0</ele><time>2026-04-23T12:05:46Z</time></trkpt><trkpt lat="46.06900759415965" lon="12.113635319196566"><ele>349.6666666666667</ele><time>2026-04-23T12:05:47Z</time></trkpt><trkpt lat="46.069022034682284" lon="12.113877990742296"><ele>349.3333333333333</ele><time>2026-04-23T12:05:48Z</time></trkpt><trkpt lat="46.069033483397725" lon="12.114122148864686"><ele>349.0</ele><time>2026-04-23T12:05:49Z</time></trkpt><trkpt lat="46.06904136939491" lon="12.11435954625121"><ele>349.0</ele><time>2026-04-23T12:05:50Z</time></trkpt><trkpt lat="46.0690594612464" lon="12.114599685750921"><ele>349.0</ele><time>2026-04-23T12:05:51Z</time></trkpt><trkpt lat="46.06907157885887" lon="12.114849949344586"><ele>349.0</ele><time>2026-04-23T12:05:52Z</time></trkpt><trkpt lat="46.06908728073584" lon="12.115100821460302"><ele>347.0</ele><time>2026-04-23T12:05:53Z</time></trkpt><trkpt lat="46.06910350102352" lon="12.115361028019688"><ele>345.0</ele><time>2026-04-23T12:05:54Z</time></trkpt><trkpt lat="46.069122800277846" lon="12.115627270831517"><ele>343.0</ele><time>2026-04-23T12:05:55Z</time></trkpt><trkpt lat="46.06914803474959" lon="12.115905036209098"><ele>339.66666666666663</ele><time>2026-04-23T12:05:56Z</time></trkpt><trkpt lat="46.06918335506902" lon="12.116164746165659"><ele>336.3333333333333</ele><time>2026-04-23T12:05:57Z</time></trkpt><trkpt lat="46.069220963633164" lon="12.116414943775139"><ele>333.0</ele><time>2026-04-23T12:05:58Z</time></trkpt><trkpt lat="46.06926041449867" lon="12.116668768129271"><ele>332.6666666666667</ele><time>2026-04-23T12:05:59Z</time></trkpt><trkpt lat="46.06930558218675" lon="12.116920596981931"><ele>332.33333333333337</ele><time>2026-04-23T12:06:00Z</time></trkpt><trkpt lat="46.06935837522416" lon="12.117172493451795"><ele>332.0</ele><time>2026-04-23T12:06:01Z</time></trkpt><trkpt lat="46.06941318728129" lon="12.117420089514326"><ele>334.6666666666667</ele><time>2026-04-23T12:06:02Z</time></trkpt><trkpt lat="46.069470712522204" lon="12.117664224770142"><ele>337.3333333333333</ele><time>2026-04-23T12:06:03Z</time></trkpt><trkpt lat="46.06953320709638" lon="12.117906761697359"><ele>340.0</ele><time>2026-04-23T12:06:04Z</time></trkpt><trkpt lat="46.069606946188195" lon="12.118142283740825"><ele>342.0</ele><time>2026-04-23T12:06:05Z</time></trkpt><trkpt lat="46.069693629313186" lon="12.118374310080078"><ele>344.0</ele><time>2026-04-23T12:06:06Z</time></trkpt><trkpt lat="46.06978495134831" lon="12.118595824038215"><ele>346.0</ele><time>2026-04-23T12:06:07Z</time></trkpt><trkpt lat="46.06987883002299" lon="12.118826789674054"><ele>345.0</ele><time>2026-04-23T12:06:08Z</time></trkpt><trkpt lat="46.069970507021914" lon="12.119054548719534"><ele>344.0</ele><time>2026-04-23T12:06:09Z</time></trkpt><trkpt lat="46.07006172017842" lon="12.119279670044824"><ele>343.0</ele><time>2026-04-23T12:06:10Z</time></trkpt><trkpt lat="46.07015509518762" lon="12.119508624682167"><ele>343.0</ele><time>2026-04-23T12:06:11Z</time></trkpt><trkpt lat="46.07024786215424" lon="12.119741332370356"><ele>343.0</ele><time>2026-04-23T12:06:12Z</time></trkpt><trkpt lat="46.070340398475174" lon="12.119973391695902"><ele>343.0</ele><time>2026-04-23T12:06:13Z</time></trkpt><trkpt lat="46.070435458035234" lon="12.12020017130095"><ele>343.0</ele><time>2026-04-23T12:06:14Z</time></trkpt><trkpt lat="46.070525576024025" lon="12.120423299910751"><ele>343.0</ele><time>2026-04-23T12:06:15Z</time></trkpt><trkpt lat="46.07060674601809" lon="12.120654208696319"><ele>343.0</ele><time>2026-04-23T12:06:16Z</time></trkpt><trkpt lat="46.07067991850045" lon="12.120891636444105"><ele>342.66666666666663</ele><time>2026-04-23T12:06:17Z</time></trkpt><trkpt lat="46.07074922220395" lon="12.121133838553497"><ele>342.3333333333333</ele><time>2026-04-23T12:06:18Z</time></trkpt><trkpt lat="46.070817188020435" lon="12.121374284591866"><ele>342.0</ele><time>2026-04-23T12:06:19Z</time></trkpt><trkpt lat="46.07088263963598" lon="12.121611747568213"><ele>342.0</ele><time>2026-04-23T12:06:20Z</time></trkpt><trkpt lat="46.07094420493504" lon="12.121851141208731"><ele>342.0</ele><time>2026-04-23T12:06:21Z</time></trkpt><trkpt lat="46.07100296072967" lon="12.122090560339494"><ele>342.0</ele><time>2026-04-23T12:06:22Z</time></trkpt><trkpt lat="46.0710627626586" lon="12.122330957135421"><ele>342.0</ele><time>2026-04-23T12:06:23Z</time></trkpt><trkpt lat="46.071122820835946" lon="12.122568065872395"><ele>342.0</ele><time>2026-04-23T12:06:24Z</time></trkpt><trkpt lat="46.071186159470166" lon="12.122805181860084"><ele>342.0</ele><time>2026-04-23T12:06:25Z</time></trkpt><trkpt lat="46.07125034100783" lon="12.12304514979677"><ele>342.6666666666667</ele><time>2026-04-23T12:06:26Z</time></trkpt><trkpt lat="46.07131293589326" lon="12.12328329083722"><ele>343.33333333333337</ele><time>2026-04-23T12:06:27Z</time></trkpt><trkpt lat="46.07137676488103" lon="12.123521898349013"><ele>344.0</ele><time>2026-04-23T12:06:28Z</time></trkpt><trkpt lat="46.071437775988215" lon="12.123758291503517"><ele>344.0</ele><time>2026-04-23T12:06:29Z</time></trkpt><trkpt lat="46.071496654348884" lon="12.123989850394146"><ele>344.0</ele><time>2026-04-23T12:06:30Z</time></trkpt><trkpt lat="46.07155557584744" lon="12.124205774635229"><ele>344.0</ele><time>2026-04-23T12:06:31Z</time></trkpt><trkpt lat="46.071643990431625" lon="12.124381800316725"><ele>344.33333333333337</ele><time>2026-04-23T12:06:32Z</time></trkpt><trkpt lat="46.07170167529229" lon="12.12460152041979"><ele>344.6666666666667</ele><time>2026-04-23T12:06:33Z</time></trkpt><trkpt lat="46.07173165345484" lon="12.124827631638006"><ele>345.0</ele><time>2026-04-23T12:06:34Z</time></trkpt><trkpt lat="46.07178734419233" lon="12.125036651218075"><ele>345.0</ele><time>2026-04-23T12:06:35Z</time></trkpt><trkpt lat="46.07184076038324" lon="12.125242442629485"><ele>345.0</ele><time>2026-04-23T12:06:36Z</time></trkpt><trkpt lat="46.07189280733341" lon="12.125449949657968"><ele>345.0</ele><time>2026-04-23T12:06:37Z</time></trkpt><trkpt lat="46.07195243592034" lon="12.125658758590221"><ele>345.6666666666667</ele><time>2026-04-23T12:06:38Z</time></trkpt><trkpt lat="46.07200883733043" lon="12.125869017776825"><ele>346.33333333333337</ele><time>2026-04-23T12:06:39Z</time></trkpt><trkpt lat="46.07206316004917" lon="12.126085877609858"><ele>347.0</ele><time>2026-04-23T12:06:40Z</time></trkpt><trkpt lat="46.072119912155024" lon="12.12630862218502"><ele>347.0</ele><time>2026-04-23T12:06:41Z</time></trkpt><trkpt lat="46.07217537327243" lon="12.126521790546773"><ele>347.0</ele><time>2026-04-23T12:06:42Z</time></trkpt><trkpt lat="46.07222631143489" lon="12.126717707696024"><ele>347.0</ele><time>2026-04-23T12:06:43Z</time></trkpt><trkpt lat="46.07227759756867" lon="12.126906845572092"><ele>347.0</ele><time>2026-04-23T12:06:44Z</time></trkpt><trkpt lat="46.072328640733886" lon="12.12708923320196"><ele>347.0</ele><time>2026-04-23T12:06:45Z</time></trkpt><trkpt lat="46.072379405264066" lon="12.127277901250348"><ele>347.0</ele><time>2026-04-23T12:06:46Z</time></trkpt><trkpt lat="46.07242145166436" lon="12.12747002239453"><ele>347.0</ele><time>2026-04-23T12:06:47Z</time></trkpt><trkpt lat="46.07247267512611" lon="12.127670969316886"><ele>347.0</ele><time>2026-04-23T12:06:48Z</time></trkpt><trkpt lat="46.07252888174001" lon="12.127874386733742"><ele>346.75</ele><time>2026-04-23T12:06:49Z</time></trkpt><trkpt lat="46.07258398660943" lon="12.128077215806908"><ele>346.5</ele><time>2026-04-23T12:06:50Z</time></trkpt><trkpt lat="46.07263758959242" lon="12.128273214007704"><ele>346.25</ele><time>2026-04-23T12:06:51Z</time></trkpt><trkpt lat="46.07268653657512" lon="12.128470125727011"><ele>346.0</ele><time>2026-04-23T12:06:52Z</time></trkpt><trkpt lat="46.07274022750488" lon="12.128658523155805"><ele>346.0</ele><time>2026-04-23T12:06:53Z</time></trkpt><trkpt lat="46.0727904516692" lon="12.128846159818195"><ele>346.0</ele><time>2026-04-23T12:06:54Z</time></trkpt><trkpt lat="46.07283841064923" lon="12.129033166472057"><ele>346.0</ele><time>2026-04-23T12:06:55Z</time></trkpt><trkpt lat="46.07288384697701" lon="12.129218283748777"><ele>346.0</ele><time>2026-04-23T12:06:56Z</time></trkpt><trkpt lat="46.072931676796266" lon="12.129403594379282"><ele>345.75</ele><time>2026-04-23T12:06:57Z</time></trkpt><trkpt lat="46.072978569193566" lon="12.129589123207543"><ele>345.5</ele><time>2026-04-23T12:06:58Z</time></trkpt><trkpt lat="46.07302857972189" lon="12.129773318773637"><ele>345.25</ele><time>2026-04-23T12:06:59Z</time></trkpt><trkpt lat="46.073075253496114" lon="12.129956984785064"><ele>345.0</ele><time>2026-04-23T12:07:00Z</time></trkpt><trkpt lat="46.073119153444466" lon="12.130128735875441"><ele>345.4</ele><time>2026-04-23T12:07:01Z</time></trkpt><trkpt lat="46.07315864745676" lon="12.130287571569205"><ele>345.8</ele><time>2026-04-23T12:07:02Z</time></trkpt><trkpt lat="46.07319822487617" lon="12.130437013399641"><ele>346.20000000000005</ele><time>2026-04-23T12:07:03Z</time></trkpt><trkpt lat="46.07323425747535" lon="12.130578949164017"><ele>346.6</ele><time>2026-04-23T12:07:04Z</time></trkpt><trkpt lat="46.07326822346431" lon="12.13071866931209"><ele>347.0</ele><time>2026-04-23T12:07:05Z</time></trkpt><trkpt lat="46.07330824674996" lon="12.130864169835139"><ele>347.0</ele><time>2026-04-23T12:07:06Z</time></trkpt><trkpt lat="46.07334743642593" lon="12.13101914634905"><ele>347.0</ele><time>2026-04-23T12:07:07Z</time></trkpt><trkpt lat="46.07339072686742" lon="12.13117958098218"><ele>347.0</ele><time>2026-04-23T12:07:08Z</time></trkpt><trkpt lat="46.0734334239609" lon="12.131345727864382"><ele>347.0</ele><time>2026-04-23T12:07:09Z</time></trkpt><trkpt lat="46.073473720113995" lon="12.131497714756527"><ele>347.20000000000005</ele><time>2026-04-23T12:07:10Z</time></trkpt><trkpt lat="46.07350888932852" lon="12.131632033903202"><ele>347.4</ele><time>2026-04-23T12:07:11Z</time></trkpt><trkpt lat="46.073541615783746" lon="12.131763670250358"><ele>347.6</ele><time>2026-04-23T12:07:12Z</time></trkpt><trkpt lat="46.073576245640524" lon="12.13189136455769"><ele>347.79999999999995</ele><time>2026-04-23T12:07:13Z</time></trkpt><trkpt lat="46.0736101587807" lon="12.132010350954104"><ele>348.0</ele><time>2026-04-23T12:07:14Z</time></trkpt><trkpt lat="46.073634709796856" lon="12.132128019922325"><ele>348.0</ele><time>2026-04-23T12:07:15Z</time></trkpt><trkpt lat="46.073661846618165" lon="12.132228345024526"><ele>348.0</ele><time>2026-04-23T12:07:16Z</time></trkpt><trkpt lat="46.073692759349996" lon="12.132322822654961"><ele>348.0</ele><time>2026-04-23T12:07:17Z</time></trkpt><trkpt lat="46.073718542018526" lon="12.132417166904492"><ele>348.0</ele><time>2026-04-23T12:07:18Z</time></trkpt><trkpt lat="46.07372827219764" lon="12.132516095811033"><ele>348.0</ele><time>2026-04-23T12:07:19Z</time></trkpt><trkpt lat="46.073669027644684" lon="12.132763988141608"><ele>348.5</ele><time>2026-04-23T12:07:21Z</time></trkpt><trkpt lat="46.073596323548585" lon="12.132894135728735"><ele>349.0</ele><time>2026-04-23T12:07:22Z</time></trkpt><trkpt lat="46.07351979062371" lon="12.133035333430316"><ele>349.5</ele><time>2026-04-23T12:07:23Z</time></trkpt><trkpt lat="46.07344498477968" lon="12.133187598777106"><ele>350.0</ele><time>2026-04-23T12:07:24Z</time></trkpt><trkpt lat="46.073375622358185" lon="12.13334333290539"><ele>350.25</ele><time>2026-04-23T12:07:25Z</time></trkpt><trkpt lat="46.073288073269865" lon="12.133498031949214"><ele>350.5</ele><time>2026-04-23T12:07:26Z</time></trkpt><trkpt lat="46.073196485055355" lon="12.133627083902425"><ele>350.75</ele><time>2026-04-23T12:07:27Z</time></trkpt><trkpt lat="46.07309216155937" lon="12.133717932299948"><ele>351.0</ele><time>2026-04-23T12:07:28Z</time></trkpt><trkpt lat="46.0729999170438" lon="12.133785933919768"><ele>353.25</ele><time>2026-04-23T12:07:29Z</time></trkpt><trkpt lat="46.07293401194211" lon="12.133914934065277"><ele>355.5</ele><time>2026-04-23T12:07:30Z</time></trkpt><trkpt lat="46.0728923388355" lon="12.13408022940495"><ele>357.75</ele><time>2026-04-23T12:07:31Z</time></trkpt><trkpt lat="46.07285470663493" lon="12.134251973563856"><ele>360.0</ele><time>2026-04-23T12:07:32Z</time></trkpt><trkpt lat="46.07282615288669" lon="12.134436598283665"><ele>360.75</ele><time>2026-04-23T12:07:33Z</time></trkpt><trkpt lat="46.072789432636476" lon="12.134620453517359"><ele>361.5</ele><time>2026-04-23T12:07:34Z</time></trkpt><trkpt lat="46.072734959067915" lon="12.134797145578501"><ele>362.25</ele><time>2026-04-23T12:07:35Z</time></trkpt><trkpt lat="46.07267013521396" lon="12.13496914479105"><ele>363.0</ele><time>2026-04-23T12:07:36Z</time></trkpt><trkpt lat="46.07260557912685" lon="12.135156982417907"><ele>363.5</ele><time>2026-04-23T12:07:37Z</time></trkpt><trkpt lat="46.072545270477825" lon="12.135325543825862"><ele>364.0</ele><time>2026-04-23T12:07:38Z</time></trkpt><trkpt lat="46.07250556792603" lon="12.135491132773774"><ele>364.5</ele><time>2026-04-23T12:07:39Z</time></trkpt><trkpt lat="46.07246124102064" lon="12.135656442913556"><ele>365.0</ele><time>2026-04-23T12:07:40Z</time></trkpt><trkpt lat="46.07241435833537" lon="12.135815266984725"><ele>366.5</ele><time>2026-04-23T12:07:41Z</time></trkpt><trkpt lat="46.072366983619375" lon="12.135979845891393"><ele>368.0</ele><time>2026-04-23T12:07:42Z</time></trkpt><trkpt lat="46.07232240172422" lon="12.136153431774416"><ele>369.5</ele><time>2026-04-23T12:07:43Z</time></trkpt><trkpt lat="46.072279976922005" lon="12.136323422224766"><ele>371.0</ele><time>2026-04-23T12:07:44Z</time></trkpt><trkpt lat="46.07223208221909" lon="12.136482481182545"><ele>370.5</ele><time>2026-04-23T12:07:45Z</time></trkpt><trkpt lat="46.072179822124895" lon="12.136638778180934"><ele>370.0</ele><time>2026-04-23T12:07:46Z</time></trkpt><trkpt lat="46.072124961485564" lon="12.13680026827611"><ele>369.5</ele><time>2026-04-23T12:07:47Z</time></trkpt><trkpt lat="46.07206739867009" lon="12.136961928807622"><ele>369.0</ele><time>2026-04-23T12:07:48Z</time></trkpt><trkpt lat="46.07200408455536" lon="12.13711359849427"><ele>369.0</ele><time>2026-04-23T12:07:49Z</time></trkpt><trkpt lat="46.07191434666537" lon="12.137252912750835"><ele>369.0</ele><time>2026-04-23T12:07:50Z</time></trkpt><trkpt lat="46.07180079982322" lon="12.137371639130533"><ele>369.0</ele><time>2026-04-23T12:07:50.999Z</time></trkpt><trkpt lat="46.07167258030896" lon="12.13747326683991"><ele>369.0</ele><time>2026-04-23T12:07:51.999Z</time></trkpt><trkpt lat="46.0715451277819" lon="12.137571535909203"><ele>368.0</ele><time>2026-04-23T12:07:52.999Z</time></trkpt><trkpt lat="46.07140164225658" lon="12.137645199225549"><ele>367.0</ele><time>2026-04-23T12:07:53.999Z</time></trkpt><trkpt lat="46.07127526142195" lon="12.137806568144933"><ele>366.0</ele><time>2026-04-23T12:07:54.999Z</time></trkpt><trkpt lat="46.071155547690275" lon="12.137972343318701"><ele>366.0</ele><time>2026-04-23T12:07:55.999Z</time></trkpt><trkpt lat="46.07105020072312" lon="12.138152548159592"><ele>366.0</ele><time>2026-04-23T12:07:56.999Z</time></trkpt><trkpt lat="46.07092900997958" lon="12.138292795118925"><ele>366.0</ele><time>2026-04-23T12:07:57.999Z</time></trkpt><trkpt lat="46.070802771018954" lon="12.13842005660952"><ele>366.0</ele><time>2026-04-23T12:07:58.999Z</time></trkpt><trkpt lat="46.07066815461012" lon="12.138527114320517"><ele>366.0</ele><time>2026-04-23T12:07:59.999Z</time></trkpt><trkpt lat="46.07052941882234" lon="12.138617129803942"><ele>366.0</ele><time>2026-04-23T12:08:00.999Z</time></trkpt><trkpt lat="46.07038479162379" lon="12.138699878504674"><ele>366.0</ele><time>2026-04-23T12:08:01.999Z</time></trkpt><trkpt lat="46.070253850508706" lon="12.138784839698145"><ele>366.0</ele><time>2026-04-23T12:08:02.999Z</time></trkpt><trkpt lat="46.070119322402455" lon="12.138865508888848"><ele>366.0</ele><time>2026-04-23T12:08:03.999Z</time></trkpt><trkpt lat="46.069989508807375" lon="12.138931524669688"><ele>366.0</ele><time>2026-04-23T12:08:04.999Z</time></trkpt><trkpt lat="46.06987354416441" lon="12.138985705395502"><ele>366.75</ele><time>2026-04-23T12:08:05.999Z</time></trkpt><trkpt lat="46.06976889555375" lon="12.139051253047388"><ele>367.5</ele><time>2026-04-23T12:08:06.999Z</time></trkpt><trkpt lat="46.06967789644699" lon="12.139131933270765"><ele>368.25</ele><time>2026-04-23T12:08:07.999Z</time></trkpt><trkpt lat="46.06961146244408" lon="12.13925533001523"><ele>369.0</ele><time>2026-04-23T12:08:08.999Z</time></trkpt><trkpt lat="46.06958242953247" lon="12.139438916419657"><ele>369.0</ele><time>2026-04-23T12:08:09.999Z</time></trkpt><trkpt lat="46.06958682823974" lon="12.139645049235716"><ele>369.0</ele><time>2026-04-23T12:08:10.999Z</time></trkpt><trkpt lat="46.06959459555492" lon="12.139844997934395"><ele>369.0</ele><time>2026-04-23T12:08:11.999Z</time></trkpt><trkpt lat="46.06959038652422" lon="12.140021097608733"><ele>369.0</ele><time>2026-04-23T12:08:12.999Z</time></trkpt><trkpt lat="46.069572358357675" lon="12.140195751699634"><ele>369.0</ele><time>2026-04-23T12:08:13.999Z</time></trkpt><trkpt lat="46.0695287201284" lon="12.140365822303322"><ele>369.0</ele><time>2026-04-23T12:08:14.999Z</time></trkpt><trkpt lat="46.06943878270215" lon="12.140502936174686"><ele>369.0</ele><time>2026-04-23T12:08:15.999Z</time></trkpt><trkpt lat="46.069320878217816" lon="12.140597455505226"><ele>369.0</ele><time>2026-04-23T12:08:16.999Z</time></trkpt><trkpt lat="46.06919027550181" lon="12.140724726186914"><ele>369.0</ele><time>2026-04-23T12:08:18Z</time></trkpt><trkpt lat="46.06904904442571" lon="12.14082792581679"><ele>369.0</ele><time>2026-04-23T12:08:19Z</time></trkpt><trkpt lat="46.06891708351332" lon="12.140945717279905"><ele>369.0</ele><time>2026-04-23T12:08:20Z</time></trkpt><trkpt lat="46.0687889006933" lon="12.141063346202605"><ele>369.0</ele><time>2026-04-23T12:08:21Z</time></trkpt><trkpt lat="46.06865553783991" lon="12.141182819402404"><ele>369.0</ele><time>2026-04-23T12:08:22Z</time></trkpt><trkpt lat="46.06851129332447" lon="12.141298859718946"><ele>369.0</ele><time>2026-04-23T12:08:23Z</time></trkpt><trkpt lat="46.06836781737918" lon="12.141418223302288"><ele>368.6666666666667</ele><time>2026-04-23T12:08:24Z</time></trkpt><trkpt lat="46.06822301181629" lon="12.141544887579599"><ele>368.33333333333337</ele><time>2026-04-23T12:08:25Z</time></trkpt><trkpt lat="46.06807609675132" lon="12.141674257100066"><ele>368.0</ele><time>2026-04-23T12:08:26Z</time></trkpt><trkpt lat="46.06792043748468" lon="12.14180412927809"><ele>369.0</ele><time>2026-04-23T12:08:27Z</time></trkpt><trkpt lat="46.06776120793064" lon="12.141931988044476"><ele>370.0</ele><time>2026-04-23T12:08:28Z</time></trkpt><trkpt lat="46.067605421250825" lon="12.142075419710757"><ele>371.0</ele><time>2026-04-23T12:08:29Z</time></trkpt><trkpt lat="46.06743936816586" lon="12.1422166757977"><ele>371.33333333333337</ele><time>2026-04-23T12:08:30Z</time></trkpt><trkpt lat="46.067273186732145" lon="12.142359251295742"><ele>371.6666666666667</ele><time>2026-04-23T12:08:31Z</time></trkpt><trkpt lat="46.06711290486201" lon="12.142491879915838"><ele>372.0</ele><time>2026-04-23T12:08:32Z</time></trkpt><trkpt lat="46.066953354193686" lon="12.14263103534384"><ele>372.6666666666667</ele><time>2026-04-23T12:08:33Z</time></trkpt><trkpt lat="46.0667981622861" lon="12.142760045494565"><ele>373.33333333333337</ele><time>2026-04-23T12:08:34Z</time></trkpt><trkpt lat="46.066646229506986" lon="12.142890203046747"><ele>374.0</ele><time>2026-04-23T12:08:35Z</time></trkpt><trkpt lat="46.066505878857534" lon="12.143029343738739"><ele>375.0</ele><time>2026-04-23T12:08:36Z</time></trkpt><trkpt lat="46.06636890241123" lon="12.143162384548512"><ele>376.0</ele><time>2026-04-23T12:08:37Z</time></trkpt><trkpt lat="46.06622965015004" lon="12.143240077904032"><ele>377.0</ele><time>2026-04-23T12:08:38Z</time></trkpt><trkpt lat="46.066090604370075" lon="12.143258737717478"><ele>377.0</ele><time>2026-04-23T12:08:39Z</time></trkpt><trkpt lat="46.06594690368622" lon="12.143219711721157"><ele>377.0</ele><time>2026-04-23T12:08:40Z</time></trkpt><trkpt lat="46.0657954297369" lon="12.143173003701124"><ele>377.0</ele><time>2026-04-23T12:08:41Z</time></trkpt><trkpt lat="46.06563763548041" lon="12.143151242792797"><ele>380.0</ele><time>2026-04-23T12:08:42Z</time></trkpt><trkpt lat="46.06548771863727" lon="12.14306593467324"><ele>383.0</ele><time>2026-04-23T12:08:43Z</time></trkpt><trkpt lat="46.065353342368496" lon="12.142953605025218"><ele>386.0</ele><time>2026-04-23T12:08:44Z</time></trkpt><trkpt lat="46.06522591249878" lon="12.14283467173191"><ele>386.0</ele><time>2026-04-23T12:08:45Z</time></trkpt><trkpt lat="46.0650897695292" lon="12.142723897794689"><ele>386.0</ele><time>2026-04-23T12:08:46Z</time></trkpt><trkpt lat="46.06494948672299" lon="12.142630476275784"><ele>386.0</ele><time>2026-04-23T12:08:47Z</time></trkpt><trkpt lat="46.06479874039441" lon="12.142595443755965"><ele>388.0</ele><time>2026-04-23T12:08:48Z</time></trkpt><trkpt lat="46.06465685795108" lon="12.14259860432903"><ele>390.0</ele><time>2026-04-23T12:08:49Z</time></trkpt><trkpt lat="46.064526667553864" lon="12.142611646218045"><ele>392.0</ele><time>2026-04-23T12:08:50Z</time></trkpt><trkpt lat="46.06439993681221" lon="12.142620123396359"><ele>394.0</ele><time>2026-04-23T12:08:51Z</time></trkpt><trkpt lat="46.064274793662904" lon="12.142628770876144"><ele>394.0</ele><time>2026-04-23T12:08:52Z</time></trkpt><trkpt lat="46.064154429489" lon="12.1426366434676"><ele>394.0</ele><time>2026-04-23T12:08:53Z</time></trkpt><trkpt lat="46.06403666514056" lon="12.142645846950595"><ele>394.0</ele><time>2026-04-23T12:08:54Z</time></trkpt><trkpt lat="46.063919904354464" lon="12.142658256464033"><ele>394.0</ele><time>2026-04-23T12:08:55Z</time></trkpt><trkpt lat="46.06380808574568" lon="12.142674948588086"><ele>396.0</ele><time>2026-04-23T12:08:56Z</time></trkpt><trkpt lat="46.063713573381065" lon="12.142692560963068"><ele>398.0</ele><time>2026-04-23T12:08:57Z</time></trkpt><trkpt lat="46.06362927196734" lon="12.142710645593242"><ele>400.0</ele><time>2026-04-23T12:08:58Z</time></trkpt><trkpt lat="46.0635479549015" lon="12.142750091005642"><ele>402.0</ele><time>2026-04-23T12:08:59Z</time></trkpt><trkpt lat="46.06346116410239" lon="12.142815933204975"><ele>404.0</ele><time>2026-04-23T12:09:00Z</time></trkpt><trkpt lat="46.06337557653497" lon="12.142895800690523"><ele>404.0</ele><time>2026-04-23T12:09:01Z</time></trkpt><trkpt lat="46.06329279376981" lon="12.14298294497303"><ele>404.0</ele><time>2026-04-23T12:09:02Z</time></trkpt><trkpt lat="46.06321621110595" lon="12.143091180571822"><ele>404.0</ele><time>2026-04-23T12:09:03Z</time></trkpt><trkpt lat="46.06313765641291" lon="12.143210782937258"><ele>404.0</ele><time>2026-04-23T12:09:04Z</time></trkpt><trkpt lat="46.063053909050495" lon="12.143329570628289"><ele>404.0</ele><time>2026-04-23T12:09:05Z</time></trkpt><trkpt lat="46.06296707750902" lon="12.143447058294246"><ele>406.0</ele><time>2026-04-23T12:09:06Z</time></trkpt><trkpt lat="46.06287971612128" lon="12.143569765949492"><ele>408.0</ele><time>2026-04-23T12:09:07Z</time></trkpt><trkpt lat="46.06279244475057" lon="12.143698954522074"><ele>410.0</ele><time>2026-04-23T12:09:08Z</time></trkpt><trkpt lat="46.06270093076819" lon="12.143826201011368"><ele>412.0</ele><time>2026-04-23T12:09:09Z</time></trkpt><trkpt lat="46.06261926642306" lon="12.143942530690452"><ele>413.20000000000005</ele><time>2026-04-23T12:09:10Z</time></trkpt><trkpt lat="46.06254304317471" lon="12.144054239054347"><ele>414.4</ele><time>2026-04-23T12:09:11Z</time></trkpt><trkpt lat="46.06246856860289" lon="12.144166246819923"><ele>415.6</ele><time>2026-04-23T12:09:12Z</time></trkpt><trkpt lat="46.06238877120038" lon="12.144256287055832"><ele>416.79999999999995</ele><time>2026-04-23T12:09:13Z</time></trkpt><trkpt lat="46.0622878295541" lon="12.144265143228203"><ele>418.0</ele><time>2026-04-23T12:09:14Z</time></trkpt><trkpt lat="46.06218205093517" lon="12.144192687991493"><ele>419.0</ele><time>2026-04-23T12:09:15Z</time></trkpt><trkpt lat="46.06206858028559" lon="12.144139303102024"><ele>420.0</ele><time>2026-04-23T12:09:16Z</time></trkpt><trkpt lat="46.061959336697754" lon="12.14405767767197"><ele>421.0</ele><time>2026-04-23T12:09:17Z</time></trkpt><trkpt lat="46.06185404426822" lon="12.143988415867259"><ele>422.0</ele><time>2026-04-23T12:09:18Z</time></trkpt><trkpt lat="46.06175660557195" lon="12.143928383777379"><ele>422.0</ele><time>2026-04-23T12:09:19Z</time></trkpt><trkpt lat="46.06166552703813" lon="12.143871438370782"><ele>422.0</ele><time>2026-04-23T12:09:20Z</time></trkpt><trkpt lat="46.06157787741918" lon="12.143813117817118"><ele>422.0</ele><time>2026-04-23T12:09:21Z</time></trkpt><trkpt lat="46.06148329805568" lon="12.143751118869801"><ele>422.0</ele><time>2026-04-23T12:09:22Z</time></trkpt><trkpt lat="46.06138616058114" lon="12.143687942924348"><ele>422.0</ele><time>2026-04-23T12:09:23Z</time></trkpt><trkpt lat="46.0612837309275" lon="12.143623006111168"><ele>423.20000000000005</ele><time>2026-04-23T12:09:24Z</time></trkpt><trkpt lat="46.06117115972281" lon="12.143555358862885"><ele>424.4</ele><time>2026-04-23T12:09:25Z</time></trkpt><trkpt lat="46.06106522876069" lon="12.143489004087005"><ele>425.59999999999997</ele><time>2026-04-23T12:09:26Z</time></trkpt><trkpt lat="46.06097566190306" lon="12.143435012458937"><ele>426.79999999999995</ele><time>2026-04-23T12:09:27Z</time></trkpt><trkpt lat="46.06087590623106" lon="12.143388335650123"><ele>428.0</ele><time>2026-04-23T12:09:28Z</time></trkpt><trkpt lat="46.060770411204345" lon="12.143359334363867"><ele>429.0</ele><time>2026-04-23T12:09:29Z</time></trkpt><trkpt lat="46.06067764835567" lon="12.143364985028866"><ele>429.99999999999994</ele><time>2026-04-23T12:09:30Z</time></trkpt><trkpt lat="46.06059032700516" lon="12.143381124427435"><ele>430.99999999999994</ele><time>2026-04-23T12:09:31Z</time></trkpt><trkpt lat="46.06051748664802" lon="12.14339470404704"><ele>432.0</ele><time>2026-04-23T12:09:32Z</time></trkpt><trkpt lat="46.06048362795453" lon="12.14365376540287"><ele>433.0</ele><time>2026-04-23T12:09:33Z</time></trkpt><trkpt lat="46.060471395975355" lon="12.143818739771346"><ele>433.0</ele><time>2026-04-23T12:09:34Z</time></trkpt><trkpt lat="46.060486707334924" lon="12.14400083766217"><ele>433.0</ele><time>2026-04-23T12:09:35Z</time></trkpt><trkpt lat="46.06052938620881" lon="12.144171790827151"><ele>433.0</ele><time>2026-04-23T12:09:36Z</time></trkpt><trkpt lat="46.06059491478393" lon="12.144335513263881"><ele>433.0</ele><time>2026-04-23T12:09:37Z</time></trkpt><trkpt lat="46.06065147801973" lon="12.144494392442287"><ele>434.79999999999995</ele><time>2026-04-23T12:09:38Z</time></trkpt><trkpt lat="46.060699205790215" lon="12.144634476073024"><ele>436.59999999999997</ele><time>2026-04-23T12:09:39Z</time></trkpt><trkpt lat="46.06074291700899" lon="12.144767329432161"><ele>438.40000000000003</ele><time>2026-04-23T12:09:40Z</time></trkpt><trkpt lat="46.06078419126311" lon="12.144902466085874"><ele>440.20000000000005</ele><time>2026-04-23T12:09:41Z</time></trkpt><trkpt lat="46.06082610624156" lon="12.145039890254498"><ele>442.0</ele><time>2026-04-23T12:09:42Z</time></trkpt><trkpt lat="46.06087506529284" lon="12.145178358084749"><ele>442.0</ele><time>2026-04-23T12:09:43Z</time></trkpt><trkpt lat="46.06091861712178" lon="12.145313869084514"><ele>442.00000000000006</ele><time>2026-04-23T12:09:44Z</time></trkpt><trkpt lat="46.060970498750606" lon="12.145449384316889"><ele>442.00000000000006</ele><time>2026-04-23T12:09:45Z</time></trkpt><trkpt lat="46.06100312457476" lon="12.145591209198109"><ele>442.0</ele><time>2026-04-23T12:09:46Z</time></trkpt><trkpt lat="46.06105684816214" lon="12.145693815137088"><ele>442.0</ele><time>2026-04-23T12:09:47Z</time></trkpt><trkpt lat="46.06109101991095" lon="12.145804812858044"><ele>443.33333333333337</ele><time>2026-04-23T12:09:48Z</time></trkpt><trkpt lat="46.06110898396314" lon="12.145916364545862"><ele>444.6666666666667</ele><time>2026-04-23T12:09:49Z</time></trkpt><trkpt lat="46.061083307876416" lon="12.14601917498347"><ele>446.0</ele><time>2026-04-23T12:09:50Z</time></trkpt><trkpt lat="46.06102701076958" lon="12.146093920440391"><ele>447.33333333333337</ele><time>2026-04-23T12:09:51Z</time></trkpt><trkpt lat="46.06096043953715" lon="12.146111338357093"><ele>448.6666666666667</ele><time>2026-04-23T12:09:52Z</time></trkpt><trkpt lat="46.06087452428688" lon="12.146028182861214"><ele>450.0</ele><time>2026-04-23T12:09:53Z</time></trkpt><trkpt lat="46.06075501933036" lon="12.145994387629775"><ele>451.8</ele><time>2026-04-23T12:09:54Z</time></trkpt><trkpt lat="46.06064848038375" lon="12.145964539359415"><ele>453.6</ele><time>2026-04-23T12:09:55Z</time></trkpt><trkpt lat="46.060540881709464" lon="12.145957567680517"><ele>455.4</ele><time>2026-04-23T12:09:56Z</time></trkpt><trkpt lat="46.060454310921706" lon="12.145932361458511"><ele>457.2</ele><time>2026-04-23T12:09:56.999Z</time></trkpt><trkpt lat="46.06037199949249" lon="12.145867485654787"><ele>459.0</ele><time>2026-04-23T12:09:57.999Z</time></trkpt><trkpt lat="46.060268658681125" lon="12.145798409508348"><ele>459.0</ele><time>2026-04-23T12:09:58.999Z</time></trkpt><trkpt lat="46.06016672305663" lon="12.145730739543886"><ele>459.0</ele><time>2026-04-23T12:09:59.999Z</time></trkpt><trkpt lat="46.06006926956477" lon="12.14567162638533"><ele>459.0</ele><time>2026-04-23T12:10:00.999Z</time></trkpt><trkpt lat="46.05998999520461" lon="12.14565640802107"><ele>459.0</ele><time>2026-04-23T12:10:01.999Z</time></trkpt><trkpt lat="46.05991488948096" lon="12.14563084960739"><ele>459.0</ele><time>2026-04-23T12:10:02.999Z</time></trkpt><trkpt lat="46.059821536317465" lon="12.145630267195369"><ele>459.79999999999995</ele><time>2026-04-23T12:10:03.999Z</time></trkpt><trkpt lat="46.05972006767662" lon="12.145638916723483"><ele>460.59999999999997</ele><time>2026-04-23T12:10:04.999Z</time></trkpt><trkpt lat="46.05961523047042" lon="12.14561395892084"><ele>461.4</ele><time>2026-04-23T12:10:05.999Z</time></trkpt><trkpt lat="46.05950750021198" lon="12.145609024360969"><ele>462.2</ele><time>2026-04-23T12:10:06.999Z</time></trkpt><trkpt lat="46.05939811380225" lon="12.145602097427686"><ele>463.0</ele><time>2026-04-23T12:10:07.999Z</time></trkpt><trkpt lat="46.059280249114664" lon="12.145589722612723"><ele>463.0</ele><time>2026-04-23T12:10:08.999Z</time></trkpt><trkpt lat="46.05915874076423" lon="12.145588697560092"><ele>463.0</ele><time>2026-04-23T12:10:09.999Z</time></trkpt><trkpt lat="46.05904034862263" lon="12.145553106122778"><ele>463.0</ele><time>2026-04-23T12:10:10.999Z</time></trkpt><trkpt lat="46.058931572910254" lon="12.14552438655247"><ele>463.0</ele><time>2026-04-23T12:10:11.999Z</time></trkpt><trkpt lat="46.05883018354812" lon="12.145496990511687"><ele>465.00000000000006</ele><time>2026-04-23T12:10:12.999Z</time></trkpt><trkpt lat="46.05874111288421" lon="12.145470561822654"><ele>467.0</ele><time>2026-04-23T12:10:13.999Z</time></trkpt><trkpt lat="46.05866577403169" lon="12.145455656873285"><ele>469.0</ele><time>2026-04-23T12:10:14.999Z</time></trkpt><trkpt lat="46.05859611572757" lon="12.145470684384705"><ele>471.0</ele><time>2026-04-23T12:10:16Z</time></trkpt><trkpt lat="46.05853200907898" lon="12.145550009443445"><ele>473.00000000000006</ele><time>2026-04-23T12:10:17Z</time></trkpt><trkpt lat="46.05850438686104" lon="12.145689747937285"><ele>475.0</ele><time>2026-04-23T12:10:18Z</time></trkpt><trkpt lat="46.05850770954896" lon="12.145842667509658"><ele>477.5</ele><time>2026-04-23T12:10:19Z</time></trkpt><trkpt lat="46.05851797724309" lon="12.145996809469096"><ele>480.0</ele><time>2026-04-23T12:10:20Z</time></trkpt><trkpt lat="46.05853072014934" lon="12.146155196201951"><ele>482.5</ele><time>2026-04-23T12:10:21Z</time></trkpt><trkpt lat="46.058553629484045" lon="12.14632020447644"><ele>485.0</ele><time>2026-04-23T12:10:22Z</time></trkpt><trkpt lat="46.05859631653819" lon="12.146486158532644"><ele>488.75</ele><time>2026-04-23T12:10:23Z</time></trkpt><trkpt lat="46.05865476920986" lon="12.146642391698132"><ele>492.5</ele><time>2026-04-23T12:10:24Z</time></trkpt><trkpt lat="46.05873975889929" lon="12.146786438743788"><ele>496.25</ele><time>2026-04-23T12:10:25Z</time></trkpt><trkpt lat="46.0588468710489" lon="12.146920541887951"><ele>500.0</ele><time>2026-04-23T12:10:26Z</time></trkpt><trkpt lat="46.058939542930815" lon="12.147058462109579"><ele>500.0</ele><time>2026-04-23T12:10:27Z</time></trkpt><trkpt lat="46.058997409403695" lon="12.147236274809012"><ele>500.0</ele><time>2026-04-23T12:10:28Z</time></trkpt><trkpt lat="46.059078153760574" lon="12.147402029561867"><ele>500.0</ele><time>2026-04-23T12:10:29Z</time></trkpt><trkpt lat="46.059143787780606" lon="12.14756773088815"><ele>500.0</ele><time>2026-04-23T12:10:30Z</time></trkpt><trkpt lat="46.0592071399677" lon="12.14771007914457"><ele>500.0</ele><time>2026-04-23T12:10:31Z</time></trkpt><trkpt lat="46.0592701862456" lon="12.147821795913096"><ele>500.0</ele><time>2026-04-23T12:10:32Z</time></trkpt><trkpt lat="46.05933033273922" lon="12.147907535922911"><ele>500.0</ele><time>2026-04-23T12:10:33Z</time></trkpt><trkpt lat="46.05938131312977" lon="12.148026437940763"><ele>500.0</ele><time>2026-04-23T12:10:34Z</time></trkpt><trkpt lat="46.05938489620334" lon="12.148186005057493"><ele>500.0</ele><time>2026-04-23T12:10:35Z</time></trkpt><trkpt lat="46.059386157518844" lon="12.148332084996156"><ele>501.2</ele><time>2026-04-23T12:10:36Z</time></trkpt><trkpt lat="46.05937307143386" lon="12.14844842853316"><ele>502.4</ele><time>2026-04-23T12:10:37Z</time></trkpt><trkpt lat="46.05933299776529" lon="12.1485517766317"><ele>503.6</ele><time>2026-04-23T12:10:38Z</time></trkpt><trkpt lat="46.0592840097108" lon="12.148665611383171"><ele>504.8</ele><time>2026-04-23T12:10:39Z</time></trkpt><trkpt lat="46.05924299047627" lon="12.148788070311475"><ele>506.0</ele><time>2026-04-23T12:10:40Z</time></trkpt><trkpt lat="46.05923294259651" lon="12.14893941683793"><ele>506.5</ele><time>2026-04-23T12:10:41Z</time></trkpt><trkpt lat="46.05925348724573" lon="12.149107807178812"><ele>507.0</ele><time>2026-04-23T12:10:42Z</time></trkpt><trkpt lat="46.05928277062854" lon="12.14927855528899"><ele>507.5</ele><time>2026-04-23T12:10:43Z</time></trkpt><trkpt lat="46.05932772228784" lon="12.149442735311434"><ele>508.0</ele><time>2026-04-23T12:10:44Z</time></trkpt><trkpt lat="46.05940099833744" lon="12.149588762288472"><ele>508.0</ele><time>2026-04-23T12:10:45Z</time></trkpt><trkpt lat="46.05949432303778" lon="12.149725236560354"><ele>508.0</ele><time>2026-04-23T12:10:46Z</time></trkpt><trkpt lat="46.05958140691749" lon="12.149852793309712"><ele>508.0</ele><time>2026-04-23T12:10:47Z</time></trkpt><trkpt lat="46.05965071307052" lon="12.149966914688106"><ele>508.0</ele><time>2026-04-23T12:10:48Z</time></trkpt><trkpt lat="46.05970071950313" lon="12.150080178505542"><ele>510.75</ele><time>2026-04-23T12:10:49Z</time></trkpt><trkpt lat="46.05971256191741" lon="12.150220645055512"><ele>513.5</ele><time>2026-04-23T12:10:50Z</time></trkpt><trkpt lat="46.059643761526466" lon="12.150372033734962"><ele>516.25</ele><time>2026-04-23T12:10:51Z</time></trkpt><trkpt lat="46.059627870244064" lon="12.150539144012527"><ele>519.0</ele><time>2026-04-23T12:10:52Z</time></trkpt><trkpt lat="46.05960748543672" lon="12.150711949997207"><ele>520.5</ele><time>2026-04-23T12:10:53Z</time></trkpt><trkpt lat="46.059595946686876" lon="12.150885132142383"><ele>522.0</ele><time>2026-04-23T12:10:54Z</time></trkpt><trkpt lat="46.05958381787529" lon="12.151048691724117"><ele>523.5</ele><time>2026-04-23T12:10:55Z</time></trkpt><trkpt lat="46.0595719158976" lon="12.151210836521368"><ele>525.0</ele><time>2026-04-23T12:10:56Z</time></trkpt><trkpt lat="46.05954752990022" lon="12.151381600723715"><ele>525.0</ele><time>2026-04-23T12:10:57Z</time></trkpt><trkpt lat="46.05952287135782" lon="12.15150292517663"><ele>525.0</ele><time>2026-04-23T12:10:58Z</time></trkpt><trkpt lat="46.05948101207578" lon="12.151711950223598"><ele>525.0</ele><time>2026-04-23T12:10:59Z</time></trkpt><trkpt lat="46.05945228401753" lon="12.151903056805242"><ele>525.0</ele><time>2026-04-23T12:11:00Z</time></trkpt><trkpt lat="46.05939639003263" lon="12.152079213963336"><ele>526.25</ele><time>2026-04-23T12:11:01Z</time></trkpt><trkpt lat="46.05933932541404" lon="12.152254987236145"><ele>527.5</ele><time>2026-04-23T12:11:02Z</time></trkpt><trkpt lat="46.059274986340796" lon="12.152437446752105"><ele>528.75</ele><time>2026-04-23T12:11:03Z</time></trkpt><trkpt lat="46.05921378699735" lon="12.152625721035637"><ele>530.0</ele><time>2026-04-23T12:11:04Z</time></trkpt><trkpt lat="46.059150536258336" lon="12.152817880291375"><ele>534.75</ele><time>2026-04-23T12:11:05Z</time></trkpt><trkpt lat="46.05908232301756" lon="12.153005267077663"><ele>539.5</ele><time>2026-04-23T12:11:06Z</time></trkpt><trkpt lat="46.059005959692456" lon="12.153174473465027"><ele>544.25</ele><time>2026-04-23T12:11:07Z</time></trkpt><trkpt lat="46.05895068485895" lon="12.153340079703531"><ele>549.0</ele><time>2026-04-23T12:11:08Z</time></trkpt><trkpt lat="46.058903105349685" lon="12.153492681566467"><ele>549.75</ele><time>2026-04-23T12:11:09Z</time></trkpt><trkpt lat="46.0588741424043" lon="12.153663919557461"><ele>550.5</ele><time>2026-04-23T12:11:10Z</time></trkpt><trkpt lat="46.05885582667812" lon="12.153862287559603"><ele>551.25</ele><time>2026-04-23T12:11:11Z</time></trkpt><trkpt lat="46.05884361778769" lon="12.154056280439663"><ele>552.0</ele><time>2026-04-23T12:11:12Z</time></trkpt><trkpt lat="46.058779736733875" lon="12.15424759954556"><ele>553.75</ele><time>2026-04-23T12:11:13Z</time></trkpt><trkpt lat="46.058722117881516" lon="12.154445888600153"><ele>555.5</ele><time>2026-04-23T12:11:14Z</time></trkpt><trkpt lat="46.05868951371029" lon="12.154647934613173"><ele>557.25</ele><time>2026-04-23T12:11:15Z</time></trkpt><trkpt lat="46.058643221208314" lon="12.154852583927518"><ele>559.0</ele><time>2026-04-23T12:11:16Z</time></trkpt><trkpt lat="46.0586135293258" lon="12.155066614364378"><ele>560.6666666666667</ele><time>2026-04-23T12:11:17Z</time></trkpt><trkpt lat="46.058578132428835" lon="12.155277900222119"><ele>562.3333333333334</ele><time>2026-04-23T12:11:18Z</time></trkpt><trkpt lat="46.05853039659261" lon="12.155490740682904"><ele>564.0</ele><time>2026-04-23T12:11:19Z</time></trkpt><trkpt lat="46.05847963460974" lon="12.155706256994641"><ele>564.0</ele><time>2026-04-23T12:11:20Z</time></trkpt><trkpt lat="46.05841194725924" lon="12.155911738738036"><ele>564.0</ele><time>2026-04-23T12:11:21Z</time></trkpt><trkpt lat="46.058358699849606" lon="12.156115618259697"><ele>564.0</ele><time>2026-04-23T12:11:22Z</time></trkpt><trkpt lat="46.0583056419342" lon="12.156301919768893"><ele>564.0</ele><time>2026-04-23T12:11:23Z</time></trkpt><trkpt lat="46.05826250237473" lon="12.156468723942648"><ele>567.0</ele><time>2026-04-23T12:11:24Z</time></trkpt><trkpt lat="46.058191799914255" lon="12.156614963610597"><ele>570.0</ele><time>2026-04-23T12:11:25Z</time></trkpt><trkpt lat="46.058118985576534" lon="12.15675717860002"><ele>573.0</ele><time>2026-04-23T12:11:26Z</time></trkpt><trkpt lat="46.05807350353186" lon="12.156901804366779"><ele>576.0</ele><time>2026-04-23T12:11:27Z</time></trkpt><trkpt lat="46.05806123040868" lon="12.157073457899843"><ele>576.0</ele><time>2026-04-23T12:11:28Z</time></trkpt><trkpt lat="46.0580749846506" lon="12.157256956000348"><ele>576.0</ele><time>2026-04-23T12:11:29.001Z</time></trkpt><trkpt lat="46.058081186451" lon="12.157442317259628"><ele>576.0</ele><time>2026-04-23T12:11:30.001Z</time></trkpt><trkpt lat="46.05804419712723" lon="12.157619327511458"><ele>576.0</ele><time>2026-04-23T12:11:31.001Z</time></trkpt><trkpt lat="46.05800561649465" lon="12.15780579193476"><ele>577.0</ele><time>2026-04-23T12:11:32.001Z</time></trkpt><trkpt lat="46.057945825227016" lon="12.157979748689076"><ele>578.0</ele><time>2026-04-23T12:11:33.001Z</time></trkpt><trkpt lat="46.05789739872502" lon="12.158165512407718"><ele>579.0</ele><time>2026-04-23T12:11:34.001Z</time></trkpt><trkpt lat="46.05784124535697" lon="12.158311390743693"><ele>580.0</ele><time>2026-04-23T12:11:35.001Z</time></trkpt><trkpt lat="46.057810354488815" lon="12.158453640875415"><ele>580.8</ele><time>2026-04-23T12:11:36.001Z</time></trkpt><trkpt lat="46.05774659799734" lon="12.158560120799754"><ele>581.6</ele><time>2026-04-23T12:11:37.001Z</time></trkpt><trkpt lat="46.05765290669868" lon="12.158597291036418"><ele>582.4</ele><time>2026-04-23T12:11:38.001Z</time></trkpt><trkpt lat="46.05755950095088" lon="12.158520776158044"><ele>583.2</ele><time>2026-04-23T12:11:39.001Z</time></trkpt><trkpt lat="46.05750473583095" lon="12.158384530404707"><ele>584.0</ele><time>2026-04-23T12:11:40.001Z</time></trkpt><trkpt lat="46.05747196302574" lon="12.158232302690834"><ele>586.6</ele><time>2026-04-23T12:11:41.001Z</time></trkpt><trkpt lat="46.057412718906946" lon="12.158088043288508"><ele>589.2</ele><time>2026-04-23T12:11:42.001Z</time></trkpt><trkpt lat="46.05735241552902" lon="12.157938436255634"><ele>591.8000000000001</ele><time>2026-04-23T12:11:43.001Z</time></trkpt><trkpt lat="46.05730103308799" lon="12.15781096123219"><ele>594.4</ele><time>2026-04-23T12:11:44.001Z</time></trkpt><trkpt lat="46.05725942368835" lon="12.157711100856908"><ele>597.0</ele><time>2026-04-23T12:11:45.001Z</time></trkpt><trkpt lat="46.057213157627245" lon="12.15763799358488"><ele>597.0</ele><time>2026-04-23T12:11:46.001Z</time></trkpt><trkpt lat="46.05714458287226" lon="12.157595807001062"><ele>597.0</ele><time>2026-04-23T12:11:47.001Z</time></trkpt><trkpt lat="46.057040756570906" lon="12.157698659714708"><ele>597.0</ele><time>2026-04-23T12:11:48.001Z</time></trkpt><trkpt lat="46.05700500272768" lon="12.157867089057959"><ele>597.0</ele><time>2026-04-23T12:11:49.001Z</time></trkpt><trkpt lat="46.0569843184698" lon="12.158023993277261"><ele>597.0</ele><time>2026-04-23T12:11:50.001Z</time></trkpt><trkpt lat="46.056958585545736" lon="12.158186282448403"><ele>598.75</ele><time>2026-04-23T12:11:51.001Z</time></trkpt><trkpt lat="46.056928559715836" lon="12.158357904382877"><ele>600.5</ele><time>2026-04-23T12:11:52.001Z</time></trkpt><trkpt lat="46.05690951638444" lon="12.158529498649026"><ele>602.25</ele><time>2026-04-23T12:11:53.001Z</time></trkpt><trkpt lat="46.056895191183685" lon="12.158698981983703"><ele>604.0</ele><time>2026-04-23T12:11:54.001Z</time></trkpt><trkpt lat="46.056881292604935" lon="12.158873363640332"><ele>603.8</ele><time>2026-04-23T12:11:55.001Z</time></trkpt><trkpt lat="46.05686335350346" lon="12.159037398139692"><ele>603.5999999999999</ele><time>2026-04-23T12:11:56.001Z</time></trkpt><trkpt lat="46.0568364553564" lon="12.159199024498646"><ele>603.4</ele><time>2026-04-23T12:11:57.001Z</time></trkpt><trkpt lat="46.05676872916265" lon="12.159328675836283"><ele>603.1999999999999</ele><time>2026-04-23T12:11:58.001Z</time></trkpt><trkpt lat="46.05667575027152" lon="12.159401379347504"><ele>603.0</ele><time>2026-04-23T12:11:59.001Z</time></trkpt><trkpt lat="46.05657899834887" lon="12.159365013619652"><ele>604.5</ele><time>2026-04-23T12:12:00.001Z</time></trkpt><trkpt lat="46.056469784884854" lon="12.15933489951759"><ele>606.0</ele><time>2026-04-23T12:12:01.001Z</time></trkpt><trkpt lat="46.05636530498918" lon="12.159240087783054"><ele>607.5</ele><time>2026-04-23T12:12:02.001Z</time></trkpt><trkpt lat="46.05624585892764" lon="12.159204840109684"><ele>609.0</ele><time>2026-04-23T12:12:02.999Z</time></trkpt><trkpt lat="46.05613913512372" lon="12.159196494669374"><ele>609.0</ele><time>2026-04-23T12:12:03.999Z</time></trkpt><trkpt lat="46.05602963546593" lon="12.159266362681384"><ele>609.0</ele><time>2026-04-23T12:12:04.999Z</time></trkpt><trkpt lat="46.05594805341507" lon="12.159397775207834"><ele>609.0</ele><time>2026-04-23T12:12:05.999Z</time></trkpt><trkpt lat="46.055886843845805" lon="12.159558743995547"><ele>609.0</ele><time>2026-04-23T12:12:06.999Z</time></trkpt><trkpt lat="46.0558188199142" lon="12.159714625277326"><ele>610.75</ele><time>2026-04-23T12:12:07.999Z</time></trkpt><trkpt lat="46.055723504719836" lon="12.15984121254966"><ele>612.5</ele><time>2026-04-23T12:12:08.999Z</time></trkpt><trkpt lat="46.055601819924576" lon="12.159928751955917"><ele>614.25</ele><time>2026-04-23T12:12:09.999Z</time></trkpt><trkpt lat="46.05550037217944" lon="12.160037063248197"><ele>616.0</ele><time>2026-04-23T12:12:10.999Z</time></trkpt><trkpt lat="46.05539667371745" lon="12.160125801573287"><ele>616.0</ele><time>2026-04-23T12:12:11.999Z</time></trkpt><trkpt lat="46.05530968003153" lon="12.160261097295706"><ele>616.0</ele><time>2026-04-23T12:12:12.999Z</time></trkpt><trkpt lat="46.05523684164702" lon="12.160431579438367"><ele>616.0</ele><time>2026-04-23T12:12:13.999Z</time></trkpt><trkpt lat="46.05517893513431" lon="12.160595755356377"><ele>616.0</ele><time>2026-04-23T12:12:15Z</time></trkpt><trkpt lat="46.05512468222416" lon="12.16074281988321"><ele>616.0</ele><time>2026-04-23T12:12:16Z</time></trkpt><trkpt lat="46.05505181854529" lon="12.160870395977422"><ele>616.0</ele><time>2026-04-23T12:12:17Z</time></trkpt><trkpt lat="46.05495531607979" lon="12.160978401346902"><ele>616.0</ele><time>2026-04-23T12:12:18Z</time></trkpt><trkpt lat="46.054842998071365" lon="12.161072736832887"><ele>616.0</ele><time>2026-04-23T12:12:19Z</time></trkpt><trkpt lat="46.054728549607766" lon="12.161167390555338"><ele>616.0</ele><time>2026-04-23T12:12:20Z</time></trkpt><trkpt lat="46.054624388449106" lon="12.16125370820984"><ele>616.0</ele><time>2026-04-23T12:12:21Z</time></trkpt><trkpt lat="46.05453242575351" lon="12.161320029561562"><ele>616.0</ele><time>2026-04-23T12:12:22Z</time></trkpt><trkpt lat="46.05443941485417" lon="12.161388958224737"><ele>616.0</ele><time>2026-04-23T12:12:23Z</time></trkpt><trkpt lat="46.05433759122336" lon="12.161465272653102"><ele>616.0</ele><time>2026-04-23T12:12:24Z</time></trkpt><trkpt lat="46.05421601338258" lon="12.161503935710135"><ele>617.75</ele><time>2026-04-23T12:12:25Z</time></trkpt><trkpt lat="46.054074201068275" lon="12.161479004097968"><ele>619.5</ele><time>2026-04-23T12:12:26Z</time></trkpt><trkpt lat="46.053927099689844" lon="12.161495437205772"><ele>621.25</ele><time>2026-04-23T12:12:27Z</time></trkpt><trkpt lat="46.05377842273606" lon="12.161512388722402"><ele>623.0</ele><time>2026-04-23T12:12:28Z</time></trkpt><trkpt lat="46.05363208248569" lon="12.161558619084248"><ele>623.0</ele><time>2026-04-23T12:12:29Z</time></trkpt><trkpt lat="46.05348507710014" lon="12.161599004993764"><ele>623.0</ele><time>2026-04-23T12:12:30Z</time></trkpt><trkpt lat="46.05333207200122" lon="12.16163167082629"><ele>623.0</ele><time>2026-04-23T12:12:31Z</time></trkpt><trkpt lat="46.05318616756494" lon="12.161652436526834"><ele>625.5</ele><time>2026-04-23T12:12:32Z</time></trkpt><trkpt lat="46.05303836426786" lon="12.16166399547321"><ele>628.0</ele><time>2026-04-23T12:12:33Z</time></trkpt><trkpt lat="46.052899017699886" lon="12.161669059916843"><ele>630.5</ele><time>2026-04-23T12:12:34Z</time></trkpt><trkpt lat="46.05278380167717" lon="12.16170558548446"><ele>633.0</ele><time>2026-04-23T12:12:35Z</time></trkpt><trkpt lat="46.052683397743" lon="12.161739697262105"><ele>633.0</ele><time>2026-04-23T12:12:36Z</time></trkpt><trkpt lat="46.05259508039459" lon="12.161828310272849"><ele>633.0</ele><time>2026-04-23T12:12:37Z</time></trkpt><trkpt lat="46.05251124930414" lon="12.161954913595764"><ele>633.0</ele><time>2026-04-23T12:12:38Z</time></trkpt><trkpt lat="46.052421886382035" lon="12.162080457425825"><ele>633.0</ele><time>2026-04-23T12:12:39Z</time></trkpt><trkpt lat="46.05232789985127" lon="12.162201327673658"><ele>636.5</ele><time>2026-04-23T12:12:40Z</time></trkpt><trkpt lat="46.052231637452756" lon="12.162323784311347"><ele>640.0</ele><time>2026-04-23T12:12:41Z</time></trkpt><trkpt lat="46.0521365904297" lon="12.162447264724625"><ele>643.5</ele><time>2026-04-23T12:12:42Z</time></trkpt><trkpt lat="46.052039585641566" lon="12.162571452827788"><ele>647.0</ele><time>2026-04-23T12:12:43Z</time></trkpt><trkpt lat="46.05195219866574" lon="12.162698047199365"><ele>647.0</ele><time>2026-04-23T12:12:44Z</time></trkpt><trkpt lat="46.051866361916716" lon="12.162781789613028"><ele>647.0</ele><time>2026-04-23T12:12:45Z</time></trkpt><trkpt lat="46.05180587906501" lon="12.16284770062288"><ele>647.0</ele><time>2026-04-23T12:12:46Z</time></trkpt><trkpt lat="46.051728233751106" lon="12.162795798857912"><ele>647.0</ele><time>2026-04-23T12:12:47Z</time></trkpt><trkpt lat="46.05165457176595" lon="12.162718685029883"><ele>647.0</ele><time>2026-04-23T12:12:48Z</time></trkpt><trkpt lat="46.05156224338487" lon="12.162637022870314"><ele>651.25</ele><time>2026-04-23T12:12:49Z</time></trkpt><trkpt lat="46.05150553649694" lon="12.162510144525573"><ele>655.5</ele><time>2026-04-23T12:12:50Z</time></trkpt><trkpt lat="46.051472645766175" lon="12.162359476773712"><ele>659.75</ele><time>2026-04-23T12:12:51Z</time></trkpt><trkpt lat="46.0514421805767" lon="12.162184106603831"><ele>664.0</ele><time>2026-04-23T12:12:52Z</time></trkpt><trkpt lat="46.051418184033516" lon="12.162021906001474"><ele>664.6666666666667</ele><time>2026-04-23T12:12:53Z</time></trkpt><trkpt lat="46.0514069121013" lon="12.161901061296122"><ele>665.3333333333334</ele><time>2026-04-23T12:12:54Z</time></trkpt><trkpt lat="46.051406890164365" lon="12.161746499537447"><ele>666.0</ele><time>2026-04-23T12:12:56Z</time></trkpt><trkpt lat="46.05140679186539" lon="12.16165256072645"><ele>666.6666666666666</ele><time>2026-04-23T12:12:58Z</time></trkpt><trkpt lat="46.051405535424045" lon="12.161757709862815"><ele>667.3333333333333</ele><time>2026-04-23T12:13:05Z</time></trkpt><trkpt lat="46.05140492958185" lon="12.16186348040229"><ele>668.0</ele><time>2026-04-23T12:13:06Z</time></trkpt><trkpt lat="46.05139586309906" lon="12.162042232591862"><ele>668.0</ele><time>2026-04-23T12:13:08Z</time></trkpt><trkpt lat="46.05140970352485" lon="12.16214937654286"><ele>668.0</ele><time>2026-04-23T12:13:09Z</time></trkpt><trkpt lat="46.05143137165044" lon="12.162256758962158"><ele>668.0</ele><time>2026-04-23T12:13:10Z</time></trkpt><trkpt lat="46.051455637048775" lon="12.162358818556784"><ele>668.0</ele><time>2026-04-23T12:13:11Z</time></trkpt><trkpt lat="46.05147827773748" lon="12.162451716616227"><ele>668.0</ele><time>2026-04-23T12:13:12Z</time></trkpt><trkpt lat="46.05149676487754" lon="12.162544681058211"><ele>668.0</ele><time>2026-04-23T12:13:13Z</time></trkpt><trkpt lat="46.0515623141157" lon="12.162688946828203"><ele>667.3333333333333</ele><time>2026-04-23T12:13:15Z</time></trkpt><trkpt lat="46.051620637602426" lon="12.162735266930671"><ele>666.6666666666666</ele><time>2026-04-23T12:13:16Z</time></trkpt><trkpt lat="46.05168188533485" lon="12.16276763307165"><ele>666.0</ele><time>2026-04-23T12:13:17Z</time></trkpt><trkpt lat="46.05178574136186" lon="12.162824367146836"><ele>665.3333333333334</ele><time>2026-04-23T12:13:19Z</time></trkpt><trkpt lat="46.05185395515081" lon="12.162881135954661"><ele>664.6666666666667</ele><time>2026-04-23T12:13:21.001Z</time></trkpt><trkpt lat="46.051917840559504" lon="12.16288697649225"><ele>664.0</ele><time>2026-04-23T12:13:23.001Z</time></trkpt><trkpt lat="46.05208334542314" lon="12.16250889622809"><ele>661.0</ele><time>2026-04-23T12:13:25.001Z</time></trkpt><trkpt lat="46.05215941375949" lon="12.162409161219612"><ele>658.0</ele><time>2026-04-23T12:13:26.001Z</time></trkpt><trkpt lat="46.05223261025682" lon="12.162321213900995"><ele>655.0</ele><time>2026-04-23T12:13:27.001Z</time></trkpt><trkpt lat="46.05229676081955" lon="12.162233394664064"><ele>652.0</ele><time>2026-04-23T12:13:28.001Z</time></trkpt><trkpt lat="46.05236838009203" lon="12.162142877052526"><ele>649.0</ele><time>2026-04-23T12:13:29.001Z</time></trkpt><trkpt lat="46.05244091469895" lon="12.162050391511151"><ele>646.3333333333334</ele><time>2026-04-23T12:13:30.001Z</time></trkpt><trkpt lat="46.052509127959915" lon="12.161962781323307"><ele>643.6666666666667</ele><time>2026-04-23T12:13:31.001Z</time></trkpt><trkpt lat="46.052579012786445" lon="12.161877260864895"><ele>641.0</ele><time>2026-04-23T12:13:32.001Z</time></trkpt><trkpt lat="46.05264289943145" lon="12.16179292997602"><ele>638.3333333333334</ele><time>2026-04-23T12:13:33.001Z</time></trkpt><trkpt lat="46.05271393010671" lon="12.161727158151066"><ele>635.6666666666666</ele><time>2026-04-23T12:13:34.001Z</time></trkpt><trkpt lat="46.05280161799475" lon="12.161689598046518"><ele>633.0</ele><time>2026-04-23T12:13:35.001Z</time></trkpt><trkpt lat="46.05290987758864" lon="12.161677311332728"><ele>633.0</ele><time>2026-04-23T12:13:36.001Z</time></trkpt><trkpt lat="46.053027073875676" lon="12.161681345269367"><ele>633.0</ele><time>2026-04-23T12:13:37.001Z</time></trkpt><trkpt lat="46.05314098379546" lon="12.161678925778675"><ele>633.0</ele><time>2026-04-23T12:13:38.001Z</time></trkpt><trkpt lat="46.05324731575818" lon="12.161661211236007"><ele>633.0</ele><time>2026-04-23T12:13:39.001Z</time></trkpt><trkpt lat="46.05335542485658" lon="12.161637405842871"><ele>633.0</ele><time>2026-04-23T12:13:40.001Z</time></trkpt><trkpt lat="46.05345808207712" lon="12.161614435560798"><ele>631.0</ele><time>2026-04-23T12:13:41.001Z</time></trkpt><trkpt lat="46.053558494216254" lon="12.161608901118788"><ele>629.0</ele><time>2026-04-23T12:13:42.001Z</time></trkpt><trkpt lat="46.053653798326465" lon="12.161581457535322"><ele>627.0</ele><time>2026-04-23T12:13:43.001Z</time></trkpt><trkpt lat="46.05374636869777" lon="12.161564681880806"><ele>625.0</ele><time>2026-04-23T12:13:44.001Z</time></trkpt><trkpt lat="46.05383638147634" lon="12.161553737025889"><ele>623.0</ele><time>2026-04-23T12:13:45.001Z</time></trkpt><trkpt lat="46.05391807092617" lon="12.161544423145608"><ele>623.0</ele><time>2026-04-23T12:13:46.001Z</time></trkpt><trkpt lat="46.05398566351749" lon="12.161536716526168"><ele>623.0</ele><time>2026-04-23T12:13:47.001Z</time></trkpt><trkpt lat="46.054052374256194" lon="12.161514135583438"><ele>623.0</ele><time>2026-04-23T12:13:48.001Z</time></trkpt><trkpt lat="46.05416791111453" lon="12.161488702362426"><ele>623.0</ele><time>2026-04-23T12:13:50.001Z</time></trkpt><trkpt lat="46.05424195122281" lon="12.161477326789107"><ele>623.0</ele><time>2026-04-23T12:13:52.001Z</time></trkpt><trkpt lat="46.05417453774627" lon="12.161509765462531"><ele>623.0</ele><time>2026-04-23T12:13:55.001Z</time></trkpt><trkpt lat="46.05408863450445" lon="12.161524657039381"><ele>623.0</ele><time>2026-04-23T12:13:56.001Z</time></trkpt><trkpt lat="46.054012069713146" lon="12.16169260540531"><ele>623.0</ele><time>2026-04-23T12:13:57.001Z</time></trkpt><trkpt lat="46.05393579308382" lon="12.161737518444934"><ele>623.0</ele><time>2026-04-23T12:13:58.001Z</time></trkpt><trkpt lat="46.05385963160849" lon="12.161784016739496"><ele>623.0</ele><time>2026-04-23T12:13:59.001Z</time></trkpt><trkpt lat="46.05379366340038" lon="12.161846762991429"><ele>623.0</ele><time>2026-04-23T12:14:00.001Z</time></trkpt><trkpt lat="46.05372772203072" lon="12.161918047851014"><ele>623.0</ele><time>2026-04-23T12:14:01.001Z</time></trkpt><trkpt lat="46.05370610287761" lon="12.162082752492635"><ele>623.0</ele><time>2026-04-23T12:14:02.001Z</time></trkpt><trkpt lat="46.053716016971414" lon="12.16224964456648"><ele>623.0</ele><time>2026-04-23T12:14:03.001Z</time></trkpt><trkpt lat="46.053758073498734" lon="12.162393145305249"><ele>623.0</ele><time>2026-04-23T12:14:04.001Z</time></trkpt><trkpt lat="46.05379171599701" lon="12.162521649684187"><ele>623.0</ele><time>2026-04-23T12:14:05.001Z</time></trkpt><trkpt lat="46.053792302993614" lon="12.16264782813589"><ele>623.5</ele><time>2026-04-23T12:14:06.001Z</time></trkpt><trkpt lat="46.053760608450716" lon="12.1628054458468"><ele>624.0</ele><time>2026-04-23T12:14:07.001Z</time></trkpt><trkpt lat="46.0537341164713" lon="12.16297842106267"><ele>624.5</ele><time>2026-04-23T12:14:08.001Z</time></trkpt><trkpt lat="46.05372455052773" lon="12.1631471138126"><ele>625.0</ele><time>2026-04-23T12:14:09Z</time></trkpt><trkpt lat="46.05374322073555" lon="12.163326603015184"><ele>625.25</ele><time>2026-04-23T12:14:10Z</time></trkpt><trkpt lat="46.05378817512869" lon="12.163513680308405"><ele>625.5</ele><time>2026-04-23T12:14:11Z</time></trkpt><trkpt lat="46.0538491072379" lon="12.163704547222693"><ele>625.75</ele><time>2026-04-23T12:14:12Z</time></trkpt><trkpt lat="46.05390831444908" lon="12.1638944613981"><ele>626.0</ele><time>2026-04-23T12:14:13Z</time></trkpt><trkpt lat="46.05396228945978" lon="12.16407552824149"><ele>625.5</ele><time>2026-04-23T12:14:14Z</time></trkpt><trkpt lat="46.05401137422334" lon="12.164245023472661"><ele>625.0</ele><time>2026-04-23T12:14:15Z</time></trkpt><trkpt lat="46.05405896703391" lon="12.164399415062642"><ele>624.5</ele><time>2026-04-23T12:14:16Z</time></trkpt><trkpt lat="46.05410780791428" lon="12.164550586634624"><ele>624.0</ele><time>2026-04-23T12:14:17Z</time></trkpt><trkpt lat="46.054153766116954" lon="12.164706373956264"><ele>624.0</ele><time>2026-04-23T12:14:18Z</time></trkpt><trkpt lat="46.05418742684841" lon="12.164859487352189"><ele>624.0</ele><time>2026-04-23T12:14:19Z</time></trkpt><trkpt lat="46.054197761450254" lon="12.165013734923628"><ele>624.0</ele><time>2026-04-23T12:14:20Z</time></trkpt><trkpt lat="46.054182172788835" lon="12.165180119315034"><ele>624.0</ele><time>2026-04-23T12:14:21Z</time></trkpt><trkpt lat="46.054102446355294" lon="12.165304076192461"><ele>625.75</ele><time>2026-04-23T12:14:22Z</time></trkpt><trkpt lat="46.054026050620465" lon="12.165453299956578"><ele>627.5</ele><time>2026-04-23T12:14:23Z</time></trkpt><trkpt lat="46.053953532078644" lon="12.165612854758733"><ele>629.25</ele><time>2026-04-23T12:14:24Z</time></trkpt><trkpt lat="46.053881895897625" lon="12.165753689166944"><ele>631.0</ele><time>2026-04-23T12:14:25Z</time></trkpt><trkpt lat="46.053819068285186" lon="12.16587995626062"><ele>631.0</ele><time>2026-04-23T12:14:26Z</time></trkpt><trkpt lat="46.05376871170217" lon="12.16600028863955"><ele>631.0</ele><time>2026-04-23T12:14:27Z</time></trkpt><trkpt lat="46.053743474981516" lon="12.166106769973924"><ele>631.0</ele><time>2026-04-23T12:14:28Z</time></trkpt><trkpt lat="46.05376417639577" lon="12.166203804982338"><ele>631.0</ele><time>2026-04-23T12:14:29Z</time></trkpt><trkpt lat="46.05382527691026" lon="12.166261631410936"><ele>631.0</ele><time>2026-04-23T12:14:30Z</time></trkpt><trkpt lat="46.053912239918624" lon="12.16626107485691"><ele>631.0</ele><time>2026-04-23T12:14:31Z</time></trkpt><trkpt lat="46.05400351863129" lon="12.166197032985808"><ele>631.0</ele><time>2026-04-23T12:14:32Z</time></trkpt><trkpt lat="46.05410354566939" lon="12.166154000992089"><ele>631.0</ele><time>2026-04-23T12:14:33Z</time></trkpt><trkpt lat="46.054199318368724" lon="12.166122890330644"><ele>631.0</ele><time>2026-04-23T12:14:34Z</time></trkpt><trkpt lat="46.05428245127113" lon="12.166125137291944"><ele>631.0</ele><time>2026-04-23T12:14:35Z</time></trkpt><trkpt lat="46.0543537316041" lon="12.166131951662488"><ele>631.0</ele><time>2026-04-23T12:14:36Z</time></trkpt><trkpt lat="46.054414267245235" lon="12.166208129486"><ele>631.0</ele><time>2026-04-23T12:14:37Z</time></trkpt><trkpt lat="46.05445520508147" lon="12.166327312008558"><ele>630.75</ele><time>2026-04-23T12:14:38Z</time></trkpt><trkpt lat="46.05446054907393" lon="12.166478770893749"><ele>630.5</ele><time>2026-04-23T12:14:39Z</time></trkpt><trkpt lat="46.05448343718331" lon="12.16663665915622"><ele>630.25</ele><time>2026-04-23T12:14:40Z</time></trkpt><trkpt lat="46.05448644339168" lon="12.166807833182881"><ele>630.0</ele><time>2026-04-23T12:14:41Z</time></trkpt><trkpt lat="46.05448418747943" lon="12.166991144513629"><ele>630.0</ele><time>2026-04-23T12:14:42Z</time></trkpt><trkpt lat="46.05446233656167" lon="12.167182241734707"><ele>630.0</ele><time>2026-04-23T12:14:43Z</time></trkpt><trkpt lat="46.05442554328254" lon="12.167374826876468"><ele>630.0</ele><time>2026-04-23T12:14:44Z</time></trkpt><trkpt lat="46.05441265634237" lon="12.167586618727762"><ele>630.0</ele><time>2026-04-23T12:14:45Z</time></trkpt><trkpt lat="46.054437129268045" lon="12.167801483781034"><ele>630.75</ele><time>2026-04-23T12:14:46Z</time></trkpt><trkpt lat="46.05447747653133" lon="12.16797947116267"><ele>631.5</ele><time>2026-04-23T12:14:47Z</time></trkpt><trkpt lat="46.054515861781354" lon="12.168135903869246"><ele>632.25</ele><time>2026-04-23T12:14:48Z</time></trkpt><trkpt lat="46.054543427008724" lon="12.168300386693357"><ele>633.0</ele><time>2026-04-23T12:14:49Z</time></trkpt><trkpt lat="46.05455885813007" lon="12.168465928073761"><ele>634.5</ele><time>2026-04-23T12:14:50Z</time></trkpt><trkpt lat="46.05455872906821" lon="12.168631390571647"><ele>636.0</ele><time>2026-04-23T12:14:51Z</time></trkpt><trkpt lat="46.05454507375606" lon="12.168812723985608"><ele>637.5</ele><time>2026-04-23T12:14:52Z</time></trkpt><trkpt lat="46.054528346137" lon="12.168985736203274"><ele>639.0</ele><time>2026-04-23T12:14:53Z</time></trkpt><trkpt lat="46.054521336048424" lon="12.169139687711096"><ele>640.0</ele><time>2026-04-23T12:14:54Z</time></trkpt><trkpt lat="46.05450264662236" lon="12.169279027309349"><ele>641.0</ele><time>2026-04-23T12:14:55Z</time></trkpt><trkpt lat="46.05445558473036" lon="12.169403322604019"><ele>642.0</ele><time>2026-04-23T12:14:56Z</time></trkpt><trkpt lat="46.054381047080966" lon="12.169523829214096"><ele>643.0</ele><time>2026-04-23T12:14:57Z</time></trkpt><trkpt lat="46.05426597284524" lon="12.169599611439914"><ele>644.0</ele><time>2026-04-23T12:14:58Z</time></trkpt><trkpt lat="46.05414933885071" lon="12.169682136490646"><ele>645.0</ele><time>2026-04-23T12:14:59Z</time></trkpt><trkpt lat="46.05402102942692" lon="12.169733676326576"><ele>646.0</ele><time>2026-04-23T12:15:00Z</time></trkpt><trkpt lat="46.05389827262782" lon="12.169741057504664"><ele>647.0</ele><time>2026-04-23T12:15:01Z</time></trkpt><trkpt lat="46.05378138568355" lon="12.169718123740465"><ele>648.0</ele><time>2026-04-23T12:15:02Z</time></trkpt><trkpt lat="46.053679937060814" lon="12.169658702948254"><ele>648.0</ele><time>2026-04-23T12:15:03Z</time></trkpt><trkpt lat="46.053578389659414" lon="12.169627948713428"><ele>648.0</ele><time>2026-04-23T12:15:04Z</time></trkpt><trkpt lat="46.05350116200571" lon="12.169593810832627"><ele>648.0</ele><time>2026-04-23T12:15:05Z</time></trkpt><trkpt lat="46.05339450810931" lon="12.169603340363908"><ele>648.0</ele><time>2026-04-23T12:15:07Z</time></trkpt><trkpt lat="46.05339199315487" lon="12.169806396785452"><ele>648.0</ele><time>2026-04-23T12:15:08Z</time></trkpt><trkpt lat="46.05344432861989" lon="12.169928891897001"><ele>648.0</ele><time>2026-04-23T12:15:09.001Z</time></trkpt><trkpt lat="46.05352830252275" lon="12.170032480412933"><ele>648.0</ele><time>2026-04-23T12:15:10.001Z</time></trkpt><trkpt lat="46.05362321395034" lon="12.170131100856782"><ele>648.0</ele><time>2026-04-23T12:15:11.001Z</time></trkpt><trkpt lat="46.053719585953175" lon="12.170214909876556"><ele>648.0</ele><time>2026-04-23T12:15:12.001Z</time></trkpt><trkpt lat="46.053823822840315" lon="12.170291789363938"><ele>648.0</ele><time>2026-04-23T12:15:13.001Z</time></trkpt><trkpt lat="46.053942108022206" lon="12.170358306670943"><ele>648.0</ele><time>2026-04-23T12:15:14.001Z</time></trkpt><trkpt lat="46.05406762251605" lon="12.170401677157393"><ele>648.0</ele><time>2026-04-23T12:15:15.001Z</time></trkpt><trkpt lat="46.054182333152" lon="12.170456759939311"><ele>648.0</ele><time>2026-04-23T12:15:16.001Z</time></trkpt><trkpt lat="46.05428833710444" lon="12.170494835618438"><ele>648.0</ele><time>2026-04-23T12:15:17.001Z</time></trkpt><trkpt lat="46.05439289913111" lon="12.170573100487765"><ele>648.0</ele><time>2026-04-23T12:15:18.001Z</time></trkpt><trkpt lat="46.05448491530881" lon="12.17069394083947"><ele>648.0</ele><time>2026-04-23T12:15:19.001Z</time></trkpt><trkpt lat="46.0545435758098" lon="12.170861568084064"><ele>648.0</ele><time>2026-04-23T12:15:20.001Z</time></trkpt><trkpt lat="46.05460934203857" lon="12.171020213006706"><ele>648.0</ele><time>2026-04-23T12:15:21.001Z</time></trkpt><trkpt lat="46.05466126505211" lon="12.171150110612462"><ele>648.0</ele><time>2026-04-23T12:15:22.001Z</time></trkpt><trkpt lat="46.05471770547471" lon="12.171277012628293"><ele>648.0</ele><time>2026-04-23T12:15:23.001Z</time></trkpt><trkpt lat="46.05477476333495" lon="12.171405257038394"><ele>648.0</ele><time>2026-04-23T12:15:24.001Z</time></trkpt><trkpt lat="46.05484482698716" lon="12.1715448501667"><ele>648.0</ele><time>2026-04-23T12:15:25.001Z</time></trkpt><trkpt lat="46.05491970843832" lon="12.171683439360983"><ele>650.0</ele><time>2026-04-23T12:15:26.001Z</time></trkpt><trkpt lat="46.055002107667015" lon="12.1718217419435"><ele>652.0</ele><time>2026-04-23T12:15:27.001Z</time></trkpt><trkpt lat="46.0550829176499" lon="12.171966781342999"><ele>654.0</ele><time>2026-04-23T12:15:28.001Z</time></trkpt><trkpt lat="46.05515585853511" lon="12.172117509253004"><ele>656.0</ele><time>2026-04-23T12:15:29.001Z</time></trkpt><trkpt lat="46.05523551496813" lon="12.17226771191923"><ele>658.5</ele><time>2026-04-23T12:15:30.001Z</time></trkpt><trkpt lat="46.05532032303316" lon="12.17242549445715"><ele>661.0</ele><time>2026-04-23T12:15:31.001Z</time></trkpt><trkpt lat="46.05540627541612" lon="12.17258595465618"><ele>663.5</ele><time>2026-04-23T12:15:32.001Z</time></trkpt><trkpt lat="46.05549035507525" lon="12.172756677790439"><ele>666.0</ele><time>2026-04-23T12:15:33.001Z</time></trkpt><trkpt lat="46.05557315175691" lon="12.172908988203925"><ele>666.0</ele><time>2026-04-23T12:15:34.001Z</time></trkpt><trkpt lat="46.055640353773704" lon="12.17304071593037"><ele>666.0</ele><time>2026-04-23T12:15:35.001Z</time></trkpt><trkpt lat="46.05569193968143" lon="12.173144299178462"><ele>666.0</ele><time>2026-04-23T12:15:36.001Z</time></trkpt><trkpt lat="46.05573959607456" lon="12.17322786490468"><ele>666.0</ele><time>2026-04-23T12:15:37.001Z</time></trkpt><trkpt lat="46.055765228005484" lon="12.173390518285295"><ele>666.0</ele><time>2026-04-23T12:15:39.001Z</time></trkpt><trkpt lat="46.0557555131753" lon="12.17355275759216"><ele>668.0</ele><time>2026-04-23T12:15:41.001Z</time></trkpt><trkpt lat="46.0557227558416" lon="12.173704954174879"><ele>670.0</ele><time>2026-04-23T12:15:43.001Z</time></trkpt><trkpt lat="46.05570506824096" lon="12.17380131785819"><ele>672.0</ele><time>2026-04-23T12:15:44.001Z</time></trkpt><trkpt lat="46.05568974403666" lon="12.173902924784052"><ele>674.0</ele><time>2026-04-23T12:15:45.001Z</time></trkpt><trkpt lat="46.055679345442236" lon="12.1740074697753"><ele>676.0</ele><time>2026-04-23T12:15:47.001Z</time></trkpt><trkpt lat="46.05568388260298" lon="12.174134947572007"><ele>678.0</ele><time>2026-04-23T12:18:39.999Z</time></trkpt><trkpt lat="46.05568192844102" lon="12.174346177836997"><ele>679.2</ele><time>2026-04-23T12:18:41.999Z</time></trkpt><trkpt lat="46.05567177104629" lon="12.174478651998623"><ele>680.4</ele><time>2026-04-23T12:18:42.999Z</time></trkpt><trkpt lat="46.055661816791535" lon="12.17461798855959"><ele>681.6</ele><time>2026-04-23T12:18:43.999Z</time></trkpt><trkpt lat="46.05564223422331" lon="12.174767153710414"><ele>682.8000000000001</ele><time>2026-04-23T12:18:44.999Z</time></trkpt><trkpt lat="46.055593644023816" lon="12.174889004338269"><ele>684.0</ele><time>2026-04-23T12:18:45.999Z</time></trkpt><trkpt lat="46.055506165488396" lon="12.174970997273563"><ele>684.0</ele><time>2026-04-23T12:18:46.999Z</time></trkpt><trkpt lat="46.055408194203025" lon="12.175077800574343"><ele>684.0</ele><time>2026-04-23T12:18:47.999Z</time></trkpt><trkpt lat="46.05531274674709" lon="12.175202143855556"><ele>684.0</ele><time>2026-04-23T12:18:48.999Z</time></trkpt><trkpt lat="46.05520409277155" lon="12.175312620326297"><ele>684.0</ele><time>2026-04-23T12:18:49.999Z</time></trkpt><trkpt lat="46.05510001374345" lon="12.17542864724194"><ele>684.0</ele><time>2026-04-23T12:18:50.999Z</time></trkpt><trkpt lat="46.05498673862171" lon="12.175533678459649"><ele>684.0</ele><time>2026-04-23T12:18:51.999Z</time></trkpt><trkpt lat="46.05490969351551" lon="12.175662455347165"><ele>684.0</ele><time>2026-04-23T12:18:52.999Z</time></trkpt><trkpt lat="46.05484317030573" lon="12.175785615284518"><ele>684.0</ele><time>2026-04-23T12:18:53.999Z</time></trkpt><trkpt lat="46.05479694973355" lon="12.175925391668764"><ele>687.25</ele><time>2026-04-23T12:18:54.999Z</time></trkpt><trkpt lat="46.05476341527683" lon="12.176071060239154"><ele>690.5</ele><time>2026-04-23T12:18:55.999Z</time></trkpt><trkpt lat="46.054730234394036" lon="12.176216033138552"><ele>693.75</ele><time>2026-04-23T12:18:56.999Z</time></trkpt><trkpt lat="46.05467767164252" lon="12.176362381413126"><ele>697.0</ele><time>2026-04-23T12:18:57.999Z</time></trkpt><trkpt lat="46.05459654636432" lon="12.176502987953683"><ele>695.5</ele><time>2026-04-23T12:18:58.999Z</time></trkpt><trkpt lat="46.05450016454691" lon="12.176623146539464"><ele>694.0</ele><time>2026-04-23T12:18:59.999Z</time></trkpt><trkpt lat="46.0543890667933" lon="12.1767354288386"><ele>692.5</ele><time>2026-04-23T12:19:01Z</time></trkpt><trkpt lat="46.054267788216166" lon="12.176852510346526"><ele>691.0</ele><time>2026-04-23T12:19:02Z</time></trkpt><trkpt lat="46.05414638468073" lon="12.176980808286265"><ele>692.3333333333334</ele><time>2026-04-23T12:19:03Z</time></trkpt><trkpt lat="46.05403021485433" lon="12.177126887896716"><ele>693.6666666666666</ele><time>2026-04-23T12:19:04Z</time></trkpt><trkpt lat="46.05392539192444" lon="12.177294595458848"><ele>695.0</ele><time>2026-04-23T12:19:05Z</time></trkpt><trkpt lat="46.05382000529628" lon="12.177464343855565"><ele>695.0</ele><time>2026-04-23T12:19:06Z</time></trkpt><trkpt lat="46.053716176197106" lon="12.177641658257043"><ele>695.0</ele><time>2026-04-23T12:19:07Z</time></trkpt><trkpt lat="46.05361334818203" lon="12.177810045973613"><ele>695.0</ele><time>2026-04-23T12:19:08Z</time></trkpt><trkpt lat="46.053512541090896" lon="12.177957636522832"><ele>695.0</ele><time>2026-04-23T12:19:09Z</time></trkpt><trkpt lat="46.05340522598823" lon="12.17809743018411"><ele>695.0</ele><time>2026-04-23T12:19:10Z</time></trkpt><trkpt lat="46.05329055556163" lon="12.178221585642849"><ele>695.0</ele><time>2026-04-23T12:19:11Z</time></trkpt><trkpt lat="46.05317184236567" lon="12.17833724369186"><ele>695.0</ele><time>2026-04-23T12:19:12Z</time></trkpt><trkpt lat="46.05305551214473" lon="12.17844797826217"><ele>696.75</ele><time>2026-04-23T12:19:13Z</time></trkpt><trkpt lat="46.05295149809118" lon="12.178561705984528"><ele>698.5</ele><time>2026-04-23T12:19:14Z</time></trkpt><trkpt lat="46.05287040155716" lon="12.178696436045096"><ele>700.25</ele><time>2026-04-23T12:19:15Z</time></trkpt><trkpt lat="46.05279220079531" lon="12.178855414739365"><ele>702.0</ele><time>2026-04-23T12:19:16Z</time></trkpt><trkpt lat="46.05270977542995" lon="12.179012750588724"><ele>699.0</ele><time>2026-04-23T12:19:17Z</time></trkpt><trkpt lat="46.05263201528183" lon="12.17918605979721"><ele>696.0</ele><time>2026-04-23T12:19:18Z</time></trkpt><trkpt lat="46.05254297079179" lon="12.179355692937195"><ele>693.0</ele><time>2026-04-23T12:19:19Z</time></trkpt><trkpt lat="46.05245040785396" lon="12.179536905912242"><ele>690.0</ele><time>2026-04-23T12:19:20Z</time></trkpt><trkpt lat="46.05237189101643" lon="12.179732258705217"><ele>693.0</ele><time>2026-04-23T12:19:21Z</time></trkpt><trkpt lat="46.052311023497" lon="12.179919554472654"><ele>696.0</ele><time>2026-04-23T12:19:22Z</time></trkpt><trkpt lat="46.05225247256801" lon="12.180085164864225"><ele>699.0</ele><time>2026-04-23T12:19:23Z</time></trkpt><trkpt lat="46.05219511202639" lon="12.18024470671141"><ele>702.0</ele><time>2026-04-23T12:19:24Z</time></trkpt><trkpt lat="46.05214139825153" lon="12.180413228227472"><ele>702.0</ele><time>2026-04-23T12:19:25Z</time></trkpt><trkpt lat="46.0520800743376" lon="12.180558377472924"><ele>702.0</ele><time>2026-04-23T12:19:26Z</time></trkpt><trkpt lat="46.05201922396948" lon="12.180711610731894"><ele>702.0</ele><time>2026-04-23T12:19:27Z</time></trkpt><trkpt lat="46.05196378091104" lon="12.180861570041829"><ele>702.0</ele><time>2026-04-23T12:19:28Z</time></trkpt><trkpt lat="46.05191259443833" lon="12.18099533145228"><ele>701.6</ele><time>2026-04-23T12:19:29Z</time></trkpt><trkpt lat="46.05186764524671" lon="12.181107363768177"><ele>701.2</ele><time>2026-04-23T12:19:30Z</time></trkpt><trkpt lat="46.05182093570997" lon="12.181226258289415"><ele>700.8</ele><time>2026-04-23T12:19:31Z</time></trkpt><trkpt lat="46.051761286586014" lon="12.18134982232714"><ele>700.4</ele><time>2026-04-23T12:19:32Z</time></trkpt><trkpt lat="46.051688856668974" lon="12.181464769961629"><ele>700.0</ele><time>2026-04-23T12:19:33Z</time></trkpt><trkpt lat="46.05160821969303" lon="12.181581809559184"><ele>700.0</ele><time>2026-04-23T12:19:34Z</time></trkpt><trkpt lat="46.05153152793357" lon="12.18169815968914"><ele>700.0</ele><time>2026-04-23T12:19:35Z</time></trkpt><trkpt lat="46.05146692236378" lon="12.18181484538562"><ele>700.0</ele><time>2026-04-23T12:19:36Z</time></trkpt><trkpt lat="46.05141181229179" lon="12.18195172330866"><ele>700.0</ele><time>2026-04-23T12:19:37Z</time></trkpt><trkpt lat="46.051367730245474" lon="12.182097961495877"><ele>700.0</ele><time>2026-04-23T12:19:38Z</time></trkpt><trkpt lat="46.05133808500772" lon="12.182258869218249"><ele>700.0</ele><time>2026-04-23T12:19:39Z</time></trkpt><trkpt lat="46.051295816227295" lon="12.182409668049424"><ele>700.0</ele><time>2026-04-23T12:19:40Z</time></trkpt><trkpt lat="46.051248921769904" lon="12.182563377601014"><ele>700.0</ele><time>2026-04-23T12:19:41Z</time></trkpt><trkpt lat="46.051196933235786" lon="12.182715620805814"><ele>700.0</ele><time>2026-04-23T12:19:42Z</time></trkpt><trkpt lat="46.051141666242344" lon="12.182871471177895"><ele>700.0</ele><time>2026-04-23T12:19:43Z</time></trkpt><trkpt lat="46.05108660901634" lon="12.183033468262604"><ele>700.0</ele><time>2026-04-23T12:19:44Z</time></trkpt><trkpt lat="46.05102764135828" lon="12.183207342021309"><ele>700.0</ele><time>2026-04-23T12:19:45Z</time></trkpt><trkpt lat="46.05096018424758" lon="12.183383561405616"><ele>700.0</ele><time>2026-04-23T12:19:46Z</time></trkpt><trkpt lat="46.050882059884145" lon="12.183560799769149"><ele>698.6666666666667</ele><time>2026-04-23T12:19:47Z</time></trkpt><trkpt lat="46.050793921705704" lon="12.18373656537761"><ele>697.3333333333334</ele><time>2026-04-23T12:19:48Z</time></trkpt><trkpt lat="46.050700362867346" lon="12.183904973294748"><ele>696.0</ele><time>2026-04-23T12:19:49Z</time></trkpt><trkpt lat="46.050599749263654" lon="12.184074021066042"><ele>699.0</ele><time>2026-04-23T12:19:50Z</time></trkpt><trkpt lat="46.05050033612104" lon="12.184242468480603"><ele>702.0</ele><time>2026-04-23T12:19:51Z</time></trkpt><trkpt lat="46.05040013142684" lon="12.18440957936888"><ele>705.0</ele><time>2026-04-23T12:19:52Z</time></trkpt><trkpt lat="46.050300308535455" lon="12.184576441374205"><ele>705.0</ele><time>2026-04-23T12:19:53Z</time></trkpt><trkpt lat="46.050198824581315" lon="12.184731725580395"><ele>705.0</ele><time>2026-04-23T12:19:54Z</time></trkpt><trkpt lat="46.05010289428199" lon="12.184867200839804"><ele>705.0</ele><time>2026-04-23T12:19:55.001Z</time></trkpt><trkpt lat="46.05000638583803" lon="12.18498759556729"><ele>705.0</ele><time>2026-04-23T12:19:56.001Z</time></trkpt><trkpt lat="46.04991433823773" lon="12.185092074551479"><ele>706.4</ele><time>2026-04-23T12:19:57.001Z</time></trkpt><trkpt lat="46.04982971998274" lon="12.185183570361156"><ele>707.8</ele><time>2026-04-23T12:19:58.001Z</time></trkpt><trkpt lat="46.04975173668934" lon="12.185270254499939"><ele>709.2</ele><time>2026-04-23T12:19:59.001Z</time></trkpt><trkpt lat="46.04968039254143" lon="12.185345180191336"><ele>710.6</ele><time>2026-04-23T12:20:00.001Z</time></trkpt><trkpt lat="46.04960908211595" lon="12.18542250096036"><ele>712.0</ele><time>2026-04-23T12:20:01.001Z</time></trkpt><trkpt lat="46.04953596985746" lon="12.1854911219988"><ele>712.0</ele><time>2026-04-23T12:20:02.001Z</time></trkpt><trkpt lat="46.04946771007561" lon="12.185534133593864"><ele>712.0</ele><time>2026-04-23T12:20:03.001Z</time></trkpt><trkpt lat="46.049361120069136" lon="12.185609968395791"><ele>712.0</ele><time>2026-04-23T12:20:05.001Z</time></trkpt><trkpt lat="46.04928504928799" lon="12.185636398309061"><ele>712.0</ele><time>2026-04-23T12:20:07.001Z</time></trkpt><trkpt lat="46.049467077677726" lon="12.18557562653397"><ele>712.0</ele><time>2026-04-23T12:20:13.001Z</time></trkpt><trkpt lat="46.049541159916224" lon="12.18545824538988"><ele>712.0</ele><time>2026-04-23T12:20:14.001Z</time></trkpt><trkpt lat="46.04964736267478" lon="12.185376250419148"><ele>712.0</ele><time>2026-04-23T12:20:15.001Z</time></trkpt><trkpt lat="46.049751909014475" lon="12.185287386313552"><ele>712.0</ele><time>2026-04-23T12:20:16.001Z</time></trkpt><trkpt lat="46.04986324061513" lon="12.18518436264081"><ele>709.6666666666667</ele><time>2026-04-23T12:20:17.001Z</time></trkpt><trkpt lat="46.049994652885474" lon="12.185074109391584"><ele>707.3333333333334</ele><time>2026-04-23T12:20:18.001Z</time></trkpt><trkpt lat="46.050114244317186" lon="12.184927987626443"><ele>705.0</ele><time>2026-04-23T12:20:19.001Z</time></trkpt><trkpt lat="46.05022608923068" lon="12.184770904260525"><ele>705.0</ele><time>2026-04-23T12:20:20.001Z</time></trkpt><trkpt lat="46.05032450363701" lon="12.184588050580231"><ele>705.0</ele><time>2026-04-23T12:20:21.001Z</time></trkpt><trkpt lat="46.050424103200875" lon="12.184411833419562"><ele>705.0</ele><time>2026-04-23T12:20:22.001Z</time></trkpt><trkpt lat="46.0505210736107" lon="12.18424572301189"><ele>705.0</ele><time>2026-04-23T12:20:23.001Z</time></trkpt><trkpt lat="46.05060741405523" lon="12.18409492013254"><ele>705.0</ele><time>2026-04-23T12:20:24.001Z</time></trkpt><trkpt lat="46.050691841935695" lon="12.183950913351552"><ele>705.0</ele><time>2026-04-23T12:20:25.001Z</time></trkpt><trkpt lat="46.05077636658821" lon="12.183799377375285"><ele>705.0</ele><time>2026-04-23T12:20:26.001Z</time></trkpt><trkpt lat="46.0508780958639" lon="12.183648304503711"><ele>703.75</ele><time>2026-04-23T12:20:26.998Z</time></trkpt><trkpt lat="46.0509585681857" lon="12.18346877341405"><ele>702.5</ele><time>2026-04-23T12:20:27.998Z</time></trkpt><trkpt lat="46.05101115361173" lon="12.183286052618618"><ele>701.25</ele><time>2026-04-23T12:20:28.998Z</time></trkpt><trkpt lat="46.05108078183518" lon="12.183143780344858"><ele>700.0</ele><time>2026-04-23T12:20:29.998Z</time></trkpt><trkpt lat="46.051136457742714" lon="12.1829905962482"><ele>700.0</ele><time>2026-04-23T12:20:30.998Z</time></trkpt><trkpt lat="46.05119381579014" lon="12.182835976873378"><ele>700.0</ele><time>2026-04-23T12:20:31.998Z</time></trkpt><trkpt lat="46.05124711061371" lon="12.182690372860367"><ele>700.0</ele><time>2026-04-23T12:20:32.998Z</time></trkpt><trkpt lat="46.05129089791272" lon="12.182553638924452"><ele>700.0</ele><time>2026-04-23T12:20:33.998Z</time></trkpt><trkpt lat="46.051325489029026" lon="12.182431644379024"><ele>700.0</ele><time>2026-04-23T12:20:34.998Z</time></trkpt><trkpt lat="46.05135127347905" lon="12.182325503986053"><ele>700.0</ele><time>2026-04-23T12:20:35.998Z</time></trkpt><trkpt lat="46.05136025233511" lon="12.18220932905584"><ele>700.0</ele><time>2026-04-23T12:20:37.998Z</time></trkpt><trkpt lat="46.051458702954605" lon="12.182395236566414"><ele>700.0</ele><time>2026-04-23T12:20:40.998Z</time></trkpt><trkpt lat="46.05146984038342" lon="12.18252968168367"><ele>700.0</ele><time>2026-04-23T12:20:41.998Z</time></trkpt><trkpt lat="46.05147652307133" lon="12.182655495846788"><ele>700.0</ele><time>2026-04-23T12:20:42.999Z</time></trkpt><trkpt lat="46.05146737514963" lon="12.182818508394432"><ele>700.0</ele><time>2026-04-23T12:20:43.999Z</time></trkpt><trkpt lat="46.05144642079338" lon="12.182985844673558"><ele>700.0</ele><time>2026-04-23T12:20:44.999Z</time></trkpt><trkpt lat="46.05141734838646" lon="12.183154265309428"><ele>700.0</ele><time>2026-04-23T12:20:45.999Z</time></trkpt><trkpt lat="46.05138626655501" lon="12.183320250860914"><ele>700.0</ele><time>2026-04-23T12:20:46.999Z</time></trkpt><trkpt lat="46.05135660790437" lon="12.183479707608212"><ele>699.0</ele><time>2026-04-23T12:20:47.999Z</time></trkpt><trkpt lat="46.05132972357199" lon="12.183654317009704"><ele>698.0</ele><time>2026-04-23T12:20:48.999Z</time></trkpt><trkpt lat="46.05130140910001" lon="12.183829695606379"><ele>697.0</ele><time>2026-04-23T12:20:49.999Z</time></trkpt><trkpt lat="46.05127137077696" lon="12.184002415823493"><ele>696.0</ele><time>2026-04-23T12:20:50.999Z</time></trkpt><trkpt lat="46.051246556192815" lon="12.184185040179901"><ele>694.25</ele><time>2026-04-23T12:20:51.999Z</time></trkpt><trkpt lat="46.05123784394378" lon="12.184370596671464"><ele>692.5</ele><time>2026-04-23T12:20:52.999Z</time></trkpt><trkpt lat="46.05124375612507" lon="12.184557790034352"><ele>690.75</ele><time>2026-04-23T12:20:53.999Z</time></trkpt><trkpt lat="46.051247354209266" lon="12.184755551818798"><ele>689.0</ele><time>2026-04-23T12:20:54.999Z</time></trkpt><trkpt lat="46.05125174509819" lon="12.184937306987614"><ele>685.5</ele><time>2026-04-23T12:20:55.999Z</time></trkpt><trkpt lat="46.051264953061526" lon="12.185108520149704"><ele>682.0</ele><time>2026-04-23T12:20:56.999Z</time></trkpt><trkpt lat="46.051272469545864" lon="12.185271460391323"><ele>678.5</ele><time>2026-04-23T12:20:57.999Z</time></trkpt><trkpt lat="46.05127784993887" lon="12.185429848833525"><ele>675.0</ele><time>2026-04-23T12:20:58.999Z</time></trkpt><trkpt lat="46.05127968971076" lon="12.185584141744988"><ele>674.2</ele><time>2026-04-23T12:20:59.999Z</time></trkpt><trkpt lat="46.05127315618031" lon="12.185732620577413"><ele>673.4</ele><time>2026-04-23T12:21:00.999Z</time></trkpt><trkpt lat="46.051254551677786" lon="12.18587861148997"><ele>672.5999999999999</ele><time>2026-04-23T12:21:01.999Z</time></trkpt><trkpt lat="46.05122104427218" lon="12.186031319483867"><ele>671.8</ele><time>2026-04-23T12:21:03Z</time></trkpt><trkpt lat="46.05117404605222" lon="12.186184847455506"><ele>671.0</ele><time>2026-04-23T12:21:04Z</time></trkpt><trkpt lat="46.051140152112914" lon="12.186356933877482"><ele>670.8</ele><time>2026-04-23T12:21:05Z</time></trkpt><trkpt lat="46.05113172680831" lon="12.18653651917048"><ele>670.5999999999999</ele><time>2026-04-23T12:21:06Z</time></trkpt><trkpt lat="46.05113364350486" lon="12.186708630473182"><ele>670.4</ele><time>2026-04-23T12:21:07Z</time></trkpt><trkpt lat="46.0511321314555" lon="12.186848333604509"><ele>670.2</ele><time>2026-04-23T12:21:08Z</time></trkpt><trkpt lat="46.05112868716345" lon="12.186954436124303"><ele>670.0</ele><time>2026-04-23T12:21:09Z</time></trkpt><trkpt lat="46.051120275521775" lon="12.187044647568282"><ele>670.0</ele><time>2026-04-23T12:21:10Z</time></trkpt><trkpt lat="46.05111643832578" lon="12.187136878187902"><ele>670.0</ele><time>2026-04-23T12:21:11Z</time></trkpt><trkpt lat="46.0511069636199" lon="12.187247218003451"><ele>670.0</ele><time>2026-04-23T12:21:12Z</time></trkpt><trkpt lat="46.05108753072275" lon="12.187365668092013"><ele>670.0</ele><time>2026-04-23T12:21:13Z</time></trkpt><trkpt lat="46.05104454329947" lon="12.187493723163264"><ele>670.0</ele><time>2026-04-23T12:21:14Z</time></trkpt><trkpt lat="46.05096302667287" lon="12.187595527103671"><ele>670.0</ele><time>2026-04-23T12:21:15Z</time></trkpt><trkpt lat="46.05087363642953" lon="12.187698894409971"><ele>670.0</ele><time>2026-04-23T12:21:16Z</time></trkpt><trkpt lat="46.050800552508065" lon="12.187804494684395"><ele>670.0</ele><time>2026-04-23T12:21:17Z</time></trkpt><trkpt lat="46.05073867042015" lon="12.187904437327548"><ele>670.0</ele><time>2026-04-23T12:21:18Z</time></trkpt><trkpt lat="46.05068950996574" lon="12.18802302070451"><ele>670.0</ele><time>2026-04-23T12:21:19Z</time></trkpt><trkpt lat="46.05065319492214" lon="12.188163869518643"><ele>670.0</ele><time>2026-04-23T12:21:20Z</time></trkpt><trkpt lat="46.050628450611356" lon="12.188322248983521"><ele>670.0</ele><time>2026-04-23T12:21:21Z</time></trkpt><trkpt lat="46.050604628448625" lon="12.188497108694511"><ele>670.0</ele><time>2026-04-23T12:21:22Z</time></trkpt><trkpt lat="46.0505681403504" lon="12.188666045497577"><ele>670.0</ele><time>2026-04-23T12:21:23Z</time></trkpt><trkpt lat="46.0505421986215" lon="12.188825309898588"><ele>670.0</ele><time>2026-04-23T12:21:24Z</time></trkpt><trkpt lat="46.05050284353278" lon="12.188980055309669"><ele>669.0</ele><time>2026-04-23T12:21:25Z</time></trkpt><trkpt lat="46.05046344093327" lon="12.189138282790621"><ele>668.0</ele><time>2026-04-23T12:21:26Z</time></trkpt><trkpt lat="46.05044434217953" lon="12.189286540183064"><ele>667.0</ele><time>2026-04-23T12:21:27Z</time></trkpt><trkpt lat="46.05045384490414" lon="12.189447301956083"><ele>666.0</ele><time>2026-04-23T12:21:28Z</time></trkpt><trkpt lat="46.05048577615718" lon="12.189622368004159"><ele>666.0</ele><time>2026-04-23T12:21:29Z</time></trkpt><trkpt lat="46.05052952771421" lon="12.189792724734598"><ele>666.0</ele><time>2026-04-23T12:21:30Z</time></trkpt><trkpt lat="46.05056871185459" lon="12.189956538290039"><ele>666.0</ele><time>2026-04-23T12:21:31Z</time></trkpt><trkpt lat="46.05059680657531" lon="12.190101780299965"><ele>666.0</ele><time>2026-04-23T12:21:32Z</time></trkpt><trkpt lat="46.0506184942352" lon="12.190237423157944"><ele>666.0</ele><time>2026-04-23T12:21:33Z</time></trkpt><trkpt lat="46.05062874378423" lon="12.19038936820689"><ele>665.8</ele><time>2026-04-23T12:21:34Z</time></trkpt><trkpt lat="46.05063010949072" lon="12.1905345012411"><ele>665.5999999999999</ele><time>2026-04-23T12:21:35Z</time></trkpt><trkpt lat="46.05061462811029" lon="12.190673710186717"><ele>665.4</ele><time>2026-04-23T12:21:36Z</time></trkpt><trkpt lat="46.05057945230071" lon="12.190813105506482"><ele>665.2</ele><time>2026-04-23T12:21:37Z</time></trkpt><trkpt lat="46.05055381189561" lon="12.190950960645207"><ele>665.0</ele><time>2026-04-23T12:21:38Z</time></trkpt><trkpt lat="46.05045164290281" lon="12.191030464356933"><ele>664.6</ele><time>2026-04-23T12:21:39Z</time></trkpt><trkpt lat="46.050375230413486" lon="12.191115889212362"><ele>664.2</ele><time>2026-04-23T12:21:40Z</time></trkpt><trkpt lat="46.050296210241385" lon="12.191178418732989"><ele>663.8</ele><time>2026-04-23T12:21:41.001Z</time></trkpt><trkpt lat="46.05020501816531" lon="12.191203762129339"><ele>663.4</ele><time>2026-04-23T12:21:42.001Z</time></trkpt><trkpt lat="46.05011444657915" lon="12.19114300925992"><ele>663.0</ele><time>2026-04-23T12:21:43.001Z</time></trkpt><trkpt lat="46.0500255967355" lon="12.191127906562922"><ele>663.4</ele><time>2026-04-23T12:21:44.001Z</time></trkpt><trkpt lat="46.0499405419076" lon="12.191130325798389"><ele>663.8</ele><time>2026-04-23T12:21:45.001Z</time></trkpt><trkpt lat="46.049853445935106" lon="12.191165560933149"><ele>664.2</ele><time>2026-04-23T12:21:46.001Z</time></trkpt><trkpt lat="46.04976814347205" lon="12.19124319294113"><ele>664.6</ele><time>2026-04-23T12:21:47.001Z</time></trkpt><trkpt lat="46.049674033817894" lon="12.191294856408144"><ele>665.0</ele><time>2026-04-23T12:21:48.001Z</time></trkpt><trkpt lat="46.049579262000755" lon="12.191338520751295"><ele>665.0</ele><time>2026-04-23T12:21:49.001Z</time></trkpt><trkpt lat="46.04949398189032" lon="12.19137563220342"><ele>665.0</ele><time>2026-04-23T12:21:50.001Z</time></trkpt><trkpt lat="46.049410711946344" lon="12.191404722032006"><ele>665.0</ele><time>2026-04-23T12:21:51.001Z</time></trkpt><trkpt lat="46.04932823333069" lon="12.191397730068969"><ele>665.0</ele><time>2026-04-23T12:21:52.001Z</time></trkpt><trkpt lat="46.04921773186523" lon="12.191387818300916"><ele>665.0</ele><time>2026-04-23T12:21:54.001Z</time></trkpt><trkpt lat="46.04914622824098" lon="12.191391457810752"><ele>665.0</ele><time>2026-04-23T12:21:55.001Z</time></trkpt><trkpt lat="46.04907711481897" lon="12.19132697268264"><ele>667.6</ele><time>2026-04-23T12:21:56.001Z</time></trkpt><trkpt lat="46.049003898992176" lon="12.191263728594627"><ele>670.2</ele><time>2026-04-23T12:21:57.001Z</time></trkpt><trkpt lat="46.04891980566187" lon="12.191194248787506"><ele>672.8</ele><time>2026-04-23T12:21:58.001Z</time></trkpt><trkpt lat="46.04883558642169" lon="12.191122538718407"><ele>675.4</ele><time>2026-04-23T12:21:59.001Z</time></trkpt><trkpt lat="46.04876027897674" lon="12.191067957611263"><ele>678.0</ele><time>2026-04-23T12:22:00.001Z</time></trkpt><trkpt lat="46.04867280059663" lon="12.191042989986279"><ele>678.0</ele><time>2026-04-23T12:22:01.001Z</time></trkpt><trkpt lat="46.04857822878302" lon="12.19109433322033"><ele>678.0</ele><time>2026-04-23T12:22:02.001Z</time></trkpt><trkpt lat="46.04848585663099" lon="12.191146451594156"><ele>678.0</ele><time>2026-04-23T12:22:03.001Z</time></trkpt><trkpt lat="46.04839437700408" lon="12.191200252597671"><ele>678.0</ele><time>2026-04-23T12:22:04.001Z</time></trkpt><trkpt lat="46.04831213816698" lon="12.19121525933511"><ele>678.0</ele><time>2026-04-23T12:22:05.001Z</time></trkpt><trkpt lat="46.04824604015046" lon="12.191221265326305"><ele>678.0</ele><time>2026-04-23T12:22:06.001Z</time></trkpt><trkpt lat="46.04818126242725" lon="12.19123163705858"><ele>678.8333333333334</ele><time>2026-04-23T12:22:07.001Z</time></trkpt><trkpt lat="46.04811153776846" lon="12.19126773616198"><ele>679.6666666666666</ele><time>2026-04-23T12:22:08.001Z</time></trkpt><trkpt lat="46.04804926396167" lon="12.191321662697844"><ele>680.5</ele><time>2026-04-23T12:22:09.001Z</time></trkpt><trkpt lat="46.04804002488549" lon="12.191455011462049"><ele>681.3333333333333</ele><time>2026-04-23T12:22:10.001Z</time></trkpt><trkpt lat="46.048029852521864" lon="12.191627399862805"><ele>682.1666666666666</ele><time>2026-04-23T12:22:12.001Z</time></trkpt><trkpt lat="46.04806552434108" lon="12.191710718131512"><ele>683.0</ele><time>2026-04-23T12:22:13.001Z</time></trkpt><trkpt lat="46.04812465042312" lon="12.191794676705152"><ele>683.5</ele><time>2026-04-23T12:22:14.001Z</time></trkpt><trkpt lat="46.04819037379066" lon="12.191871423811163"><ele>684.0</ele><time>2026-04-23T12:22:15.001Z</time></trkpt><trkpt lat="46.048255892441304" lon="12.191961471453782"><ele>684.5</ele><time>2026-04-23T12:22:16.001Z</time></trkpt><trkpt lat="46.04830241086867" lon="12.192064717326717"><ele>685.0</ele><time>2026-04-23T12:22:17.001Z</time></trkpt><trkpt lat="46.048327170555865" lon="12.192160147838708"><ele>685.5</ele><time>2026-04-23T12:22:18.001Z</time></trkpt><trkpt lat="46.04833021068816" lon="12.192273565078189"><ele>686.0</ele><time>2026-04-23T12:22:19.001Z</time></trkpt><trkpt lat="46.04828405032306" lon="12.192385343437257"><ele>686.8</ele><time>2026-04-23T12:22:20.001Z</time></trkpt><trkpt lat="46.04827035671282" lon="12.19247647074372"><ele>687.5999999999999</ele><time>2026-04-23T12:22:21.001Z</time></trkpt><trkpt lat="46.048245925628336" lon="12.192640317644997"><ele>688.4</ele><time>2026-04-23T12:22:23.001Z</time></trkpt><trkpt lat="46.04810121205293" lon="12.192733624038404"><ele>689.2</ele><time>2026-04-23T12:22:25.001Z</time></trkpt><trkpt lat="46.04803870317264" lon="12.192801819541241"><ele>690.0</ele><time>2026-04-23T12:22:26.002Z</time></trkpt><trkpt lat="46.04796130256821" lon="12.192853062672553"><ele>690.0</ele><time>2026-04-23T12:22:27.002Z</time></trkpt><trkpt lat="46.04788925293319" lon="12.192918356463144"><ele>690.0</ele><time>2026-04-23T12:22:28.002Z</time></trkpt><trkpt lat="46.04781842644351" lon="12.193004494536261"><ele>690.0</ele><time>2026-04-23T12:22:29.002Z</time></trkpt><trkpt lat="46.047748833692985" lon="12.193094107663356"><ele>690.0</ele><time>2026-04-23T12:22:30.002Z</time></trkpt><trkpt lat="46.047688388116406" lon="12.193205600899319"><ele>690.0</ele><time>2026-04-23T12:22:31.002Z</time></trkpt><trkpt lat="46.04762906704973" lon="12.193329398489817"><ele>690.5</ele><time>2026-04-23T12:22:32.002Z</time></trkpt><trkpt lat="46.04756129415687" lon="12.193438378438783"><ele>691.0</ele><time>2026-04-23T12:22:33Z</time></trkpt><trkpt lat="46.04751292308526" lon="12.193542910569347"><ele>691.5</ele><time>2026-04-23T12:22:34Z</time></trkpt><trkpt lat="46.047467028743526" lon="12.193625493649659"><ele>692.0</ele><time>2026-04-23T12:22:35Z</time></trkpt><trkpt lat="46.047410152323216" lon="12.193708822764606"><ele>692.5</ele><time>2026-04-23T12:22:36Z</time></trkpt><trkpt lat="46.047330117289334" lon="12.193779351347581"><ele>693.0</ele><time>2026-04-23T12:22:37Z</time></trkpt><trkpt lat="46.047245479162186" lon="12.193840544963447"><ele>693.1666666666666</ele><time>2026-04-23T12:22:38Z</time></trkpt><trkpt lat="46.047178222154976" lon="12.193901587938573"><ele>693.3333333333334</ele><time>2026-04-23T12:22:39Z</time></trkpt><trkpt lat="46.04712358076308" lon="12.193961974117437"><ele>693.5</ele><time>2026-04-23T12:22:40Z</time></trkpt><trkpt lat="46.04705878596371" lon="12.194048923865418"><ele>693.6666666666667</ele><time>2026-04-23T12:22:41Z</time></trkpt><trkpt lat="46.04700465078098" lon="12.194149150808144"><ele>693.8333333333334</ele><time>2026-04-23T12:22:42Z</time></trkpt><trkpt lat="46.04695601290965" lon="12.19424001750796"><ele>694.0</ele><time>2026-04-23T12:22:43Z</time></trkpt><trkpt lat="46.04689235919001" lon="12.194301194573596"><ele>694.4000000000001</ele><time>2026-04-23T12:22:44Z</time></trkpt><trkpt lat="46.04680974672701" lon="12.19434302075706"><ele>694.8</ele><time>2026-04-23T12:22:45Z</time></trkpt><trkpt lat="46.04672748637264" lon="12.194368955717248"><ele>695.2</ele><time>2026-04-23T12:22:46Z</time></trkpt><trkpt lat="46.046640110038275" lon="12.194381291550096"><ele>695.5999999999999</ele><time>2026-04-23T12:22:47Z</time></trkpt><trkpt lat="46.04653974330947" lon="12.194376835758183"><ele>696.0</ele><time>2026-04-23T12:22:48Z</time></trkpt><trkpt lat="46.04644011990141" lon="12.194362592831233"><ele>698.0</ele><time>2026-04-23T12:22:49Z</time></trkpt><trkpt lat="46.046333926919154" lon="12.194361941621073"><ele>700.0</ele><time>2026-04-23T12:22:50Z</time></trkpt><trkpt lat="46.046224044370824" lon="12.194366409897679"><ele>702.0</ele><time>2026-04-23T12:22:51Z</time></trkpt><trkpt lat="46.04610757667536" lon="12.194367438814051"><ele>704.0</ele><time>2026-04-23T12:22:52Z</time></trkpt><trkpt lat="46.04598864170401" lon="12.194366921775794"><ele>704.0</ele><time>2026-04-23T12:22:53Z</time></trkpt><trkpt lat="46.045874178990495" lon="12.194381737159175"><ele>704.0</ele><time>2026-04-23T12:22:54Z</time></trkpt><trkpt lat="46.045761879461665" lon="12.194391831758713"><ele>704.0</ele><time>2026-04-23T12:22:55Z</time></trkpt><trkpt lat="46.04565595723678" lon="12.194396970534331"><ele>704.0</ele><time>2026-04-23T12:22:56Z</time></trkpt><trkpt lat="46.045566361836975" lon="12.194392156005415"><ele>704.0</ele><time>2026-04-23T12:22:57Z</time></trkpt><trkpt lat="46.045479862678" lon="12.194385830766473"><ele>705.2</ele><time>2026-04-23T12:22:58Z</time></trkpt><trkpt lat="46.045389153151135" lon="12.194380010287098"><ele>706.4000000000001</ele><time>2026-04-23T12:22:59Z</time></trkpt><trkpt lat="46.04530119964986" lon="12.194377206755696"><ele>707.6</ele><time>2026-04-23T12:23:00Z</time></trkpt><trkpt lat="46.045201335903954" lon="12.194408522746244"><ele>708.8</ele><time>2026-04-23T12:23:01Z</time></trkpt><trkpt lat="46.045090826017585" lon="12.194463276702795"><ele>710.0</ele><time>2026-04-23T12:23:02Z</time></trkpt><trkpt lat="46.0449825208796" lon="12.194529644996454"><ele>710.6</ele><time>2026-04-23T12:23:03Z</time></trkpt><trkpt lat="46.04488928780446" lon="12.19459064929516"><ele>711.2</ele><time>2026-04-23T12:23:04Z</time></trkpt><trkpt lat="46.044807272410694" lon="12.194634822856461"><ele>711.8</ele><time>2026-04-23T12:23:05Z</time></trkpt><trkpt lat="46.04472715823631" lon="12.194683720521109"><ele>712.4</ele><time>2026-04-23T12:23:06Z</time></trkpt><trkpt lat="46.04463737620392" lon="12.194735441369135"><ele>713.0</ele><time>2026-04-23T12:23:07Z</time></trkpt><trkpt lat="46.04455794982073" lon="12.194793032387224"><ele>713.5999999999999</ele><time>2026-04-23T12:23:08Z</time></trkpt><trkpt lat="46.04447619897122" lon="12.194871214689927"><ele>714.1999999999999</ele><time>2026-04-23T12:23:09Z</time></trkpt><trkpt lat="46.04439074656632" lon="12.194964281585651"><ele>714.8</ele><time>2026-04-23T12:23:10Z</time></trkpt><trkpt lat="46.04429705103151" lon="12.19506325366183"><ele>715.4</ele><time>2026-04-23T12:23:11Z</time></trkpt><trkpt lat="46.044196064918324" lon="12.19516537694444"><ele>716.0</ele><time>2026-04-23T12:23:12Z</time></trkpt><trkpt lat="46.044091426833795" lon="12.195271259071772"><ele>716.1999999999999</ele><time>2026-04-23T12:23:13.001Z</time></trkpt><trkpt lat="46.043998269044295" lon="12.19535913928094"><ele>716.4</ele><time>2026-04-23T12:23:14.001Z</time></trkpt><trkpt lat="46.0439199346571" lon="12.195438238904401"><ele>716.6</ele><time>2026-04-23T12:23:15.001Z</time></trkpt><trkpt lat="46.0438422947288" lon="12.195527097960015"><ele>716.8</ele><time>2026-04-23T12:23:16.001Z</time></trkpt><trkpt lat="46.043759356346534" lon="12.195604088366471"><ele>717.0</ele><time>2026-04-23T12:23:17.001Z</time></trkpt><trkpt lat="46.043677266441044" lon="12.1956791839239"><ele>717.6666666666666</ele><time>2026-04-23T12:23:18.001Z</time></trkpt><trkpt lat="46.04361748705081" lon="12.195741764445204"><ele>718.3333333333334</ele><time>2026-04-23T12:23:19.001Z</time></trkpt><trkpt lat="46.04356891188725" lon="12.195809022786484"><ele>719.0</ele><time>2026-04-23T12:23:20.001Z</time></trkpt><trkpt lat="46.043539302948105" lon="12.195896153180263"><ele>719.6666666666667</ele><time>2026-04-23T12:23:21.001Z</time></trkpt><trkpt lat="46.043540555088626" lon="12.196039332664482"><ele>720.3333333333334</ele><time>2026-04-23T12:23:23.001Z</time></trkpt><trkpt lat="46.043559145208015" lon="12.196162268296439"><ele>721.0</ele><time>2026-04-23T12:23:26.001Z</time></trkpt><trkpt lat="46.04357633617866" lon="12.196357394630759"><ele>721.0</ele><time>2026-04-23T12:23:28.001Z</time></trkpt><trkpt lat="46.04359174344653" lon="12.196479880528"><ele>721.0</ele><time>2026-04-23T12:23:29.001Z</time></trkpt><trkpt lat="46.04360580248579" lon="12.196606629756447"><ele>721.0</ele><time>2026-04-23T12:23:30.001Z</time></trkpt><trkpt lat="46.043617866081824" lon="12.19673114168023"><ele>721.0</ele><time>2026-04-23T12:23:31.001Z</time></trkpt><trkpt lat="46.04363346328097" lon="12.196852282025066"><ele>721.0</ele><time>2026-04-23T12:23:32.001Z</time></trkpt><trkpt lat="46.043653145713066" lon="12.19696255831061"><ele>721.0</ele><time>2026-04-23T12:23:33.001Z</time></trkpt><trkpt lat="46.04367462126154" lon="12.197070088248983"><ele>722.0</ele><time>2026-04-23T12:23:34.001Z</time></trkpt><trkpt lat="46.04369688689625" lon="12.19718622598433"><ele>723.0</ele><time>2026-04-23T12:23:35.001Z</time></trkpt><trkpt lat="46.04372095699565" lon="12.197296678394306"><ele>724.0</ele><time>2026-04-23T12:23:36.001Z</time></trkpt><trkpt lat="46.043745165510416" lon="12.19740757400209"><ele>725.0</ele><time>2026-04-23T12:23:37.001Z</time></trkpt><trkpt lat="46.043763363240934" lon="12.197497839666257"><ele>726.0</ele><time>2026-04-23T12:23:38.001Z</time></trkpt><trkpt lat="46.04378395937417" lon="12.197600436022721"><ele>727.0</ele><time>2026-04-23T12:23:39.001Z</time></trkpt><trkpt lat="46.043802076088326" lon="12.197709414907845"><ele>727.4285714285714</ele><time>2026-04-23T12:23:40.001Z</time></trkpt><trkpt lat="46.043823619796335" lon="12.19782164356074"><ele>727.8571428571429</ele><time>2026-04-23T12:23:41.001Z</time></trkpt><trkpt lat="46.04384531505096" lon="12.197924184450274"><ele>728.2857142857143</ele><time>2026-04-23T12:23:42.001Z</time></trkpt><trkpt lat="46.04386165830665" lon="12.198019701188203"><ele>728.7142857142858</ele><time>2026-04-23T12:23:43.001Z</time></trkpt><trkpt lat="46.043872058373424" lon="12.19811062076669"><ele>729.1428571428571</ele><time>2026-04-23T12:23:44.001Z</time></trkpt><trkpt lat="46.04387401892287" lon="12.19820457634614"><ele>729.5714285714287</ele><time>2026-04-23T12:23:45.001Z</time></trkpt><trkpt lat="46.043878465558855" lon="12.19829739381213"><ele>730.0</ele><time>2026-04-23T12:23:46.001Z</time></trkpt><trkpt lat="46.04389202582872" lon="12.198454785730037"><ele>731.1666666666667</ele><time>2026-04-23T12:23:48.001Z</time></trkpt><trkpt lat="46.043891294724624" lon="12.198548795834858"><ele>732.3333333333334</ele><time>2026-04-23T12:23:49.001Z</time></trkpt><trkpt lat="46.0438978981965" lon="12.198651949858045"><ele>733.5</ele><time>2026-04-23T12:23:50.001Z</time></trkpt><trkpt lat="46.04391202607654" lon="12.19875720303188"><ele>734.6666666666666</ele><time>2026-04-23T12:23:51.001Z</time></trkpt><trkpt lat="46.043915332341754" lon="12.19887106125318"><ele>735.8333333333333</ele><time>2026-04-23T12:23:52.001Z</time></trkpt><trkpt lat="46.04392203614919" lon="12.19897381682405"><ele>737.0</ele><time>2026-04-23T12:23:53.001Z</time></trkpt><trkpt lat="46.04393083766566" lon="12.199169150422945"><ele>739.0</ele><time>2026-04-23T12:23:55.002Z</time></trkpt><trkpt lat="46.04393252434638" lon="12.199266604124471"><ele>741.0</ele><time>2026-04-23T12:23:56.002Z</time></trkpt><trkpt lat="46.04394477750556" lon="12.199368197648262"><ele>743.0</ele><time>2026-04-23T12:23:57.002Z</time></trkpt><trkpt lat="46.043952700567694" lon="12.199467206877701"><ele>745.0</ele><time>2026-04-23T12:23:58.002Z</time></trkpt><trkpt lat="46.0439713102702" lon="12.199617621007063"><ele>747.0</ele><time>2026-04-23T12:24:00.002Z</time></trkpt><trkpt lat="46.043989678435786" lon="12.199707922503174"><ele>749.0</ele><time>2026-04-23T12:24:01.002Z</time></trkpt><trkpt lat="46.04403355597194" lon="12.199864260054436"><ele>751.6</ele><time>2026-04-23T12:24:03.002Z</time></trkpt><trkpt lat="46.04405098977968" lon="12.199951725357828"><ele>754.2</ele><time>2026-04-23T12:24:04.002Z</time></trkpt><trkpt lat="46.04408129251324" lon="12.20009989950113"><ele>756.8000000000001</ele><time>2026-04-23T12:24:06.002Z</time></trkpt><trkpt lat="46.04411497997579" lon="12.200264624261031"><ele>759.4000000000001</ele><time>2026-04-23T12:24:08.002Z</time></trkpt><trkpt lat="46.04413279762589" lon="12.200447010723773"><ele>762.0</ele><time>2026-04-23T12:24:10.002Z</time></trkpt><trkpt lat="46.04415969457779" lon="12.200583885372943"><ele>765.0</ele><time>2026-04-23T12:24:12.002Z</time></trkpt><trkpt lat="46.04419032873463" lon="12.20072973738933"><ele>768.0</ele><time>2026-04-23T12:24:14.002Z</time></trkpt><trkpt lat="46.04421849804421" lon="12.200871641962358"><ele>771.0</ele><time>2026-04-23T12:24:16.002Z</time></trkpt><trkpt lat="46.04423677962767" lon="12.20101437570212"><ele>774.0</ele><time>2026-04-23T12:24:18.002Z</time></trkpt><trkpt lat="46.04424970310277" lon="12.201143016642858"><ele>777.0</ele><time>2026-04-23T12:24:20.002Z</time></trkpt><trkpt lat="46.04423601828268" lon="12.201307431990156"><ele>777.0</ele><time>2026-04-23T12:24:22.002Z</time></trkpt><trkpt lat="46.0442206346075" lon="12.201464678809101"><ele>777.0</ele><time>2026-04-23T12:24:24.002Z</time></trkpt><trkpt lat="46.044211955644606" lon="12.201618828304415"><ele>777.0</ele><time>2026-04-23T12:24:26.002Z</time></trkpt><trkpt lat="46.04417470662801" lon="12.201746712984946"><ele>777.0</ele><time>2026-04-23T12:24:28.002Z</time></trkpt><trkpt lat="46.044128086087454" lon="12.201814452806005"><ele>777.0</ele><time>2026-04-23T12:24:29.002Z</time></trkpt><trkpt lat="46.044013226707804" lon="12.201899185813371"><ele>777.1666666666666</ele><time>2026-04-23T12:24:31.002Z</time></trkpt><trkpt lat="46.043944425779706" lon="12.202013693760879"><ele>777.3333333333333</ele><time>2026-04-23T12:24:33.002Z</time></trkpt><trkpt lat="46.04388157155329" lon="12.20216867419865"><ele>777.5</ele><time>2026-04-23T12:24:35.002Z</time></trkpt><trkpt lat="46.04385715318693" lon="12.20225921943945"><ele>777.6666666666666</ele><time>2026-04-23T12:24:36.002Z</time></trkpt><trkpt lat="46.043810893864084" lon="12.202351807117171"><ele>777.8333333333333</ele><time>2026-04-23T12:24:37.002Z</time></trkpt><trkpt lat="46.043789420765954" lon="12.202439371577452"><ele>778.0</ele><time>2026-04-23T12:24:38.002Z</time></trkpt><trkpt lat="46.043738691815115" lon="12.202604701855213"><ele>778.6666666666666</ele><time>2026-04-23T12:24:40Z</time></trkpt><trkpt lat="46.043706394808" lon="12.202688854135658"><ele>779.3333333333333</ele><time>2026-04-23T12:24:41Z</time></trkpt><trkpt lat="46.04367975938348" lon="12.20277494306479"><ele>780.0</ele><time>2026-04-23T12:24:42Z</time></trkpt><trkpt lat="46.043662614030836" lon="12.202880592250695"><ele>780.6666666666667</ele><time>2026-04-23T12:24:43Z</time></trkpt><trkpt lat="46.043623128398075" lon="12.202968129875597"><ele>781.3333333333334</ele><time>2026-04-23T12:24:44Z</time></trkpt><trkpt lat="46.043574118903855" lon="12.20313459908401"><ele>782.0</ele><time>2026-04-23T12:24:46Z</time></trkpt><trkpt lat="46.043552485023646" lon="12.203221936746294"><ele>783.8</ele><time>2026-04-23T12:24:47Z</time></trkpt><trkpt lat="46.04353482897036" lon="12.203314671373771"><ele>785.6</ele><time>2026-04-23T12:24:48Z</time></trkpt><trkpt lat="46.04351228049669" lon="12.203500679885783"><ele>787.4</ele><time>2026-04-23T12:24:50Z</time></trkpt><trkpt lat="46.043513704927214" lon="12.203610981641466"><ele>789.1999999999999</ele><time>2026-04-23T12:24:51Z</time></trkpt><trkpt lat="46.043541806039045" lon="12.203772362793933"><ele>791.0</ele><time>2026-04-23T12:24:53Z</time></trkpt><trkpt lat="46.04357100560755" lon="12.203854207406508"><ele>791.0</ele><time>2026-04-23T12:24:54Z</time></trkpt><trkpt lat="46.04363322193376" lon="12.203989012292388"><ele>791.0</ele><time>2026-04-23T12:24:56Z</time></trkpt><trkpt lat="46.04373178381616" lon="12.204105642430767"><ele>791.0</ele><time>2026-04-23T12:24:58Z</time></trkpt><trkpt lat="46.04379699613785" lon="12.204233085255721"><ele>791.0</ele><time>2026-04-23T12:25:00Z</time></trkpt><trkpt lat="46.043890781221876" lon="12.20433780252307"><ele>792.8333333333334</ele><time>2026-04-23T12:25:02Z</time></trkpt><trkpt lat="46.0439349789678" lon="12.204403517254985"><ele>794.6666666666667</ele><time>2026-04-23T12:25:03Z</time></trkpt><trkpt lat="46.04398512952479" lon="12.204465832539011"><ele>796.5</ele><time>2026-04-23T12:25:04Z</time></trkpt><trkpt lat="46.044071841838374" lon="12.204578733057364"><ele>798.3333333333333</ele><time>2026-04-23T12:25:06Z</time></trkpt><trkpt lat="46.044144590321544" lon="12.204682834373095"><ele>800.1666666666666</ele><time>2026-04-23T12:25:08.001Z</time></trkpt><trkpt lat="46.044180069121694" lon="12.204761284544814"><ele>802.0</ele><time>2026-04-23T12:25:09.001Z</time></trkpt><trkpt lat="46.044241886055566" lon="12.204856316075977"><ele>804.6</ele><time>2026-04-23T12:25:11.001Z</time></trkpt><trkpt lat="46.04430427108626" lon="12.204939470284838"><ele>807.2</ele><time>2026-04-23T12:25:13.001Z</time></trkpt><trkpt lat="46.04433846250654" lon="12.205072253258885"><ele>809.8</ele><time>2026-04-23T12:25:16.001Z</time></trkpt><trkpt lat="46.044338336806604" lon="12.205263837424855"><ele>812.4</ele><time>2026-04-23T12:25:18.001Z</time></trkpt><trkpt lat="46.04431151036598" lon="12.205434007647805"><ele>815.0</ele><time>2026-04-23T12:25:20.001Z</time></trkpt><trkpt lat="46.04429522116539" lon="12.205579744950317"><ele>815.0</ele><time>2026-04-23T12:25:22.001Z</time></trkpt><trkpt lat="46.044273128383" lon="12.205746902888492"><ele>815.0</ele><time>2026-04-23T12:25:24.001Z</time></trkpt><trkpt lat="46.04427393966045" lon="12.205891707538974"><ele>815.0</ele><time>2026-04-23T12:25:26.001Z</time></trkpt><trkpt lat="46.04433802436022" lon="12.206033733425446"><ele>815.0</ele><time>2026-04-23T12:25:28.001Z</time></trkpt><trkpt lat="46.044400685582524" lon="12.20607734071432"><ele>815.0</ele><time>2026-04-23T12:25:29.001Z</time></trkpt><trkpt lat="46.04445451822898" lon="12.206128041992823"><ele>815.0</ele><time>2026-04-23T12:25:30.001Z</time></trkpt><trkpt lat="46.04454523429704" lon="12.206213684973404"><ele>815.0</ele><time>2026-04-23T12:25:32.001Z</time></trkpt><trkpt lat="46.044629070963204" lon="12.20628395822057"><ele>815.0</ele><time>2026-04-23T12:25:34.001Z</time></trkpt><trkpt lat="46.044668813196715" lon="12.20636073041941"><ele>815.0</ele><time>2026-04-23T12:25:35.001Z</time></trkpt><trkpt lat="46.0447268187036" lon="12.20647582581373"><ele>815.0</ele><time>2026-04-23T12:25:37.001Z</time></trkpt><trkpt lat="46.0447834867136" lon="12.2066214436776"><ele>816.0000000000001</ele><time>2026-04-23T12:25:39.001Z</time></trkpt><trkpt lat="46.04483283462994" lon="12.206773504095894"><ele>817.0</ele><time>2026-04-23T12:25:41.001Z</time></trkpt><trkpt lat="46.044866955259465" lon="12.206881707302822"><ele>818.0</ele><time>2026-04-23T12:25:42.001Z</time></trkpt><trkpt lat="46.04489519144513" lon="12.206974014084578"><ele>819.0</ele><time>2026-04-23T12:25:43.001Z</time></trkpt><trkpt lat="46.0449256362832" lon="12.207078768370328"><ele>820.0000000000001</ele><time>2026-04-23T12:25:44.001Z</time></trkpt><trkpt lat="46.04495118326918" lon="12.207169054791978"><ele>821.0</ele><time>2026-04-23T12:25:45.001Z</time></trkpt><trkpt lat="46.04497997979375" lon="12.207278042637723"><ele>822.1666666666667</ele><time>2026-04-23T12:25:46.001Z</time></trkpt><trkpt lat="46.045022224971625" lon="12.207441704004891"><ele>823.3333333333334</ele><time>2026-04-23T12:25:48.001Z</time></trkpt><trkpt lat="46.04500793027931" lon="12.20755465527355"><ele>824.5</ele><time>2026-04-23T12:25:49.001Z</time></trkpt><trkpt lat="46.045029395219416" lon="12.207654046064752"><ele>825.6666666666667</ele><time>2026-04-23T12:25:50.001Z</time></trkpt><trkpt lat="46.045037088497786" lon="12.207759293897366"><ele>826.8333333333334</ele><time>2026-04-23T12:25:51.001Z</time></trkpt><trkpt lat="46.04505167461387" lon="12.207869142892255"><ele>828.0</ele><time>2026-04-23T12:25:52.001Z</time></trkpt><trkpt lat="46.045071173805525" lon="12.207987217862042"><ele>828.0</ele><time>2026-04-23T12:25:53.001Z</time></trkpt><trkpt lat="46.045098009245216" lon="12.208097898951868"><ele>828.0</ele><time>2026-04-23T12:25:54.001Z</time></trkpt><trkpt lat="46.04513263042684" lon="12.20821431321114"><ele>828.0</ele><time>2026-04-23T12:25:55.001Z</time></trkpt><trkpt lat="46.045170965657476" lon="12.208323305915473"><ele>828.0</ele><time>2026-04-23T12:25:56.002Z</time></trkpt><trkpt lat="46.045217804528114" lon="12.208419955007463"><ele>828.0</ele><time>2026-04-23T12:25:57.002Z</time></trkpt><trkpt lat="46.045260031495204" lon="12.208530946013997"><ele>828.0</ele><time>2026-04-23T12:25:58.002Z</time></trkpt><trkpt lat="46.04530731273" lon="12.2086353416471"><ele>829.3333333333334</ele><time>2026-04-23T12:25:59.002Z</time></trkpt><trkpt lat="46.04535736246284" lon="12.208745850083575"><ele>830.6666666666667</ele><time>2026-04-23T12:26:00.002Z</time></trkpt><trkpt lat="46.04540430539728" lon="12.208856416736582"><ele>832.0</ele><time>2026-04-23T12:26:01.002Z</time></trkpt><trkpt lat="46.04544886420436" lon="12.208963357883585"><ele>833.3333333333334</ele><time>2026-04-23T12:26:02.002Z</time></trkpt><trkpt lat="46.04549148732613" lon="12.209067087580886"><ele>834.6666666666667</ele><time>2026-04-23T12:26:03.002Z</time></trkpt><trkpt lat="46.04553511997665" lon="12.209174008858898"><ele>836.0</ele><time>2026-04-23T12:26:04.002Z</time></trkpt><trkpt lat="46.045577182114805" lon="12.209277081637648"><ele>837.4</ele><time>2026-04-23T12:26:05.002Z</time></trkpt><trkpt lat="46.04563030413533" lon="12.209405812258268"><ele>838.8</ele><time>2026-04-23T12:26:06.002Z</time></trkpt><trkpt lat="46.04568785613793" lon="12.209543352665369"><ele>840.1999999999999</ele><time>2026-04-23T12:26:07.002Z</time></trkpt><trkpt lat="46.04575169130672" lon="12.209666032477251"><ele>841.5999999999999</ele><time>2026-04-23T12:26:08.002Z</time></trkpt><trkpt lat="46.045791142346005" lon="12.209774391941455"><ele>843.0</ele><time>2026-04-23T12:26:09.002Z</time></trkpt><trkpt lat="46.04583447223569" lon="12.209874517520799"><ele>843.0</ele><time>2026-04-23T12:26:10.002Z</time></trkpt><trkpt lat="46.04587209614026" lon="12.20997785149682"><ele>843.0</ele><time>2026-04-23T12:26:11.002Z</time></trkpt><trkpt lat="46.04590633576387" lon="12.210076827296017"><ele>843.0</ele><time>2026-04-23T12:26:12.002Z</time></trkpt><trkpt lat="46.04593691815017" lon="12.210184611969003"><ele>843.0</ele><time>2026-04-23T12:26:13.002Z</time></trkpt><trkpt lat="46.045955037991675" lon="12.21028638476434"><ele>843.0</ele><time>2026-04-23T12:26:14.002Z</time></trkpt><trkpt lat="46.04596186064887" lon="12.210396242709564"><ele>843.0</ele><time>2026-04-23T12:26:15.002Z</time></trkpt><trkpt lat="46.045966706292745" lon="12.210509159537589"><ele>843.0</ele><time>2026-04-23T12:26:16.002Z</time></trkpt><trkpt lat="46.04595300078796" lon="12.210629753686176"><ele>843.0</ele><time>2026-04-23T12:26:17.002Z</time></trkpt><trkpt lat="46.0459157847303" lon="12.21072319006422"><ele>843.0</ele><time>2026-04-23T12:26:18.002Z</time></trkpt><trkpt lat="46.045861886907055" lon="12.210831847769883"><ele>843.0</ele><time>2026-04-23T12:26:19.002Z</time></trkpt><trkpt lat="46.0458060619958" lon="12.210952160940204"><ele>843.0</ele><time>2026-04-23T12:26:20.002Z</time></trkpt><trkpt lat="46.045759083998135" lon="12.211082896864164"><ele>843.3333333333334</ele><time>2026-04-23T12:26:21.002Z</time></trkpt><trkpt lat="46.04571900654403" lon="12.211216707990605"><ele>843.6666666666667</ele><time>2026-04-23T12:26:22.002Z</time></trkpt><trkpt lat="46.04567841186566" lon="12.211328159910986"><ele>844.0</ele><time>2026-04-23T12:26:23.002Z</time></trkpt><trkpt lat="46.04563033646181" lon="12.211414571320917"><ele>844.3333333333334</ele><time>2026-04-23T12:26:24.002Z</time></trkpt><trkpt lat="46.0455720605872" lon="12.2114794139629"><ele>844.6666666666667</ele><time>2026-04-23T12:26:25.002Z</time></trkpt><trkpt lat="46.04550042496002" lon="12.211542384833528"><ele>845.0</ele><time>2026-04-23T12:26:26.002Z</time></trkpt><trkpt lat="46.04542637457864" lon="12.211606878419165"><ele>844.3333333333334</ele><time>2026-04-23T12:26:27.002Z</time></trkpt><trkpt lat="46.04534086082532" lon="12.211671196641868"><ele>843.6666666666667</ele><time>2026-04-23T12:26:28.002Z</time></trkpt><trkpt lat="46.04526679148362" lon="12.211731344429149"><ele>843.0</ele><time>2026-04-23T12:26:29.002Z</time></trkpt><trkpt lat="46.04520521990931" lon="12.211780874051778"><ele>842.3333333333333</ele><time>2026-04-23T12:26:30.002Z</time></trkpt><trkpt lat="46.04510301503216" lon="12.211855584078197"><ele>841.6666666666666</ele><time>2026-04-23T12:26:32.002Z</time></trkpt><trkpt lat="46.04504518247119" lon="12.211905937328686"><ele>841.0</ele><time>2026-04-23T12:26:33.002Z</time></trkpt><trkpt lat="46.04498544474345" lon="12.211947639296238"><ele>841.4999999999999</ele><time>2026-04-23T12:26:34.002Z</time></trkpt><trkpt lat="46.0449153078863" lon="12.211980418809581"><ele>842.0</ele><time>2026-04-23T12:26:35.002Z</time></trkpt><trkpt lat="46.044838463170045" lon="12.211991344727902"><ele>842.5</ele><time>2026-04-23T12:26:36.002Z</time></trkpt><trkpt lat="46.04476696741759" lon="12.21192196196607"><ele>843.0</ele><time>2026-04-23T12:26:37.002Z</time></trkpt><trkpt lat="46.04468828123512" lon="12.211879267625175"><ele>843.4999999999999</ele><time>2026-04-23T12:26:38.002Z</time></trkpt><trkpt lat="46.044618260761474" lon="12.211841474595829"><ele>844.0</ele><time>2026-04-23T12:26:39.002Z</time></trkpt><trkpt lat="46.044556459449915" lon="12.211808897888972"><ele>844.0</ele><time>2026-04-23T12:26:40.002Z</time></trkpt><trkpt lat="46.044464828945" lon="12.211780995731537"><ele>844.0</ele><time>2026-04-23T12:26:42.002Z</time></trkpt><trkpt lat="46.044407042191224" lon="12.211738263672855"><ele>844.0</ele><time>2026-04-23T12:26:44.003Z</time></trkpt><trkpt lat="46.04438013483617" lon="12.211958126331545"><ele>844.0</ele><time>2026-04-23T12:26:47.001Z</time></trkpt><trkpt lat="46.044440415682665" lon="12.212077039024575"><ele>844.0</ele><time>2026-04-23T12:26:48.001Z</time></trkpt><trkpt lat="46.04446640355203" lon="12.212207737009992"><ele>843.75</ele><time>2026-04-23T12:26:49.001Z</time></trkpt><trkpt lat="46.04449215763273" lon="12.212338815508554"><ele>843.5</ele><time>2026-04-23T12:26:50.001Z</time></trkpt><trkpt lat="46.04452644930839" lon="12.212493305974682"><ele>843.25</ele><time>2026-04-23T12:26:51.001Z</time></trkpt><trkpt lat="46.04456187697258" lon="12.212653629618963"><ele>843.0</ele><time>2026-04-23T12:26:52.001Z</time></trkpt><trkpt lat="46.04459218034506" lon="12.21282955333577"><ele>843.0</ele><time>2026-04-23T12:26:53.001Z</time></trkpt><trkpt lat="46.04463022428391" lon="12.21301110929615"><ele>843.0</ele><time>2026-04-23T12:26:54.001Z</time></trkpt><trkpt lat="46.04467081063595" lon="12.213202099857314"><ele>843.0</ele><time>2026-04-23T12:26:55.001Z</time></trkpt><trkpt lat="46.04471325904" lon="12.213395609870659"><ele>843.0</ele><time>2026-04-23T12:26:56.001Z</time></trkpt><trkpt lat="46.04475508654333" lon="12.213601449818002"><ele>842.75</ele><time>2026-04-23T12:26:57.001Z</time></trkpt><trkpt lat="46.04479594150886" lon="12.213798190300768"><ele>842.5</ele><time>2026-04-23T12:26:58.001Z</time></trkpt><trkpt lat="46.04483511949365" lon="12.21399627238996"><ele>842.25</ele><time>2026-04-23T12:26:59.001Z</time></trkpt><trkpt lat="46.044877891450405" lon="12.21419762833205"><ele>842.0</ele><time>2026-04-23T12:27:00.001Z</time></trkpt><trkpt lat="46.04492166998365" lon="12.214397002268266"><ele>838.0</ele><time>2026-04-23T12:27:01.001Z</time></trkpt><trkpt lat="46.04496717526191" lon="12.21459576265816"><ele>834.0</ele><time>2026-04-23T12:27:02.001Z</time></trkpt><trkpt lat="46.04500749046003" lon="12.214781164074516"><ele>830.0</ele><time>2026-04-23T12:27:03.001Z</time></trkpt><trkpt lat="46.04504134079061" lon="12.214957018922078"><ele>826.0</ele><time>2026-04-23T12:27:04.001Z</time></trkpt><trkpt lat="46.045072736465215" lon="12.215121147952543"><ele>826.0</ele><time>2026-04-23T12:27:05.001Z</time></trkpt><trkpt lat="46.045107325790944" lon="12.215286111399179"><ele>826.0</ele><time>2026-04-23T12:27:06.001Z</time></trkpt><trkpt lat="46.045142520677864" lon="12.215459229889728"><ele>826.0</ele><time>2026-04-23T12:27:07.001Z</time></trkpt><trkpt lat="46.04517502007081" lon="12.215638487364798"><ele>826.0</ele><time>2026-04-23T12:27:08.001Z</time></trkpt><trkpt lat="46.045211292348256" lon="12.215824458750717"><ele>826.5</ele><time>2026-04-23T12:27:09.001Z</time></trkpt><trkpt lat="46.04524827631354" lon="12.21600969180761"><ele>827.0</ele><time>2026-04-23T12:27:10.001Z</time></trkpt><trkpt lat="46.04528700708062" lon="12.216183530037538"><ele>827.5</ele><time>2026-04-23T12:27:11.001Z</time></trkpt><trkpt lat="46.04532539671969" lon="12.216362145061709"><ele>828.0</ele><time>2026-04-23T12:27:12.001Z</time></trkpt><trkpt lat="46.045364616136624" lon="12.216540776354488"><ele>828.75</ele><time>2026-04-23T12:27:13.001Z</time></trkpt><trkpt lat="46.04540055526156" lon="12.216719727273112"><ele>829.5</ele><time>2026-04-23T12:27:14.001Z</time></trkpt><trkpt lat="46.0454375502607" lon="12.216906191308675"><ele>830.25</ele><time>2026-04-23T12:27:15.001Z</time></trkpt><trkpt lat="46.045479838275774" lon="12.217081047059501"><ele>831.0</ele><time>2026-04-23T12:27:16.001Z</time></trkpt><trkpt lat="46.04551836504693" lon="12.217248052919066"><ele>831.25</ele><time>2026-04-23T12:27:17.001Z</time></trkpt><trkpt lat="46.04555449973465" lon="12.217409665255808"><ele>831.5</ele><time>2026-04-23T12:27:18.001Z</time></trkpt><trkpt lat="46.04557698482665" lon="12.217579625559175"><ele>831.75</ele><time>2026-04-23T12:27:19.001Z</time></trkpt><trkpt lat="46.045618654225336" lon="12.217737516836467"><ele>832.0</ele><time>2026-04-23T12:27:20.001Z</time></trkpt><trkpt lat="46.04564015709177" lon="12.21790016910135"><ele>832.0</ele><time>2026-04-23T12:27:21.001Z</time></trkpt><trkpt lat="46.04564665814153" lon="12.218065812377173"><ele>832.0</ele><time>2026-04-23T12:27:22.001Z</time></trkpt><trkpt lat="46.04563351026014" lon="12.218229532926589"><ele>832.0</ele><time>2026-04-23T12:27:23.001Z</time></trkpt><trkpt lat="46.04556806476791" lon="12.218376622518582"><ele>832.0</ele><time>2026-04-23T12:27:24.001Z</time></trkpt><trkpt lat="46.045514331314166" lon="12.218544376620738"><ele>831.0</ele><time>2026-04-23T12:27:25.001Z</time></trkpt><trkpt lat="46.04544881515445" lon="12.218693452692658"><ele>830.0</ele><time>2026-04-23T12:27:26.001Z</time></trkpt><trkpt lat="46.045406246026964" lon="12.21884553328944"><ele>829.0</ele><time>2026-04-23T12:27:27.001Z</time></trkpt><trkpt lat="46.04538847355142" lon="12.219015119540952"><ele>828.0</ele><time>2026-04-23T12:27:28.001Z</time></trkpt><trkpt lat="46.045399557813646" lon="12.219179780719822"><ele>826.8</ele><time>2026-04-23T12:27:29.001Z</time></trkpt><trkpt lat="46.04540588695855" lon="12.219325968542538"><ele>825.5999999999999</ele><time>2026-04-23T12:27:30.001Z</time></trkpt><trkpt lat="46.045337903973106" lon="12.219422614137196"><ele>824.4000000000001</ele><time>2026-04-23T12:27:31.001Z</time></trkpt><trkpt lat="46.045276459978616" lon="12.219549614682878"><ele>823.2</ele><time>2026-04-23T12:27:32.001Z</time></trkpt><trkpt lat="46.04523326537047" lon="12.219680409817423"><ele>822.0</ele><time>2026-04-23T12:27:33.001Z</time></trkpt><trkpt lat="46.04522146327394" lon="12.219811154107218"><ele>821.4000000000001</ele><time>2026-04-23T12:27:34.001Z</time></trkpt><trkpt lat="46.04524889196517" lon="12.21994051135333"><ele>820.8000000000001</ele><time>2026-04-23T12:27:35.001Z</time></trkpt><trkpt lat="46.045300276469504" lon="12.22006687105066"><ele>820.2</ele><time>2026-04-23T12:27:36.001Z</time></trkpt><trkpt lat="46.045376812503285" lon="12.220178961276645"><ele>819.6</ele><time>2026-04-23T12:27:37.001Z</time></trkpt><trkpt lat="46.045477412694005" lon="12.220274760251858"><ele>819.0</ele><time>2026-04-23T12:27:38.001Z</time></trkpt><trkpt lat="46.04559322920167" lon="12.220351101792572"><ele>819.0</ele><time>2026-04-23T12:27:39.001Z</time></trkpt><trkpt lat="46.0457184706788" lon="12.220413730242438"><ele>819.0</ele><time>2026-04-23T12:27:40.001Z</time></trkpt><trkpt lat="46.04584878442669" lon="12.220474315064598"><ele>819.0</ele><time>2026-04-23T12:27:41.001Z</time></trkpt><trkpt lat="46.04597151558045" lon="12.220503648291372"><ele>819.0</ele><time>2026-04-23T12:27:42.001Z</time></trkpt><trkpt lat="46.046082017015145" lon="12.220464296788629"><ele>814.75</ele><time>2026-04-23T12:27:43.001Z</time></trkpt><trkpt lat="46.04617454066378" lon="12.220382844867828"><ele>810.5</ele><time>2026-04-23T12:27:44.001Z</time></trkpt><trkpt lat="46.046260961320925" lon="12.22028191977018"><ele>806.25</ele><time>2026-04-23T12:27:45.001Z</time></trkpt><trkpt lat="46.04632658909421" lon="12.220135340657075"><ele>802.0</ele><time>2026-04-23T12:27:46.001Z</time></trkpt><trkpt lat="46.04636787342852" lon="12.219974110685516"><ele>801.5</ele><time>2026-04-23T12:27:47.001Z</time></trkpt><trkpt lat="46.04640614174068" lon="12.219811512412925"><ele>801.0</ele><time>2026-04-23T12:27:48.001Z</time></trkpt><trkpt lat="46.04647889698781" lon="12.219686453105707"><ele>800.5</ele><time>2026-04-23T12:27:49.001Z</time></trkpt><trkpt lat="46.046543702781115" lon="12.219546542053402"><ele>800.0</ele><time>2026-04-23T12:27:50.001Z</time></trkpt><trkpt lat="46.04662696652022" lon="12.219406500402831"><ele>802.2</ele><time>2026-04-23T12:27:51.002Z</time></trkpt><trkpt lat="46.046701815722855" lon="12.219272280062887"><ele>804.4</ele><time>2026-04-23T12:27:52.002Z</time></trkpt><trkpt lat="46.046759277983895" lon="12.219149194532752"><ele>806.5999999999999</ele><time>2026-04-23T12:27:53.002Z</time></trkpt><trkpt lat="46.04681436649902" lon="12.21905377781956"><ele>808.8</ele><time>2026-04-23T12:27:54.002Z</time></trkpt><trkpt lat="46.046886193679505" lon="12.219007825196075"><ele>811.0</ele><time>2026-04-23T12:27:55.002Z</time></trkpt><trkpt lat="46.046951156058796" lon="12.219067096139606"><ele>811.0</ele><time>2026-04-23T12:27:56.002Z</time></trkpt><trkpt lat="46.04697629315283" lon="12.219194142594558"><ele>811.0</ele><time>2026-04-23T12:27:57.002Z</time></trkpt><trkpt lat="46.0469926413764" lon="12.21933187970102"><ele>811.0</ele><time>2026-04-23T12:27:58.002Z</time></trkpt><trkpt lat="46.047016861722334" lon="12.219481682151969"><ele>811.0</ele><time>2026-04-23T12:27:59.002Z</time></trkpt><trkpt lat="46.04704066516894" lon="12.219631231263264"><ele>811.0</ele><time>2026-04-23T12:28:00.002Z</time></trkpt><trkpt lat="46.047074891606606" lon="12.219763667534794"><ele>812.1999999999999</ele><time>2026-04-23T12:28:01.002Z</time></trkpt><trkpt lat="46.04709905724323" lon="12.219904069444206"><ele>813.4</ele><time>2026-04-23T12:28:02.002Z</time></trkpt><trkpt lat="46.04710782054934" lon="12.220054725780873"><ele>814.6</ele><time>2026-04-23T12:28:03.002Z</time></trkpt><trkpt lat="46.047143608659056" lon="12.220211164436531"><ele>815.8</ele><time>2026-04-23T12:28:04.002Z</time></trkpt><trkpt lat="46.04716453901651" lon="12.220387447903585"><ele>817.0</ele><time>2026-04-23T12:28:05.002Z</time></trkpt><trkpt lat="46.047191467725796" lon="12.220547274823092"><ele>818.2</ele><time>2026-04-23T12:28:06.002Z</time></trkpt><trkpt lat="46.04720962415274" lon="12.220692469996019"><ele>819.4000000000001</ele><time>2026-04-23T12:28:07.002Z</time></trkpt><trkpt lat="46.047233501035016" lon="12.22083842194243"><ele>820.5999999999999</ele><time>2026-04-23T12:28:08.002Z</time></trkpt><trkpt lat="46.04724870401451" lon="12.220982757770809"><ele>821.8</ele><time>2026-04-23T12:28:09.002Z</time></trkpt><trkpt lat="46.047249874766756" lon="12.221138773356593"><ele>823.0</ele><time>2026-04-23T12:28:10.002Z</time></trkpt><trkpt lat="46.04721623762193" lon="12.221299492189457"><ele>823.0</ele><time>2026-04-23T12:28:11.002Z</time></trkpt><trkpt lat="46.0471414953486" lon="12.221433265842258"><ele>823.0</ele><time>2026-04-23T12:28:12.002Z</time></trkpt><trkpt lat="46.047047360005095" lon="12.221513852155534"><ele>823.0</ele><time>2026-04-23T12:28:13.002Z</time></trkpt><trkpt lat="46.04693416958156" lon="12.221555579365734"><ele>823.0</ele><time>2026-04-23T12:28:14.002Z</time></trkpt><trkpt lat="46.046810270615175" lon="12.221570807258692"><ele>822.25</ele><time>2026-04-23T12:28:15.002Z</time></trkpt><trkpt lat="46.04669184054933" lon="12.221586716171013"><ele>821.5</ele><time>2026-04-23T12:28:16.002Z</time></trkpt><trkpt lat="46.046584361688566" lon="12.221642996427429"><ele>820.75</ele><time>2026-04-23T12:28:17.002Z</time></trkpt><trkpt lat="46.046486564268776" lon="12.22173661320682"><ele>820.0</ele><time>2026-04-23T12:28:18.002Z</time></trkpt><trkpt lat="46.04639283579343" lon="12.221867035648575"><ele>821.5</ele><time>2026-04-23T12:28:19.002Z</time></trkpt><trkpt lat="46.04630766048824" lon="12.222014907489138"><ele>823.0</ele><time>2026-04-23T12:28:20.002Z</time></trkpt><trkpt lat="46.0462334709492" lon="12.222157417700128"><ele>824.5</ele><time>2026-04-23T12:28:21.002Z</time></trkpt><trkpt lat="46.046163858798614" lon="12.222290054853623"><ele>826.0</ele><time>2026-04-23T12:28:22.002Z</time></trkpt><trkpt lat="46.04610580965376" lon="12.222413299270976"><ele>826.1999999999999</ele><time>2026-04-23T12:28:23.002Z</time></trkpt><trkpt lat="46.04607194244359" lon="12.222534022441183"><ele>826.4</ele><time>2026-04-23T12:28:24.002Z</time></trkpt><trkpt lat="46.04608114836974" lon="12.222657872654962"><ele>826.6</ele><time>2026-04-23T12:28:25.002Z</time></trkpt><trkpt lat="46.04613293331055" lon="12.22276360132101"><ele>826.8</ele><time>2026-04-23T12:28:26.002Z</time></trkpt><trkpt lat="46.04621503769652" lon="12.222830658584103"><ele>827.0</ele><time>2026-04-23T12:28:27.002Z</time></trkpt><trkpt lat="46.046313927617355" lon="12.222861937559278"><ele>827.0</ele><time>2026-04-23T12:28:28.002Z</time></trkpt><trkpt lat="46.04641421355277" lon="12.222911324340256"><ele>827.0</ele><time>2026-04-23T12:28:29.002Z</time></trkpt><trkpt lat="46.0464916395699" lon="12.223024281880729"><ele>827.0</ele><time>2026-04-23T12:28:30.002Z</time></trkpt><trkpt lat="46.0465409887758" lon="12.223179208404844"><ele>827.0</ele><time>2026-04-23T12:28:31.002Z</time></trkpt><trkpt lat="46.04656503234614" lon="12.223355344945993"><ele>827.5</ele><time>2026-04-23T12:28:32.002Z</time></trkpt><trkpt lat="46.04660850743722" lon="12.223529371020321"><ele>828.0</ele><time>2026-04-23T12:28:33.002Z</time></trkpt><trkpt lat="46.04669032459275" lon="12.223685314153963"><ele>828.5</ele><time>2026-04-23T12:28:34.002Z</time></trkpt><trkpt lat="46.046783616541134" lon="12.223798502777633"><ele>829.0</ele><time>2026-04-23T12:28:35.002Z</time></trkpt><trkpt lat="46.04687407630916" lon="12.223887091463459"><ele>828.9999999999999</ele><time>2026-04-23T12:28:36.002Z</time></trkpt><trkpt lat="46.04694624129932" lon="12.223975744541953"><ele>829.0</ele><time>2026-04-23T12:28:37.002Z</time></trkpt><trkpt lat="46.047009913035055" lon="12.224058562529407"><ele>829.0</ele><time>2026-04-23T12:28:38.002Z</time></trkpt><trkpt lat="46.04707231704586" lon="12.224119494603844"><ele>829.0</ele><time>2026-04-23T12:28:39.002Z</time></trkpt><trkpt lat="46.04712884856659" lon="12.224177337109587"><ele>828.9999999999999</ele><time>2026-04-23T12:28:40.002Z</time></trkpt><trkpt lat="46.04721732704206" lon="12.224287499677793"><ele>829.0</ele><time>2026-04-23T12:28:42.002Z</time></trkpt><trkpt lat="46.04727737336489" lon="12.224371204790268"><ele>829.1666666666666</ele><time>2026-04-23T12:28:44.003Z</time></trkpt><trkpt lat="46.047338048012875" lon="12.224407656207193"><ele>829.3333333333333</ele><time>2026-04-23T12:29:09.001Z</time></trkpt><trkpt lat="46.04742481587751" lon="12.224460980010887"><ele>829.5</ele><time>2026-04-23T12:29:11.001Z</time></trkpt><trkpt lat="46.04747356238425" lon="12.22453677786499"><ele>829.6666666666667</ele><time>2026-04-23T12:29:13.001Z</time></trkpt><trkpt lat="46.04751080143994" lon="12.224612885934507"><ele>829.8333333333334</ele><time>2026-04-23T12:29:16.001Z</time></trkpt><trkpt lat="46.04738229674031" lon="12.224635595868719"><ele>830.0</ele><time>2026-04-23T12:29:18.001Z</time></trkpt><trkpt lat="46.04730479042014" lon="12.224655801588996"><ele>831.4</ele><time>2026-04-23T12:29:19.001Z</time></trkpt><trkpt lat="46.04722428221368" lon="12.224673684351309"><ele>832.8</ele><time>2026-04-23T12:29:20.001Z</time></trkpt><trkpt lat="46.0471330356796" lon="12.224686623674303"><ele>834.2</ele><time>2026-04-23T12:29:21.001Z</time></trkpt><trkpt lat="46.04703265633291" lon="12.224689146760575"><ele>835.6</ele><time>2026-04-23T12:29:22.001Z</time></trkpt><trkpt lat="46.04692447368357" lon="12.22470203688953"><ele>837.0</ele><time>2026-04-23T12:29:23.001Z</time></trkpt><trkpt lat="46.04682991354672" lon="12.22473891050424"><ele>837.0</ele><time>2026-04-23T12:29:24.001Z</time></trkpt><trkpt lat="46.04672444263001" lon="12.224775794976708"><ele>837.0</ele><time>2026-04-23T12:29:25.001Z</time></trkpt><trkpt lat="46.04663367412216" lon="12.224850709790708"><ele>837.0</ele><time>2026-04-23T12:29:26.001Z</time></trkpt><trkpt lat="46.04654069579736" lon="12.224944833346333"><ele>837.0</ele><time>2026-04-23T12:29:27.001Z</time></trkpt><trkpt lat="46.04643547552424" lon="12.225016477240228"><ele>837.0</ele><time>2026-04-23T12:29:28.001Z</time></trkpt><trkpt lat="46.04633023582177" lon="12.225081640092725"><ele>841.5</ele><time>2026-04-23T12:29:29.001Z</time></trkpt><trkpt lat="46.046222583556094" lon="12.225132670694883"><ele>846.0</ele><time>2026-04-23T12:29:30.001Z</time></trkpt><trkpt lat="46.04610724742392" lon="12.225167595228022"><ele>850.5</ele><time>2026-04-23T12:29:31.001Z</time></trkpt><trkpt lat="46.04598012132907" lon="12.225226086934489"><ele>855.0</ele><time>2026-04-23T12:29:32.001Z</time></trkpt><trkpt lat="46.045885973983886" lon="12.225296653080326"><ele>856.25</ele><time>2026-04-23T12:29:33.001Z</time></trkpt><trkpt lat="46.04577776753842" lon="12.225369639127878"><ele>857.5</ele><time>2026-04-23T12:29:34.001Z</time></trkpt><trkpt lat="46.04568655507387" lon="12.225469128248724"><ele>858.75</ele><time>2026-04-23T12:29:35.001Z</time></trkpt><trkpt lat="46.04559299585727" lon="12.225558563492697"><ele>860.0</ele><time>2026-04-23T12:29:36.001Z</time></trkpt><trkpt lat="46.045491702089414" lon="12.2256286078316"><ele>863.25</ele><time>2026-04-23T12:29:37.001Z</time></trkpt><trkpt lat="46.04538412102545" lon="12.22567582477501"><ele>866.5</ele><time>2026-04-23T12:29:38.001Z</time></trkpt><trkpt lat="46.04528816390697" lon="12.225757376923523"><ele>869.75</ele><time>2026-04-23T12:29:39.001Z</time></trkpt><trkpt lat="46.04519892458264" lon="12.225857404309675"><ele>873.0</ele><time>2026-04-23T12:29:40.001Z</time></trkpt><trkpt lat="46.04511215044585" lon="12.225972970302061"><ele>873.0</ele><time>2026-04-23T12:29:41.001Z</time></trkpt><trkpt lat="46.045028431106935" lon="12.226094777796183"><ele>873.0</ele><time>2026-04-23T12:29:42.001Z</time></trkpt><trkpt lat="46.04494843677408" lon="12.226227426363035"><ele>873.0</ele><time>2026-04-23T12:29:43.001Z</time></trkpt><trkpt lat="46.044872355204994" lon="12.226364143084288"><ele>873.0</ele><time>2026-04-23T12:29:44.001Z</time></trkpt><trkpt lat="46.044795136452855" lon="12.226496742154632"><ele>873.5</ele><time>2026-04-23T12:29:45.001Z</time></trkpt><trkpt lat="46.0447178284584" lon="12.226617722655439"><ele>874.0</ele><time>2026-04-23T12:29:46.001Z</time></trkpt><trkpt lat="46.044633468463445" lon="12.226729163895534"><ele>874.5</ele><time>2026-04-23T12:29:47.001Z</time></trkpt><trkpt lat="46.04454013395431" lon="12.226834777469854"><ele>875.0</ele><time>2026-04-23T12:29:48.001Z</time></trkpt><trkpt lat="46.04445504467268" lon="12.226952476158132"><ele>875.0</ele><time>2026-04-23T12:29:49.001Z</time></trkpt><trkpt lat="46.044375400163254" lon="12.227071693782694"><ele>875.0</ele><time>2026-04-23T12:29:50.001Z</time></trkpt><trkpt lat="46.044303469715906" lon="12.227168945941628"><ele>875.0</ele><time>2026-04-23T12:29:51.001Z</time></trkpt><trkpt lat="46.044243620522415" lon="12.227280029630462"><ele>875.0</ele><time>2026-04-23T12:29:52.001Z</time></trkpt><trkpt lat="46.04418784014798" lon="12.227403986630616"><ele>875.0</ele><time>2026-04-23T12:29:53.001Z</time></trkpt><trkpt lat="46.0441336776501" lon="12.227526087686618"><ele>874.8</ele><time>2026-04-23T12:29:54.001Z</time></trkpt><trkpt lat="46.04407786214813" lon="12.227636084478005"><ele>874.6</ele><time>2026-04-23T12:29:55.001Z</time></trkpt><trkpt lat="46.04399383937047" lon="12.227718638768009"><ele>874.4000000000001</ele><time>2026-04-23T12:29:56.001Z</time></trkpt><trkpt lat="46.04392106657571" lon="12.227829025863738"><ele>874.2</ele><time>2026-04-23T12:29:57.001Z</time></trkpt><trkpt lat="46.043829314286796" lon="12.22792707928895"><ele>874.0</ele><time>2026-04-23T12:29:58.001Z</time></trkpt><trkpt lat="46.04373805864199" lon="12.228013490901699"><ele>874.0</ele><time>2026-04-23T12:29:59.001Z</time></trkpt><trkpt lat="46.043659260891786" lon="12.228094267762609"><ele>874.0000000000001</ele><time>2026-04-23T12:30:00.001Z</time></trkpt><trkpt lat="46.04358632053554" lon="12.228172708029804"><ele>874.0000000000001</ele><time>2026-04-23T12:30:01.001Z</time></trkpt><trkpt lat="46.043512820648324" lon="12.2282424332465"><ele>874.0</ele><time>2026-04-23T12:30:02.001Z</time></trkpt><trkpt lat="46.04343284258806" lon="12.228309715129036"><ele>874.0</ele><time>2026-04-23T12:30:03.001Z</time></trkpt><trkpt lat="46.04336146402368" lon="12.228397323595633"><ele>874.4000000000001</ele><time>2026-04-23T12:30:04.001Z</time></trkpt><trkpt lat="46.04331196486271" lon="12.228514138864467"><ele>874.8000000000001</ele><time>2026-04-23T12:30:05.001Z</time></trkpt><trkpt lat="46.0432728839481" lon="12.228633406320311"><ele>875.1999999999999</ele><time>2026-04-23T12:30:06.001Z</time></trkpt><trkpt lat="46.043213349548815" lon="12.22873314560853"><ele>875.5999999999999</ele><time>2026-04-23T12:30:07.001Z</time></trkpt><trkpt lat="46.04311020768062" lon="12.228753224392186"><ele>876.0</ele><time>2026-04-23T12:30:08.001Z</time></trkpt><trkpt lat="46.043004532182415" lon="12.228815523218989"><ele>876.0</ele><time>2026-04-23T12:30:09.001Z</time></trkpt><trkpt lat="46.042914481255266" lon="12.228920217969382"><ele>876.0</ele><time>2026-04-23T12:30:10.001Z</time></trkpt><trkpt lat="46.04281749938234" lon="12.229012683730412"><ele>876.0</ele><time>2026-04-23T12:30:11.001Z</time></trkpt><trkpt lat="46.0427100909683" lon="12.22909079460095"><ele>876.0</ele><time>2026-04-23T12:30:12.002Z</time></trkpt><trkpt lat="46.04261758579135" lon="12.22919570217465"><ele>878.25</ele><time>2026-04-23T12:30:13.002Z</time></trkpt><trkpt lat="46.04251909602655" lon="12.229280702543532"><ele>880.5</ele><time>2026-04-23T12:30:14.002Z</time></trkpt><trkpt lat="46.04241919930946" lon="12.229360724931636"><ele>882.75</ele><time>2026-04-23T12:30:15.002Z</time></trkpt><trkpt lat="46.04231789360173" lon="12.229448543837682"><ele>885.0</ele><time>2026-04-23T12:30:16.002Z</time></trkpt><trkpt lat="46.0422108327215" lon="12.229539152852306"><ele>885.25</ele><time>2026-04-23T12:30:17.002Z</time></trkpt><trkpt lat="46.042094601955036" lon="12.229590277110468"><ele>885.5</ele><time>2026-04-23T12:30:18.002Z</time></trkpt><trkpt lat="46.04198464396221" lon="12.229674299558718"><ele>885.75</ele><time>2026-04-23T12:30:19.002Z</time></trkpt><trkpt lat="46.04186395964662" lon="12.229731088062112"><ele>886.0</ele><time>2026-04-23T12:30:20.002Z</time></trkpt><trkpt lat="46.04173937750223" lon="12.22977164174478"><ele>886.4</ele><time>2026-04-23T12:30:21.002Z</time></trkpt><trkpt lat="46.041628070817964" lon="12.229826290028274"><ele>886.8</ele><time>2026-04-23T12:30:22.002Z</time></trkpt><trkpt lat="46.04151958334404" lon="12.229898744468283"><ele>887.1999999999999</ele><time>2026-04-23T12:30:23.002Z</time></trkpt><trkpt lat="46.04141238745034" lon="12.229943804530182"><ele>887.5999999999999</ele><time>2026-04-23T12:30:24.002Z</time></trkpt><trkpt lat="46.041322195174565" lon="12.229988682992076"><ele>888.0</ele><time>2026-04-23T12:30:25.002Z</time></trkpt><trkpt lat="46.041237042975865" lon="12.230019331643856"><ele>888.0</ele><time>2026-04-23T12:30:26.002Z</time></trkpt><trkpt lat="46.041151021311464" lon="12.230054373151217"><ele>888.0</ele><time>2026-04-23T12:30:27.002Z</time></trkpt><trkpt lat="46.041066829932056" lon="12.230093469307276"><ele>888.0</ele><time>2026-04-23T12:30:28.002Z</time></trkpt><trkpt lat="46.04098824734304" lon="12.23013671396172"><ele>888.0</ele><time>2026-04-23T12:30:29.002Z</time></trkpt><trkpt lat="46.040902292634875" lon="12.230190818950284"><ele>888.0</ele><time>2026-04-23T12:30:30.002Z</time></trkpt><trkpt lat="46.040812612044725" lon="12.230245147490736"><ele>888.4</ele><time>2026-04-23T12:30:31.002Z</time></trkpt><trkpt lat="46.04071786986505" lon="12.23027230458385"><ele>888.8</ele><time>2026-04-23T12:30:32.002Z</time></trkpt><trkpt lat="46.040613568630974" lon="12.230251990577047"><ele>889.2</ele><time>2026-04-23T12:30:33.002Z</time></trkpt><trkpt lat="46.0405169842834" lon="12.230206125609007"><ele>889.6</ele><time>2026-04-23T12:30:34.002Z</time></trkpt><trkpt lat="46.040416284011606" lon="12.230136859176381"><ele>890.0</ele><time>2026-04-23T12:30:35.002Z</time></trkpt><trkpt lat="46.040315743306074" lon="12.23009371044417"><ele>890.0</ele><time>2026-04-23T12:30:36.002Z</time></trkpt><trkpt lat="46.040214385266744" lon="12.230063097303793"><ele>890.0</ele><time>2026-04-23T12:30:37.002Z</time></trkpt><trkpt lat="46.04011177486803" lon="12.230082190453873"><ele>890.0</ele><time>2026-04-23T12:30:38.002Z</time></trkpt><trkpt lat="46.040008249720394" lon="12.230118764333769"><ele>890.0</ele><time>2026-04-23T12:30:39.002Z</time></trkpt><trkpt lat="46.03990396934674" lon="12.230169718987172"><ele>890.0</ele><time>2026-04-23T12:30:40.002Z</time></trkpt><trkpt lat="46.03978965457678" lon="12.230192662744816"><ele>889.8</ele><time>2026-04-23T12:30:41.002Z</time></trkpt><trkpt lat="46.039677658351856" lon="12.230240179243095"><ele>889.6</ele><time>2026-04-23T12:30:42.002Z</time></trkpt><trkpt lat="46.03957012684907" lon="12.230315954739412"><ele>889.4000000000001</ele><time>2026-04-23T12:30:43.002Z</time></trkpt><trkpt lat="46.039472652367564" lon="12.230378341827999"><ele>889.2</ele><time>2026-04-23T12:30:44.002Z</time></trkpt><trkpt lat="46.03937591097391" lon="12.230433338342626"><ele>889.0</ele><time>2026-04-23T12:30:45.002Z</time></trkpt><trkpt lat="46.03928993004839" lon="12.23051431173175"><ele>889.0</ele><time>2026-04-23T12:30:46.002Z</time></trkpt><trkpt lat="46.039231887978275" lon="12.23060397532392"><ele>889.0000000000001</ele><time>2026-04-23T12:30:47.002Z</time></trkpt><trkpt lat="46.03915314034676" lon="12.230682205703319"><ele>889.0000000000001</ele><time>2026-04-23T12:30:49.002Z</time></trkpt><trkpt lat="46.03910159290632" lon="12.23075762951813"><ele>889.0</ele><time>2026-04-23T12:30:51.002Z</time></trkpt><trkpt lat="46.03900757673196" lon="12.230866810367097"><ele>889.0</ele><time>2026-04-23T12:30:53.002Z</time></trkpt><trkpt lat="46.03895104435741" lon="12.230937642372062"><ele>890.4999999999999</ele><time>2026-04-23T12:30:54.002Z</time></trkpt><trkpt lat="46.038890014790496" lon="12.231018695921998"><ele>892.0</ele><time>2026-04-23T12:30:55.002Z</time></trkpt><trkpt lat="46.03883775802636" lon="12.231099508932328"><ele>893.5</ele><time>2026-04-23T12:30:56.002Z</time></trkpt><trkpt lat="46.03876821233939" lon="12.231181474626716"><ele>895.0</ele><time>2026-04-23T12:30:57.001Z</time></trkpt><trkpt lat="46.0387005170985" lon="12.231259932560329"><ele>896.4999999999999</ele><time>2026-04-23T12:30:58.001Z</time></trkpt><trkpt lat="46.03864041354733" lon="12.231345998379911"><ele>898.0</ele><time>2026-04-23T12:30:59.001Z</time></trkpt><trkpt lat="46.038577071788964" lon="12.23143323697621"><ele>900.2</ele><time>2026-04-23T12:31:00.001Z</time></trkpt><trkpt lat="46.03851189256799" lon="12.231522885266353"><ele>902.4</ele><time>2026-04-23T12:31:01.001Z</time></trkpt><trkpt lat="46.03843623200004" lon="12.231615425430798"><ele>904.6000000000001</ele><time>2026-04-23T12:31:02.001Z</time></trkpt><trkpt lat="46.03836455249792" lon="12.231711007039728"><ele>906.8000000000001</ele><time>2026-04-23T12:31:03.001Z</time></trkpt><trkpt lat="46.03828078641071" lon="12.231786508337699"><ele>909.0</ele><time>2026-04-23T12:31:04.001Z</time></trkpt><trkpt lat="46.03817946671268" lon="12.231796981505578"><ele>909.25</ele><time>2026-04-23T12:31:05.001Z</time></trkpt><trkpt lat="46.03806804427025" lon="12.231819788112173"><ele>909.5</ele><time>2026-04-23T12:31:06.001Z</time></trkpt><trkpt lat="46.03796362237813" lon="12.231888531149579"><ele>909.75</ele><time>2026-04-23T12:31:07.001Z</time></trkpt><trkpt lat="46.03785348150913" lon="12.231946705432323"><ele>910.0</ele><time>2026-04-23T12:31:08.001Z</time></trkpt><trkpt lat="46.037751203686966" lon="12.232019172957804"><ele>910.0</ele><time>2026-04-23T12:31:09.001Z</time></trkpt><trkpt lat="46.037648209476686" lon="12.23209909898456"><ele>910.0</ele><time>2026-04-23T12:31:10.001Z</time></trkpt><trkpt lat="46.03753874828519" lon="12.232181802737381"><ele>910.0</ele><time>2026-04-23T12:31:11.001Z</time></trkpt><trkpt lat="46.037438963238905" lon="12.232260154097137"><ele>910.0</ele><time>2026-04-23T12:31:12.001Z</time></trkpt><trkpt lat="46.03733946422194" lon="12.232335072461092"><ele>911.2</ele><time>2026-04-23T12:31:13.001Z</time></trkpt><trkpt lat="46.03724181259139" lon="12.232394356049396"><ele>912.4</ele><time>2026-04-23T12:31:14.001Z</time></trkpt><trkpt lat="46.03713956114411" lon="12.232432935851238"><ele>913.5999999999999</ele><time>2026-04-23T12:31:15.001Z</time></trkpt><trkpt lat="46.03705700864868" lon="12.232483404959416"><ele>914.8</ele><time>2026-04-23T12:31:16.001Z</time></trkpt><trkpt lat="46.03697012771314" lon="12.232536612139855"><ele>916.0</ele><time>2026-04-23T12:31:17.001Z</time></trkpt><trkpt lat="46.0368859227535" lon="12.232592988270133"><ele>915.9999999999999</ele><time>2026-04-23T12:31:18.001Z</time></trkpt><trkpt lat="46.036806823741735" lon="12.232624194253145"><ele>916.0</ele><time>2026-04-23T12:31:19.001Z</time></trkpt><trkpt lat="46.03673160308249" lon="12.232641641165136"><ele>916.0</ele><time>2026-04-23T12:31:20.001Z</time></trkpt><trkpt lat="46.03664098795793" lon="12.23264846507804"><ele>916.0</ele><time>2026-04-23T12:31:21.001Z</time></trkpt><trkpt lat="46.03656175105475" lon="12.232690370228303"><ele>915.9999999999999</ele><time>2026-04-23T12:31:22.001Z</time></trkpt><trkpt lat="46.0364829008948" lon="12.232759374141681"><ele>916.0</ele><time>2026-04-23T12:31:23.001Z</time></trkpt><trkpt lat="46.036413739159734" lon="12.23285994418981"><ele>916.1666666666666</ele><time>2026-04-23T12:31:24.001Z</time></trkpt><trkpt lat="46.03634860641853" lon="12.23296349538066"><ele>916.3333333333333</ele><time>2026-04-23T12:31:25.001Z</time></trkpt><trkpt lat="46.03627910108902" lon="12.23306517761663"><ele>916.5</ele><time>2026-04-23T12:31:26.001Z</time></trkpt><trkpt lat="46.0362089611509" lon="12.233141874672576"><ele>916.6666666666667</ele><time>2026-04-23T12:31:27.001Z</time></trkpt><trkpt lat="46.03614260550772" lon="12.233211452793725"><ele>916.8333333333334</ele><time>2026-04-23T12:31:28.001Z</time></trkpt><trkpt lat="46.03608510963312" lon="12.233282763607708"><ele>917.0</ele><time>2026-04-23T12:31:29.001Z</time></trkpt><trkpt lat="46.03602668254577" lon="12.233344631608896"><ele>917.0000000000001</ele><time>2026-04-23T12:31:30.001Z</time></trkpt><trkpt lat="46.035970730850515" lon="12.233400978354295"><ele>917.0</ele><time>2026-04-23T12:31:31.001Z</time></trkpt><trkpt lat="46.03590056829053" lon="12.23354219441795"><ele>917.0</ele><time>2026-04-23T12:31:33.001Z</time></trkpt><trkpt lat="46.035863679613016" lon="12.233617788117618"><ele>917.0</ele><time>2026-04-23T12:31:34.001Z</time></trkpt><trkpt lat="46.03581906653746" lon="12.233682862520993"><ele>917.0000000000001</ele><time>2026-04-23T12:31:35.001Z</time></trkpt><trkpt lat="46.035711668329725" lon="12.233783496109947"><ele>917.0</ele><time>2026-04-23T12:31:37.001Z</time></trkpt><trkpt lat="46.03565066358118" lon="12.233814609046197"><ele>917.2</ele><time>2026-04-23T12:31:38.001Z</time></trkpt><trkpt lat="46.03554292893559" lon="12.23377575555119"><ele>917.4000000000001</ele><time>2026-04-23T12:31:40.001Z</time></trkpt><trkpt lat="46.03546526958808" lon="12.233752129087762"><ele>917.5999999999999</ele><time>2026-04-23T12:31:42.001Z</time></trkpt><trkpt lat="46.0354159161448" lon="12.233898423077111"><ele>917.8</ele><time>2026-04-23T12:31:43.001Z</time></trkpt><trkpt lat="46.035370804559214" lon="12.233984948084538"><ele>918.0</ele><time>2026-04-23T12:31:44.001Z</time></trkpt><trkpt lat="46.03530913323349" lon="12.234049247461721"><ele>918.0</ele><time>2026-04-23T12:31:45.001Z</time></trkpt><trkpt lat="46.03525092915357" lon="12.23413702526287"><ele>918.0</ele><time>2026-04-23T12:31:46.001Z</time></trkpt><trkpt lat="46.03519941180968" lon="12.234248754646547"><ele>918.0</ele><time>2026-04-23T12:31:47.001Z</time></trkpt><trkpt lat="46.03512544083455" lon="12.234323730077403"><ele>918.0</ele><time>2026-04-23T12:31:48.001Z</time></trkpt><trkpt lat="46.03506767050774" lon="12.234424636413271"><ele>918.0</ele><time>2026-04-23T12:31:49.001Z</time></trkpt><trkpt lat="46.03498170788723" lon="12.234466623294605"><ele>918.0</ele><time>2026-04-23T12:31:50.001Z</time></trkpt><trkpt lat="46.03489436855149" lon="12.234518080490735"><ele>921.0</ele><time>2026-04-23T12:31:51.001Z</time></trkpt><trkpt lat="46.03481762124384" lon="12.234589926600478"><ele>924.0</ele><time>2026-04-23T12:31:52.001Z</time></trkpt><trkpt lat="46.034741214607635" lon="12.234650378815566"><ele>927.0</ele><time>2026-04-23T12:31:53.001Z</time></trkpt><trkpt lat="46.03470270124564" lon="12.234783117517104"><ele>930.0</ele><time>2026-04-23T12:31:54.001Z</time></trkpt><trkpt lat="46.03466760241619" lon="12.234905954943123"><ele>933.0</ele><time>2026-04-23T12:31:55.001Z</time></trkpt><trkpt lat="46.034616832832285" lon="12.23501034918501"><ele>933.3333333333334</ele><time>2026-04-23T12:31:56.001Z</time></trkpt><trkpt lat="46.03457205955658" lon="12.235106687761856"><ele>933.6666666666667</ele><time>2026-04-23T12:31:57.001Z</time></trkpt><trkpt lat="46.03451952993327" lon="12.235207889500101"><ele>934.0</ele><time>2026-04-23T12:31:58.001Z</time></trkpt><trkpt lat="46.034460735809645" lon="12.235306635972174"><ele>934.3333333333334</ele><time>2026-04-23T12:31:59.001Z</time></trkpt><trkpt lat="46.03439783472827" lon="12.235402653375722"><ele>934.6666666666667</ele><time>2026-04-23T12:32:00.001Z</time></trkpt><trkpt lat="46.03433180035008" lon="12.235492768709381"><ele>935.0</ele><time>2026-04-23T12:32:01.001Z</time></trkpt><trkpt lat="46.034260660625264" lon="12.235569972558302"><ele>935.8</ele><time>2026-04-23T12:32:02.001Z</time></trkpt><trkpt lat="46.03419369758844" lon="12.235659163398278"><ele>936.6</ele><time>2026-04-23T12:32:03.001Z</time></trkpt><trkpt lat="46.03411860952935" lon="12.235729409714427"><ele>937.4000000000001</ele><time>2026-04-23T12:32:04.001Z</time></trkpt><trkpt lat="46.03404918584754" lon="12.235814731745371"><ele>938.2</ele><time>2026-04-23T12:32:05.001Z</time></trkpt><trkpt lat="46.03397433446559" lon="12.235899021301636"><ele>939.0</ele><time>2026-04-23T12:32:06.001Z</time></trkpt><trkpt lat="46.033916295479045" lon="12.236002455786931"><ele>942.6666666666666</ele><time>2026-04-23T12:32:07.001Z</time></trkpt><trkpt lat="46.03388229270397" lon="12.236119424859483"><ele>946.3333333333333</ele><time>2026-04-23T12:32:08.001Z</time></trkpt><trkpt lat="46.03381423525202" lon="12.236177305055405"><ele>950.0</ele><time>2026-04-23T12:32:09.001Z</time></trkpt><trkpt lat="46.033754006903514" lon="12.236247855458382"><ele>953.6666666666666</ele><time>2026-04-23T12:32:10.001Z</time></trkpt><trkpt lat="46.033714458467834" lon="12.236347921104688"><ele>957.3333333333333</ele><time>2026-04-23T12:32:11.001Z</time></trkpt><trkpt lat="46.03368234388193" lon="12.23643302243722"><ele>961.0</ele><time>2026-04-23T12:32:12.001Z</time></trkpt><trkpt lat="46.03364564099035" lon="12.23656616198602"><ele>960.9999999999999</ele><time>2026-04-23T12:32:14.001Z</time></trkpt><trkpt lat="46.033626794350134" lon="12.236736373648618"><ele>961.0</ele><time>2026-04-23T12:32:16.001Z</time></trkpt><trkpt lat="46.03363435416486" lon="12.236834443838553"><ele>961.0</ele><time>2026-04-23T12:32:17.001Z</time></trkpt><trkpt lat="46.033627344606025" lon="12.236937790891545"><ele>961.0</ele><time>2026-04-23T12:32:18.001Z</time></trkpt><trkpt lat="46.03361597077651" lon="12.237045724190176"><ele>960.9999999999999</ele><time>2026-04-23T12:32:19.001Z</time></trkpt><trkpt lat="46.033618892045475" lon="12.237160238679932"><ele>961.0</ele><time>2026-04-23T12:32:20.001Z</time></trkpt><trkpt lat="46.03364128623107" lon="12.23726545377535"><ele>962.4999999999999</ele><time>2026-04-23T12:32:21.001Z</time></trkpt><trkpt lat="46.03366765850719" lon="12.237442935772581"><ele>964.0</ele><time>2026-04-23T12:32:23.001Z</time></trkpt><trkpt lat="46.033690055041305" lon="12.237534778634608"><ele>965.5</ele><time>2026-04-23T12:32:24.001Z</time></trkpt><trkpt lat="46.033721774401464" lon="12.237631027261239"><ele>967.0</ele><time>2026-04-23T12:32:25.001Z</time></trkpt><trkpt lat="46.03375427497155" lon="12.23772201105452"><ele>968.4999999999999</ele><time>2026-04-23T12:32:26.001Z</time></trkpt><trkpt lat="46.03383208348783" lon="12.237804927535958"><ele>970.0</ele><time>2026-04-23T12:32:28.001Z</time></trkpt><trkpt lat="46.03392518210262" lon="12.237853025642956"><ele>969.9999999999999</ele><time>2026-04-23T12:32:30.001Z</time></trkpt><trkpt lat="46.033995720729216" lon="12.2378518950292"><ele>970.0</ele><time>2026-04-23T12:32:31.002Z</time></trkpt><trkpt lat="46.03407000256023" lon="12.237826277260815"><ele>970.0</ele><time>2026-04-23T12:32:32.002Z</time></trkpt><trkpt lat="46.03413109569623" lon="12.237732037299432"><ele>970.0</ele><time>2026-04-23T12:32:33.002Z</time></trkpt><trkpt lat="46.03419136182879" lon="12.237652008102577"><ele>969.9999999999999</ele><time>2026-04-23T12:32:34.002Z</time></trkpt><trkpt lat="46.03424712533811" lon="12.237568711506535"><ele>970.0</ele><time>2026-04-23T12:32:35.002Z</time></trkpt><trkpt lat="46.03431078949378" lon="12.237501093251947"><ele>968.9999999999999</ele><time>2026-04-23T12:32:36.002Z</time></trkpt><trkpt lat="46.0343812082569" lon="12.237454486392835"><ele>968.0</ele><time>2026-04-23T12:32:37.002Z</time></trkpt><trkpt lat="46.03443172396647" lon="12.237371644250164"><ele>967.0</ele><time>2026-04-23T12:32:38.002Z</time></trkpt><trkpt lat="46.03448492030005" lon="12.237306910644913"><ele>966.0</ele><time>2026-04-23T12:32:39.002Z</time></trkpt><trkpt lat="46.03453234744458" lon="12.237247165028183"><ele>964.9999999999999</ele><time>2026-04-23T12:32:40.002Z</time></trkpt><trkpt lat="46.03463530731611" lon="12.23715801807605"><ele>964.0</ele><time>2026-04-23T12:32:42.002Z</time></trkpt><trkpt lat="46.03472530444805" lon="12.237102042724706"><ele>963.1666666666666</ele><time>2026-04-23T12:32:44.002Z</time></trkpt><trkpt lat="46.0348053425367" lon="12.237056141004416"><ele>962.3333333333333</ele><time>2026-04-23T12:32:46.002Z</time></trkpt><trkpt lat="46.03488132818651" lon="12.2370177658297"><ele>961.5</ele><time>2026-04-23T12:32:50.002Z</time></trkpt><trkpt lat="46.034960080198886" lon="12.236987106596782"><ele>960.6666666666667</ele><time>2026-04-23T12:32:52.002Z</time></trkpt><trkpt lat="46.03506065078443" lon="12.236964991679129"><ele>959.8333333333334</ele><time>2026-04-23T12:32:54.002Z</time></trkpt><trkpt lat="46.0351496660312" lon="12.236965058921113"><ele>959.0</ele><time>2026-04-23T12:32:56.002Z</time></trkpt><trkpt lat="46.03523114997956" lon="12.236973360148419"><ele>959.0000000000001</ele><time>2026-04-23T12:32:58.002Z</time></trkpt><trkpt lat="46.035304684350734" lon="12.236988523696006"><ele>959.0</ele><time>2026-04-23T12:33:00.002Z</time></trkpt><trkpt lat="46.03538098380013" lon="12.237021823286192"><ele>959.0</ele><time>2026-04-23T12:33:02.002Z</time></trkpt><trkpt lat="46.03543807386464" lon="12.237077042192421"><ele>959.0</ele><time>2026-04-23T12:33:04.001Z</time></trkpt><trkpt lat="46.03549544279173" lon="12.237127199816449"><ele>959.0000000000001</ele><time>2026-04-23T12:33:06.001Z</time></trkpt><trkpt lat="46.035553883556126" lon="12.237173140360042"><ele>959.0</ele><time>2026-04-23T12:33:08.001Z</time></trkpt><trkpt lat="46.03564737713095" lon="12.237234785217145"><ele>959.0</ele><time>2026-04-23T12:33:50.001Z</time></trkpt><trkpt lat="46.03575199524164" lon="12.237289341719027"><ele>959.0</ele><time>2026-04-23T12:33:52.001Z</time></trkpt><trkpt lat="46.03585914270311" lon="12.237339993242335"><ele>959.0</ele><time>2026-04-23T12:33:54.001Z</time></trkpt><trkpt lat="46.035965268061325" lon="12.237387429051482"><ele>959.0</ele><time>2026-04-23T12:33:56.001Z</time></trkpt><trkpt lat="46.03607985735754" lon="12.237434593039373"><ele>962.1666666666667</ele><time>2026-04-23T12:33:58.001Z</time></trkpt><trkpt lat="46.03617205513187" lon="12.23753608742893"><ele>965.3333333333334</ele><time>2026-04-23T12:34:00.001Z</time></trkpt><trkpt lat="46.03623673884681" lon="12.237568080075413"><ele>968.5</ele><time>2026-04-23T12:34:01.001Z</time></trkpt><trkpt lat="46.03634550729374" lon="12.237644125507304"><ele>971.6666666666667</ele><time>2026-04-23T12:34:03.001Z</time></trkpt><trkpt lat="46.03641198761333" lon="12.237661520697745"><ele>974.8333333333334</ele><time>2026-04-23T12:34:04.001Z</time></trkpt><trkpt lat="46.03647942653877" lon="12.237676843409927"><ele>978.0</ele><time>2026-04-23T12:34:05.001Z</time></trkpt><trkpt lat="46.03654679018852" lon="12.23769827650674"><ele>978.0</ele><time>2026-04-23T12:34:06.001Z</time></trkpt><trkpt lat="46.03661902176295" lon="12.23770361256996"><ele>978.0</ele><time>2026-04-23T12:34:07.001Z</time></trkpt><trkpt lat="46.03668740756682" lon="12.23769406121851"><ele>978.0</ele><time>2026-04-23T12:34:08.001Z</time></trkpt><trkpt lat="46.03675855431072" lon="12.23768481688859"><ele>978.0</ele><time>2026-04-23T12:34:09.001Z</time></trkpt><trkpt lat="46.036828516019185" lon="12.237661477729885"><ele>978.0</ele><time>2026-04-23T12:34:10.001Z</time></trkpt><trkpt lat="46.036898310202915" lon="12.237632619761163"><ele>978.0</ele><time>2026-04-23T12:34:11.001Z</time></trkpt><trkpt lat="46.037020283180354" lon="12.237570271520989"><ele>977.8333333333334</ele><time>2026-04-23T12:34:13.001Z</time></trkpt><trkpt lat="46.037128912919286" lon="12.237485578443282"><ele>977.6666666666667</ele><time>2026-04-23T12:34:15.001Z</time></trkpt><trkpt lat="46.03717012707402" lon="12.237407727063793"><ele>977.5</ele><time>2026-04-23T12:34:16.001Z</time></trkpt><trkpt lat="46.037199812616734" lon="12.237321103816752"><ele>977.3333333333334</ele><time>2026-04-23T12:34:17.001Z</time></trkpt><trkpt lat="46.03726065906689" lon="12.23716944145596"><ele>977.1666666666667</ele><time>2026-04-23T12:34:19.001Z</time></trkpt><trkpt lat="46.037293929909346" lon="12.237084874017121"><ele>977.0</ele><time>2026-04-23T12:34:20.001Z</time></trkpt><trkpt lat="46.037335260911995" lon="12.23698852842721"><ele>976.5714285714287</ele><time>2026-04-23T12:34:21.001Z</time></trkpt><trkpt lat="46.03737395882823" lon="12.236907492916728"><ele>976.1428571428571</ele><time>2026-04-23T12:34:22.001Z</time></trkpt><trkpt lat="46.037408407013004" lon="12.23681636707405"><ele>975.7142857142858</ele><time>2026-04-23T12:34:23.001Z</time></trkpt><trkpt lat="46.037437361104466" lon="12.236721046736124"><ele>975.2857142857143</ele><time>2026-04-23T12:34:24.001Z</time></trkpt><trkpt lat="46.0374531400365" lon="12.236623000508837"><ele>974.8571428571429</ele><time>2026-04-23T12:34:25.001Z</time></trkpt><trkpt lat="46.03745994931483" lon="12.236520436358676"><ele>974.4285714285714</ele><time>2026-04-23T12:34:26.001Z</time></trkpt><trkpt lat="46.037476070870724" lon="12.23642164605173"><ele>974.0</ele><time>2026-04-23T12:34:27.001Z</time></trkpt><trkpt lat="46.037501931089636" lon="12.236323120156257"><ele>974.0000000000001</ele><time>2026-04-23T12:34:28.001Z</time></trkpt><trkpt lat="46.03752666096209" lon="12.236215611909685"><ele>974.0</ele><time>2026-04-23T12:34:29.001Z</time></trkpt><trkpt lat="46.0375556048437" lon="12.236115841541478"><ele>974.0</ele><time>2026-04-23T12:34:30.001Z</time></trkpt><trkpt lat="46.03758501225278" lon="12.236011443420082"><ele>974.0</ele><time>2026-04-23T12:34:31.001Z</time></trkpt><trkpt lat="46.037644166965805" lon="12.235940756378008"><ele>974.0000000000001</ele><time>2026-04-23T12:34:32.001Z</time></trkpt><trkpt lat="46.037680910925054" lon="12.235841614223208"><ele>974.0</ele><time>2026-04-23T12:34:33.001Z</time></trkpt><trkpt lat="46.037734852025466" lon="12.23577048678657"><ele>974.0000000000001</ele><time>2026-04-23T12:34:34.001Z</time></trkpt><trkpt lat="46.037784306090224" lon="12.235683568504935"><ele>974.0</ele><time>2026-04-23T12:34:35.001Z</time></trkpt><trkpt lat="46.03784179409592" lon="12.235601898035677"><ele>974.0</ele><time>2026-04-23T12:34:36.001Z</time></trkpt><trkpt lat="46.03791443333966" lon="12.235523075546844"><ele>974.0</ele><time>2026-04-23T12:34:37.001Z</time></trkpt><trkpt lat="46.03798343618851" lon="12.23542759990317"><ele>974.0000000000001</ele><time>2026-04-23T12:34:38.001Z</time></trkpt><trkpt lat="46.03804467557611" lon="12.235325796640279"><ele>974.0</ele><time>2026-04-23T12:34:39.001Z</time></trkpt><trkpt lat="46.038093406598364" lon="12.235240836571615"><ele>973.1666666666667</ele><time>2026-04-23T12:34:40.001Z</time></trkpt><trkpt lat="46.03813261458549" lon="12.235168848969057"><ele>972.3333333333334</ele><time>2026-04-23T12:34:41.001Z</time></trkpt><trkpt lat="46.03820678143569" lon="12.235070132015778"><ele>971.5</ele><time>2026-04-23T12:34:43.001Z</time></trkpt><trkpt lat="46.038306368173046" lon="12.23500755526645"><ele>970.6666666666667</ele><time>2026-04-23T12:34:45.001Z</time></trkpt><trkpt lat="46.03837398397749" lon="12.235003516398926"><ele>969.8333333333334</ele><time>2026-04-23T12:34:46.001Z</time></trkpt><trkpt lat="46.03845931535675" lon="12.234969264300537"><ele>969.0</ele><time>2026-04-23T12:34:47.001Z</time></trkpt><trkpt lat="46.03853706429182" lon="12.234931800623427"><ele>968.0</ele><time>2026-04-23T12:34:48.001Z</time></trkpt><trkpt lat="46.03860428158083" lon="12.23488350152378"><ele>967.0</ele><time>2026-04-23T12:34:49.001Z</time></trkpt><trkpt lat="46.03866692618418" lon="12.234846544167036"><ele>966.0</ele><time>2026-04-23T12:34:50.001Z</time></trkpt><trkpt lat="46.038727597582806" lon="12.234818324194961"><ele>965.0</ele><time>2026-04-23T12:34:51.001Z</time></trkpt><trkpt lat="46.038791501089655" lon="12.234796256164573"><ele>964.0</ele><time>2026-04-23T12:34:52.001Z</time></trkpt><trkpt lat="46.038897856319025" lon="12.234787382430358"><ele>963.0</ele><time>2026-04-23T12:34:54.001Z</time></trkpt><trkpt lat="46.03899705593866" lon="12.234817073791405"><ele>967.4</ele><time>2026-04-23T12:34:56.001Z</time></trkpt><trkpt lat="46.03907199276257" lon="12.234930603247657"><ele>971.8</ele><time>2026-04-23T12:34:58.001Z</time></trkpt><trkpt lat="46.039164395005386" lon="12.23502987728773"><ele>976.2</ele><time>2026-04-23T12:35:00.001Z</time></trkpt><trkpt lat="46.039244814361105" lon="12.235119918238015"><ele>980.6</ele><time>2026-04-23T12:35:02.001Z</time></trkpt><trkpt lat="46.039319036217506" lon="12.235220039756802"><ele>985.0</ele><time>2026-04-23T12:35:04.001Z</time></trkpt><trkpt lat="46.03937644887383" lon="12.235309223580684"><ele>985.8</ele><time>2026-04-23T12:35:06.001Z</time></trkpt><trkpt lat="46.039435541836234" lon="12.23541118068357"><ele>986.6</ele><time>2026-04-23T12:35:08.001Z</time></trkpt><trkpt lat="46.03950300829698" lon="12.235507982753104"><ele>987.4000000000001</ele><time>2026-04-23T12:35:10.001Z</time></trkpt><trkpt lat="46.039567949376035" lon="12.235600039320312"><ele>988.2</ele><time>2026-04-23T12:35:12.001Z</time></trkpt><trkpt lat="46.03963553799789" lon="12.235687349281813"><ele>989.0</ele><time>2026-04-23T12:35:14.001Z</time></trkpt><trkpt lat="46.039717857031505" lon="12.2357001501159"><ele>987.5714285714286</ele><time>2026-04-23T12:35:16.001Z</time></trkpt><trkpt lat="46.039790610069154" lon="12.235721957089229"><ele>986.1428571428571</ele><time>2026-04-23T12:35:18.001Z</time></trkpt><trkpt lat="46.039857546288715" lon="12.235733973499402"><ele>984.7142857142857</ele><time>2026-04-23T12:35:21.001Z</time></trkpt><trkpt lat="46.03993766845767" lon="12.235754844665856"><ele>983.2857142857142</ele><time>2026-04-23T12:36:16.001Z</time></trkpt><trkpt lat="46.03997697930717" lon="12.235828433906066"><ele>981.8571428571429</ele><time>2026-04-23T12:36:18.001Z</time></trkpt><trkpt lat="46.03993558749144" lon="12.235758326037438"><ele>980.4285714285713</ele><time>2026-04-23T12:36:47.001Z</time></trkpt><trkpt lat="46.039871089895534" lon="12.235748098979133"><ele>979.0</ele><time>2026-04-23T12:36:51.001Z</time></trkpt><trkpt lat="46.03978448172389" lon="12.235737117373382"><ele>981.0</ele><time>2026-04-23T12:37:23.001Z</time></trkpt><trkpt lat="46.039677496005694" lon="12.235710009967748"><ele>983.0000000000001</ele><time>2026-04-23T12:37:26.001Z</time></trkpt><trkpt lat="46.03953438094045" lon="12.23560206826956"><ele>985.0000000000001</ele><time>2026-04-23T12:37:28.001Z</time></trkpt><trkpt lat="46.03947270691832" lon="12.23550282221768"><ele>987.0</ele><time>2026-04-23T12:37:29.001Z</time></trkpt><trkpt lat="46.039415259546736" lon="12.235413779586535"><ele>989.0</ele><time>2026-04-23T12:37:30.001Z</time></trkpt><trkpt lat="46.03937466474961" lon="12.23531654424643"><ele>989.0000000000001</ele><time>2026-04-23T12:37:31.001Z</time></trkpt><trkpt lat="46.039341039239396" lon="12.235216696104795"><ele>989.0</ele><time>2026-04-23T12:37:32.001Z</time></trkpt><trkpt lat="46.039280962835925" lon="12.235144340488548"><ele>989.0</ele><time>2026-04-23T12:37:33.001Z</time></trkpt><trkpt lat="46.039214160087646" lon="12.235064174885697"><ele>989.0</ele><time>2026-04-23T12:37:34.001Z</time></trkpt><trkpt lat="46.03915463790341" lon="12.23498803680345"><ele>989.0000000000001</ele><time>2026-04-23T12:37:35.001Z</time></trkpt><trkpt lat="46.03907530088449" lon="12.234896654176854"><ele>989.0</ele><time>2026-04-23T12:37:36.001Z</time></trkpt><trkpt lat="46.03901196914114" lon="12.234834664610105"><ele>988.2</ele><time>2026-04-23T12:37:37.001Z</time></trkpt><trkpt lat="46.038954811150084" lon="12.234794387707767"><ele>987.4000000000001</ele><time>2026-04-23T12:37:38.001Z</time></trkpt><trkpt lat="46.03886161126311" lon="12.234754883653501"><ele>986.6</ele><time>2026-04-23T12:37:40.001Z</time></trkpt><trkpt lat="46.03874266248901" lon="12.23471872783523"><ele>985.8</ele><time>2026-04-23T12:37:42.001Z</time></trkpt><trkpt lat="46.038662122161774" lon="12.234815379839938"><ele>985.0</ele><time>2026-04-23T12:37:43.001Z</time></trkpt><trkpt lat="46.03854243847187" lon="12.234890923690994"><ele>985.0</ele><time>2026-04-23T12:37:45.001Z</time></trkpt><trkpt lat="46.038440269403964" lon="12.23500651336455"><ele>985.0</ele><time>2026-04-23T12:37:47.001Z</time></trkpt><trkpt lat="46.03835741194629" lon="12.235015140911615"><ele>985.0</ele><time>2026-04-23T12:37:48.001Z</time></trkpt><trkpt lat="46.03828341203659" lon="12.235038032073666"><ele>985.0</ele><time>2026-04-23T12:37:49.001Z</time></trkpt><trkpt lat="46.03816513701844" lon="12.235090932250767"><ele>985.0</ele><time>2026-04-23T12:37:51.001Z</time></trkpt><trkpt lat="46.038078610846576" lon="12.235209361300528"><ele>983.1666666666666</ele><time>2026-04-23T12:37:53.001Z</time></trkpt><trkpt lat="46.038031720461625" lon="12.235295101707482"><ele>981.3333333333333</ele><time>2026-04-23T12:37:54.001Z</time></trkpt><trkpt lat="46.03799205520299" lon="12.235405864788367"><ele>979.5</ele><time>2026-04-23T12:37:55.001Z</time></trkpt><trkpt lat="46.03793129559662" lon="12.235494421401887"><ele>977.6666666666667</ele><time>2026-04-23T12:37:56.001Z</time></trkpt><trkpt lat="46.03786873383863" lon="12.235584252346689"><ele>975.8333333333334</ele><time>2026-04-23T12:37:57.001Z</time></trkpt><trkpt lat="46.037801499686154" lon="12.235683290318114"><ele>974.0</ele><time>2026-04-23T12:37:58.001Z</time></trkpt><trkpt lat="46.03773802126512" lon="12.235768470171726"><ele>974.0000000000001</ele><time>2026-04-23T12:37:59.001Z</time></trkpt><trkpt lat="46.03765953035777" lon="12.235832959381062"><ele>974.0</ele><time>2026-04-23T12:38:00.001Z</time></trkpt><trkpt lat="46.037615565633615" lon="12.235915802010904"><ele>974.0</ele><time>2026-04-23T12:38:01.001Z</time></trkpt><trkpt lat="46.03757054982011" lon="12.236008041013594"><ele>974.0</ele><time>2026-04-23T12:38:02.001Z</time></trkpt><trkpt lat="46.03753207241691" lon="12.236104040256949"><ele>974.0000000000001</ele><time>2026-04-23T12:38:03.001Z</time></trkpt><trkpt lat="46.037500468914565" lon="12.236212487913694"><ele>974.0</ele><time>2026-04-23T12:38:04.001Z</time></trkpt><trkpt lat="46.03747386411157" lon="12.236323430055993"><ele>972.3333333333334</ele><time>2026-04-23T12:38:05.001Z</time></trkpt><trkpt lat="46.03744671534188" lon="12.236443809918768"><ele>970.6666666666667</ele><time>2026-04-23T12:38:06.001Z</time></trkpt><trkpt lat="46.037424311388136" lon="12.23655400433271"><ele>969.0</ele><time>2026-04-23T12:38:07.001Z</time></trkpt><trkpt lat="46.03740740074789" lon="12.236669291009386"><ele>967.3333333333333</ele><time>2026-04-23T12:38:08.001Z</time></trkpt><trkpt lat="46.0373863908809" lon="12.236768868763876"><ele>965.6666666666666</ele><time>2026-04-23T12:38:09.001Z</time></trkpt><trkpt lat="46.03735680272333" lon="12.236872014255969"><ele>964.0</ele><time>2026-04-23T12:38:10.001Z</time></trkpt><trkpt lat="46.03731080956236" lon="12.236979067646677"><ele>963.9999999999999</ele><time>2026-04-23T12:38:11.001Z</time></trkpt><trkpt lat="46.0372592306284" lon="12.237093526534847"><ele>964.0</ele><time>2026-04-23T12:38:12.001Z</time></trkpt><trkpt lat="46.03721369494238" lon="12.23719457482336"><ele>964.0</ele><time>2026-04-23T12:38:13.001Z</time></trkpt><trkpt lat="46.03717268303695" lon="12.237285584378874"><ele>964.0</ele><time>2026-04-23T12:38:14.001Z</time></trkpt><trkpt lat="46.03713376388274" lon="12.237374582999937"><ele>963.9999999999999</ele><time>2026-04-23T12:38:15.001Z</time></trkpt><trkpt lat="46.03709243676901" lon="12.237457627220419"><ele>964.0</ele><time>2026-04-23T12:38:16.001Z</time></trkpt><trkpt lat="46.03704082611916" lon="12.237526428120022"><ele>966.1666666666666</ele><time>2026-04-23T12:38:17.001Z</time></trkpt><trkpt lat="46.036979614333134" lon="12.23760160397729"><ele>968.3333333333333</ele><time>2026-04-23T12:38:18.001Z</time></trkpt><trkpt lat="46.03688139239221" lon="12.237589211879637"><ele>970.5</ele><time>2026-04-23T12:38:19.001Z</time></trkpt><trkpt lat="46.03680402136802" lon="12.237650069321196"><ele>972.6666666666667</ele><time>2026-04-23T12:38:20.001Z</time></trkpt><trkpt lat="46.03672112404867" lon="12.237673421094833"><ele>974.8333333333334</ele><time>2026-04-23T12:38:21.001Z</time></trkpt><trkpt lat="46.03664306020101" lon="12.237657700219366"><ele>977.0</ele><time>2026-04-23T12:38:22.001Z</time></trkpt><trkpt lat="46.03656485760301" lon="12.237653950893582"><ele>977.1666666666667</ele><time>2026-04-23T12:38:23.001Z</time></trkpt><trkpt lat="46.03647849624012" lon="12.237642699766875"><ele>977.3333333333334</ele><time>2026-04-23T12:38:24.001Z</time></trkpt><trkpt lat="46.03639928733344" lon="12.237644183978482"><ele>977.5</ele><time>2026-04-23T12:38:25.001Z</time></trkpt><trkpt lat="46.03632662806751" lon="12.237586390275055"><ele>977.6666666666667</ele><time>2026-04-23T12:38:26.001Z</time></trkpt><trkpt lat="46.03624274982375" lon="12.237538050733427"><ele>977.8333333333334</ele><time>2026-04-23T12:38:27.001Z</time></trkpt><trkpt lat="46.03617299465285" lon="12.237508764616363"><ele>978.0</ele><time>2026-04-23T12:38:28.001Z</time></trkpt><trkpt lat="46.03611580947821" lon="12.237451927627541"><ele>978.0</ele><time>2026-04-23T12:38:29.001Z</time></trkpt><trkpt lat="46.03602365687641" lon="12.237361209233331"><ele>978.0</ele><time>2026-04-23T12:38:31.001Z</time></trkpt><trkpt lat="46.03595004278988" lon="12.237298644711837"><ele>978.0</ele><time>2026-04-23T12:38:33.001Z</time></trkpt><trkpt lat="46.035884320256365" lon="12.237289003694185"><ele>978.0</ele><time>2026-04-23T12:40:05Z</time></trkpt><trkpt lat="46.03579157474796" lon="12.23726010971468"><ele>978.0</ele><time>2026-04-23T12:40:08Z</time></trkpt><trkpt lat="46.03573124601336" lon="12.23723077647947"><ele>978.0</ele><time>2026-04-23T12:40:09Z</time></trkpt><trkpt lat="46.03566289389892" lon="12.237202331701738"><ele>974.8333333333334</ele><time>2026-04-23T12:40:10Z</time></trkpt><trkpt lat="46.03559064162359" lon="12.237164700165621"><ele>971.6666666666667</ele><time>2026-04-23T12:40:11Z</time></trkpt><trkpt lat="46.035488648400914" lon="12.237088569569512"><ele>968.5</ele><time>2026-04-23T12:40:13Z</time></trkpt><trkpt lat="46.03543166976986" lon="12.237016127209332"><ele>965.3333333333334</ele><time>2026-04-23T12:40:15Z</time></trkpt><trkpt lat="46.03536121991876" lon="12.236973907999273"><ele>962.1666666666667</ele><time>2026-04-23T12:40:17Z</time></trkpt><trkpt lat="46.03528651440311" lon="12.236949546205096"><ele>959.0</ele><time>2026-04-23T12:40:19Z</time></trkpt><trkpt lat="46.035199352227046" lon="12.236929971298533"><ele>959.0</ele><time>2026-04-23T12:40:21Z</time></trkpt><trkpt lat="46.03508044929114" lon="12.23693309007672"><ele>959.0000000000001</ele><time>2026-04-23T12:40:23Z</time></trkpt><trkpt lat="46.03501388391689" lon="12.236938769788424"><ele>959.0000000000001</ele><time>2026-04-23T12:40:24Z</time></trkpt><trkpt lat="46.03494914438733" lon="12.236956300590826"><ele>959.0</ele><time>2026-04-23T12:40:25Z</time></trkpt><trkpt lat="46.034836698897905" lon="12.236999034102968"><ele>959.0</ele><time>2026-04-23T12:40:27Z</time></trkpt><trkpt lat="46.034712305680884" lon="12.237067245251076"><ele>959.7142857142858</ele><time>2026-04-23T12:40:29Z</time></trkpt><trkpt lat="46.03465479462369" lon="12.23711072558417"><ele>960.4285714285714</ele><time>2026-04-23T12:40:30Z</time></trkpt><trkpt lat="46.03459448384582" lon="12.237139886523767"><ele>961.1428571428571</ele><time>2026-04-23T12:40:31Z</time></trkpt><trkpt lat="46.034539868076294" lon="12.237194920884491"><ele>961.8571428571429</ele><time>2026-04-23T12:40:32Z</time></trkpt><trkpt lat="46.03448396668333" lon="12.237264432536902"><ele>962.5714285714287</ele><time>2026-04-23T12:40:33Z</time></trkpt><trkpt lat="46.03441950435052" lon="12.237346288188666"><ele>963.2857142857143</ele><time>2026-04-23T12:40:34Z</time></trkpt><trkpt lat="46.034353397804324" lon="12.237441893808652"><ele>964.0</ele><time>2026-04-23T12:40:35Z</time></trkpt><trkpt lat="46.03427646504672" lon="12.237503370500708"><ele>963.9999999999999</ele><time>2026-04-23T12:40:36Z</time></trkpt><trkpt lat="46.034200837679386" lon="12.237573954281222"><ele>964.0</ele><time>2026-04-23T12:40:37Z</time></trkpt><trkpt lat="46.03414449996616" lon="12.237671540057649"><ele>964.0</ele><time>2026-04-23T12:40:38Z</time></trkpt><trkpt lat="46.03406330753039" lon="12.237726005368906"><ele>964.0</ele><time>2026-04-23T12:40:39Z</time></trkpt><trkpt lat="46.034011352961635" lon="12.237786059567515"><ele>963.9999999999999</ele><time>2026-04-23T12:40:40Z</time></trkpt><trkpt lat="46.03394276086761" lon="12.237811675905256"><ele>964.0</ele><time>2026-04-23T12:40:41Z</time></trkpt><trkpt lat="46.0338765615949" lon="12.237805537895616"><ele>963.4000000000001</ele><time>2026-04-23T12:40:42Z</time></trkpt><trkpt lat="46.03377285362773" lon="12.237748054329247"><ele>962.8000000000001</ele><time>2026-04-23T12:40:44Z</time></trkpt><trkpt lat="46.033729413662996" lon="12.237607338187564"><ele>962.1999999999999</ele><time>2026-04-23T12:40:46Z</time></trkpt><trkpt lat="46.0336869076565" lon="12.237438772064637"><ele>961.5999999999999</ele><time>2026-04-23T12:40:48Z</time></trkpt><trkpt lat="46.033667761537366" lon="12.23733570560837"><ele>961.0</ele><time>2026-04-23T12:40:49Z</time></trkpt><trkpt lat="46.033655970286226" lon="12.2372317736417"><ele>960.9999999999999</ele><time>2026-04-23T12:40:50Z</time></trkpt><trkpt lat="46.03365049268975" lon="12.237127920807954"><ele>961.0</ele><time>2026-04-23T12:40:51Z</time></trkpt><trkpt lat="46.03364941824366" lon="12.237026133989463"><ele>961.0</ele><time>2026-04-23T12:40:52Z</time></trkpt><trkpt lat="46.03365397759089" lon="12.236849910336428"><ele>961.0</ele><time>2026-04-23T12:40:54.001Z</time></trkpt><trkpt lat="46.03365964440939" lon="12.236703706173817"><ele>960.9999999999999</ele><time>2026-04-23T12:40:56.001Z</time></trkpt><trkpt lat="46.0336424745875" lon="12.236589878269193"><ele>961.0</ele><time>2026-04-23T12:40:59.001Z</time></trkpt><trkpt lat="46.033389280447444" lon="12.236516804910401"><ele>962.4</ele><time>2026-04-23T12:41:00.001Z</time></trkpt><trkpt lat="46.03333333137853" lon="12.236373104075335"><ele>963.8</ele><time>2026-04-23T12:41:02.001Z</time></trkpt><trkpt lat="46.03334186809454" lon="12.236233274240941"><ele>965.1999999999999</ele><time>2026-04-23T12:41:04.001Z</time></trkpt><trkpt lat="46.03334093239998" lon="12.2361282383623"><ele>966.5999999999999</ele><time>2026-04-23T12:41:06.001Z</time></trkpt><trkpt lat="46.03336878401201" lon="12.235997481865713"><ele>968.0</ele><time>2026-04-23T12:41:08.001Z</time></trkpt><trkpt lat="46.033401707210935" lon="12.235843988268957"><ele>968.0</ele><time>2026-04-23T12:41:10.001Z</time></trkpt><trkpt lat="46.033426720009295" lon="12.235672268799208"><ele>968.0</ele><time>2026-04-23T12:41:12.001Z</time></trkpt><trkpt lat="46.033456818531455" lon="12.235530510183047"><ele>968.0</ele><time>2026-04-23T12:41:14.001Z</time></trkpt><trkpt lat="46.03349379472929" lon="12.235367961732075"><ele>968.0</ele><time>2026-04-23T12:41:16.001Z</time></trkpt><trkpt lat="46.03348033939978" lon="12.235192668718929"><ele>968.0</ele><time>2026-04-23T12:41:18.001Z</time></trkpt><trkpt lat="46.033439056374924" lon="12.235111195882695"><ele>968.0</ele><time>2026-04-23T12:41:19.001Z</time></trkpt><trkpt lat="46.033391484070535" lon="12.23495182957173"><ele>968.0</ele><time>2026-04-23T12:41:21.001Z</time></trkpt><trkpt lat="46.0333248728236" lon="12.234824018068254"><ele>968.0</ele><time>2026-04-23T12:41:23.001Z</time></trkpt><trkpt lat="46.033219751054894" lon="12.234745305781296"><ele>968.0</ele><time>2026-04-23T12:41:25.001Z</time></trkpt><trkpt lat="46.03315809203279" lon="12.234711429099631"><ele>972.5999999999999</ele><time>2026-04-23T12:41:26.001Z</time></trkpt><trkpt lat="46.033045938317244" lon="12.234651238627903"><ele>977.1999999999999</ele><time>2026-04-23T12:41:28Z</time></trkpt><trkpt lat="46.03298545861843" lon="12.234612817191575"><ele>981.8</ele><time>2026-04-23T12:41:29Z</time></trkpt><trkpt lat="46.03292360900345" lon="12.23457939861212"><ele>986.4</ele><time>2026-04-23T12:41:30Z</time></trkpt><trkpt lat="46.03281207134149" lon="12.23456869093985"><ele>991.0</ele><time>2026-04-23T12:41:32Z</time></trkpt><trkpt lat="46.03270290844031" lon="12.234503908768344"><ele>991.0</ele><time>2026-04-23T12:41:34Z</time></trkpt><trkpt lat="46.03261151963235" lon="12.234394118302033"><ele>991.0</ele><time>2026-04-23T12:41:36Z</time></trkpt><trkpt lat="46.03253300062442" lon="12.234281065792556"><ele>991.0</ele><time>2026-04-23T12:41:38Z</time></trkpt><trkpt lat="46.03249086924574" lon="12.234151439254882"><ele>991.0</ele><time>2026-04-23T12:41:40Z</time></trkpt><trkpt lat="46.03249940211604" lon="12.233973546654388"><ele>993.1428571428573</ele><time>2026-04-23T12:41:42Z</time></trkpt><trkpt lat="46.0325167603774" lon="12.23388533531821"><ele>995.2857142857143</ele><time>2026-04-23T12:41:43Z</time></trkpt><trkpt lat="46.03254332355516" lon="12.23379146342741"><ele>997.4285714285716</ele><time>2026-04-23T12:41:44Z</time></trkpt><trkpt lat="46.03258203926812" lon="12.23370173181762"><ele>999.5714285714287</ele><time>2026-04-23T12:41:45Z</time></trkpt><trkpt lat="46.032627891289685" lon="12.233620892697681"><ele>1001.7142857142858</ele><time>2026-04-23T12:41:46Z</time></trkpt><trkpt lat="46.03267633347263" lon="12.23354853613223"><ele>1003.8571428571429</ele><time>2026-04-23T12:41:47Z</time></trkpt><trkpt lat="46.03271618567451" lon="12.233474671602075"><ele>1006.0</ele><time>2026-04-23T12:41:48Z</time></trkpt><trkpt lat="46.0327574145281" lon="12.233398800377053"><ele>1005.9999999999999</ele><time>2026-04-23T12:41:49Z</time></trkpt><trkpt lat="46.03279462711386" lon="12.23331656398845"><ele>1006.0</ele><time>2026-04-23T12:41:50Z</time></trkpt><trkpt lat="46.03283585871379" lon="12.233246618491693"><ele>1006.0</ele><time>2026-04-23T12:41:51Z</time></trkpt><trkpt lat="46.032881396587705" lon="12.23316984342054"><ele>1006.0</ele><time>2026-04-23T12:41:52Z</time></trkpt><trkpt lat="46.0329496038689" lon="12.233036140324538"><ele>1005.9999999999999</ele><time>2026-04-23T12:41:54Z</time></trkpt><trkpt lat="46.033017923187295" lon="12.232901016243456"><ele>1006.0</ele><time>2026-04-23T12:41:56Z</time></trkpt><trkpt lat="46.03303815007426" lon="12.23281171023534"><ele>1008.4999999999999</ele><time>2026-04-23T12:41:57Z</time></trkpt><trkpt lat="46.03305639055249" lon="12.232717532720592"><ele>1011.0</ele><time>2026-04-23T12:41:58Z</time></trkpt><trkpt lat="46.0330684312324" lon="12.23262294907223"><ele>1013.5</ele><time>2026-04-23T12:41:59Z</time></trkpt><trkpt lat="46.03308227150165" lon="12.232528487194532"><ele>1016.0</ele><time>2026-04-23T12:42:00Z</time></trkpt><trkpt lat="46.033086141881455" lon="12.232336623241563"><ele>1018.4999999999999</ele><time>2026-04-23T12:42:02Z</time></trkpt><trkpt lat="46.033097520899865" lon="12.232235374121775"><ele>1021.0</ele><time>2026-04-23T12:42:03Z</time></trkpt><trkpt lat="46.033101143132804" lon="12.232130436119625"><ele>1021.1999999999999</ele><time>2026-04-23T12:42:04Z</time></trkpt><trkpt lat="46.0331054340865" lon="12.232036872043142"><ele>1021.3999999999999</ele><time>2026-04-23T12:42:05Z</time></trkpt><trkpt lat="46.03310483790327" lon="12.231945441612034"><ele>1021.6</ele><time>2026-04-23T12:42:06Z</time></trkpt><trkpt lat="46.033124593966534" lon="12.231762635784344"><ele>1021.8</ele><time>2026-04-23T12:42:08Z</time></trkpt><trkpt lat="46.03316595381388" lon="12.231649262564092"><ele>1022.0</ele><time>2026-04-23T12:42:09Z</time></trkpt><trkpt lat="46.033181292641416" lon="12.231481161464112"><ele>1020.6666666666667</ele><time>2026-04-23T12:42:11Z</time></trkpt><trkpt lat="46.03315585116811" lon="12.2313855130502"><ele>1019.3333333333334</ele><time>2026-04-23T12:42:12Z</time></trkpt><trkpt lat="46.033129754868405" lon="12.231266690130788"><ele>1018.0</ele><time>2026-04-23T12:42:13Z</time></trkpt><trkpt lat="46.03308159246486" lon="12.231180905806836"><ele>1016.6666666666667</ele><time>2026-04-23T12:42:14Z</time></trkpt><trkpt lat="46.03302984388927" lon="12.231079389966366"><ele>1015.3333333333334</ele><time>2026-04-23T12:42:15Z</time></trkpt><trkpt lat="46.032984261714844" lon="12.230976727543059"><ele>1014.0</ele><time>2026-04-23T12:42:16Z</time></trkpt><trkpt lat="46.03295015358621" lon="12.230838977114402"><ele>1014.0</ele><time>2026-04-23T12:42:17Z</time></trkpt><trkpt lat="46.032903406417695" lon="12.230703413845344"><ele>1014.0000000000001</ele><time>2026-04-23T12:42:18Z</time></trkpt><trkpt lat="46.03284594389272" lon="12.230580558871731"><ele>1014.0000000000001</ele><time>2026-04-23T12:42:19Z</time></trkpt><trkpt lat="46.032797012666876" lon="12.230468634193578"><ele>1014.0</ele><time>2026-04-23T12:42:20Z</time></trkpt><trkpt lat="46.03273188631816" lon="12.230361272406299"><ele>1014.0</ele><time>2026-04-23T12:42:21Z</time></trkpt><trkpt lat="46.03265904575293" lon="12.230249621303058"><ele>1015.0</ele><time>2026-04-23T12:42:22Z</time></trkpt><trkpt lat="46.03260437283641" lon="12.230172023342227"><ele>1016.0</ele><time>2026-04-23T12:42:23Z</time></trkpt><trkpt lat="46.032527218219194" lon="12.230118634016499"><ele>1017.0</ele><time>2026-04-23T12:42:24Z</time></trkpt><trkpt lat="46.032437109328285" lon="12.23009550676877"><ele>1018.0</ele><time>2026-04-23T12:42:25Z</time></trkpt><trkpt lat="46.03235196560474" lon="12.230064698543924"><ele>1019.0</ele><time>2026-04-23T12:42:26Z</time></trkpt><trkpt lat="46.032262876668554" lon="12.230020095623855"><ele>1020.0</ele><time>2026-04-23T12:42:27Z</time></trkpt><trkpt lat="46.032160037137274" lon="12.229988187252017"><ele>1020.0</ele><time>2026-04-23T12:42:28Z</time></trkpt><trkpt lat="46.03207998179332" lon="12.22993983121365"><ele>1020.0</ele><time>2026-04-23T12:42:29Z</time></trkpt><trkpt lat="46.031983187442904" lon="12.22989130801277"><ele>1020.0</ele><time>2026-04-23T12:42:30Z</time></trkpt><trkpt lat="46.03190415772226" lon="12.229833483758783"><ele>1020.0</ele><time>2026-04-23T12:42:31Z</time></trkpt><trkpt lat="46.03181801942054" lon="12.229806284492641"><ele>1020.0</ele><time>2026-04-23T12:42:32Z</time></trkpt><trkpt lat="46.03171592117535" lon="12.229797707872615"><ele>1021.4</ele><time>2026-04-23T12:42:33Z</time></trkpt><trkpt lat="46.03161782373806" lon="12.2297526370657"><ele>1022.8</ele><time>2026-04-23T12:42:34Z</time></trkpt><trkpt lat="46.03153924247186" lon="12.229735415057894"><ele>1024.2</ele><time>2026-04-23T12:42:35Z</time></trkpt><trkpt lat="46.03144764988767" lon="12.229719328741162"><ele>1025.6</ele><time>2026-04-23T12:42:36Z</time></trkpt><trkpt lat="46.03131344937651" lon="12.229758479632514"><ele>1027.0</ele><time>2026-04-23T12:42:38Z</time></trkpt><trkpt lat="46.031239534058436" lon="12.229816387684206"><ele>1022.6</ele><time>2026-04-23T12:42:39Z</time></trkpt><trkpt lat="46.03112173847192" lon="12.229785217221737"><ele>1018.2</ele><time>2026-04-23T12:42:41Z</time></trkpt><trkpt lat="46.03106361396698" lon="12.22970659165453"><ele>1013.8</ele><time>2026-04-23T12:42:42Z</time></trkpt><trkpt lat="46.03102590969049" lon="12.229631159055739"><ele>1009.4</ele><time>2026-04-23T12:42:43Z</time></trkpt><trkpt lat="46.03097133917167" lon="12.229566946224194"><ele>1005.0</ele><time>2026-04-23T12:42:44Z</time></trkpt><trkpt lat="46.030856376003186" lon="12.229583161230538"><ele>1006.6666666666666</ele><time>2026-04-23T12:42:46Z</time></trkpt><trkpt lat="46.03078123683076" lon="12.229606696488593"><ele>1008.3333333333333</ele><time>2026-04-23T12:42:47Z</time></trkpt><trkpt lat="46.030700669767455" lon="12.22958178468725"><ele>1010.0</ele><time>2026-04-23T12:42:48Z</time></trkpt><trkpt lat="46.03062148012341" lon="12.229566757988808"><ele>1011.6666666666666</ele><time>2026-04-23T12:42:49Z</time></trkpt><trkpt lat="46.030545167738566" lon="12.229480389214892"><ele>1013.3333333333333</ele><time>2026-04-23T12:42:50Z</time></trkpt><trkpt lat="46.03046974417646" lon="12.229394728873984"><ele>1015.0</ele><time>2026-04-23T12:42:51Z</time></trkpt><trkpt lat="46.03041472420343" lon="12.229330325491064"><ele>1015.0</ele><time>2026-04-23T12:42:52Z</time></trkpt><trkpt lat="46.03035545064723" lon="12.2292881190495"><ele>1015.0</ele><time>2026-04-23T12:42:53Z</time></trkpt><trkpt lat="46.03029182981892" lon="12.229261806875872"><ele>1015.0</ele><time>2026-04-23T12:42:54Z</time></trkpt><trkpt lat="46.030213836246205" lon="12.22922575414702"><ele>1015.0</ele><time>2026-04-23T12:42:55Z</time></trkpt><trkpt lat="46.03014110757191" lon="12.229184477426871"><ele>1015.0</ele><time>2026-04-23T12:42:56Z</time></trkpt><trkpt lat="46.030066491345586" lon="12.229166043824755"><ele>1015.0</ele><time>2026-04-23T12:42:57Z</time></trkpt><trkpt lat="46.029987736652544" lon="12.229157200109869"><ele>1015.0</ele><time>2026-04-23T12:42:58Z</time></trkpt><trkpt lat="46.02990975866865" lon="12.229153012695853"><ele>1014.9999999999999</ele><time>2026-04-23T12:42:59Z</time></trkpt><trkpt lat="46.029827136657254" lon="12.229155015659037"><ele>1015.0</ele><time>2026-04-23T12:43:00Z</time></trkpt><trkpt lat="46.02974028572266" lon="12.229151731871497"><ele>1015.0</ele><time>2026-04-23T12:43:01Z</time></trkpt><trkpt lat="46.02965235367613" lon="12.229157628185437"><ele>1015.0</ele><time>2026-04-23T12:43:02Z</time></trkpt><trkpt lat="46.02956731157203" lon="12.229148779360418"><ele>1014.9999999999999</ele><time>2026-04-23T12:43:03Z</time></trkpt><trkpt lat="46.0294753350882" lon="12.229158502181187"><ele>1015.0</ele><time>2026-04-23T12:43:04Z</time></trkpt><trkpt lat="46.029389692956684" lon="12.229180138197515"><ele>1014.9999999999999</ele><time>2026-04-23T12:43:05Z</time></trkpt><trkpt lat="46.02929745271016" lon="12.229204008985123"><ele>1015.0</ele><time>2026-04-23T12:43:06Z</time></trkpt><trkpt lat="46.02921163526936" lon="12.22921943052623"><ele>1015.0</ele><time>2026-04-23T12:43:07Z</time></trkpt><trkpt lat="46.0291243167935" lon="12.229229769505228"><ele>1015.0</ele><time>2026-04-23T12:43:08Z</time></trkpt><trkpt lat="46.02903498289761" lon="12.229240254588978"><ele>1014.9999999999999</ele><time>2026-04-23T12:43:09Z</time></trkpt><trkpt lat="46.028956295054336" lon="12.229253356290497"><ele>1015.0</ele><time>2026-04-23T12:43:10Z</time></trkpt><trkpt lat="46.02888592745579" lon="12.229286830205035"><ele>1013.4999999999999</ele><time>2026-04-23T12:43:11Z</time></trkpt><trkpt lat="46.02881641752802" lon="12.229333858049454"><ele>1012.0</ele><time>2026-04-23T12:43:12Z</time></trkpt><trkpt lat="46.02876548537339" lon="12.229404598685468"><ele>1010.5</ele><time>2026-04-23T12:43:13Z</time></trkpt><trkpt lat="46.02871917048046" lon="12.229509308185005"><ele>1009.0</ele><time>2026-04-23T12:43:14Z</time></trkpt><trkpt lat="46.02867594846992" lon="12.229612260357705"><ele>1007.4999999999999</ele><time>2026-04-23T12:43:15Z</time></trkpt><trkpt lat="46.02863478861552" lon="12.229715999249127"><ele>1006.0</ele><time>2026-04-23T12:43:16Z</time></trkpt><trkpt lat="46.0285271668612" lon="12.229795292270241"><ele>1006.0</ele><time>2026-04-23T12:43:18Z</time></trkpt><trkpt lat="46.02838995496265" lon="12.22977530209097"><ele>1005.9999999999999</ele><time>2026-04-23T12:43:20Z</time></trkpt><trkpt lat="46.02831538821641" lon="12.229741598412458"><ele>1005.9999999999999</ele><time>2026-04-23T12:43:21Z</time></trkpt><trkpt lat="46.028254507884704" lon="12.229694528780579"><ele>1006.0</ele><time>2026-04-23T12:43:22Z</time></trkpt><trkpt lat="46.028152819945575" lon="12.229676933804017"><ele>1006.0</ele><time>2026-04-23T12:43:24Z</time></trkpt><trkpt lat="46.028078571104885" lon="12.229707386209808"><ele>1008.4</ele><time>2026-04-23T12:43:26Z</time></trkpt><trkpt lat="46.0280145818841" lon="12.22978760881351"><ele>1010.8</ele><time>2026-04-23T12:43:28Z</time></trkpt><trkpt lat="46.02795877401604" lon="12.229912267511388"><ele>1013.1999999999999</ele><time>2026-04-23T12:46:05Z</time></trkpt><trkpt lat="46.027891971239846" lon="12.230086180245797"><ele>1015.5999999999999</ele><time>2026-04-23T12:46:07Z</time></trkpt><trkpt lat="46.02785130725077" lon="12.23019715366493"><ele>1018.0</ele><time>2026-04-23T12:46:08Z</time></trkpt><trkpt lat="46.0278004320294" lon="12.230302244971766"><ele>1018.0</ele><time>2026-04-23T12:46:09Z</time></trkpt><trkpt lat="46.027739682757186" lon="12.230404781967092"><ele>1018.0</ele><time>2026-04-23T12:46:10Z</time></trkpt><trkpt lat="46.02767749467594" lon="12.230510519604321"><ele>1018.0</ele><time>2026-04-23T12:46:11Z</time></trkpt><trkpt lat="46.02761053408395" lon="12.230599859344238"><ele>1018.0</ele><time>2026-04-23T12:46:12Z</time></trkpt><trkpt lat="46.02755370747181" lon="12.230713423829739"><ele>1018.0</ele><time>2026-04-23T12:46:13Z</time></trkpt><trkpt lat="46.027512591751076" lon="12.230820624258076"><ele>1018.8571428571427</ele><time>2026-04-23T12:46:14Z</time></trkpt><trkpt lat="46.027472396529795" lon="12.230929395953504"><ele>1019.7142857142857</ele><time>2026-04-23T12:46:15Z</time></trkpt><trkpt lat="46.027435890958785" lon="12.231036461258446"><ele>1020.5714285714284</ele><time>2026-04-23T12:46:16Z</time></trkpt><trkpt lat="46.02740869283823" lon="12.231125320452298"><ele>1021.4285714285713</ele><time>2026-04-23T12:46:17Z</time></trkpt><trkpt lat="46.0273705281967" lon="12.231201762644577"><ele>1022.2857142857142</ele><time>2026-04-23T12:46:18Z</time></trkpt><trkpt lat="46.027326988085" lon="12.23128776040028"><ele>1023.1428571428571</ele><time>2026-04-23T12:46:19Z</time></trkpt><trkpt lat="46.02728089962384" lon="12.231365293780078"><ele>1024.0</ele><time>2026-04-23T12:46:20Z</time></trkpt><trkpt lat="46.02722243951744" lon="12.231421989809178"><ele>1023.9999999999999</ele><time>2026-04-23T12:46:21Z</time></trkpt><trkpt lat="46.027144386200554" lon="12.231440557061791"><ele>1024.0</ele><time>2026-04-23T12:46:22Z</time></trkpt><trkpt lat="46.027059939706824" lon="12.231450983534408"><ele>1024.0</ele><time>2026-04-23T12:46:23Z</time></trkpt><trkpt lat="46.02697088145468" lon="12.231457786654692"><ele>1024.0</ele><time>2026-04-23T12:46:24Z</time></trkpt><trkpt lat="46.02689702801309" lon="12.231463286653824"><ele>1023.9999999999999</ele><time>2026-04-23T12:46:25Z</time></trkpt><trkpt lat="46.02681931529321" lon="12.231469976428164"><ele>1024.0</ele><time>2026-04-23T12:46:26Z</time></trkpt><trkpt lat="46.026764726916895" lon="12.231517873842108"><ele>1028.8333333333333</ele><time>2026-04-23T12:46:27Z</time></trkpt><trkpt lat="46.02671247696352" lon="12.231571771032392"><ele>1033.6666666666665</ele><time>2026-04-23T12:46:28Z</time></trkpt><trkpt lat="46.02664716242475" lon="12.231663612931637"><ele>1038.5</ele><time>2026-04-23T12:46:29Z</time></trkpt><trkpt lat="46.02659391366403" lon="12.231734714905787"><ele>1043.3333333333333</ele><time>2026-04-23T12:46:30Z</time></trkpt><trkpt lat="46.02651339815044" lon="12.23181470084587"><ele>1048.1666666666667</ele><time>2026-04-23T12:46:31Z</time></trkpt><trkpt lat="46.02644806513858" lon="12.231909972088204"><ele>1053.0</ele><time>2026-04-23T12:46:32Z</time></trkpt><trkpt lat="46.02639216708439" lon="12.232022783694388"><ele>1058.4</ele><time>2026-04-23T12:46:33Z</time></trkpt><trkpt lat="46.02635908383605" lon="12.232128330207212"><ele>1063.8</ele><time>2026-04-23T12:46:34Z</time></trkpt><trkpt lat="46.02632801310396" lon="12.232210117684362"><ele>1069.2</ele><time>2026-04-23T12:46:35Z</time></trkpt><trkpt lat="46.02621501100092" lon="12.232197297218423"><ele>1074.6</ele><time>2026-04-23T12:46:37Z</time></trkpt><trkpt lat="46.026116695972114" lon="12.232046233142826"><ele>1080.0</ele><time>2026-04-23T12:46:39Z</time></trkpt><trkpt lat="46.02605998593077" lon="12.231949234010676"><ele>1080.0</ele><time>2026-04-23T12:46:40Z</time></trkpt><trkpt lat="46.02600422932738" lon="12.231842111755105"><ele>1080.0</ele><time>2026-04-23T12:46:41Z</time></trkpt><trkpt lat="46.02597413122447" lon="12.231722208914118"><ele>1080.0</ele><time>2026-04-23T12:46:42Z</time></trkpt><trkpt lat="46.0259083311039" lon="12.231615507801203"><ele>1080.0</ele><time>2026-04-23T12:46:43Z</time></trkpt><trkpt lat="46.025847687289364" lon="12.231501607136247"><ele>1080.0</ele><time>2026-04-23T12:46:44Z</time></trkpt><trkpt lat="46.02578253812561" lon="12.231380698776833"><ele>1076.2</ele><time>2026-04-23T12:46:45Z</time></trkpt><trkpt lat="46.02572845477496" lon="12.231260965841065"><ele>1072.4</ele><time>2026-04-23T12:46:46Z</time></trkpt><trkpt lat="46.02565259940603" lon="12.23117600571694"><ele>1068.6</ele><time>2026-04-23T12:46:47Z</time></trkpt><trkpt lat="46.02558307763855" lon="12.231017726895622"><ele>1064.8</ele><time>2026-04-23T12:46:48Z</time></trkpt><trkpt lat="46.02551858168599" lon="12.230904229565825"><ele>1061.0</ele><time>2026-04-23T12:46:49Z</time></trkpt><trkpt lat="46.02546832326203" lon="12.230810773299856"><ele>1061.0</ele><time>2026-04-23T12:46:50Z</time></trkpt><trkpt lat="46.02541815877329" lon="12.230715117814489"><ele>1061.0</ele><time>2026-04-23T12:46:51Z</time></trkpt><trkpt lat="46.025351669275686" lon="12.230658278173996"><ele>1061.0</ele><time>2026-04-23T12:46:52Z</time></trkpt><trkpt lat="46.02523654528708" lon="12.230667353740548"><ele>1061.0</ele><time>2026-04-23T12:46:54Z</time></trkpt><trkpt lat="46.025142940389216" lon="12.23083044923309"><ele>1061.0</ele><time>2026-04-23T12:46:56Z</time></trkpt><trkpt lat="46.02510866398617" lon="12.230953993954394"><ele>1061.0</ele><time>2026-04-23T12:46:57Z</time></trkpt><trkpt lat="46.02506770770419" lon="12.231099197161575"><ele>1061.0</ele><time>2026-04-23T12:46:58Z</time></trkpt><trkpt lat="46.02501989986277" lon="12.23125046522933"><ele>1061.0</ele><time>2026-04-23T12:46:59Z</time></trkpt><trkpt lat="46.02496196267668" lon="12.2313887803363"><ele>1061.0</ele><time>2026-04-23T12:47:00Z</time></trkpt><trkpt lat="46.024911521813586" lon="12.231504301739871"><ele>1061.0</ele><time>2026-04-23T12:47:01Z</time></trkpt><trkpt lat="46.02485138752601" lon="12.231573086613036"><ele>1059.2</ele><time>2026-04-23T12:47:02Z</time></trkpt><trkpt lat="46.024806416479045" lon="12.231667425563007"><ele>1057.3999999999999</ele><time>2026-04-23T12:47:03Z</time></trkpt><trkpt lat="46.02477849539895" lon="12.23178352189568"><ele>1055.6</ele><time>2026-04-23T12:47:04Z</time></trkpt><trkpt lat="46.02476376490322" lon="12.231913967017226"><ele>1053.8</ele><time>2026-04-23T12:47:05Z</time></trkpt><trkpt lat="46.02473816706293" lon="12.232051209917902"><ele>1052.0</ele><time>2026-04-23T12:47:06Z</time></trkpt><trkpt lat="46.02471218931733" lon="12.232185327975426"><ele>1058.0</ele><time>2026-04-23T12:47:07Z</time></trkpt><trkpt lat="46.02469768500809" lon="12.232323448690313"><ele>1064.0</ele><time>2026-04-23T12:47:08Z</time></trkpt><trkpt lat="46.02467555912061" lon="12.232444554566687"><ele>1070.0</ele><time>2026-04-23T12:47:09Z</time></trkpt><trkpt lat="46.024645039143024" lon="12.232549240323747"><ele>1076.0</ele><time>2026-04-23T12:47:10Z</time></trkpt><trkpt lat="46.02459039526078" lon="12.232642342180686"><ele>1082.0</ele><time>2026-04-23T12:47:11Z</time></trkpt><trkpt lat="46.024520219936555" lon="12.232718923148335"><ele>1088.0</ele><time>2026-04-23T12:47:12Z</time></trkpt><trkpt lat="46.024451077549436" lon="12.232759202261654"><ele>1088.0</ele><time>2026-04-23T12:47:13Z</time></trkpt><trkpt lat="46.02436726208846" lon="12.232771150187345"><ele>1088.0</ele><time>2026-04-23T12:47:14Z</time></trkpt><trkpt lat="46.0242657220789" lon="12.232760646978925"><ele>1088.0</ele><time>2026-04-23T12:47:15Z</time></trkpt><trkpt lat="46.02415976577542" lon="12.232756961755143"><ele>1088.0</ele><time>2026-04-23T12:47:16Z</time></trkpt><trkpt lat="46.0240602145031" lon="12.232787562611058"><ele>1088.0</ele><time>2026-04-23T12:47:17Z</time></trkpt><trkpt lat="46.02395709359435" lon="12.232831223258808"><ele>1089.0</ele><time>2026-04-23T12:47:18Z</time></trkpt><trkpt lat="46.02387310022536" lon="12.23289948561155"><ele>1090.0</ele><time>2026-04-23T12:47:19Z</time></trkpt><trkpt lat="46.023814135591586" lon="12.232950419312035"><ele>1091.0</ele><time>2026-04-23T12:47:20Z</time></trkpt><trkpt lat="46.023726741406534" lon="12.233097750790268"><ele>1092.0</ele><time>2026-04-23T12:47:22Z</time></trkpt><trkpt lat="46.02369443770987" lon="12.23321735740112"><ele>1093.0</ele><time>2026-04-23T12:47:23Z</time></trkpt><trkpt lat="46.023655585840444" lon="12.23334295103295"><ele>1093.0</ele><time>2026-04-23T12:47:24Z</time></trkpt><trkpt lat="46.02362178487379" lon="12.233454478942605"><ele>1093.0</ele><time>2026-04-23T12:47:25Z</time></trkpt><trkpt lat="46.02359821354857" lon="12.2335881017147"><ele>1093.0</ele><time>2026-04-23T12:47:26Z</time></trkpt><trkpt lat="46.023594856150446" lon="12.23371050628385"><ele>1093.0</ele><time>2026-04-23T12:47:27Z</time></trkpt><trkpt lat="46.02359623043913" lon="12.23384213624464"><ele>1093.0</ele><time>2026-04-23T12:47:28Z</time></trkpt><trkpt lat="46.02359565220301" lon="12.233959837916387"><ele>1093.0</ele><time>2026-04-23T12:47:29Z</time></trkpt><trkpt lat="46.02357298953769" lon="12.234061238909964"><ele>1096.8333333333333</ele><time>2026-04-23T12:47:30Z</time></trkpt><trkpt lat="46.02352893799214" lon="12.23416266383092"><ele>1100.6666666666665</ele><time>2026-04-23T12:47:31Z</time></trkpt><trkpt lat="46.02347558496698" lon="12.234234227022082"><ele>1104.5</ele><time>2026-04-23T12:47:32Z</time></trkpt><trkpt lat="46.023406834025714" lon="12.234277705008282"><ele>1108.3333333333333</ele><time>2026-04-23T12:47:33Z</time></trkpt><trkpt lat="46.02333826741674" lon="12.234276960186566"><ele>1112.1666666666667</ele><time>2026-04-23T12:47:34Z</time></trkpt><trkpt lat="46.023252205990936" lon="12.234240221279403"><ele>1116.0</ele><time>2026-04-23T12:47:35Z</time></trkpt><trkpt lat="46.02314155006511" lon="12.234199728954984"><ele>1118.6</ele><time>2026-04-23T12:47:36Z</time></trkpt><trkpt lat="46.02307193814263" lon="12.234126710435929"><ele>1121.1999999999998</ele><time>2026-04-23T12:47:37Z</time></trkpt><trkpt lat="46.02297621409261" lon="12.234064552338207"><ele>1123.8000000000002</ele><time>2026-04-23T12:47:38Z</time></trkpt><trkpt lat="46.022884460756046" lon="12.234005224419354"><ele>1126.4</ele><time>2026-04-23T12:47:39Z</time></trkpt><trkpt lat="46.02278656514035" lon="12.233937842141561"><ele>1129.0</ele><time>2026-04-23T12:47:40Z</time></trkpt><trkpt lat="46.02270003348243" lon="12.233884472913186"><ele>1125.1666666666665</ele><time>2026-04-23T12:47:41Z</time></trkpt><trkpt lat="46.02261571110237" lon="12.233833885566945"><ele>1121.3333333333333</ele><time>2026-04-23T12:47:42Z</time></trkpt><trkpt lat="46.02253007480822" lon="12.233798594400726"><ele>1117.5</ele><time>2026-04-23T12:47:43Z</time></trkpt><trkpt lat="46.022445808359045" lon="12.23378214349509"><ele>1113.6666666666667</ele><time>2026-04-23T12:47:44Z</time></trkpt><trkpt lat="46.02236292482069" lon="12.233814837422736"><ele>1109.8333333333335</ele><time>2026-04-23T12:47:45Z</time></trkpt><trkpt lat="46.022272904637965" lon="12.233861633787969"><ele>1106.0</ele><time>2026-04-23T12:47:46Z</time></trkpt><trkpt lat="46.022185191647424" lon="12.233908671046205"><ele>1106.0</ele><time>2026-04-23T12:47:47Z</time></trkpt><trkpt lat="46.02208675189615" lon="12.233936149591191"><ele>1106.0</ele><time>2026-04-23T12:47:48Z</time></trkpt><trkpt lat="46.021993773851115" lon="12.233970009702029"><ele>1106.0</ele><time>2026-04-23T12:47:49Z</time></trkpt><trkpt lat="46.02189853150678" lon="12.234013211664157"><ele>1106.0</ele><time>2026-04-23T12:47:50Z</time></trkpt><trkpt lat="46.02181487405364" lon="12.234065562605194"><ele>1106.0</ele><time>2026-04-23T12:47:51Z</time></trkpt><trkpt lat="46.02173666825036" lon="12.23414868404826"><ele>1111.2</ele><time>2026-04-23T12:47:52Z</time></trkpt><trkpt lat="46.02165073214091" lon="12.23424592025864"><ele>1116.3999999999999</ele><time>2026-04-23T12:47:53Z</time></trkpt><trkpt lat="46.02155763401803" lon="12.23433530657761"><ele>1121.6</ele><time>2026-04-23T12:47:54Z</time></trkpt><trkpt lat="46.02146823153551" lon="12.234421420541457"><ele>1126.8</ele><time>2026-04-23T12:47:55Z</time></trkpt><trkpt lat="46.02139895752605" lon="12.234485189042093"><ele>1132.0</ele><time>2026-04-23T12:47:56Z</time></trkpt><trkpt lat="46.021336119523646" lon="12.234533855596991"><ele>1135.4</ele><time>2026-04-23T12:47:57Z</time></trkpt><trkpt lat="46.02123414426247" lon="12.234530448518615"><ele>1138.8000000000002</ele><time>2026-04-23T12:47:59Z</time></trkpt><trkpt lat="46.02117395188033" lon="12.234443055456056"><ele>1142.2</ele><time>2026-04-23T12:48:00Z</time></trkpt><trkpt lat="46.02111400122882" lon="12.234341331913075"><ele>1145.6000000000001</ele><time>2026-04-23T12:48:01Z</time></trkpt><trkpt lat="46.02105122992735" lon="12.234249000352747"><ele>1149.0</ele><time>2026-04-23T12:48:02Z</time></trkpt><trkpt lat="46.02098342206456" lon="12.234135643150296"><ele>1149.0</ele><time>2026-04-23T12:48:03Z</time></trkpt><trkpt lat="46.02091641201981" lon="12.234035888117651"><ele>1149.0</ele><time>2026-04-23T12:48:04Z</time></trkpt><trkpt lat="46.02085925923105" lon="12.233933301433417"><ele>1149.0</ele><time>2026-04-23T12:48:05Z</time></trkpt><trkpt lat="46.02080051331156" lon="12.233821740434408"><ele>1149.0</ele><time>2026-04-23T12:48:06Z</time></trkpt><trkpt lat="46.02073537589591" lon="12.233735828311962"><ele>1149.0</ele><time>2026-04-23T12:48:07Z</time></trkpt><trkpt lat="46.020667934009936" lon="12.233658683977158"><ele>1147.4</ele><time>2026-04-23T12:48:08Z</time></trkpt><trkpt lat="46.02058550908361" lon="12.233584311305156"><ele>1145.8000000000002</ele><time>2026-04-23T12:48:09Z</time></trkpt><trkpt lat="46.020506423709364" lon="12.233550916304953"><ele>1144.1999999999998</ele><time>2026-04-23T12:48:10Z</time></trkpt><trkpt lat="46.02041378538342" lon="12.233506869602829"><ele>1142.6</ele><time>2026-04-23T12:48:11Z</time></trkpt><trkpt lat="46.0202993887074" lon="12.233498716159943"><ele>1141.0</ele><time>2026-04-23T12:48:12Z</time></trkpt><trkpt lat="46.020193768847385" lon="12.233513984429724"><ele>1141.0</ele><time>2026-04-23T12:48:13Z</time></trkpt><trkpt lat="46.02008047261998" lon="12.233548450410698"><ele>1141.0</ele><time>2026-04-23T12:48:14Z</time></trkpt><trkpt lat="46.019994091750135" lon="12.233586098303235"><ele>1141.0</ele><time>2026-04-23T12:48:15Z</time></trkpt><trkpt lat="46.019920994763524" lon="12.233619363812823"><ele>1141.0</ele><time>2026-04-23T12:48:16Z</time></trkpt><trkpt lat="46.019840267576804" lon="12.233677032769291"><ele>1141.0</ele><time>2026-04-23T12:48:17Z</time></trkpt><trkpt lat="46.01974310252627" lon="12.233741054155367"><ele>1142.5</ele><time>2026-04-23T12:48:18Z</time></trkpt><trkpt lat="46.01968260371839" lon="12.23382804606258"><ele>1144.0</ele><time>2026-04-23T12:48:19Z</time></trkpt><trkpt lat="46.01963724282343" lon="12.233901548238396"><ele>1145.5</ele><time>2026-04-23T12:48:20Z</time></trkpt><trkpt lat="46.019619647245136" lon="12.233998474428466"><ele>1147.0</ele><time>2026-04-23T12:48:21Z</time></trkpt><trkpt lat="46.01961413929624" lon="12.234125458370778"><ele>1148.5</ele><time>2026-04-23T12:48:22Z</time></trkpt><trkpt lat="46.01958104112549" lon="12.234211083412056"><ele>1150.0</ele><time>2026-04-23T12:48:23Z</time></trkpt><trkpt lat="46.01947982232119" lon="12.2342927785564"><ele>1151.8</ele><time>2026-04-23T12:48:25Z</time></trkpt><trkpt lat="46.01935822380628" lon="12.234179695441238"><ele>1153.6</ele><time>2026-04-23T12:48:27Z</time></trkpt><trkpt lat="46.01928656091897" lon="12.234120663956611"><ele>1155.4</ele><time>2026-04-23T12:48:28Z</time></trkpt><trkpt lat="46.019193389185176" lon="12.234058382851982"><ele>1157.2</ele><time>2026-04-23T12:48:29Z</time></trkpt><trkpt lat="46.01911813123715" lon="12.23405779766967"><ele>1159.0</ele><time>2026-04-23T12:48:30Z</time></trkpt><trkpt lat="46.0190329660098" lon="12.234086785330762"><ele>1159.0</ele><time>2026-04-23T12:48:31Z</time></trkpt><trkpt lat="46.01893813752321" lon="12.234111104622707"><ele>1159.0</ele><time>2026-04-23T12:48:32Z</time></trkpt><trkpt lat="46.018854674554944" lon="12.234118004254846"><ele>1159.0</ele><time>2026-04-23T12:48:33Z</time></trkpt><trkpt lat="46.01877513305099" lon="12.234125221179438"><ele>1159.0</ele><time>2026-04-23T12:48:34Z</time></trkpt><trkpt lat="46.018691587723524" lon="12.234152190057273"><ele>1159.0</ele><time>2026-04-23T12:48:35Z</time></trkpt><trkpt lat="46.018608634260374" lon="12.234191228429722"><ele>1159.0</ele><time>2026-04-23T12:48:36Z</time></trkpt><trkpt lat="46.01854332077937" lon="12.234231067585954"><ele>1159.0</ele><time>2026-04-23T12:48:37Z</time></trkpt><trkpt lat="46.0184435156459" lon="12.234329369403055"><ele>1159.0</ele><time>2026-04-23T12:48:39Z</time></trkpt><trkpt lat="46.01845718272513" lon="12.23449833180131"><ele>1159.0</ele><time>2026-04-23T12:48:40Z</time></trkpt><trkpt lat="46.01840519315032" lon="12.234559811081116"><ele>1159.0</ele><time>2026-04-23T12:48:41Z</time></trkpt><trkpt lat="46.01831930353691" lon="12.234677418732504"><ele>1159.0</ele><time>2026-04-23T12:48:43Z</time></trkpt><trkpt lat="46.018250173041615" lon="12.234777540110164"><ele>1157.0</ele><time>2026-04-23T12:48:45Z</time></trkpt><trkpt lat="46.01819686119822" lon="12.234854097233313"><ele>1155.0</ele><time>2026-04-23T12:48:47Z</time></trkpt><trkpt lat="46.01814701016496" lon="12.234958360962395"><ele>1153.0</ele><time>2026-04-23T12:48:50Z</time></trkpt><trkpt lat="46.018052917297574" lon="12.235033996264564"><ele>1151.0</ele><time>2026-04-23T12:48:53Z</time></trkpt><trkpt lat="46.0179908336966" lon="12.23512597837559"><ele>1149.0</ele><time>2026-04-23T12:48:55Z</time></trkpt><trkpt lat="46.01789323739478" lon="12.235157679935734"><ele>1149.0</ele><time>2026-04-23T12:48:57Z</time></trkpt><trkpt lat="46.01777997237218" lon="12.235158978262788"><ele>1149.0</ele><time>2026-04-23T12:48:59Z</time></trkpt><trkpt lat="46.01767172881783" lon="12.235146011472853"><ele>1149.0</ele><time>2026-04-23T12:49:01Z</time></trkpt><trkpt lat="46.01756050845975" lon="12.23512336965033"><ele>1149.0</ele><time>2026-04-23T12:49:03Z</time></trkpt><trkpt lat="46.017463471973606" lon="12.235044855914744"><ele>1149.0</ele><time>2026-04-23T12:49:05Z</time></trkpt><trkpt lat="46.017360895113455" lon="12.235022283632057"><ele>1144.1666666666667</ele><time>2026-04-23T12:49:07Z</time></trkpt><trkpt lat="46.01729053691975" lon="12.234933533670912"><ele>1139.3333333333333</ele><time>2026-04-23T12:49:09Z</time></trkpt><trkpt lat="46.01721304760165" lon="12.23493650877914"><ele>1134.5</ele><time>2026-04-23T12:49:12Z</time></trkpt><trkpt lat="46.01718302356687" lon="12.235029633636573"><ele>1129.6666666666665</ele><time>2026-04-23T12:49:14Z</time></trkpt><trkpt lat="46.01723892635429" lon="12.235109221378357"><ele>1124.8333333333333</ele><time>2026-04-23T12:49:15Z</time></trkpt><trkpt lat="46.01726705615683" lon="12.23519869754056"><ele>1120.0</ele><time>2026-04-23T12:49:16Z</time></trkpt><trkpt lat="46.017345132881424" lon="12.235334269184573"><ele>1120.0</ele><time>2026-04-23T12:49:18Z</time></trkpt><trkpt lat="46.01743982689795" lon="12.2354486304916"><ele>1120.0</ele><time>2026-04-23T12:49:20Z</time></trkpt><trkpt lat="46.017504345842376" lon="12.235466601140166"><ele>1120.0</ele><time>2026-04-23T12:49:21Z</time></trkpt><trkpt lat="46.017602346018315" lon="12.235545794876057"><ele>1120.0</ele><time>2026-04-23T12:49:23Z</time></trkpt><trkpt lat="46.01766373919108" lon="12.23556933394958"><ele>1120.0</ele><time>2026-04-23T12:49:24Z</time></trkpt><trkpt lat="46.017755041776624" lon="12.235647728115252"><ele>1122.0</ele><time>2026-04-23T12:49:26Z</time></trkpt><trkpt lat="46.017843097780904" lon="12.235717936119128"><ele>1124.0</ele><time>2026-04-23T12:49:28Z</time></trkpt><trkpt lat="46.01793727036987" lon="12.235803989904309"><ele>1126.0</ele><time>2026-04-23T12:49:30Z</time></trkpt><trkpt lat="46.01802704725148" lon="12.235899946196323"><ele>1128.0</ele><time>2026-04-23T12:49:32Z</time></trkpt><trkpt lat="46.018110216440704" lon="12.236017220751894"><ele>1130.0</ele><time>2026-04-23T12:49:34Z</time></trkpt><trkpt lat="46.01819105209086" lon="12.236145855948104"><ele>1130.0</ele><time>2026-04-23T12:49:36Z</time></trkpt><trkpt lat="46.01826270084307" lon="12.23627362162591"><ele>1130.0</ele><time>2026-04-23T12:49:38Z</time></trkpt><trkpt lat="46.018331780824376" lon="12.236400956587188"><ele>1130.0</ele><time>2026-04-23T12:49:40Z</time></trkpt><trkpt lat="46.01840431080798" lon="12.236534353646132"><ele>1130.0</ele><time>2026-04-23T12:49:42Z</time></trkpt><trkpt lat="46.01845891288913" lon="12.236655895504823"><ele>1130.0</ele><time>2026-04-23T12:49:44Z</time></trkpt><trkpt lat="46.01853695893239" lon="12.236763576512072"><ele>1129.2</ele><time>2026-04-23T12:49:46Z</time></trkpt><trkpt lat="46.01861185314355" lon="12.2368455472492"><ele>1128.4</ele><time>2026-04-23T12:49:48Z</time></trkpt><trkpt lat="46.018669085154876" lon="12.236914027220383"><ele>1127.6</ele><time>2026-04-23T12:49:50Z</time></trkpt><trkpt lat="46.018614996142524" lon="12.23696450673149"><ele>1126.8</ele><time>2026-04-23T12:49:53Z</time></trkpt><trkpt lat="46.018486773851095" lon="12.236852732924998"><ele>1126.0</ele><time>2026-04-23T12:49:55Z</time></trkpt><trkpt lat="46.01841213735366" lon="12.236806589565093"><ele>1126.0</ele><time>2026-04-23T12:49:56Z</time></trkpt><trkpt lat="46.018330832594174" lon="12.236778873567232"><ele>1126.0</ele><time>2026-04-23T12:49:57Z</time></trkpt><trkpt lat="46.018251683493034" lon="12.236721316039295"><ele>1126.0</ele><time>2026-04-23T12:49:58Z</time></trkpt><trkpt lat="46.01817351853829" lon="12.236685233396079"><ele>1126.0</ele><time>2026-04-23T12:49:59Z</time></trkpt><trkpt lat="46.018102415362435" lon="12.236648674018655"><ele>1126.0</ele><time>2026-04-23T12:50:00Z</time></trkpt><trkpt lat="46.018027983279275" lon="12.236609542766066"><ele>1126.0</ele><time>2026-04-23T12:50:01Z</time></trkpt><trkpt lat="46.01795711987778" lon="12.236581264413271"><ele>1126.6666666666665</ele><time>2026-04-23T12:50:02Z</time></trkpt><trkpt lat="46.01788347565218" lon="12.236524504665773"><ele>1127.3333333333333</ele><time>2026-04-23T12:50:03Z</time></trkpt><trkpt lat="46.01781401428369" lon="12.236519277630133"><ele>1128.0</ele><time>2026-04-23T12:50:04Z</time></trkpt><trkpt lat="46.017742920119574" lon="12.23648406007084"><ele>1128.6666666666667</ele><time>2026-04-23T12:50:05Z</time></trkpt><trkpt lat="46.01766854025655" lon="12.236463257643354"><ele>1129.3333333333335</ele><time>2026-04-23T12:50:06Z</time></trkpt><trkpt lat="46.01759617440588" lon="12.236447855517115"><ele>1130.0</ele><time>2026-04-23T12:50:07Z</time></trkpt><trkpt lat="46.01750694627799" lon="12.236413102529689"><ele>1125.0</ele><time>2026-04-23T12:50:08Z</time></trkpt><trkpt lat="46.017423014462835" lon="12.236418730902466"><ele>1120.0</ele><time>2026-04-23T12:50:09Z</time></trkpt><trkpt lat="46.017346311586785" lon="12.236423466366176"><ele>1115.0</ele><time>2026-04-23T12:50:10Z</time></trkpt><trkpt lat="46.0172570655908" lon="12.236422778609183"><ele>1110.0</ele><time>2026-04-23T12:50:11Z</time></trkpt><trkpt lat="46.017186080296916" lon="12.236416419090347"><ele>1105.0</ele><time>2026-04-23T12:50:12Z</time></trkpt><trkpt lat="46.01712239821089" lon="12.236422272349532"><ele>1100.0</ele><time>2026-04-23T12:50:13Z</time></trkpt><trkpt lat="46.01704895927127" lon="12.236405113428479"><ele>1100.0</ele><time>2026-04-23T12:50:14Z</time></trkpt><trkpt lat="46.016961967459785" lon="12.236422876186802"><ele>1100.0</ele><time>2026-04-23T12:50:15Z</time></trkpt><trkpt lat="46.01689373820865" lon="12.236403067303497"><ele>1100.0</ele><time>2026-04-23T12:50:16Z</time></trkpt><trkpt lat="46.016828844737134" lon="12.23637999382556"><ele>1100.0</ele><time>2026-04-23T12:50:17Z</time></trkpt><trkpt lat="46.01675694462054" lon="12.236358721620322"><ele>1100.0</ele><time>2026-04-23T12:50:18Z</time></trkpt><trkpt lat="46.01669285714342" lon="12.236346282157266"><ele>1100.0</ele><time>2026-04-23T12:50:19Z</time></trkpt><trkpt lat="46.01657425012767" lon="12.23629053431251"><ele>1092.6666666666667</ele><time>2026-04-23T12:50:21Z</time></trkpt><trkpt lat="46.01651209225545" lon="12.236272968964386"><ele>1085.3333333333335</ele><time>2026-04-23T12:50:22Z</time></trkpt><trkpt lat="46.01639730828338" lon="12.236198969388075"><ele>1078.0</ele><time>2026-04-23T12:50:24Z</time></trkpt><trkpt lat="46.01633801420157" lon="12.236164072755447"><ele>1070.6666666666667</ele><time>2026-04-23T12:50:25Z</time></trkpt><trkpt lat="46.01628173976351" lon="12.236105260563916"><ele>1063.3333333333333</ele><time>2026-04-23T12:50:26Z</time></trkpt><trkpt lat="46.016173172667365" lon="12.236027365323178"><ele>1056.0</ele><time>2026-04-23T12:50:28Z</time></trkpt><trkpt lat="46.01611053610964" lon="12.235999423230487"><ele>1056.0</ele><time>2026-04-23T12:50:29Z</time></trkpt><trkpt lat="46.01603669745608" lon="12.23592813445523"><ele>1056.0</ele><time>2026-04-23T12:50:31Z</time></trkpt><trkpt lat="46.01598474559461" lon="12.235872017932884"><ele>1056.0</ele><time>2026-04-23T12:50:34Z</time></trkpt><trkpt lat="46.016033646369095" lon="12.235721678333176"><ele>1056.0</ele><time>2026-04-23T12:50:36Z</time></trkpt><trkpt lat="46.01602726132248" lon="12.235591865453639"><ele>1056.0</ele><time>2026-04-23T12:50:37Z</time></trkpt><trkpt lat="46.016017248512235" lon="12.23545900859862"><ele>1056.0</ele><time>2026-04-23T12:50:38Z</time></trkpt><trkpt lat="46.01600883228522" lon="12.235326841385362"><ele>1056.0</ele><time>2026-04-23T12:50:39Z</time></trkpt><trkpt lat="46.01599261590018" lon="12.235176538749808"><ele>1056.0</ele><time>2026-04-23T12:50:40Z</time></trkpt><trkpt lat="46.015953703057036" lon="12.235019244162867"><ele>1056.0</ele><time>2026-04-23T12:50:41Z</time></trkpt><trkpt lat="46.01587277480886" lon="12.234882400551568"><ele>1056.0</ele><time>2026-04-23T12:50:42Z</time></trkpt><trkpt lat="46.01579079304446" lon="12.234750839050253"><ele>1056.0</ele><time>2026-04-23T12:50:43Z</time></trkpt><trkpt lat="46.0157237041939" lon="12.234621299637013"><ele>1056.0</ele><time>2026-04-23T12:50:44Z</time></trkpt><trkpt lat="46.015657508907395" lon="12.234485294550579"><ele>1056.0</ele><time>2026-04-23T12:50:45Z</time></trkpt><trkpt lat="46.01561068953484" lon="12.234355859955983"><ele>1056.0</ele><time>2026-04-23T12:50:46Z</time></trkpt><trkpt lat="46.01556375635903" lon="12.23419835045625"><ele>1056.0</ele><time>2026-04-23T12:50:47Z</time></trkpt><trkpt lat="46.015529381478565" lon="12.234038599430285"><ele>1060.75</ele><time>2026-04-23T12:50:48Z</time></trkpt><trkpt lat="46.015489691164376" lon="12.233872061459273"><ele>1065.5</ele><time>2026-04-23T12:50:49Z</time></trkpt><trkpt lat="46.015438694273534" lon="12.233700056903661"><ele>1070.25</ele><time>2026-04-23T12:50:50Z</time></trkpt><trkpt lat="46.015379694611845" lon="12.233537634891416"><ele>1075.0</ele><time>2026-04-23T12:50:51Z</time></trkpt><trkpt lat="46.015317459099364" lon="12.233394041731861"><ele>1075.0</ele><time>2026-04-23T12:50:52Z</time></trkpt><trkpt lat="46.01524147020933" lon="12.233249512916338"><ele>1075.0</ele><time>2026-04-23T12:50:53Z</time></trkpt><trkpt lat="46.01517092840431" lon="12.233130549639979"><ele>1075.0</ele><time>2026-04-23T12:50:54Z</time></trkpt><trkpt lat="46.01510984597469" lon="12.233014797734002"><ele>1075.0</ele><time>2026-04-23T12:50:55Z</time></trkpt><trkpt lat="46.015064611706684" lon="12.232886118762265"><ele>1075.0</ele><time>2026-04-23T12:50:56Z</time></trkpt><trkpt lat="46.015039189452665" lon="12.232733667090248"><ele>1076.75</ele><time>2026-04-23T12:50:57Z</time></trkpt><trkpt lat="46.015018878344925" lon="12.232569743586247"><ele>1078.5</ele><time>2026-04-23T12:50:58Z</time></trkpt><trkpt lat="46.014980756873804" lon="12.232397864759522"><ele>1080.25</ele><time>2026-04-23T12:50:59Z</time></trkpt><trkpt lat="46.01492991200203" lon="12.232237661372599"><ele>1082.0</ele><time>2026-04-23T12:51:00Z</time></trkpt><trkpt lat="46.01487437651096" lon="12.232082495236364"><ele>1082.0</ele><time>2026-04-23T12:51:01Z</time></trkpt><trkpt lat="46.014817490180505" lon="12.231927277712254"><ele>1082.0</ele><time>2026-04-23T12:51:02Z</time></trkpt><trkpt lat="46.014757748996885" lon="12.231776850174796"><ele>1082.0</ele><time>2026-04-23T12:51:03Z</time></trkpt><trkpt lat="46.014697205954405" lon="12.231625493744675"><ele>1082.0</ele><time>2026-04-23T12:51:04Z</time></trkpt><trkpt lat="46.01464234280338" lon="12.231467942290315"><ele>1087.25</ele><time>2026-04-23T12:51:05Z</time></trkpt><trkpt lat="46.01458698338862" lon="12.2313026852572"><ele>1092.5</ele><time>2026-04-23T12:51:06Z</time></trkpt><trkpt lat="46.014519155413446" lon="12.231151645717508"><ele>1097.75</ele><time>2026-04-23T12:51:07Z</time></trkpt><trkpt lat="46.014425555331314" lon="12.231019234932305"><ele>1103.0</ele><time>2026-04-23T12:51:08Z</time></trkpt><trkpt lat="46.01433371560655" lon="12.230888554429905"><ele>1103.0</ele><time>2026-04-23T12:51:09Z</time></trkpt><trkpt lat="46.01424683403181" lon="12.230749723804433"><ele>1103.0</ele><time>2026-04-23T12:51:10Z</time></trkpt><trkpt lat="46.01415769101481" lon="12.230603357958877"><ele>1103.0</ele><time>2026-04-23T12:51:11Z</time></trkpt><trkpt lat="46.01405295600153" lon="12.230466471742988"><ele>1103.0</ele><time>2026-04-23T12:51:12Z</time></trkpt><trkpt lat="46.01397154000562" lon="12.23030254245759"><ele>1099.25</ele><time>2026-04-23T12:51:13Z</time></trkpt><trkpt lat="46.01387608988934" lon="12.230159004579455"><ele>1095.5</ele><time>2026-04-23T12:51:14Z</time></trkpt><trkpt lat="46.01377616490574" lon="12.23001434655669"><ele>1091.75</ele><time>2026-04-23T12:51:15Z</time></trkpt><trkpt lat="46.013711397472605" lon="12.229843721123641"><ele>1088.0</ele><time>2026-04-23T12:51:16Z</time></trkpt><trkpt lat="46.01364523872793" lon="12.229685317409238"><ele>1095.5</ele><time>2026-04-23T12:51:17Z</time></trkpt><trkpt lat="46.01357580962701" lon="12.229516789430374"><ele>1103.0</ele><time>2026-04-23T12:51:18Z</time></trkpt><trkpt lat="46.01351235494966" lon="12.229352235185399"><ele>1110.5</ele><time>2026-04-23T12:51:19Z</time></trkpt><trkpt lat="46.01343373391955" lon="12.229227380498614"><ele>1118.0</ele><time>2026-04-23T12:51:20Z</time></trkpt><trkpt lat="46.01335757717311" lon="12.229084562999043"><ele>1112.5</ele><time>2026-04-23T12:51:21Z</time></trkpt><trkpt lat="46.01326216296096" lon="12.228965778979568"><ele>1107.0</ele><time>2026-04-23T12:51:22Z</time></trkpt><trkpt lat="46.013168795034616" lon="12.228845342375894"><ele>1101.5</ele><time>2026-04-23T12:51:23Z</time></trkpt><trkpt lat="46.013081835689476" lon="12.228710887983851"><ele>1096.0</ele><time>2026-04-23T12:51:24Z</time></trkpt><trkpt lat="46.01301373032126" lon="12.228594590525528"><ele>1096.0</ele><time>2026-04-23T12:51:25Z</time></trkpt><trkpt lat="46.0129613740205" lon="12.22848869347939"><ele>1096.0</ele><time>2026-04-23T12:51:26Z</time></trkpt><trkpt lat="46.01292015260201" lon="12.228380205664346"><ele>1096.0</ele><time>2026-04-23T12:51:27Z</time></trkpt><trkpt lat="46.012906392894116" lon="12.228286719696175"><ele>1096.0</ele><time>2026-04-23T12:51:28Z</time></trkpt><trkpt lat="46.01295645306885" lon="12.228206373690652"><ele>1096.0</ele><time>2026-04-23T12:51:29Z</time></trkpt><trkpt lat="46.01303351976791" lon="12.228132165473568"><ele>1096.0</ele><time>2026-04-23T12:51:30Z</time></trkpt><trkpt lat="46.01310392494394" lon="12.228032880416155"><ele>1098.0</ele><time>2026-04-23T12:51:31Z</time></trkpt><trkpt lat="46.013179077018634" lon="12.227909286386138"><ele>1100.0</ele><time>2026-04-23T12:51:32Z</time></trkpt><trkpt lat="46.01321216803954" lon="12.227741060174026"><ele>1102.0</ele><time>2026-04-23T12:51:33Z</time></trkpt><trkpt lat="46.0132539596284" lon="12.227608080450937"><ele>1104.0</ele><time>2026-04-23T12:51:34Z</time></trkpt><trkpt lat="46.013306512917005" lon="12.227494374684317"><ele>1106.0</ele><time>2026-04-23T12:51:35Z</time></trkpt><trkpt lat="46.013323565323" lon="12.227364528815558"><ele>1110.6</ele><time>2026-04-23T12:51:36Z</time></trkpt><trkpt lat="46.01335824927249" lon="12.22724375631725"><ele>1115.1999999999998</ele><time>2026-04-23T12:51:37Z</time></trkpt><trkpt lat="46.01339840420891" lon="12.227108849773325"><ele>1119.8000000000002</ele><time>2026-04-23T12:51:38Z</time></trkpt><trkpt lat="46.01344429805111" lon="12.226965117377041"><ele>1124.4</ele><time>2026-04-23T12:51:39Z</time></trkpt><trkpt lat="46.013483862617555" lon="12.226816599934017"><ele>1129.0</ele><time>2026-04-23T12:51:40Z</time></trkpt><trkpt lat="46.01352672616882" lon="12.22666461125192"><ele>1129.0</ele><time>2026-04-23T12:51:41Z</time></trkpt><trkpt lat="46.01356827736541" lon="12.226521184977985"><ele>1129.0</ele><time>2026-04-23T12:51:42Z</time></trkpt><trkpt lat="46.01360887214686" lon="12.22638566025981"><ele>1129.0</ele><time>2026-04-23T12:51:43Z</time></trkpt><trkpt lat="46.01365619443059" lon="12.226245106589005"><ele>1129.0</ele><time>2026-04-23T12:51:44Z</time></trkpt><trkpt lat="46.01370658341695" lon="12.226111142652584"><ele>1129.0</ele><time>2026-04-23T12:51:45Z</time></trkpt><trkpt lat="46.013754298320364" lon="12.225982507723092"><ele>1129.8</ele><time>2026-04-23T12:51:46Z</time></trkpt><trkpt lat="46.01380026730416" lon="12.225844526188853"><ele>1130.6000000000001</ele><time>2026-04-23T12:51:47Z</time></trkpt><trkpt lat="46.01383963834552" lon="12.225715208210453"><ele>1131.4</ele><time>2026-04-23T12:51:48Z</time></trkpt><trkpt lat="46.0138768718389" lon="12.225586967126647"><ele>1132.2</ele><time>2026-04-23T12:51:49Z</time></trkpt><trkpt lat="46.01391066171118" lon="12.22547201766655"><ele>1133.0</ele><time>2026-04-23T12:51:50Z</time></trkpt><trkpt lat="46.0139326071259" lon="12.22537287659589"><ele>1130.5</ele><time>2026-04-23T12:51:51Z</time></trkpt><trkpt lat="46.01386966305939" lon="12.225207782892129"><ele>1128.0</ele><time>2026-04-23T12:51:53Z</time></trkpt><trkpt lat="46.01378568886034" lon="12.22513135704015"><ele>1125.5</ele><time>2026-04-23T12:51:54Z</time></trkpt><trkpt lat="46.013675562910535" lon="12.22506353163925"><ele>1123.0</ele><time>2026-04-23T12:51:55Z</time></trkpt><trkpt lat="46.01356294016424" lon="12.224980950598155"><ele>1123.0</ele><time>2026-04-23T12:51:56Z</time></trkpt><trkpt lat="46.01346334573035" lon="12.224902912551089"><ele>1123.0</ele><time>2026-04-23T12:51:57.001Z</time></trkpt><trkpt lat="46.013361093456304" lon="12.224846737317469"><ele>1123.0</ele><time>2026-04-23T12:51:58.001Z</time></trkpt><trkpt lat="46.013266010095975" lon="12.224792475537328"><ele>1123.0</ele><time>2026-04-23T12:51:59.001Z</time></trkpt><trkpt lat="46.01317741493951" lon="12.22472897592054"><ele>1123.0</ele><time>2026-04-23T12:52:00.001Z</time></trkpt><trkpt lat="46.01307705568242" lon="12.224675452462147"><ele>1126.25</ele><time>2026-04-23T12:52:01.001Z</time></trkpt><trkpt lat="46.01296347327827" lon="12.22465007967387"><ele>1129.5</ele><time>2026-04-23T12:52:02.001Z</time></trkpt><trkpt lat="46.012834374836764" lon="12.22464223311988"><ele>1132.75</ele><time>2026-04-23T12:52:03.001Z</time></trkpt><trkpt lat="46.012720067767944" lon="12.22464923589127"><ele>1136.0</ele><time>2026-04-23T12:52:04.001Z</time></trkpt><trkpt lat="46.01262589624844" lon="12.224656478081275"><ele>1136.0</ele><time>2026-04-23T12:52:05.001Z</time></trkpt><trkpt lat="46.012531309797325" lon="12.224657502361838"><ele>1136.0</ele><time>2026-04-23T12:52:06.001Z</time></trkpt><trkpt lat="46.0124520687633" lon="12.224629061412742"><ele>1136.0</ele><time>2026-04-23T12:52:07Z</time></trkpt><trkpt lat="46.01237101772067" lon="12.224561208637216"><ele>1136.0</ele><time>2026-04-23T12:52:08Z</time></trkpt><trkpt lat="46.01230820483772" lon="12.224434912517161"><ele>1136.0</ele><time>2026-04-23T12:52:09Z</time></trkpt><trkpt lat="46.01223550510461" lon="12.224315851354753"><ele>1138.0</ele><time>2026-04-23T12:52:10Z</time></trkpt><trkpt lat="46.01215189461845" lon="12.224214081161273"><ele>1140.0</ele><time>2026-04-23T12:52:11Z</time></trkpt><trkpt lat="46.01206064055273" lon="12.224104855679485"><ele>1142.0</ele><time>2026-04-23T12:52:12Z</time></trkpt><trkpt lat="46.01197310469866" lon="12.223997192345934"><ele>1144.0</ele><time>2026-04-23T12:52:13Z</time></trkpt><trkpt lat="46.01187860585235" lon="12.223902229444743"><ele>1145.0</ele><time>2026-04-23T12:52:14Z</time></trkpt><trkpt lat="46.0117754600715" lon="12.22381683006383"><ele>1146.0</ele><time>2026-04-23T12:52:15Z</time></trkpt><trkpt lat="46.011667210468" lon="12.223744969938442"><ele>1147.0</ele><time>2026-04-23T12:52:16Z</time></trkpt><trkpt lat="46.011538189139664" lon="12.223683911242556"><ele>1148.0</ele><time>2026-04-23T12:52:17Z</time></trkpt><trkpt lat="46.011415728680475" lon="12.223629373099138"><ele>1148.8</ele><time>2026-04-23T12:52:18Z</time></trkpt><trkpt lat="46.01131467427396" lon="12.2235820031918"><ele>1149.6</ele><time>2026-04-23T12:52:19Z</time></trkpt><trkpt lat="46.0112242790824" lon="12.223542714985598"><ele>1150.4</ele><time>2026-04-23T12:52:20Z</time></trkpt><trkpt lat="46.01112678054795" lon="12.223516307169547"><ele>1151.2</ele><time>2026-04-23T12:52:21Z</time></trkpt><trkpt lat="46.01101310323292" lon="12.223528214085873"><ele>1152.0</ele><time>2026-04-23T12:52:22Z</time></trkpt><trkpt lat="46.010911835688354" lon="12.223584713788885"><ele>1150.8</ele><time>2026-04-23T12:52:23Z</time></trkpt><trkpt lat="46.010820407548394" lon="12.223662942396093"><ele>1149.6</ele><time>2026-04-23T12:52:24Z</time></trkpt><trkpt lat="46.01075569175305" lon="12.223778123532194"><ele>1148.3999999999999</ele><time>2026-04-23T12:52:25Z</time></trkpt><trkpt lat="46.0106906943266" lon="12.223909488331259"><ele>1147.2</ele><time>2026-04-23T12:52:26Z</time></trkpt><trkpt lat="46.010641599394496" lon="12.22401780553143"><ele>1146.0</ele><time>2026-04-23T12:52:27Z</time></trkpt><trkpt lat="46.01056553972806" lon="12.224099411198743"><ele>1145.8</ele><time>2026-04-23T12:52:28Z</time></trkpt><trkpt lat="46.010474925838764" lon="12.22415005478912"><ele>1145.6</ele><time>2026-04-23T12:52:29Z</time></trkpt><trkpt lat="46.01037958454765" lon="12.224174381591553"><ele>1145.4</ele><time>2026-04-23T12:52:30Z</time></trkpt><trkpt lat="46.01026382045713" lon="12.224204988447608"><ele>1145.2</ele><time>2026-04-23T12:52:31Z</time></trkpt><trkpt lat="46.01013999464846" lon="12.224257475531301"><ele>1145.0</ele><time>2026-04-23T12:52:32Z</time></trkpt><trkpt lat="46.01002930627901" lon="12.22431870159239"><ele>1141.8</ele><time>2026-04-23T12:52:33Z</time></trkpt><trkpt lat="46.00992790213069" lon="12.224361162203094"><ele>1138.6</ele><time>2026-04-23T12:52:34Z</time></trkpt><trkpt lat="46.0098355563537" lon="12.224396839538342"><ele>1135.4</ele><time>2026-04-23T12:52:35Z</time></trkpt><trkpt lat="46.00976772297167" lon="12.224484062300354"><ele>1132.2</ele><time>2026-04-23T12:52:36Z</time></trkpt><trkpt lat="46.00969906417752" lon="12.224594390685729"><ele>1129.0</ele><time>2026-04-23T12:52:37Z</time></trkpt><trkpt lat="46.00962067797814" lon="12.224661189818747"><ele>1129.0</ele><time>2026-04-23T12:52:38Z</time></trkpt><trkpt lat="46.009514783239105" lon="12.224695771367468"><ele>1129.0</ele><time>2026-04-23T12:52:39Z</time></trkpt><trkpt lat="46.009385055594876" lon="12.22470642425025"><ele>1129.0</ele><time>2026-04-23T12:52:40Z</time></trkpt><trkpt lat="46.00925368362153" lon="12.22470630660773"><ele>1129.0</ele><time>2026-04-23T12:52:41Z</time></trkpt><trkpt lat="46.00913383598338" lon="12.22470006319496"><ele>1129.4</ele><time>2026-04-23T12:52:42Z</time></trkpt><trkpt lat="46.00902206311279" lon="12.224721796486813"><ele>1129.8000000000002</ele><time>2026-04-23T12:52:43Z</time></trkpt><trkpt lat="46.00890997126575" lon="12.224764731580887"><ele>1130.1999999999998</ele><time>2026-04-23T12:52:44Z</time></trkpt><trkpt lat="46.00880779539604" lon="12.224814752304049"><ele>1130.6</ele><time>2026-04-23T12:52:45Z</time></trkpt><trkpt lat="46.00871875505345" lon="12.224850981606831"><ele>1131.0</ele><time>2026-04-23T12:52:46Z</time></trkpt><trkpt lat="46.00864065199351" lon="12.224840265867261"><ele>1131.6</ele><time>2026-04-23T12:52:47Z</time></trkpt><trkpt lat="46.008570686090195" lon="12.224773010618804"><ele>1132.1999999999998</ele><time>2026-04-23T12:52:48Z</time></trkpt><trkpt lat="46.00850859418229" lon="12.224667957801712"><ele>1132.8000000000002</ele><time>2026-04-23T12:52:49Z</time></trkpt><trkpt lat="46.00847989681598" lon="12.224538161098174"><ele>1133.4</ele><time>2026-04-23T12:52:50Z</time></trkpt><trkpt lat="46.00847296925005" lon="12.22438704981499"><ele>1134.0</ele><time>2026-04-23T12:52:51Z</time></trkpt><trkpt lat="46.00847613741589" lon="12.224230444838675"><ele>1134.0</ele><time>2026-04-23T12:52:52Z</time></trkpt><trkpt lat="46.00850529332452" lon="12.22409322780422"><ele>1134.0</ele><time>2026-04-23T12:52:53Z</time></trkpt><trkpt lat="46.008543263579824" lon="12.223953613859168"><ele>1134.0</ele><time>2026-04-23T12:52:54Z</time></trkpt><trkpt lat="46.00857625113736" lon="12.223837962000276"><ele>1134.0</ele><time>2026-04-23T12:52:55Z</time></trkpt><trkpt lat="46.00859593718493" lon="12.22372029540314"><ele>1134.0</ele><time>2026-04-23T12:52:56Z</time></trkpt><trkpt lat="46.0086042298576" lon="12.223599644199364"><ele>1134.0</ele><time>2026-04-23T12:52:57Z</time></trkpt><trkpt lat="46.00858392699485" lon="12.223490470584615"><ele>1134.0</ele><time>2026-04-23T12:52:58Z</time></trkpt><trkpt lat="46.00852840077117" lon="12.223353634480379"><ele>1134.0</ele><time>2026-04-23T12:52:59Z</time></trkpt><trkpt lat="46.00846551171839" lon="12.223208352705111"><ele>1134.0</ele><time>2026-04-23T12:53:00Z</time></trkpt><trkpt lat="46.008419884729754" lon="12.223063719942022"><ele>1134.0</ele><time>2026-04-23T12:53:01Z</time></trkpt><trkpt lat="46.00836717348776" lon="12.222932710920455"><ele>1132.0</ele><time>2026-04-23T12:53:02Z</time></trkpt><trkpt lat="46.008327151607055" lon="12.222804984878174"><ele>1130.0</ele><time>2026-04-23T12:53:03Z</time></trkpt><trkpt lat="46.00831350697814" lon="12.222663649400598"><ele>1128.0</ele><time>2026-04-23T12:53:04Z</time></trkpt><trkpt lat="46.00831846927413" lon="12.22250445784779"><ele>1126.0</ele><time>2026-04-23T12:53:05Z</time></trkpt><trkpt lat="46.00832459822477" lon="12.22236953152773"><ele>1124.0</ele><time>2026-04-23T12:53:06Z</time></trkpt><trkpt lat="46.00830215317562" lon="12.222254621978264"><ele>1120.6000000000001</ele><time>2026-04-23T12:53:07Z</time></trkpt><trkpt lat="46.00824600931932" lon="12.222155564685615"><ele>1117.2</ele><time>2026-04-23T12:53:08Z</time></trkpt><trkpt lat="46.00815831180547" lon="12.222064383522186"><ele>1113.8000000000002</ele><time>2026-04-23T12:53:09Z</time></trkpt><trkpt lat="46.00805344842011" lon="12.221988426555573"><ele>1110.4</ele><time>2026-04-23T12:53:10Z</time></trkpt><trkpt lat="46.00794876215716" lon="12.221936260846654"><ele>1107.0</ele><time>2026-04-23T12:53:11Z</time></trkpt><trkpt lat="46.00784443675275" lon="12.221909989299224"><ele>1107.0</ele><time>2026-04-23T12:53:12Z</time></trkpt><trkpt lat="46.00774877863487" lon="12.2219188704645"><ele>1107.0</ele><time>2026-04-23T12:53:13Z</time></trkpt><trkpt lat="46.007659347930264" lon="12.221960921687725"><ele>1107.0</ele><time>2026-04-23T12:53:14Z</time></trkpt><trkpt lat="46.00757282032518" lon="12.222027642921496"><ele>1107.0</ele><time>2026-04-23T12:53:15Z</time></trkpt><trkpt lat="46.0075107163287" lon="12.222094708451502"><ele>1107.0</ele><time>2026-04-23T12:53:16Z</time></trkpt><trkpt lat="46.0074640853179" lon="12.222190287835392"><ele>1107.0</ele><time>2026-04-23T12:53:17Z</time></trkpt><trkpt lat="46.007431081439385" lon="12.222332516755742"><ele>1104.8</ele><time>2026-04-23T12:53:18Z</time></trkpt><trkpt lat="46.00741085307074" lon="12.222495979637019"><ele>1102.6</ele><time>2026-04-23T12:53:19Z</time></trkpt><trkpt lat="46.00740390212799" lon="12.222646681568948"><ele>1100.3999999999999</ele><time>2026-04-23T12:53:20Z</time></trkpt><trkpt lat="46.00736839110982" lon="12.222755071593417"><ele>1098.2</ele><time>2026-04-23T12:53:21Z</time></trkpt><trkpt lat="46.00730252690205" lon="12.222823468048102"><ele>1096.0</ele><time>2026-04-23T12:53:22Z</time></trkpt><trkpt lat="46.00720568589158" lon="12.222811177784394"><ele>1096.0</ele><time>2026-04-23T12:53:23Z</time></trkpt><trkpt lat="46.00711370669583" lon="12.22277091150833"><ele>1096.0</ele><time>2026-04-23T12:53:24Z</time></trkpt><trkpt lat="46.007033512737834" lon="12.22277424071252"><ele>1096.0</ele><time>2026-04-23T12:53:25Z</time></trkpt><trkpt lat="46.00697852118037" lon="12.222841138193004"><ele>1096.0</ele><time>2026-04-23T12:53:26Z</time></trkpt><trkpt lat="46.006953427010274" lon="12.222943303912741"><ele>1096.0</ele><time>2026-04-23T12:53:27Z</time></trkpt><trkpt lat="46.006956184992895" lon="12.223060233995199"><ele>1096.0</ele><time>2026-04-23T12:53:28Z</time></trkpt><trkpt lat="46.006924884334644" lon="12.223186115691403"><ele>1096.0</ele><time>2026-04-23T12:53:30Z</time></trkpt><trkpt lat="46.006839044869096" lon="12.223044127965121"><ele>1096.0</ele><time>2026-04-23T12:53:32Z</time></trkpt><trkpt lat="46.00682678418038" lon="12.222911869355594"><ele>1096.0</ele><time>2026-04-23T12:53:33Z</time></trkpt><trkpt lat="46.006788841481224" lon="12.222760324977015"><ele>1096.0</ele><time>2026-04-23T12:53:34Z</time></trkpt><trkpt lat="46.0067399534631" lon="12.222621172286098"><ele>1096.0</ele><time>2026-04-23T12:53:35Z</time></trkpt><trkpt lat="46.0066898467245" lon="12.222484206086573"><ele>1096.25</ele><time>2026-04-23T12:53:36Z</time></trkpt><trkpt lat="46.00665257306888" lon="12.222342084957024"><ele>1096.5</ele><time>2026-04-23T12:53:37Z</time></trkpt><trkpt lat="46.00664055078521" lon="12.222182443833555"><ele>1096.75</ele><time>2026-04-23T12:53:38Z</time></trkpt><trkpt lat="46.00664991085258" lon="12.222009535230796"><ele>1097.0</ele><time>2026-04-23T12:53:39Z</time></trkpt><trkpt lat="46.006663619726616" lon="12.221830228659293"><ele>1097.0</ele><time>2026-04-23T12:53:40Z</time></trkpt><trkpt lat="46.00667491443997" lon="12.221666717287945"><ele>1097.0</ele><time>2026-04-23T12:53:41Z</time></trkpt><trkpt lat="46.00668325307412" lon="12.221520472872836"><ele>1097.0</ele><time>2026-04-23T12:53:42Z</time></trkpt><trkpt lat="46.006686499266856" lon="12.221368959896715"><ele>1097.0</ele><time>2026-04-23T12:53:43Z</time></trkpt><trkpt lat="46.0066871924502" lon="12.221213663236625"><ele>1097.0</ele><time>2026-04-23T12:53:44Z</time></trkpt><trkpt lat="46.006677362135925" lon="12.221078047375697"><ele>1098.0</ele><time>2026-04-23T12:53:45Z</time></trkpt><trkpt lat="46.00665143204744" lon="12.220955089481041"><ele>1099.0</ele><time>2026-04-23T12:53:46Z</time></trkpt><trkpt lat="46.006599564417066" lon="12.220855397665584"><ele>1100.0</ele><time>2026-04-23T12:53:47Z</time></trkpt><trkpt lat="46.0065237701359" lon="12.22074774810976"><ele>1101.0</ele><time>2026-04-23T12:53:48Z</time></trkpt><trkpt lat="46.00645517566039" lon="12.22061614632271"><ele>1102.0</ele><time>2026-04-23T12:53:49Z</time></trkpt><trkpt lat="46.0064304120053" lon="12.220471443059635"><ele>1102.2</ele><time>2026-04-23T12:53:50Z</time></trkpt><trkpt lat="46.00640483847874" lon="12.220348562771946"><ele>1102.4</ele><time>2026-04-23T12:53:51Z</time></trkpt><trkpt lat="46.006330836431054" lon="12.220231661110374"><ele>1102.6</ele><time>2026-04-23T12:53:52Z</time></trkpt><trkpt lat="46.00624210573107" lon="12.220117220154087"><ele>1102.8</ele><time>2026-04-23T12:53:53Z</time></trkpt><trkpt lat="46.006159639121684" lon="12.220020456066383"><ele>1103.0</ele><time>2026-04-23T12:53:54Z</time></trkpt><trkpt lat="46.00608531099629" lon="12.219925129822133"><ele>1101.2</ele><time>2026-04-23T12:53:55Z</time></trkpt><trkpt lat="46.00603344920369" lon="12.219811510848594"><ele>1099.4</ele><time>2026-04-23T12:53:56Z</time></trkpt><trkpt lat="46.00601060763686" lon="12.219686083269758"><ele>1097.6000000000001</ele><time>2026-04-23T12:53:57Z</time></trkpt><trkpt lat="46.006017828328" lon="12.219547054979696"><ele>1095.8</ele><time>2026-04-23T12:53:58Z</time></trkpt><trkpt lat="46.00605281855591" lon="12.21940055839052"><ele>1094.0</ele><time>2026-04-23T12:53:59Z</time></trkpt><trkpt lat="46.00607960960607" lon="12.219235136932648"><ele>1094.0</ele><time>2026-04-23T12:54:00Z</time></trkpt><trkpt lat="46.006057702380225" lon="12.219051034147707"><ele>1094.0</ele><time>2026-04-23T12:54:01Z</time></trkpt><trkpt lat="46.006014107252305" lon="12.218867413789598"><ele>1094.0</ele><time>2026-04-23T12:54:02Z</time></trkpt><trkpt lat="46.00596878099511" lon="12.218706177124096"><ele>1094.0</ele><time>2026-04-23T12:54:03Z</time></trkpt><trkpt lat="46.00593077701935" lon="12.218575084554287"><ele>1094.0</ele><time>2026-04-23T12:54:04Z</time></trkpt><trkpt lat="46.00589274294285" lon="12.218448572622744"><ele>1094.0</ele><time>2026-04-23T12:54:05Z</time></trkpt><trkpt lat="46.005864381952314" lon="12.2183337156394"><ele>1094.0</ele><time>2026-04-23T12:54:06Z</time></trkpt><trkpt lat="46.0058649332449" lon="12.218217776569668"><ele>1094.0</ele><time>2026-04-23T12:54:07Z</time></trkpt><trkpt lat="46.00589229377496" lon="12.218065418797163"><ele>1094.0</ele><time>2026-04-23T12:54:08Z</time></trkpt><trkpt lat="46.00589086170939" lon="12.217911113826313"><ele>1094.2</ele><time>2026-04-23T12:54:09Z</time></trkpt><trkpt lat="46.00585416048512" lon="12.217748291128448"><ele>1094.4</ele><time>2026-04-23T12:54:10Z</time></trkpt><trkpt lat="46.00581785547813" lon="12.21759931677387"><ele>1094.6</ele><time>2026-04-23T12:54:11Z</time></trkpt><trkpt lat="46.00579500283094" lon="12.217467024587544"><ele>1094.8</ele><time>2026-04-23T12:54:12Z</time></trkpt><trkpt lat="46.005779341449994" lon="12.217350994634273"><ele>1095.0</ele><time>2026-04-23T12:54:13Z</time></trkpt><trkpt lat="46.00574500712206" lon="12.217247280082299"><ele>1093.6</ele><time>2026-04-23T12:54:14Z</time></trkpt><trkpt lat="46.00566944963174" lon="12.217168206569296"><ele>1092.2</ele><time>2026-04-23T12:54:15Z</time></trkpt><trkpt lat="46.00555589779375" lon="12.217138542160091"><ele>1090.8</ele><time>2026-04-23T12:54:16Z</time></trkpt><trkpt lat="46.00546295129992" lon="12.217190202290107"><ele>1089.4</ele><time>2026-04-23T12:54:17Z</time></trkpt><trkpt lat="46.00537334485682" lon="12.217291429075004"><ele>1088.0</ele><time>2026-04-23T12:54:18Z</time></trkpt><trkpt lat="46.00530438255832" lon="12.217353648503861"><ele>1088.0</ele><time>2026-04-23T12:54:19Z</time></trkpt><trkpt lat="46.005227375864756" lon="12.217344339012385"><ele>1088.0</ele><time>2026-04-23T12:54:20Z</time></trkpt><trkpt lat="46.00514034025778" lon="12.217252914266409"><ele>1088.0</ele><time>2026-04-23T12:54:21Z</time></trkpt><trkpt lat="46.00505390713323" lon="12.217135447252668"><ele>1088.0</ele><time>2026-04-23T12:54:22Z</time></trkpt><trkpt lat="46.00495719382545" lon="12.217038354524233"><ele>1088.0</ele><time>2026-04-23T12:54:23Z</time></trkpt><trkpt lat="46.00484139408224" lon="12.216977959058474"><ele>1087.5</ele><time>2026-04-23T12:54:24Z</time></trkpt><trkpt lat="46.00472089143001" lon="12.216912683709436"><ele>1087.0</ele><time>2026-04-23T12:54:25Z</time></trkpt><trkpt lat="46.00461695495697" lon="12.216827794915487"><ele>1086.5</ele><time>2026-04-23T12:54:26Z</time></trkpt><trkpt lat="46.00451927115283" lon="12.216727990334906"><ele>1086.0</ele><time>2026-04-23T12:54:27Z</time></trkpt><trkpt lat="46.00441980577127" lon="12.216614834870057"><ele>1086.0</ele><time>2026-04-23T12:54:28Z</time></trkpt><trkpt lat="46.004331549649464" lon="12.216514543086179"><ele>1086.0</ele><time>2026-04-23T12:54:29Z</time></trkpt><trkpt lat="46.00424771083711" lon="12.216436643898577"><ele>1086.0</ele><time>2026-04-23T12:54:30Z</time></trkpt><trkpt lat="46.00416828511496" lon="12.216363986664163"><ele>1086.0</ele><time>2026-04-23T12:54:31Z</time></trkpt><trkpt lat="46.00409029025816" lon="12.21628929673631"><ele>1086.0</ele><time>2026-04-23T12:54:32Z</time></trkpt><trkpt lat="46.00402103633621" lon="12.216205279769769"><ele>1083.0</ele><time>2026-04-23T12:54:33Z</time></trkpt><trkpt lat="46.00395720544594" lon="12.216108024700555"><ele>1080.0</ele><time>2026-04-23T12:54:34Z</time></trkpt><trkpt lat="46.00390761517941" lon="12.215987517424491"><ele>1077.0</ele><time>2026-04-23T12:54:35Z</time></trkpt><trkpt lat="46.00387651077322" lon="12.215832603247174"><ele>1074.0</ele><time>2026-04-23T12:54:36Z</time></trkpt><trkpt lat="46.0038490103438" lon="12.215648503163598"><ele>1071.0</ele><time>2026-04-23T12:54:37Z</time></trkpt><trkpt lat="46.003821153763724" lon="12.215460360675122"><ele>1071.0</ele><time>2026-04-23T12:54:38Z</time></trkpt><trkpt lat="46.00378042210894" lon="12.215276615697189"><ele>1071.0</ele><time>2026-04-23T12:54:39Z</time></trkpt><trkpt lat="46.0037439528563" lon="12.215106229941304"><ele>1071.0</ele><time>2026-04-23T12:54:40Z</time></trkpt><trkpt lat="46.00370866637983" lon="12.214936030561525"><ele>1071.0</ele><time>2026-04-23T12:54:41Z</time></trkpt><trkpt lat="46.0036673959896" lon="12.214766574160587"><ele>1074.25</ele><time>2026-04-23T12:54:42Z</time></trkpt><trkpt lat="46.00362110791557" lon="12.214596346580588"><ele>1077.5</ele><time>2026-04-23T12:54:43Z</time></trkpt><trkpt lat="46.00357212452809" lon="12.214424888991985"><ele>1080.75</ele><time>2026-04-23T12:54:44Z</time></trkpt><trkpt lat="46.00352849308558" lon="12.214251925324533"><ele>1084.0</ele><time>2026-04-23T12:54:45Z</time></trkpt><trkpt lat="46.00349510738706" lon="12.214079465889336"><ele>1086.75</ele><time>2026-04-23T12:54:46Z</time></trkpt><trkpt lat="46.0034582906756" lon="12.21389667855563"><ele>1089.5</ele><time>2026-04-23T12:54:47Z</time></trkpt><trkpt lat="46.003418463162376" lon="12.213716624894506"><ele>1092.25</ele><time>2026-04-23T12:54:48Z</time></trkpt><trkpt lat="46.003382156689206" lon="12.213560316942674"><ele>1095.0</ele><time>2026-04-23T12:54:49Z</time></trkpt><trkpt lat="46.003351373482296" lon="12.21340986681775"><ele>1085.25</ele><time>2026-04-23T12:54:50Z</time></trkpt><trkpt lat="46.00332831424266" lon="12.213240455541117"><ele>1075.5</ele><time>2026-04-23T12:54:51Z</time></trkpt><trkpt lat="46.00330921413233" lon="12.21307316243576"><ele>1065.75</ele><time>2026-04-23T12:54:52Z</time></trkpt><trkpt lat="46.00329666582724" lon="12.212912504061896"><ele>1056.0</ele><time>2026-04-23T12:54:53Z</time></trkpt><trkpt lat="46.00328064582134" lon="12.212750088841062"><ele>1056.0</ele><time>2026-04-23T12:54:54Z</time></trkpt><trkpt lat="46.00324326773651" lon="12.212569332611228"><ele>1056.0</ele><time>2026-04-23T12:54:55Z</time></trkpt><trkpt lat="46.0031824483192" lon="12.212405665283155"><ele>1056.0</ele><time>2026-04-23T12:54:56Z</time></trkpt><trkpt lat="46.003140723785314" lon="12.21225359810003"><ele>1056.0</ele><time>2026-04-23T12:54:57Z</time></trkpt><trkpt lat="46.00311029400656" lon="12.212082372591697"><ele>1060.25</ele><time>2026-04-23T12:54:58Z</time></trkpt><trkpt lat="46.003089536911126" lon="12.211914472802418"><ele>1064.5</ele><time>2026-04-23T12:54:59Z</time></trkpt><trkpt lat="46.00306293282307" lon="12.211759218980038"><ele>1068.75</ele><time>2026-04-23T12:55:00Z</time></trkpt><trkpt lat="46.00300578681165" lon="12.21158960101255"><ele>1073.0</ele><time>2026-04-23T12:55:01Z</time></trkpt><trkpt lat="46.002938007477184" lon="12.21141284641068"><ele>1077.25</ele><time>2026-04-23T12:55:02Z</time></trkpt><trkpt lat="46.00287361039832" lon="12.21124571434361"><ele>1081.5</ele><time>2026-04-23T12:55:03Z</time></trkpt><trkpt lat="46.00281561631404" lon="12.211072582191914"><ele>1085.75</ele><time>2026-04-23T12:55:04Z</time></trkpt><trkpt lat="46.00275851884797" lon="12.210909719121029"><ele>1090.0</ele><time>2026-04-23T12:55:05Z</time></trkpt><trkpt lat="46.002711107869885" lon="12.21075382249039"><ele>1093.0</ele><time>2026-04-23T12:55:06Z</time></trkpt><trkpt lat="46.002660057884945" lon="12.21057826341989"><ele>1096.0</ele><time>2026-04-23T12:55:07Z</time></trkpt><trkpt lat="46.00261796370964" lon="12.210391727268716"><ele>1099.0</ele><time>2026-04-23T12:55:08Z</time></trkpt><trkpt lat="46.00258854673288" lon="12.210209282724659"><ele>1102.0</ele><time>2026-04-23T12:55:09Z</time></trkpt><trkpt lat="46.002569547530854" lon="12.210056442221159"><ele>1102.0</ele><time>2026-04-23T12:55:10Z</time></trkpt><trkpt lat="46.00254342938475" lon="12.209923190099897"><ele>1102.0</ele><time>2026-04-23T12:55:11Z</time></trkpt><trkpt lat="46.00249836088766" lon="12.209801312661366"><ele>1102.0</ele><time>2026-04-23T12:55:12Z</time></trkpt><trkpt lat="46.00244091219245" lon="12.209697907329963"><ele>1102.0</ele><time>2026-04-23T12:55:13Z</time></trkpt><trkpt lat="46.00239146853533" lon="12.209615613176778"><ele>1102.0</ele><time>2026-04-23T12:55:14Z</time></trkpt><trkpt lat="46.002347776275116" lon="12.209534738442354"><ele>1102.0</ele><time>2026-04-23T12:55:15Z</time></trkpt><trkpt lat="46.00230945742179" lon="12.209451289127347"><ele>1098.3333333333333</ele><time>2026-04-23T12:55:16Z</time></trkpt><trkpt lat="46.00229149729451" lon="12.209340538525929"><ele>1094.6666666666665</ele><time>2026-04-23T12:55:17Z</time></trkpt><trkpt lat="46.002295474896044" lon="12.209220325948916"><ele>1091.0</ele><time>2026-04-23T12:55:18Z</time></trkpt><trkpt lat="46.00230917740871" lon="12.209098529577535"><ele>1087.3333333333333</ele><time>2026-04-23T12:55:19Z</time></trkpt><trkpt lat="46.00231930496959" lon="12.208971774468687"><ele>1083.6666666666667</ele><time>2026-04-23T12:55:20Z</time></trkpt><trkpt lat="46.00232415752082" lon="12.208852306418517"><ele>1080.0</ele><time>2026-04-23T12:55:21Z</time></trkpt><trkpt lat="46.00232665716014" lon="12.20869454501688"><ele>1079.8</ele><time>2026-04-23T12:55:23Z</time></trkpt><trkpt lat="46.00236196173251" lon="12.208570627318522"><ele>1079.6</ele><time>2026-04-23T12:55:25Z</time></trkpt><trkpt lat="46.00246807283199" lon="12.208644093233621"><ele>1079.4</ele><time>2026-04-23T12:55:27Z</time></trkpt><trkpt lat="46.00249505323001" lon="12.208757635375251"><ele>1079.2</ele><time>2026-04-23T12:55:28Z</time></trkpt><trkpt lat="46.00251348419498" lon="12.208879705585897"><ele>1079.0</ele><time>2026-04-23T12:55:29Z</time></trkpt><trkpt lat="46.002544324167744" lon="12.209025991131286"><ele>1084.6000000000001</ele><time>2026-04-23T12:55:30Z</time></trkpt><trkpt lat="46.002583463353744" lon="12.209167354500515"><ele>1090.2</ele><time>2026-04-23T12:55:31Z</time></trkpt><trkpt lat="46.00262153533881" lon="12.20927073324537"><ele>1095.8000000000002</ele><time>2026-04-23T12:55:32Z</time></trkpt><trkpt lat="46.002659354692454" lon="12.20935640586692"><ele>1101.4</ele><time>2026-04-23T12:55:33Z</time></trkpt><trkpt lat="46.002766638221445" lon="12.209466070720351"><ele>1107.0</ele><time>2026-04-23T12:55:35Z</time></trkpt><trkpt lat="46.00283930341282" lon="12.209486650136887"><ele>1107.0</ele><time>2026-04-23T12:55:36Z</time></trkpt><trkpt lat="46.00292873287824" lon="12.209501339668629"><ele>1107.0</ele><time>2026-04-23T12:55:37Z</time></trkpt><trkpt lat="46.003019266051226" lon="12.209523855052625"><ele>1107.0</ele><time>2026-04-23T12:55:38Z</time></trkpt><trkpt lat="46.00311952768213" lon="12.2095644281029"><ele>1107.0</ele><time>2026-04-23T12:55:39Z</time></trkpt><trkpt lat="46.00319330919151" lon="12.209637494384719"><ele>1107.0</ele><time>2026-04-23T12:55:40Z</time></trkpt><trkpt lat="46.0032480438105" lon="12.209706369493153"><ele>1107.0</ele><time>2026-04-23T12:55:41Z</time></trkpt><trkpt lat="46.003328274702284" lon="12.209759659942799"><ele>1109.3333333333333</ele><time>2026-04-23T12:55:42Z</time></trkpt><trkpt lat="46.003399159336816" lon="12.209742716126975"><ele>1111.6666666666667</ele><time>2026-04-23T12:55:43Z</time></trkpt><trkpt lat="46.00347184963669" lon="12.209678860626825"><ele>1114.0</ele><time>2026-04-23T12:55:44Z</time></trkpt><trkpt lat="46.00354089831202" lon="12.209587686880608"><ele>1116.3333333333335</ele><time>2026-04-23T12:55:45Z</time></trkpt><trkpt lat="46.00361426356308" lon="12.20953022760418"><ele>1118.6666666666667</ele><time>2026-04-23T12:55:46Z</time></trkpt><trkpt lat="46.00369865430345" lon="12.209558627287274"><ele>1121.0</ele><time>2026-04-23T12:55:47Z</time></trkpt><trkpt lat="46.003785574904434" lon="12.209633467561313"><ele>1121.0</ele><time>2026-04-23T12:55:48Z</time></trkpt><trkpt lat="46.003869290738784" lon="12.209708126917183"><ele>1121.0</ele><time>2026-04-23T12:55:49Z</time></trkpt><trkpt lat="46.00395996582311" lon="12.20977859189934"><ele>1121.0</ele><time>2026-04-23T12:55:50Z</time></trkpt><trkpt lat="46.00403414203494" lon="12.209862875864228"><ele>1121.0</ele><time>2026-04-23T12:55:51Z</time></trkpt><trkpt lat="46.00409836440435" lon="12.209953384487735"><ele>1121.0</ele><time>2026-04-23T12:55:52Z</time></trkpt><trkpt lat="46.004163683248606" lon="12.210056923197836"><ele>1124.6</ele><time>2026-04-23T12:55:53Z</time></trkpt><trkpt lat="46.004211096007175" lon="12.210173512521427"><ele>1128.1999999999998</ele><time>2026-04-23T12:55:54Z</time></trkpt><trkpt lat="46.00425063890713" lon="12.210319112248468"><ele>1131.8000000000002</ele><time>2026-04-23T12:55:55Z</time></trkpt><trkpt lat="46.004269672608565" lon="12.210472438565295"><ele>1135.4</ele><time>2026-04-23T12:55:56Z</time></trkpt><trkpt lat="46.00429840564049" lon="12.210625218949511"><ele>1139.0</ele><time>2026-04-23T12:55:57Z</time></trkpt><trkpt lat="46.00432560025584" lon="12.210779132823054"><ele>1140.6000000000001</ele><time>2026-04-23T12:55:58Z</time></trkpt><trkpt lat="46.00435983882543" lon="12.210931447747328"><ele>1142.2</ele><time>2026-04-23T12:55:59Z</time></trkpt><trkpt lat="46.004374974838385" lon="12.21105555471109"><ele>1143.8000000000002</ele><time>2026-04-23T12:56:00Z</time></trkpt><trkpt lat="46.00438862491575" lon="12.21116592803328"><ele>1145.4</ele><time>2026-04-23T12:56:01Z</time></trkpt><trkpt lat="46.004353901834484" lon="12.211269343440282"><ele>1147.0</ele><time>2026-04-23T12:56:02Z</time></trkpt><trkpt lat="46.004297363473384" lon="12.211382583619287"><ele>1147.0</ele><time>2026-04-23T12:56:04Z</time></trkpt><trkpt lat="46.004382563703196" lon="12.211420579061588"><ele>1147.0</ele><time>2026-04-23T12:56:06Z</time></trkpt><trkpt lat="46.00447675514142" lon="12.211323071049076"><ele>1147.0</ele><time>2026-04-23T12:56:08Z</time></trkpt><trkpt lat="46.00451875584305" lon="12.211247618490523"><ele>1147.0</ele><time>2026-04-23T12:56:09Z</time></trkpt><trkpt lat="46.004557276586695" lon="12.211152449735438"><ele>1147.0</ele><time>2026-04-23T12:56:10Z</time></trkpt><trkpt lat="46.0045946919748" lon="12.211043191262476"><ele>1147.0</ele><time>2026-04-23T12:56:11Z</time></trkpt><trkpt lat="46.00462783493511" lon="12.210959259862449"><ele>1147.0</ele><time>2026-04-23T12:56:12Z</time></trkpt><trkpt lat="46.00466959071251" lon="12.210865720255148"><ele>1147.0</ele><time>2026-04-23T12:56:13Z</time></trkpt><trkpt lat="46.00471205108136" lon="12.210795015894638"><ele>1147.0</ele><time>2026-04-23T12:56:14Z</time></trkpt><trkpt lat="46.00482139673264" lon="12.210759123346959"><ele>1147.0</ele><time>2026-04-23T12:56:16Z</time></trkpt><trkpt lat="46.00488235569382" lon="12.210803616531665"><ele>1147.0</ele><time>2026-04-23T12:56:17Z</time></trkpt><trkpt lat="46.00493749932353" lon="12.210860293428611"><ele>1147.0</ele><time>2026-04-23T12:56:18Z</time></trkpt><trkpt lat="46.00500023658093" lon="12.210929549243426"><ele>1150.0</ele><time>2026-04-23T12:56:19Z</time></trkpt><trkpt lat="46.00506296527513" lon="12.210976232851243"><ele>1153.0</ele><time>2026-04-23T12:56:20Z</time></trkpt><trkpt lat="46.00513757150119" lon="12.211004505751957"><ele>1156.0</ele><time>2026-04-23T12:56:21Z</time></trkpt><trkpt lat="46.00521397729247" lon="12.210988776259827"><ele>1159.0</ele><time>2026-04-23T12:56:22Z</time></trkpt><trkpt lat="46.00530357358863" lon="12.210842597561282"><ele>1162.0</ele><time>2026-04-23T12:56:24Z</time></trkpt><trkpt lat="46.0053286261791" lon="12.21074710210918"><ele>1165.0</ele><time>2026-04-23T12:56:25Z</time></trkpt><trkpt lat="46.005421149330175" lon="12.210671706804318"><ele>1165.0</ele><time>2026-04-23T12:56:27Z</time></trkpt><trkpt lat="46.005499271395635" lon="12.210654905228294"><ele>1165.0</ele><time>2026-04-23T12:56:28Z</time></trkpt><trkpt lat="46.00557581845995" lon="12.210669071669638"><ele>1165.0</ele><time>2026-04-23T12:56:29Z</time></trkpt><trkpt lat="46.00565145816621" lon="12.210712510944884"><ele>1165.0</ele><time>2026-04-23T12:56:30Z</time></trkpt><trkpt lat="46.005729617335966" lon="12.210772396026908"><ele>1165.0</ele><time>2026-04-23T12:56:31Z</time></trkpt><trkpt lat="46.00580100390212" lon="12.210836533009665"><ele>1165.0</ele><time>2026-04-23T12:56:32Z</time></trkpt><trkpt lat="46.00585780429548" lon="12.210913287617242"><ele>1168.1666666666665</ele><time>2026-04-23T12:56:33Z</time></trkpt><trkpt lat="46.005905786830766" lon="12.210977299469091"><ele>1171.3333333333333</ele><time>2026-04-23T12:56:34Z</time></trkpt><trkpt lat="46.00598817303138" lon="12.211016109476379"><ele>1174.5</ele><time>2026-04-23T12:56:35Z</time></trkpt><trkpt lat="46.00605969298808" lon="12.211037617605053"><ele>1177.6666666666667</ele><time>2026-04-23T12:56:36Z</time></trkpt><trkpt lat="46.00615273013179" lon="12.211063727155496"><ele>1180.8333333333335</ele><time>2026-04-23T12:56:38Z</time></trkpt><trkpt lat="46.00624370136845" lon="12.210993538958665"><ele>1184.0</ele><time>2026-04-23T12:56:40Z</time></trkpt><trkpt lat="46.00627589744096" lon="12.210898428023164"><ele>1184.0</ele><time>2026-04-23T12:56:41Z</time></trkpt><trkpt lat="46.00629377142479" lon="12.210801305085468"><ele>1184.0</ele><time>2026-04-23T12:56:42Z</time></trkpt><trkpt lat="46.006323099867664" lon="12.210698629458806"><ele>1184.0</ele><time>2026-04-23T12:56:43Z</time></trkpt><trkpt lat="46.0063400303235" lon="12.210600688354502"><ele>1184.0</ele><time>2026-04-23T12:56:44Z</time></trkpt><trkpt lat="46.00635225660067" lon="12.21050290431603"><ele>1184.0</ele><time>2026-04-23T12:56:45Z</time></trkpt><trkpt lat="46.006367003836345" lon="12.210330983778599"><ele>1184.0</ele><time>2026-04-23T12:56:47Z</time></trkpt><trkpt lat="46.00643598649613" lon="12.210221646106227"><ele>1184.8333333333335</ele><time>2026-04-23T12:56:49Z</time></trkpt><trkpt lat="46.006545366166726" lon="12.210178016785289"><ele>1185.6666666666667</ele><time>2026-04-23T12:56:51Z</time></trkpt><trkpt lat="46.00665415974514" lon="12.210211872970575"><ele>1186.5</ele><time>2026-04-23T12:56:53Z</time></trkpt><trkpt lat="46.00672232693164" lon="12.210232840560858"><ele>1187.3333333333333</ele><time>2026-04-23T12:56:54Z</time></trkpt><trkpt lat="46.006792864501314" lon="12.210237628858803"><ele>1188.1666666666665</ele><time>2026-04-23T12:56:55Z</time></trkpt><trkpt lat="46.006869122621254" lon="12.210256685667282"><ele>1189.0</ele><time>2026-04-23T12:56:56Z</time></trkpt><trkpt lat="46.006934990035795" lon="12.210293041348717"><ele>1189.0</ele><time>2026-04-23T12:56:57Z</time></trkpt><trkpt lat="46.00701166156347" lon="12.2103125081772"><ele>1189.0</ele><time>2026-04-23T12:56:58Z</time></trkpt><trkpt lat="46.00708930095506" lon="12.210301035339684"><ele>1189.0</ele><time>2026-04-23T12:56:59Z</time></trkpt><trkpt lat="46.00722408237132" lon="12.210280139345942"><ele>1189.0</ele><time>2026-04-23T12:57:01Z</time></trkpt><trkpt lat="46.0072832832968" lon="12.210193721397726"><ele>1189.0</ele><time>2026-04-23T12:57:02Z</time></trkpt><trkpt lat="46.007351591397885" lon="12.210110534840858"><ele>1189.0</ele><time>2026-04-23T12:57:03Z</time></trkpt><trkpt lat="46.007416718136504" lon="12.210048575733962"><ele>1189.0</ele><time>2026-04-23T12:57:04Z</time></trkpt><trkpt lat="46.00747298124528" lon="12.209975645578256"><ele>1189.0</ele><time>2026-04-23T12:57:05Z</time></trkpt><trkpt lat="46.00752870605673" lon="12.209889188627058"><ele>1189.0</ele><time>2026-04-23T12:57:06Z</time></trkpt><trkpt lat="46.00757423064779" lon="12.209806880843901"><ele>1189.0</ele><time>2026-04-23T12:57:07Z</time></trkpt><trkpt lat="46.00761388652705" lon="12.209719839416188"><ele>1189.0</ele><time>2026-04-23T12:57:08Z</time></trkpt><trkpt lat="46.007610815982346" lon="12.209589171886634"><ele>1192.2</ele><time>2026-04-23T12:57:09Z</time></trkpt><trkpt lat="46.00760990017674" lon="12.20946998172084"><ele>1195.4</ele><time>2026-04-23T12:57:10Z</time></trkpt><trkpt lat="46.007633892405586" lon="12.209368956752469"><ele>1198.6</ele><time>2026-04-23T12:57:11Z</time></trkpt><trkpt lat="46.00767543503386" lon="12.209218325536238"><ele>1201.8</ele><time>2026-04-23T12:57:13Z</time></trkpt><trkpt lat="46.00774847009515" lon="12.209081701188708"><ele>1205.0</ele><time>2026-04-23T12:57:15Z</time></trkpt><trkpt lat="46.00782310844934" lon="12.209084636594007"><ele>1205.0</ele><time>2026-04-23T12:57:17Z</time></trkpt><trkpt lat="46.00788404863177" lon="12.209129812146"><ele>1205.0</ele><time>2026-04-23T12:57:19Z</time></trkpt><trkpt lat="46.00784644240591" lon="12.208935767153246"><ele>1205.0</ele><time>2026-04-23T12:57:21Z</time></trkpt><trkpt lat="46.00777733868533" lon="12.209018764752958"><ele>1205.0</ele><time>2026-04-23T12:57:24Z</time></trkpt><trkpt lat="46.00772278056198" lon="12.2091103314496"><ele>1205.0</ele><time>2026-04-23T12:57:26Z</time></trkpt><trkpt lat="46.007655660904824" lon="12.209198761990145"><ele>1205.0</ele><time>2026-04-23T12:57:28Z</time></trkpt><trkpt lat="46.00761644476634" lon="12.209326567628576"><ele>1205.0</ele><time>2026-04-23T12:57:30Z</time></trkpt><trkpt lat="46.00760342785867" lon="12.20948661564889"><ele>1205.0</ele><time>2026-04-23T12:57:32Z</time></trkpt><trkpt lat="46.00759751725805" lon="12.209632405224662"><ele>1205.0</ele><time>2026-04-23T12:57:34Z</time></trkpt><trkpt lat="46.00757686723781" lon="12.209784855343297"><ele>1205.0</ele><time>2026-04-23T12:57:36Z</time></trkpt><trkpt lat="46.00754153249142" lon="12.209861999007577"><ele>1202.3333333333335</ele><time>2026-04-23T12:57:37Z</time></trkpt><trkpt lat="46.007485226434035" lon="12.209934916590283"><ele>1199.6666666666667</ele><time>2026-04-23T12:57:38Z</time></trkpt><trkpt lat="46.00742918643942" lon="12.210004694955606"><ele>1197.0</ele><time>2026-04-23T12:57:39Z</time></trkpt><trkpt lat="46.007382438782386" lon="12.210072519772101"><ele>1194.3333333333333</ele><time>2026-04-23T12:57:40Z</time></trkpt><trkpt lat="46.00729992290458" lon="12.210180214380664"><ele>1191.6666666666665</ele><time>2026-04-23T12:57:42Z</time></trkpt><trkpt lat="46.00721621458914" lon="12.210277245849468"><ele>1189.0</ele><time>2026-04-23T12:57:44Z</time></trkpt><trkpt lat="46.00711370930392" lon="12.210323004176345"><ele>1189.0</ele><time>2026-04-23T12:57:46Z</time></trkpt><trkpt lat="46.00700796148809" lon="12.210264034065029"><ele>1189.0</ele><time>2026-04-23T12:57:48Z</time></trkpt><trkpt lat="46.00690652252688" lon="12.210271634306903"><ele>1189.0</ele><time>2026-04-23T12:57:50Z</time></trkpt><trkpt lat="46.006796541646764" lon="12.21025028227247"><ele>1189.0</ele><time>2026-04-23T12:57:52Z</time></trkpt><trkpt lat="46.00670690679715" lon="12.210220453758163"><ele>1189.0</ele><time>2026-04-23T12:57:54Z</time></trkpt><trkpt lat="46.006616029327596" lon="12.210169440545304"><ele>1185.2</ele><time>2026-04-23T12:57:56Z</time></trkpt><trkpt lat="46.006527494066106" lon="12.210171749713211"><ele>1181.4</ele><time>2026-04-23T12:57:58Z</time></trkpt><trkpt lat="46.00642555002503" lon="12.210229761314952"><ele>1177.6</ele><time>2026-04-23T12:58:00Z</time></trkpt><trkpt lat="46.00637433941441" lon="12.210331864888813"><ele>1173.8</ele><time>2026-04-23T12:58:02Z</time></trkpt><trkpt lat="46.00634704068801" lon="12.210445738610675"><ele>1170.0</ele><time>2026-04-23T12:58:04Z</time></trkpt><trkpt lat="46.006340651980224" lon="12.210564318243113"><ele>1172.3333333333333</ele><time>2026-04-23T12:58:06Z</time></trkpt><trkpt lat="46.00633026998645" lon="12.210690331304376"><ele>1174.6666666666667</ele><time>2026-04-23T12:58:08Z</time></trkpt><trkpt lat="46.00629735287055" lon="12.210821349581114"><ele>1177.0</ele><time>2026-04-23T12:58:10Z</time></trkpt><trkpt lat="46.00625228221719" lon="12.210937309809491"><ele>1179.3333333333335</ele><time>2026-04-23T12:58:12Z</time></trkpt><trkpt lat="46.00620638847717" lon="12.211016015558705"><ele>1181.6666666666667</ele><time>2026-04-23T12:58:14Z</time></trkpt><trkpt lat="46.00614605397253" lon="12.211075747910758"><ele>1184.0</ele><time>2026-04-23T12:58:16Z</time></trkpt><trkpt lat="46.00605872296502" lon="12.211050714966355"><ele>1184.0</ele><time>2026-04-23T12:58:18Z</time></trkpt><trkpt lat="46.00598693828704" lon="12.2109976616246"><ele>1184.0</ele><time>2026-04-23T12:58:20Z</time></trkpt><trkpt lat="46.00589997819857" lon="12.210963564724088"><ele>1184.0</ele><time>2026-04-23T12:58:22Z</time></trkpt><trkpt lat="46.005831907221605" lon="12.210903376320942"><ele>1184.0</ele><time>2026-04-23T12:58:24Z</time></trkpt><trkpt lat="46.00576828856971" lon="12.210808694262308"><ele>1184.0</ele><time>2026-04-23T12:58:26Z</time></trkpt><trkpt lat="46.00568577386957" lon="12.210739755389246"><ele>1184.0</ele><time>2026-04-23T12:58:28Z</time></trkpt><trkpt lat="46.00558475878945" lon="12.210704441225573"><ele>1180.2</ele><time>2026-04-23T12:58:30Z</time></trkpt><trkpt lat="46.00549374450807" lon="12.210660595389417"><ele>1176.4</ele><time>2026-04-23T12:58:32Z</time></trkpt><trkpt lat="46.00537569418382" lon="12.210689069021878"><ele>1172.6</ele><time>2026-04-23T12:58:34Z</time></trkpt><trkpt lat="46.005298613201" lon="12.210801566271378"><ele>1168.8</ele><time>2026-04-23T12:58:36Z</time></trkpt><trkpt lat="46.005262921275396" lon="12.210935114365581"><ele>1165.0</ele><time>2026-04-23T12:58:38Z</time></trkpt><trkpt lat="46.005179002628104" lon="12.211011405193616"><ele>1165.0</ele><time>2026-04-23T12:58:40Z</time></trkpt><trkpt lat="46.00506027780767" lon="12.210969289438097"><ele>1165.0</ele><time>2026-04-23T12:58:42Z</time></trkpt><trkpt lat="46.004959143229684" lon="12.210901973882391"><ele>1165.0</ele><time>2026-04-23T12:58:44Z</time></trkpt><trkpt lat="46.00486273075864" lon="12.210806732006986"><ele>1165.0</ele><time>2026-04-23T12:58:46Z</time></trkpt><trkpt lat="46.004789929340326" lon="12.210739823977143"><ele>1165.0</ele><time>2026-04-23T12:58:48Z</time></trkpt><trkpt lat="46.00467640999937" lon="12.210788175410165"><ele>1161.4</ele><time>2026-04-23T12:58:50Z</time></trkpt><trkpt lat="46.004630441422734" lon="12.210864393585942"><ele>1157.8</ele><time>2026-04-23T12:58:51Z</time></trkpt><trkpt lat="46.004567085645554" lon="12.211019121462233"><ele>1154.2</ele><time>2026-04-23T12:58:53Z</time></trkpt><trkpt lat="46.00451281792319" lon="12.211170067537834"><ele>1150.6</ele><time>2026-04-23T12:58:55Z</time></trkpt><trkpt lat="46.004453267453066" lon="12.211305002457221"><ele>1147.0</ele><time>2026-04-23T12:58:57Z</time></trkpt><trkpt lat="46.00436905402829" lon="12.21138548210708"><ele>1147.0</ele><time>2026-04-23T12:58:59Z</time></trkpt><trkpt lat="46.00429719927521" lon="12.211392941679627"><ele>1147.0</ele><time>2026-04-23T12:59:01Z</time></trkpt><trkpt lat="46.00436835841494" lon="12.211215468638748"><ele>1147.0</ele><time>2026-04-23T12:59:05Z</time></trkpt><trkpt lat="46.00438268731476" lon="12.211061562252635"><ele>1147.0</ele><time>2026-04-23T12:59:07Z</time></trkpt><trkpt lat="46.00436628025518" lon="12.210969349300058"><ele>1147.0</ele><time>2026-04-23T12:59:08Z</time></trkpt><trkpt lat="46.00435183607661" lon="12.210877047929497"><ele>1147.0</ele><time>2026-04-23T12:59:09Z</time></trkpt><trkpt lat="46.00433528774269" lon="12.210720884263374"><ele>1147.0</ele><time>2026-04-23T12:59:11Z</time></trkpt><trkpt lat="46.00429912924407" lon="12.210549671834883"><ele>1147.0</ele><time>2026-04-23T12:59:13Z</time></trkpt><trkpt lat="46.004271999784365" lon="12.210396930723894"><ele>1147.0</ele><time>2026-04-23T12:59:15Z</time></trkpt><trkpt lat="46.004234955232036" lon="12.210242685413126"><ele>1145.4</ele><time>2026-04-23T12:59:17Z</time></trkpt><trkpt lat="46.00418849089767" lon="12.210088249845988"><ele>1143.8000000000002</ele><time>2026-04-23T12:59:19Z</time></trkpt><trkpt lat="46.00411132257299" lon="12.209957289067125"><ele>1142.2</ele><time>2026-04-23T12:59:21Z</time></trkpt><trkpt lat="46.004032760230906" lon="12.209878505777212"><ele>1140.6000000000001</ele><time>2026-04-23T12:59:23Z</time></trkpt><trkpt lat="46.003982018127495" lon="12.209823807721746"><ele>1139.0</ele><time>2026-04-23T12:59:24Z</time></trkpt><trkpt lat="46.00392798734181" lon="12.209752600186262"><ele>1134.5</ele><time>2026-04-23T12:59:26Z</time></trkpt><trkpt lat="46.00383518412992" lon="12.209689800202497"><ele>1130.0</ele><time>2026-04-23T12:59:28Z</time></trkpt><trkpt lat="46.00374149165114" lon="12.209609160044048"><ele>1125.5</ele><time>2026-04-23T12:59:30Z</time></trkpt><trkpt lat="46.00362964876874" lon="12.209557504742898"><ele>1121.0</ele><time>2026-04-23T12:59:32Z</time></trkpt><trkpt lat="46.00349893234958" lon="12.209567513267693"><ele>1121.0</ele><time>2026-04-23T12:59:34Z</time></trkpt><trkpt lat="46.003446875844396" lon="12.209667170574281"><ele>1121.0</ele><time>2026-04-23T12:59:35Z</time></trkpt><trkpt lat="46.00337942101093" lon="12.209712533042934"><ele>1121.0</ele><time>2026-04-23T12:59:36Z</time></trkpt><trkpt lat="46.00332510981794" lon="12.209766489985412"><ele>1121.0</ele><time>2026-04-23T12:59:37Z</time></trkpt><trkpt lat="46.00325567671499" lon="12.209728642579677"><ele>1121.0</ele><time>2026-04-23T12:59:38Z</time></trkpt><trkpt lat="46.00319254104518" lon="12.209639589979426"><ele>1121.0</ele><time>2026-04-23T12:59:39Z</time></trkpt><trkpt lat="46.003123624973625" lon="12.20959881825955"><ele>1119.0</ele><time>2026-04-23T12:59:40Z</time></trkpt><trkpt lat="46.003058946466375" lon="12.209545506202652"><ele>1117.0</ele><time>2026-04-23T12:59:41Z</time></trkpt><trkpt lat="46.00299499218237" lon="12.209485269666917"><ele>1115.0</ele><time>2026-04-23T12:59:42Z</time></trkpt><trkpt lat="46.002917929322635" lon="12.20949167044916"><ele>1113.0</ele><time>2026-04-23T12:59:43Z</time></trkpt><trkpt lat="46.00285320512453" lon="12.209460876048453"><ele>1111.0</ele><time>2026-04-23T12:59:44Z</time></trkpt><trkpt lat="46.00278992351719" lon="12.2094462642434"><ele>1109.0</ele><time>2026-04-23T12:59:45Z</time></trkpt><trkpt lat="46.002723873541726" lon="12.209447250138552"><ele>1107.0</ele><time>2026-04-23T12:59:46Z</time></trkpt><trkpt lat="46.00267064318816" lon="12.20938557840089"><ele>1107.0</ele><time>2026-04-23T12:59:47Z</time></trkpt><trkpt lat="46.00263082016802" lon="12.20928350768784"><ele>1107.0</ele><time>2026-04-23T12:59:48Z</time></trkpt><trkpt lat="46.00261205867452" lon="12.209167403350659"><ele>1107.0</ele><time>2026-04-23T12:59:49Z</time></trkpt><trkpt lat="46.00260827796218" lon="12.20906646216911"><ele>1107.0</ele><time>2026-04-23T12:59:50Z</time></trkpt><trkpt lat="46.00258301043913" lon="12.208917802459059"><ele>1107.0</ele><time>2026-04-23T12:59:52Z</time></trkpt><trkpt lat="46.002549986904135" lon="12.208763753837609"><ele>1107.1666666666667</ele><time>2026-04-23T12:59:54Z</time></trkpt><trkpt lat="46.0025341023113" lon="12.208670064472809"><ele>1107.3333333333333</ele><time>2026-04-23T12:59:55Z</time></trkpt><trkpt lat="46.00249960939005" lon="12.208536355685014"><ele>1107.5</ele><time>2026-04-23T12:59:57Z</time></trkpt><trkpt lat="46.002408665522736" lon="12.208527441884176"><ele>1107.6666666666665</ele><time>2026-04-23T12:59:59Z</time></trkpt><trkpt lat="46.002338477013986" lon="12.20857466732172"><ele>1107.8333333333333</ele><time>2026-04-23T13:00:04Z</time></trkpt><trkpt lat="46.002324661161325" lon="12.208688817730653"><ele>1108.0</ele><time>2026-04-23T13:00:06Z</time></trkpt><trkpt lat="46.002318129553665" lon="12.20882423400811"><ele>1102.4</ele><time>2026-04-23T13:00:08Z</time></trkpt><trkpt lat="46.0023153126757" lon="12.208965589987562"><ele>1096.8</ele><time>2026-04-23T13:00:10Z</time></trkpt><trkpt lat="46.00230577176142" lon="12.209117676133097"><ele>1091.2</ele><time>2026-04-23T13:00:12Z</time></trkpt><trkpt lat="46.002296600663044" lon="12.209280401078967"><ele>1085.6</ele><time>2026-04-23T13:00:14Z</time></trkpt><trkpt lat="46.00231400584321" lon="12.20943808875661"><ele>1080.0</ele><time>2026-04-23T13:00:16Z</time></trkpt><trkpt lat="46.00234576592161" lon="12.209600963700932"><ele>1080.0</ele><time>2026-04-23T13:00:18Z</time></trkpt><trkpt lat="46.00236870583379" lon="12.209767469287216"><ele>1080.0</ele><time>2026-04-23T13:00:20Z</time></trkpt><trkpt lat="46.002387920933565" lon="12.209857216578941"><ele>1080.0</ele><time>2026-04-23T13:00:21Z</time></trkpt><trkpt lat="46.00240783420616" lon="12.209956523450515"><ele>1080.0</ele><time>2026-04-23T13:00:22Z</time></trkpt><trkpt lat="46.00241531592493" lon="12.21005329115271"><ele>1080.0</ele><time>2026-04-23T13:00:23Z</time></trkpt><trkpt lat="46.002431330602406" lon="12.210167238380773"><ele>1080.0</ele><time>2026-04-23T13:00:24Z</time></trkpt><trkpt lat="46.002448805283734" lon="12.210280844656635"><ele>1078.8333333333333</ele><time>2026-04-23T13:00:25Z</time></trkpt><trkpt lat="46.00245550958" lon="12.210386506217302"><ele>1077.6666666666667</ele><time>2026-04-23T13:00:26Z</time></trkpt><trkpt lat="46.002473266653325" lon="12.210483381181826"><ele>1076.5</ele><time>2026-04-23T13:00:27Z</time></trkpt><trkpt lat="46.00249450634256" lon="12.210593577086067"><ele>1075.3333333333335</ele><time>2026-04-23T13:00:28Z</time></trkpt><trkpt lat="46.002506876296124" lon="12.210688574299818"><ele>1074.1666666666667</ele><time>2026-04-23T13:00:29Z</time></trkpt><trkpt lat="46.0025167911804" lon="12.21078316758107"><ele>1073.0</ele><time>2026-04-23T13:00:30Z</time></trkpt><trkpt lat="46.002558661874566" lon="12.210946113596963"><ele>1073.0</ele><time>2026-04-23T13:00:32Z</time></trkpt><trkpt lat="46.00261180272206" lon="12.211096650455675"><ele>1073.0</ele><time>2026-04-23T13:00:34Z</time></trkpt><trkpt lat="46.00264319032129" lon="12.211252517610287"><ele>1073.0</ele><time>2026-04-23T13:00:36Z</time></trkpt><trkpt lat="46.002688423495584" lon="12.21141141174834"><ele>1073.0</ele><time>2026-04-23T13:00:38Z</time></trkpt><trkpt lat="46.00268835779475" lon="12.211508826087618"><ele>1073.0</ele><time>2026-04-23T13:00:39Z</time></trkpt><trkpt lat="46.00271239085647" lon="12.211600203913266"><ele>1073.0</ele><time>2026-04-23T13:00:40Z</time></trkpt><trkpt lat="46.00273588470938" lon="12.211689531579673"><ele>1073.0</ele><time>2026-04-23T13:00:41Z</time></trkpt><trkpt lat="46.00275697493853" lon="12.211779210327101"><ele>1073.0</ele><time>2026-04-23T13:00:42Z</time></trkpt><trkpt lat="46.002795127650096" lon="12.211957796633012"><ele>1073.0</ele><time>2026-04-23T13:00:44Z</time></trkpt><trkpt lat="46.002805159942255" lon="12.212056999189533"><ele>1073.0</ele><time>2026-04-23T13:00:45Z</time></trkpt><trkpt lat="46.00278474584764" lon="12.212163114048373"><ele>1073.0</ele><time>2026-04-23T13:00:46Z</time></trkpt><trkpt lat="46.00279441316386" lon="12.212255570131365"><ele>1070.5714285714284</ele><time>2026-04-23T13:00:47Z</time></trkpt><trkpt lat="46.00281650125784" lon="12.212354234282595"><ele>1068.142857142857</ele><time>2026-04-23T13:00:48Z</time></trkpt><trkpt lat="46.00284070838886" lon="12.212442357420434"><ele>1065.7142857142858</ele><time>2026-04-23T13:00:49Z</time></trkpt><trkpt lat="46.00286041749609" lon="12.212533449879023"><ele>1063.2857142857142</ele><time>2026-04-23T13:00:50Z</time></trkpt><trkpt lat="46.00287949692023" lon="12.212632109873446"><ele>1060.857142857143</ele><time>2026-04-23T13:00:51Z</time></trkpt><trkpt lat="46.00289687635118" lon="12.212732046551963"><ele>1058.4285714285713</ele><time>2026-04-23T13:00:52Z</time></trkpt><trkpt lat="46.002921404089136" lon="12.212832455889492"><ele>1056.0</ele><time>2026-04-23T13:00:53Z</time></trkpt><trkpt lat="46.002925983188646" lon="12.21294111688285"><ele>1056.0</ele><time>2026-04-23T13:00:54Z</time></trkpt><trkpt lat="46.00290452208714" lon="12.21304929034626"><ele>1056.0</ele><time>2026-04-23T13:00:55Z</time></trkpt><trkpt lat="46.00290079910694" lon="12.213160837792051"><ele>1056.0</ele><time>2026-04-23T13:00:56Z</time></trkpt><trkpt lat="46.00289635170359" lon="12.21327480245386"><ele>1056.0</ele><time>2026-04-23T13:00:57Z</time></trkpt><trkpt lat="46.0028949847272" lon="12.213384389349981"><ele>1056.0</ele><time>2026-04-23T13:00:58Z</time></trkpt><trkpt lat="46.002899237355734" lon="12.213481858675406"><ele>1056.0</ele><time>2026-04-23T13:00:59Z</time></trkpt><trkpt lat="46.00294277679716" lon="12.213632077635122"><ele>1056.0</ele><time>2026-04-23T13:01:01Z</time></trkpt><trkpt lat="46.0028663962408" lon="12.213578272664753"><ele>1056.0</ele><time>2026-04-23T13:01:06Z</time></trkpt><trkpt lat="46.00285698169772" lon="12.213462803879176"><ele>1056.0</ele><time>2026-04-23T13:01:07Z</time></trkpt><trkpt lat="46.00284798907818" lon="12.213363006367395"><ele>1056.0</ele><time>2026-04-23T13:01:08Z</time></trkpt><trkpt lat="46.00282370147616" lon="12.213264180699085"><ele>1056.0</ele><time>2026-04-23T13:01:09Z</time></trkpt><trkpt lat="46.00279146580925" lon="12.213164675815777"><ele>1056.0</ele><time>2026-04-23T13:01:10Z</time></trkpt><trkpt lat="46.002754005356685" lon="12.213070652934777"><ele>1056.0</ele><time>2026-04-23T13:01:11Z</time></trkpt><trkpt lat="46.00272762036817" lon="12.212959408132452"><ele>1056.0</ele><time>2026-04-23T13:01:12Z</time></trkpt><trkpt lat="46.00270564617918" lon="12.212859307524367"><ele>1056.0</ele><time>2026-04-23T13:01:13Z</time></trkpt><trkpt lat="46.002668969859954" lon="12.21276802749568"><ele>1056.0</ele><time>2026-04-23T13:01:14Z</time></trkpt><trkpt lat="46.002614455495824" lon="12.212688428244386"><ele>1056.0</ele><time>2026-04-23T13:01:15Z</time></trkpt><trkpt lat="46.00255449549163" lon="12.212611694473667"><ele>1056.0</ele><time>2026-04-23T13:01:16Z</time></trkpt><trkpt lat="46.002498206165924" lon="12.21252731613463"><ele>1052.5</ele><time>2026-04-23T13:01:17Z</time></trkpt><trkpt lat="46.00245140337314" lon="12.212448303426173"><ele>1049.0</ele><time>2026-04-23T13:01:18Z</time></trkpt><trkpt lat="46.002398826967415" lon="12.212359996939506"><ele>1045.5</ele><time>2026-04-23T13:01:19Z</time></trkpt><trkpt lat="46.002349349828016" lon="12.21227698999789"><ele>1042.0</ele><time>2026-04-23T13:01:20Z</time></trkpt><trkpt lat="46.00230398027202" lon="12.21218307353961"><ele>1038.5</ele><time>2026-04-23T13:01:21Z</time></trkpt><trkpt lat="46.002270406213675" lon="12.212077800906226"><ele>1035.0</ele><time>2026-04-23T13:01:22Z</time></trkpt><trkpt lat="46.002227890521084" lon="12.211984715913857"><ele>1035.0</ele><time>2026-04-23T13:01:23Z</time></trkpt><trkpt lat="46.00224328942307" lon="12.211845169872467"><ele>1035.0</ele><time>2026-04-23T13:01:24Z</time></trkpt><trkpt lat="46.00220709235116" lon="12.21173844133449"><ele>1035.0</ele><time>2026-04-23T13:01:25Z</time></trkpt><trkpt lat="46.0021681934659" lon="12.211643682144214"><ele>1035.0</ele><time>2026-04-23T13:01:26Z</time></trkpt><trkpt lat="46.002128667839514" lon="12.21154739617912"><ele>1035.0</ele><time>2026-04-23T13:01:27Z</time></trkpt><trkpt lat="46.00209349201891" lon="12.211461706485874"><ele>1035.0</ele><time>2026-04-23T13:01:28Z</time></trkpt><trkpt lat="46.002054510027335" lon="12.211366744800994"><ele>1031.4</ele><time>2026-04-23T13:01:29Z</time></trkpt><trkpt lat="46.00201944154553" lon="12.211281316593348"><ele>1027.8</ele><time>2026-04-23T13:01:30Z</time></trkpt><trkpt lat="46.00181914007879" lon="12.211320099856888"><ele>1024.2</ele><time>2026-04-23T13:01:31Z</time></trkpt><trkpt lat="46.00178990963152" lon="12.211213882600033"><ele>1020.6</ele><time>2026-04-23T13:01:32Z</time></trkpt><trkpt lat="46.001736973137824" lon="12.211146510064136"><ele>1017.0</ele><time>2026-04-23T13:01:33Z</time></trkpt><trkpt lat="46.00166433283335" lon="12.211123803228608"><ele>1017.0</ele><time>2026-04-23T13:01:34Z</time></trkpt><trkpt lat="46.001588391608806" lon="12.211154958543474"><ele>1017.0</ele><time>2026-04-23T13:01:35Z</time></trkpt><trkpt lat="46.00151294651014" lon="12.211183578977911"><ele>1017.0</ele><time>2026-04-23T13:01:36Z</time></trkpt><trkpt lat="46.001443016364185" lon="12.211158351978247"><ele>1017.0</ele><time>2026-04-23T13:01:37Z</time></trkpt><trkpt lat="46.001378880594864" lon="12.211098637939696"><ele>1017.0</ele><time>2026-04-23T13:01:38Z</time></trkpt><trkpt lat="46.0013163415583" lon="12.211031371441088"><ele>1017.0</ele><time>2026-04-23T13:01:39Z</time></trkpt><trkpt lat="46.00125752856312" lon="12.21095711545913"><ele>1017.0</ele><time>2026-04-23T13:01:40Z</time></trkpt><trkpt lat="46.00120390091341" lon="12.210888090087815"><ele>1017.0</ele><time>2026-04-23T13:01:41Z</time></trkpt><trkpt lat="46.00115187118347" lon="12.210810898303007"><ele>1017.0</ele><time>2026-04-23T13:01:42Z</time></trkpt><trkpt lat="46.00109340396974" lon="12.210713556391875"><ele>1017.0</ele><time>2026-04-23T13:01:43Z</time></trkpt><trkpt lat="46.00103357985931" lon="12.210609253295425"><ele>1017.0</ele><time>2026-04-23T13:01:44Z</time></trkpt><trkpt lat="46.00098412293042" lon="12.210490425204364"><ele>1017.0</ele><time>2026-04-23T13:01:45Z</time></trkpt><trkpt lat="46.000938278793576" lon="12.210361568655438"><ele>1019.8333333333334</ele><time>2026-04-23T13:01:46Z</time></trkpt><trkpt lat="46.000891054344336" lon="12.210239191602069"><ele>1022.6666666666667</ele><time>2026-04-23T13:01:47Z</time></trkpt><trkpt lat="46.00085772415344" lon="12.210123643336463"><ele>1025.5</ele><time>2026-04-23T13:01:48Z</time></trkpt><trkpt lat="46.00083099402629" lon="12.21001666071821"><ele>1028.3333333333335</ele><time>2026-04-23T13:01:49Z</time></trkpt><trkpt lat="46.0007990719482" lon="12.209909796912722"><ele>1031.1666666666667</ele><time>2026-04-23T13:01:50Z</time></trkpt><trkpt lat="46.00075660535354" lon="12.209810009252893"><ele>1034.0</ele><time>2026-04-23T13:01:51Z</time></trkpt><trkpt lat="46.00071607209892" lon="12.209709733426694"><ele>1027.6666666666667</ele><time>2026-04-23T13:01:52Z</time></trkpt><trkpt lat="46.00067438809336" lon="12.209598885053696"><ele>1021.3333333333334</ele><time>2026-04-23T13:01:53Z</time></trkpt><trkpt lat="46.00063166892586" lon="12.209503796474674"><ele>1015.0</ele><time>2026-04-23T13:01:54Z</time></trkpt><trkpt lat="46.00058553903976" lon="12.209407866725792"><ele>1008.6666666666667</ele><time>2026-04-23T13:01:55Z</time></trkpt><trkpt lat="46.00054389822542" lon="12.20930941026875"><ele>1002.3333333333334</ele><time>2026-04-23T13:01:56Z</time></trkpt><trkpt lat="46.0005051173977" lon="12.209205520547723"><ele>996.0</ele><time>2026-04-23T13:01:57Z</time></trkpt><trkpt lat="46.0004605045291" lon="12.209114463748277"><ele>996.0</ele><time>2026-04-23T13:01:58Z</time></trkpt><trkpt lat="46.000411352656094" lon="12.209012273545422"><ele>996.0</ele><time>2026-04-23T13:01:59Z</time></trkpt><trkpt lat="46.00036786840183" lon="12.20891314987456"><ele>996.0</ele><time>2026-04-23T13:02:00Z</time></trkpt><trkpt lat="46.000329455165165" lon="12.208803934559999"><ele>996.0</ele><time>2026-04-23T13:02:01Z</time></trkpt><trkpt lat="46.00029064874974" lon="12.20869700885172"><ele>996.0</ele><time>2026-04-23T13:02:02Z</time></trkpt><trkpt lat="46.00025629185313" lon="12.208582865835686"><ele>996.0</ele><time>2026-04-23T13:02:03Z</time></trkpt><trkpt lat="46.00023243912965" lon="12.208459818926912"><ele>996.8</ele><time>2026-04-23T13:02:04Z</time></trkpt><trkpt lat="46.00023371342504" lon="12.208340190913345"><ele>997.5999999999999</ele><time>2026-04-23T13:02:05Z</time></trkpt><trkpt lat="46.00022092810814" lon="12.208203081251385"><ele>998.4</ele><time>2026-04-23T13:02:06Z</time></trkpt><trkpt lat="46.00021030114337" lon="12.208065811223422"><ele>999.2</ele><time>2026-04-23T13:02:07Z</time></trkpt><trkpt lat="46.00020732058533" lon="12.207933712814496"><ele>1000.0</ele><time>2026-04-23T13:02:08Z</time></trkpt><trkpt lat="46.00022155175873" lon="12.207815997024078"><ele>998.8571428571429</ele><time>2026-04-23T13:02:09Z</time></trkpt><trkpt lat="46.00025109049299" lon="12.207714848131797"><ele>997.7142857142858</ele><time>2026-04-23T13:02:10Z</time></trkpt><trkpt lat="46.0002961855793" lon="12.207634261900578"><ele>996.5714285714287</ele><time>2026-04-23T13:02:11Z</time></trkpt><trkpt lat="46.000362588375175" lon="12.207575617028622"><ele>995.4285714285714</ele><time>2026-04-23T13:02:12Z</time></trkpt><trkpt lat="46.00043747966477" lon="12.207534053967786"><ele>994.2857142857144</ele><time>2026-04-23T13:02:13Z</time></trkpt><trkpt lat="46.000507609225764" lon="12.207515885677479"><ele>993.1428571428572</ele><time>2026-04-23T13:02:14Z</time></trkpt><trkpt lat="46.00057678780529" lon="12.207522453821353"><ele>992.0</ele><time>2026-04-23T13:02:15Z</time></trkpt><trkpt lat="46.00065436894166" lon="12.207390968621395"><ele>987.6</ele><time>2026-04-23T13:02:17Z</time></trkpt><trkpt lat="46.00066423031498" lon="12.207259048131037"><ele>983.2</ele><time>2026-04-23T13:02:18Z</time></trkpt><trkpt lat="46.00069869965497" lon="12.207128310296048"><ele>978.8</ele><time>2026-04-23T13:02:19Z</time></trkpt><trkpt lat="46.00073363066071" lon="12.207011694677256"><ele>974.4</ele><time>2026-04-23T13:02:20Z</time></trkpt><trkpt lat="46.00072972820641" lon="12.206902182349845"><ele>970.0</ele><time>2026-04-23T13:02:21Z</time></trkpt><trkpt lat="46.000774267473886" lon="12.206761716536464"><ele>969.9999999999999</ele><time>2026-04-23T13:02:22Z</time></trkpt><trkpt lat="46.00079547809349" lon="12.20663952841271"><ele>970.0</ele><time>2026-04-23T13:02:23Z</time></trkpt><trkpt lat="46.00082073459031" lon="12.206523755180728"><ele>970.0</ele><time>2026-04-23T13:02:24Z</time></trkpt><trkpt lat="46.00083334748905" lon="12.206399062659592"><ele>970.0</ele><time>2026-04-23T13:02:25Z</time></trkpt><trkpt lat="46.000840491202" lon="12.206281878771396"><ele>969.9999999999999</ele><time>2026-04-23T13:02:26Z</time></trkpt><trkpt lat="46.00085088093233" lon="12.206168412307445"><ele>970.0</ele><time>2026-04-23T13:02:27Z</time></trkpt><trkpt lat="46.000866715398196" lon="12.206050487436508"><ele>966.6666666666666</ele><time>2026-04-23T13:02:28Z</time></trkpt><trkpt lat="46.000857467179145" lon="12.205923553031974"><ele>963.3333333333333</ele><time>2026-04-23T13:02:29Z</time></trkpt><trkpt lat="46.00083428730018" lon="12.205807898693514"><ele>960.0</ele><time>2026-04-23T13:02:30Z</time></trkpt><trkpt lat="46.0007983634625" lon="12.205691161253299"><ele>956.6666666666667</ele><time>2026-04-23T13:02:31Z</time></trkpt><trkpt lat="46.00076573602727" lon="12.205579764601419"><ele>953.3333333333334</ele><time>2026-04-23T13:02:32Z</time></trkpt><trkpt lat="46.00074416232675" lon="12.20546391177802"><ele>950.0</ele><time>2026-04-23T13:02:33Z</time></trkpt><trkpt lat="46.00075145648483" lon="12.205360127793321"><ele>948.8333333333334</ele><time>2026-04-23T13:02:34Z</time></trkpt><trkpt lat="46.00078123823125" lon="12.205261995795759"><ele>947.6666666666667</ele><time>2026-04-23T13:02:35Z</time></trkpt><trkpt lat="46.00082885640403" lon="12.20517719195824"><ele>946.5</ele><time>2026-04-23T13:02:36Z</time></trkpt><trkpt lat="46.00088014864232" lon="12.205086511270485"><ele>945.3333333333333</ele><time>2026-04-23T13:02:37Z</time></trkpt><trkpt lat="46.000920149146076" lon="12.205001059145642"><ele>944.1666666666666</ele><time>2026-04-23T13:02:38Z</time></trkpt><trkpt lat="46.00094492591475" lon="12.204901565305162"><ele>943.0</ele><time>2026-04-23T13:02:39Z</time></trkpt><trkpt lat="46.000960398453195" lon="12.204794658150238"><ele>951.3333333333333</ele><time>2026-04-23T13:02:40Z</time></trkpt><trkpt lat="46.00092966979526" lon="12.204676298709895"><ele>959.6666666666666</ele><time>2026-04-23T13:02:41Z</time></trkpt><trkpt lat="46.00091799795303" lon="12.204558949908085"><ele>968.0</ele><time>2026-04-23T13:02:42Z</time></trkpt><trkpt lat="46.0009291003552" lon="12.204436900228506"><ele>976.3333333333333</ele><time>2026-04-23T13:02:43Z</time></trkpt><trkpt lat="46.000924914728955" lon="12.20431122104476"><ele>984.6666666666666</ele><time>2026-04-23T13:02:44Z</time></trkpt><trkpt lat="46.0009201429785" lon="12.204187289661947"><ele>993.0</ele><time>2026-04-23T13:02:45Z</time></trkpt><trkpt lat="46.00088636373034" lon="12.204068379296489"><ele>996.8</ele><time>2026-04-23T13:02:46Z</time></trkpt><trkpt lat="46.000841835735635" lon="12.203949442574421"><ele>1000.5999999999999</ele><time>2026-04-23T13:02:47Z</time></trkpt><trkpt lat="46.00079742264318" lon="12.203843392951716"><ele>1004.4000000000001</ele><time>2026-04-23T13:02:48Z</time></trkpt><trkpt lat="46.000733621878126" lon="12.203743234034896"><ele>1008.2</ele><time>2026-04-23T13:02:49Z</time></trkpt><trkpt lat="46.00066420072448" lon="12.203643443571874"><ele>1012.0</ele><time>2026-04-23T13:02:50Z</time></trkpt><trkpt lat="46.00060020084912" lon="12.203565811254304"><ele>1005.4000000000001</ele><time>2026-04-23T13:02:51Z</time></trkpt><trkpt lat="46.000518494937566" lon="12.203479808748988"><ele>998.8000000000001</ele><time>2026-04-23T13:02:52Z</time></trkpt><trkpt lat="46.000443097933655" lon="12.203405974914919"><ele>992.2</ele><time>2026-04-23T13:02:53Z</time></trkpt><trkpt lat="46.00035999575321" lon="12.203320656218413"><ele>985.6</ele><time>2026-04-23T13:02:54Z</time></trkpt><trkpt lat="46.000284247008615" lon="12.203234878961178"><ele>979.0</ele><time>2026-04-23T13:02:55Z</time></trkpt><trkpt lat="46.000219737807264" lon="12.203133378064486"><ele>979.0</ele><time>2026-04-23T13:02:56Z</time></trkpt><trkpt lat="46.00016190022586" lon="12.203006703230177"><ele>979.0000000000001</ele><time>2026-04-23T13:02:57Z</time></trkpt><trkpt lat="46.000091510446424" lon="12.202903521899968"><ele>979.0000000000001</ele><time>2026-04-23T13:02:58Z</time></trkpt><trkpt lat="46.00002103496085" lon="12.202795053829135"><ele>979.0</ele><time>2026-04-23T13:02:59Z</time></trkpt><trkpt lat="45.99995439781008" lon="12.202676848702188"><ele>979.0</ele><time>2026-04-23T13:03:00Z</time></trkpt><trkpt lat="45.99990173577565" lon="12.202548711357997"><ele>978.9999999999999</ele><time>2026-04-23T13:03:01Z</time></trkpt><trkpt lat="45.99985877882203" lon="12.202432634783362"><ele>979.0</ele><time>2026-04-23T13:03:02Z</time></trkpt><trkpt lat="45.99983267728664" lon="12.202325636181108"><ele>979.0</ele><time>2026-04-23T13:03:03Z</time></trkpt><trkpt lat="45.999799483320935" lon="12.202213467283144"><ele>979.0</ele><time>2026-04-23T13:03:04Z</time></trkpt><trkpt lat="45.99977889066291" lon="12.202103104451552"><ele>978.9999999999999</ele><time>2026-04-23T13:03:05Z</time></trkpt><trkpt lat="45.999760778203594" lon="12.20196944917672"><ele>979.0</ele><time>2026-04-23T13:03:06Z</time></trkpt><trkpt lat="45.99978162003296" lon="12.201847269660844"><ele>978.8000000000001</ele><time>2026-04-23T13:03:07Z</time></trkpt><trkpt lat="45.99978176124998" lon="12.201717238530513"><ele>978.6000000000001</ele><time>2026-04-23T13:03:08Z</time></trkpt><trkpt lat="45.99978715292349" lon="12.201590344436216"><ele>978.4</ele><time>2026-04-23T13:03:09Z</time></trkpt><trkpt lat="45.99978222940129" lon="12.201458428078649"><ele>978.2</ele><time>2026-04-23T13:03:10Z</time></trkpt><trkpt lat="45.999756907441395" lon="12.20132937558874"><ele>978.0</ele><time>2026-04-23T13:03:11Z</time></trkpt><trkpt lat="45.999711353992396" lon="12.201213657464294"><ele>980.0</ele><time>2026-04-23T13:03:12Z</time></trkpt><trkpt lat="45.999647470212196" lon="12.201106036243647"><ele>982.0</ele><time>2026-04-23T13:03:13Z</time></trkpt><trkpt lat="45.99959178133708" lon="12.201007018341024"><ele>984.0</ele><time>2026-04-23T13:03:14Z</time></trkpt><trkpt lat="45.99955894735937" lon="12.200916301392091"><ele>986.0</ele><time>2026-04-23T13:03:15Z</time></trkpt><trkpt lat="45.99952791102103" lon="12.200811240123153"><ele>988.0</ele><time>2026-04-23T13:03:16Z</time></trkpt><trkpt lat="45.99946656539463" lon="12.200744164290771"><ele>990.0</ele><time>2026-04-23T13:03:17Z</time></trkpt><trkpt lat="45.99937748752175" lon="12.200690051395588"><ele>987.2</ele><time>2026-04-23T13:03:18Z</time></trkpt><trkpt lat="45.99928937450998" lon="12.200657558370969"><ele>984.4</ele><time>2026-04-23T13:03:19Z</time></trkpt><trkpt lat="45.99920781053916" lon="12.200613301441948"><ele>981.5999999999999</ele><time>2026-04-23T13:03:20Z</time></trkpt><trkpt lat="45.9991218882188" lon="12.20055312660844"><ele>978.8</ele><time>2026-04-23T13:03:21Z</time></trkpt><trkpt lat="45.99902709284655" lon="12.20050674580552"><ele>976.0</ele><time>2026-04-23T13:03:22Z</time></trkpt><trkpt lat="45.99893600539989" lon="12.200460668681114"><ele>976.0</ele><time>2026-04-23T13:03:23Z</time></trkpt><trkpt lat="45.99884082003495" lon="12.200412603785857"><ele>975.9999999999999</ele><time>2026-04-23T13:03:24Z</time></trkpt><trkpt lat="45.998740366271484" lon="12.20035783578461"><ele>975.9999999999999</ele><time>2026-04-23T13:03:25Z</time></trkpt><trkpt lat="45.99863732039263" lon="12.200302272450255"><ele>976.0</ele><time>2026-04-23T13:03:26Z</time></trkpt><trkpt lat="45.998524166744026" lon="12.200259625954184"><ele>976.0</ele><time>2026-04-23T13:03:27Z</time></trkpt><trkpt lat="45.99844200483354" lon="12.200195264397992"><ele>975.9999999999999</ele><time>2026-04-23T13:03:28Z</time></trkpt><trkpt lat="45.998353655608824" lon="12.20014701473449"><ele>976.0</ele><time>2026-04-23T13:03:29Z</time></trkpt><trkpt lat="45.998271118141346" lon="12.200095231985983"><ele>976.0</ele><time>2026-04-23T13:03:30Z</time></trkpt><trkpt lat="45.998200839198056" lon="12.20004150998788"><ele>976.0</ele><time>2026-04-23T13:03:31Z</time></trkpt><trkpt lat="45.99812886156657" lon="12.199987744405071"><ele>975.9999999999999</ele><time>2026-04-23T13:03:32Z</time></trkpt><trkpt lat="45.99805472894043" lon="12.199903935750728"><ele>976.0</ele><time>2026-04-23T13:03:33Z</time></trkpt><trkpt lat="45.997998254616284" lon="12.199817560648762"><ele>972.5999999999999</ele><time>2026-04-23T13:03:34Z</time></trkpt><trkpt lat="45.99795619719285" lon="12.199712694689316"><ele>969.1999999999999</ele><time>2026-04-23T13:03:35Z</time></trkpt><trkpt lat="45.99791978373225" lon="12.199593209215246"><ele>965.8000000000001</ele><time>2026-04-23T13:03:36Z</time></trkpt><trkpt lat="45.99786991993268" lon="12.199471724850271"><ele>962.4000000000001</ele><time>2026-04-23T13:03:37Z</time></trkpt><trkpt lat="45.99780647727108" lon="12.199362287322705"><ele>959.0</ele><time>2026-04-23T13:03:38Z</time></trkpt><trkpt lat="45.997741323732875" lon="12.199248597081848"><ele>959.0</ele><time>2026-04-23T13:03:39Z</time></trkpt><trkpt lat="45.99770026296895" lon="12.199155583559767"><ele>959.0000000000001</ele><time>2026-04-23T13:03:40Z</time></trkpt><trkpt lat="45.997627342109524" lon="12.199010018026096"><ele>959.0000000000001</ele><time>2026-04-23T13:03:41Z</time></trkpt><trkpt lat="45.997569708732904" lon="12.19890971117534"><ele>959.0</ele><time>2026-04-23T13:03:42Z</time></trkpt><trkpt lat="45.99751478415101" lon="12.198817746507029"><ele>959.0</ele><time>2026-04-23T13:03:43Z</time></trkpt><trkpt lat="45.997476996430656" lon="12.19871297001216"><ele>950.0000000000001</ele><time>2026-04-23T13:03:44Z</time></trkpt><trkpt lat="45.997442058768634" lon="12.198595785533804"><ele>941.0</ele><time>2026-04-23T13:03:45Z</time></trkpt><trkpt lat="45.99741334956265" lon="12.198477375849393"><ele>932.0</ele><time>2026-04-23T13:03:46Z</time></trkpt><trkpt lat="45.997397906460705" lon="12.198377711103936"><ele>923.0</ele><time>2026-04-23T13:03:47Z</time></trkpt><trkpt lat="45.9973713167282" lon="12.19826536919614"><ele>914.0000000000001</ele><time>2026-04-23T13:03:48Z</time></trkpt><trkpt lat="45.997359548364514" lon="12.198164798751293"><ele>905.0</ele><time>2026-04-23T13:03:49Z</time></trkpt><trkpt lat="45.99734538981085" lon="12.198057839422223"><ele>904.0000000000001</ele><time>2026-04-23T13:03:50Z</time></trkpt><trkpt lat="45.99734084901232" lon="12.197953519078284"><ele>903.0</ele><time>2026-04-23T13:03:51Z</time></trkpt><trkpt lat="45.99734960739691" lon="12.197858675790732"><ele>902.0</ele><time>2026-04-23T13:03:52Z</time></trkpt><trkpt lat="45.99737985365304" lon="12.19766248143137"><ele>901.0</ele><time>2026-04-23T13:03:54Z</time></trkpt><trkpt lat="45.99739131872202" lon="12.197566725356454"><ele>900.0000000000001</ele><time>2026-04-23T13:03:55Z</time></trkpt><trkpt lat="45.99740709898834" lon="12.197469352586959"><ele>899.0</ele><time>2026-04-23T13:03:56Z</time></trkpt><trkpt lat="45.99743028511835" lon="12.197357552035129"><ele>897.3333333333334</ele><time>2026-04-23T13:03:57Z</time></trkpt><trkpt lat="45.997468593616894" lon="12.19725949184799"><ele>895.6666666666667</ele><time>2026-04-23T13:03:58Z</time></trkpt><trkpt lat="45.997511404903456" lon="12.1971610253616"><ele>894.0</ele><time>2026-04-23T13:03:59Z</time></trkpt><trkpt lat="45.99753816203113" lon="12.197068049456977"><ele>892.3333333333333</ele><time>2026-04-23T13:04:00Z</time></trkpt><trkpt lat="45.99753409956151" lon="12.196942464356662"><ele>890.6666666666666</ele><time>2026-04-23T13:04:01Z</time></trkpt><trkpt lat="45.99751843895373" lon="12.19681590506445"><ele>889.0</ele><time>2026-04-23T13:04:02Z</time></trkpt><trkpt lat="45.99753196049224" lon="12.196709483050368"><ele>897.9999999999999</ele><time>2026-04-23T13:04:03Z</time></trkpt><trkpt lat="45.99756144379556" lon="12.196597499149355"><ele>907.0</ele><time>2026-04-23T13:04:04Z</time></trkpt><trkpt lat="45.99757963600986" lon="12.196491886826163"><ele>916.0</ele><time>2026-04-23T13:04:05Z</time></trkpt><trkpt lat="45.99761648493041" lon="12.196405275011175"><ele>925.0</ele><time>2026-04-23T13:04:06Z</time></trkpt><trkpt lat="45.9976455796302" lon="12.19630919780604"><ele>933.9999999999999</ele><time>2026-04-23T13:04:07Z</time></trkpt><trkpt lat="45.99764107085507" lon="12.196206218124816"><ele>943.0</ele><time>2026-04-23T13:04:08Z</time></trkpt><trkpt lat="45.99762789258504" lon="12.196086559991496"><ele>943.0</ele><time>2026-04-23T13:04:09Z</time></trkpt><trkpt lat="45.99763243939798" lon="12.195991856328485"><ele>943.0000000000001</ele><time>2026-04-23T13:04:10Z</time></trkpt><trkpt lat="45.997639021738976" lon="12.195878735702546"><ele>943.0</ele><time>2026-04-23T13:04:11Z</time></trkpt><trkpt lat="45.99766032748319" lon="12.195765485775347"><ele>943.0</ele><time>2026-04-23T13:04:12Z</time></trkpt><trkpt lat="45.997682908939794" lon="12.195665512114847"><ele>943.0000000000001</ele><time>2026-04-23T13:04:13Z</time></trkpt><trkpt lat="45.99770483010509" lon="12.195562747149054"><ele>943.0</ele><time>2026-04-23T13:04:14Z</time></trkpt><trkpt lat="45.99768912513667" lon="12.195456851073903"><ele>943.0</ele><time>2026-04-23T13:04:15Z</time></trkpt><trkpt lat="45.99764438839546" lon="12.19534530570669"><ele>943.4999999999999</ele><time>2026-04-23T13:04:16Z</time></trkpt><trkpt lat="45.99759727186642" lon="12.195250172739566"><ele>944.0</ele><time>2026-04-23T13:04:17Z</time></trkpt><trkpt lat="45.997534950939574" lon="12.195162534450883"><ele>944.5</ele><time>2026-04-23T13:04:18Z</time></trkpt><trkpt lat="45.997488082023935" lon="12.195045312043996"><ele>945.0</ele><time>2026-04-23T13:04:19Z</time></trkpt><trkpt lat="45.997436815927095" lon="12.194959355096842"><ele>945.4999999999999</ele><time>2026-04-23T13:04:20Z</time></trkpt><trkpt lat="45.99737547035118" lon="12.19486003909231"><ele>946.0</ele><time>2026-04-23T13:04:21Z</time></trkpt><trkpt lat="45.99733566849586" lon="12.194765475494515"><ele>939.4285714285714</ele><time>2026-04-23T13:04:22Z</time></trkpt><trkpt lat="45.99728644851009" lon="12.194669925497488"><ele>932.8571428571429</ele><time>2026-04-23T13:04:23Z</time></trkpt><trkpt lat="45.99726066739343" lon="12.194586739167235"><ele>926.2857142857143</ele><time>2026-04-23T13:04:24Z</time></trkpt><trkpt lat="45.99722672463299" lon="12.194491841236855"><ele>919.7142857142858</ele><time>2026-04-23T13:04:25Z</time></trkpt><trkpt lat="45.99722092064212" lon="12.194395297514568"><ele>913.1428571428571</ele><time>2026-04-23T13:04:26Z</time></trkpt><trkpt lat="45.99721616925146" lon="12.194293310706797"><ele>906.5714285714287</ele><time>2026-04-23T13:04:27Z</time></trkpt><trkpt lat="45.99723442142541" lon="12.194201850192583"><ele>900.0000000000001</ele><time>2026-04-23T13:04:28Z</time></trkpt><trkpt lat="45.997231240574976" lon="12.194093756023552"><ele>900.0</ele><time>2026-04-23T13:04:29Z</time></trkpt><trkpt lat="45.99717587576551" lon="12.19401047205117"><ele>900.0</ele><time>2026-04-23T13:04:30Z</time></trkpt><trkpt lat="45.997135364296454" lon="12.193908708150776"><ele>900.0</ele><time>2026-04-23T13:04:31Z</time></trkpt><trkpt lat="45.99709204056484" lon="12.193814882231353"><ele>900.0</ele><time>2026-04-23T13:04:32Z</time></trkpt><trkpt lat="45.99703855836694" lon="12.193710350295985"><ele>900.0</ele><time>2026-04-23T13:04:33Z</time></trkpt><trkpt lat="45.99697071170357" lon="12.193694571571992"><ele>900.0</ele><time>2026-04-23T13:04:34Z</time></trkpt><trkpt lat="45.99690150065332" lon="12.193653565922226"><ele>902.2857142857144</ele><time>2026-04-23T13:04:35Z</time></trkpt><trkpt lat="45.99683858362505" lon="12.193598530336953"><ele>904.5714285714287</ele><time>2026-04-23T13:04:36Z</time></trkpt><trkpt lat="45.99677812770739" lon="12.193557692992323"><ele>906.8571428571429</ele><time>2026-04-23T13:04:37Z</time></trkpt><trkpt lat="45.996706259459" lon="12.193497844649004"><ele>909.1428571428572</ele><time>2026-04-23T13:04:38Z</time></trkpt><trkpt lat="45.996667886838175" lon="12.193417313021467"><ele>911.4285714285716</ele><time>2026-04-23T13:04:39Z</time></trkpt><trkpt lat="45.996626582018656" lon="12.193334559928907"><ele>913.7142857142857</ele><time>2026-04-23T13:04:40Z</time></trkpt><trkpt lat="45.9965972693572" lon="12.193240554638797"><ele>916.0</ele><time>2026-04-23T13:04:41Z</time></trkpt><trkpt lat="45.99658095963794" lon="12.193121632107355"><ele>908.2857142857142</ele><time>2026-04-23T13:04:42Z</time></trkpt><trkpt lat="45.99657437247384" lon="12.193002127343798"><ele>900.5714285714287</ele><time>2026-04-23T13:04:43Z</time></trkpt><trkpt lat="45.996566470685416" lon="12.192886076053306"><ele>892.8571428571429</ele><time>2026-04-23T13:04:44Z</time></trkpt><trkpt lat="45.996563287438605" lon="12.192774384667283"><ele>885.1428571428571</ele><time>2026-04-23T13:04:45Z</time></trkpt><trkpt lat="45.99655692241879" lon="12.192671255659267"><ele>877.4285714285713</ele><time>2026-04-23T13:04:46Z</time></trkpt><trkpt lat="45.99655470439668" lon="12.192578071423275"><ele>869.7142857142858</ele><time>2026-04-23T13:04:47Z</time></trkpt><trkpt lat="45.99656808048566" lon="12.192484477946467"><ele>862.0</ele><time>2026-04-23T13:04:48Z</time></trkpt><trkpt lat="45.99659617172055" lon="12.1923887491383"><ele>859.8333333333333</ele><time>2026-04-23T13:04:49Z</time></trkpt><trkpt lat="45.99662940312392" lon="12.192304858899249"><ele>857.6666666666666</ele><time>2026-04-23T13:04:50Z</time></trkpt><trkpt lat="45.99667511884241" lon="12.192220712558239"><ele>855.5</ele><time>2026-04-23T13:04:51Z</time></trkpt><trkpt lat="45.99672959720692" lon="12.192143913955922"><ele>853.3333333333333</ele><time>2026-04-23T13:04:52Z</time></trkpt><trkpt lat="45.99677901505699" lon="12.192075937062295"><ele>851.1666666666666</ele><time>2026-04-23T13:04:53Z</time></trkpt><trkpt lat="45.9968503264309" lon="12.191972453484267"><ele>849.0</ele><time>2026-04-23T13:04:55Z</time></trkpt><trkpt lat="45.996863680038494" lon="12.191865199592531"><ele>859.5</ele><time>2026-04-23T13:04:56Z</time></trkpt><trkpt lat="45.99686958976895" lon="12.191692770414665"><ele>870.0</ele><time>2026-04-23T13:04:58Z</time></trkpt><trkpt lat="45.99686642267944" lon="12.19152705959851"><ele>880.5</ele><time>2026-04-23T13:05:00Z</time></trkpt><trkpt lat="45.99688133055701" lon="12.191373018726004"><ele>891.0</ele><time>2026-04-23T13:05:02Z</time></trkpt><trkpt lat="45.99684727232989" lon="12.191201652931056"><ele>891.0</ele><time>2026-04-23T13:05:04Z</time></trkpt><trkpt lat="45.99680689398585" lon="12.191062866005465"><ele>890.9999999999999</ele><time>2026-04-23T13:05:06Z</time></trkpt><trkpt lat="45.99678707150003" lon="12.190908308670284"><ele>890.9999999999999</ele><time>2026-04-23T13:05:08Z</time></trkpt><trkpt lat="45.99682900702135" lon="12.190763928495523"><ele>891.0</ele><time>2026-04-23T13:05:10Z</time></trkpt><trkpt lat="45.996876101659375" lon="12.190693162688842"><ele>891.0</ele><time>2026-04-23T13:05:11Z</time></trkpt><trkpt lat="45.996927121826154" lon="12.19063351617983"><ele>891.5999999999999</ele><time>2026-04-23T13:05:12Z</time></trkpt><trkpt lat="45.99701309896399" lon="12.190536768566002"><ele>892.1999999999999</ele><time>2026-04-23T13:05:14Z</time></trkpt><trkpt lat="45.99706819545871" lon="12.190447634629685"><ele>892.8000000000001</ele><time>2026-04-23T13:05:16Z</time></trkpt><trkpt lat="45.99705443183385" lon="12.190304410549654"><ele>893.4000000000001</ele><time>2026-04-23T13:05:18Z</time></trkpt><trkpt lat="45.99696222739131" lon="12.190261170366938"><ele>894.0</ele><time>2026-04-23T13:05:20Z</time></trkpt><trkpt lat="45.99685737968279" lon="12.190235925452988"><ele>894.0</ele><time>2026-04-23T13:05:22Z</time></trkpt><trkpt lat="45.99673945172578" lon="12.19020683287801"><ele>894.0</ele><time>2026-04-23T13:05:24Z</time></trkpt><trkpt lat="45.996667204324375" lon="12.190196212178872"><ele>894.0</ele><time>2026-04-23T13:05:25Z</time></trkpt><trkpt lat="45.99658621610521" lon="12.190175652402067"><ele>894.0</ele><time>2026-04-23T13:05:26Z</time></trkpt><trkpt lat="45.996504729490404" lon="12.190147563807145"><ele>894.0</ele><time>2026-04-23T13:05:27Z</time></trkpt><trkpt lat="45.996423756289126" lon="12.19011849540819"><ele>894.0</ele><time>2026-04-23T13:05:28Z</time></trkpt><trkpt lat="45.9963463880488" lon="12.190084745841768"><ele>887.3333333333334</ele><time>2026-04-23T13:05:29Z</time></trkpt><trkpt lat="45.99626433827549" lon="12.190026728371915"><ele>880.6666666666667</ele><time>2026-04-23T13:05:30Z</time></trkpt><trkpt lat="45.99618950909003" lon="12.189972790118034"><ele>874.0</ele><time>2026-04-23T13:05:31Z</time></trkpt><trkpt lat="45.9961198825451" lon="12.18994292307612"><ele>867.3333333333334</ele><time>2026-04-23T13:05:32Z</time></trkpt><trkpt lat="45.99604321733701" lon="12.189919881791207"><ele>860.6666666666667</ele><time>2026-04-23T13:05:33Z</time></trkpt><trkpt lat="45.99597391693324" lon="12.189893391286628"><ele>854.0</ele><time>2026-04-23T13:05:34Z</time></trkpt><trkpt lat="45.99590354429608" lon="12.189868378882577"><ele>856.6666666666667</ele><time>2026-04-23T13:05:35Z</time></trkpt><trkpt lat="45.995798509577206" lon="12.189761809072195"><ele>859.3333333333334</ele><time>2026-04-23T13:05:37Z</time></trkpt><trkpt lat="45.995734004333656" lon="12.189721721878684"><ele>862.0</ele><time>2026-04-23T13:05:38Z</time></trkpt><trkpt lat="45.9956662853366" lon="12.189724210023194"><ele>864.6666666666667</ele><time>2026-04-23T13:05:39Z</time></trkpt><trkpt lat="45.99559134951628" lon="12.189735213056801"><ele>867.3333333333334</ele><time>2026-04-23T13:05:40Z</time></trkpt><trkpt lat="45.995524037167925" lon="12.189774213034985"><ele>870.0</ele><time>2026-04-23T13:05:41Z</time></trkpt><trkpt lat="45.99545548700415" lon="12.189790001869659"><ele>870.0</ele><time>2026-04-23T13:05:42Z</time></trkpt><trkpt lat="45.99537552447929" lon="12.189804536316043"><ele>870.0</ele><time>2026-04-23T13:05:43Z</time></trkpt><trkpt lat="45.9952452767115" lon="12.189813128358026"><ele>870.0</ele><time>2026-04-23T13:05:45Z</time></trkpt><trkpt lat="45.995165704771445" lon="12.189848851669113"><ele>870.0</ele><time>2026-04-23T13:05:46Z</time></trkpt><trkpt lat="45.99510333752702" lon="12.189862201649467"><ele>870.0</ele><time>2026-04-23T13:05:47Z</time></trkpt><trkpt lat="45.99503606581931" lon="12.189890065881636"><ele>870.0</ele><time>2026-04-23T13:05:48Z</time></trkpt><trkpt lat="45.99496327774355" lon="12.189931115168203"><ele>861.4</ele><time>2026-04-23T13:05:49Z</time></trkpt><trkpt lat="45.994820498654605" lon="12.189984636470314"><ele>852.8</ele><time>2026-04-23T13:05:51Z</time></trkpt><trkpt lat="45.99474325141418" lon="12.190005695189349"><ele>844.2</ele><time>2026-04-23T13:05:52Z</time></trkpt><trkpt lat="45.994670474631995" lon="12.190021066864869"><ele>835.6</ele><time>2026-04-23T13:05:53Z</time></trkpt><trkpt lat="45.99459491309242" lon="12.19005310911278"><ele>827.0</ele><time>2026-04-23T13:05:54Z</time></trkpt><trkpt lat="45.994521314752454" lon="12.190058837032582"><ele>827.0000000000001</ele><time>2026-04-23T13:05:55Z</time></trkpt><trkpt lat="45.994454724028174" lon="12.190038924912063"><ele>827.0</ele><time>2026-04-23T13:05:56Z</time></trkpt><trkpt lat="45.99437311201453" lon="12.190020028150292"><ele>827.0</ele><time>2026-04-23T13:05:57Z</time></trkpt><trkpt lat="45.99431096367121" lon="12.190004895988576"><ele>827.0</ele><time>2026-04-23T13:05:58Z</time></trkpt><trkpt lat="45.99423628447927" lon="12.19002347273747"><ele>827.0000000000001</ele><time>2026-04-23T13:05:59Z</time></trkpt><trkpt lat="45.99416501554906" lon="12.190033021313502"><ele>827.0</ele><time>2026-04-23T13:06:00Z</time></trkpt><trkpt lat="45.994032958741215" lon="12.190092809075459"><ele>826.6666666666667</ele><time>2026-04-23T13:06:02Z</time></trkpt><trkpt lat="45.99395973703532" lon="12.190148009482106"><ele>826.3333333333334</ele><time>2026-04-23T13:06:03Z</time></trkpt><trkpt lat="45.993886612562804" lon="12.190204556481412"><ele>826.0</ele><time>2026-04-23T13:06:04Z</time></trkpt><trkpt lat="45.99382361981248" lon="12.190242151891676"><ele>825.6666666666667</ele><time>2026-04-23T13:06:05Z</time></trkpt><trkpt lat="45.993749977538194" lon="12.190288370599395"><ele>825.3333333333334</ele><time>2026-04-23T13:06:06Z</time></trkpt><trkpt lat="45.99367688180615" lon="12.190320930557025"><ele>825.0</ele><time>2026-04-23T13:06:07Z</time></trkpt><trkpt lat="45.99360488062346" lon="12.190354055673815"><ele>825.0</ele><time>2026-04-23T13:06:08Z</time></trkpt><trkpt lat="45.993538357439675" lon="12.190413590488234"><ele>825.0</ele><time>2026-04-23T13:06:09Z</time></trkpt><trkpt lat="45.99347647162129" lon="12.190456462027544"><ele>825.0</ele><time>2026-04-23T13:06:10Z</time></trkpt><trkpt lat="45.993409497843935" lon="12.190490613490063"><ele>825.0</ele><time>2026-04-23T13:06:11Z</time></trkpt><trkpt lat="45.99334160784029" lon="12.190499104236464"><ele>825.0</ele><time>2026-04-23T13:06:12Z</time></trkpt><trkpt lat="45.993213827430104" lon="12.190499937481556"><ele>825.0</ele><time>2026-04-23T13:06:14Z</time></trkpt><trkpt lat="45.99313744805572" lon="12.19050576307608"><ele>824.3333333333334</ele><time>2026-04-23T13:06:15Z</time></trkpt><trkpt lat="45.993054018481125" lon="12.190497514784635"><ele>823.6666666666667</ele><time>2026-04-23T13:06:16Z</time></trkpt><trkpt lat="45.992985437192054" lon="12.190448760185351"><ele>823.0</ele><time>2026-04-23T13:06:17Z</time></trkpt><trkpt lat="45.99291027741049" lon="12.190421972793919"><ele>822.3333333333334</ele><time>2026-04-23T13:06:18Z</time></trkpt><trkpt lat="45.99284138957514" lon="12.190370746675947"><ele>821.6666666666667</ele><time>2026-04-23T13:06:19Z</time></trkpt><trkpt lat="45.992770387213774" lon="12.19032432243877"><ele>821.0</ele><time>2026-04-23T13:06:20Z</time></trkpt><trkpt lat="45.99269830647237" lon="12.190270679035129"><ele>821.0000000000001</ele><time>2026-04-23T13:06:21Z</time></trkpt><trkpt lat="45.992632700855864" lon="12.190220231155829"><ele>821.0</ele><time>2026-04-23T13:06:22Z</time></trkpt><trkpt lat="45.992582964726644" lon="12.190146433261543"><ele>821.0</ele><time>2026-04-23T13:06:23Z</time></trkpt><trkpt lat="45.9925166239144" lon="12.190069211703047"><ele>821.0</ele><time>2026-04-23T13:06:24Z</time></trkpt><trkpt lat="45.99243895035029" lon="12.190025190368969"><ele>821.0000000000001</ele><time>2026-04-23T13:06:25Z</time></trkpt><trkpt lat="45.992373831371744" lon="12.189973945827514"><ele>821.0</ele><time>2026-04-23T13:06:26Z</time></trkpt><trkpt lat="45.992301646582455" lon="12.189912779207193"><ele>820.1666666666667</ele><time>2026-04-23T13:06:27Z</time></trkpt><trkpt lat="45.99223431876785" lon="12.189848255556438"><ele>819.3333333333334</ele><time>2026-04-23T13:06:28Z</time></trkpt><trkpt lat="45.992178203319725" lon="12.18977731492707"><ele>818.5</ele><time>2026-04-23T13:06:29Z</time></trkpt><trkpt lat="45.992124634967034" lon="12.189682028290655"><ele>817.6666666666667</ele><time>2026-04-23T13:06:30Z</time></trkpt><trkpt lat="45.99207048497451" lon="12.189595472234062"><ele>816.8333333333334</ele><time>2026-04-23T13:06:31Z</time></trkpt><trkpt lat="45.992010790771985" lon="12.18951286285615"><ele>816.0</ele><time>2026-04-23T13:06:32Z</time></trkpt><trkpt lat="45.99195660110908" lon="12.189428469530206"><ele>816.0</ele><time>2026-04-23T13:06:33Z</time></trkpt><trkpt lat="45.991905944506385" lon="12.189354829034988"><ele>816.0</ele><time>2026-04-23T13:06:34Z</time></trkpt><trkpt lat="45.991853101947385" lon="12.189263189989552"><ele>816.0</ele><time>2026-04-23T13:06:35Z</time></trkpt><trkpt lat="45.99180181132696" lon="12.189187331304478"><ele>816.0</ele><time>2026-04-23T13:06:36Z</time></trkpt><trkpt lat="45.99175328172596" lon="12.189098512991801"><ele>816.0</ele><time>2026-04-23T13:06:37Z</time></trkpt><trkpt lat="45.99171016197776" lon="12.189012170308567"><ele>816.0</ele><time>2026-04-23T13:06:38Z</time></trkpt><trkpt lat="45.99166131866702" lon="12.188923725767875"><ele>811.3333333333334</ele><time>2026-04-23T13:06:39Z</time></trkpt><trkpt lat="45.991599155990286" lon="12.188835179267764"><ele>806.6666666666667</ele><time>2026-04-23T13:06:40Z</time></trkpt><trkpt lat="45.99153591509727" lon="12.188751299583751"><ele>802.0</ele><time>2026-04-23T13:06:41Z</time></trkpt><trkpt lat="45.991485744333595" lon="12.188657844189288"><ele>797.3333333333334</ele><time>2026-04-23T13:06:42Z</time></trkpt><trkpt lat="45.99141801923109" lon="12.18858009301118"><ele>792.6666666666667</ele><time>2026-04-23T13:06:43Z</time></trkpt><trkpt lat="45.991361732363885" lon="12.18850619663805"><ele>788.0</ele><time>2026-04-23T13:06:44Z</time></trkpt><trkpt lat="45.99129359166904" lon="12.188426780284248"><ele>788.0000000000001</ele><time>2026-04-23T13:06:45Z</time></trkpt><trkpt lat="45.991222354984096" lon="12.188383200449293"><ele>788.0</ele><time>2026-04-23T13:06:46Z</time></trkpt><trkpt lat="45.99116036577852" lon="12.188319759883786"><ele>788.0</ele><time>2026-04-23T13:06:47Z</time></trkpt><trkpt lat="45.99109976253952" lon="12.188248484993565"><ele>788.0</ele><time>2026-04-23T13:06:48Z</time></trkpt><trkpt lat="45.991054525187415" lon="12.188157893423611"><ele>788.0000000000001</ele><time>2026-04-23T13:06:49Z</time></trkpt><trkpt lat="45.990965429052444" lon="12.188127434638002"><ele>788.0</ele><time>2026-04-23T13:06:50Z</time></trkpt><trkpt lat="45.99089358485145" lon="12.188115959538175"><ele>786.0000000000001</ele><time>2026-04-23T13:06:51Z</time></trkpt><trkpt lat="45.990827750725636" lon="12.188102749028861"><ele>784.0</ele><time>2026-04-23T13:06:52Z</time></trkpt><trkpt lat="45.9907612601568" lon="12.188090544574278"><ele>782.0</ele><time>2026-04-23T13:06:53Z</time></trkpt><trkpt lat="45.990688836466596" lon="12.188094426142372"><ele>780.0</ele><time>2026-04-23T13:06:54Z</time></trkpt><trkpt lat="45.99062083759568" lon="12.188091023902551"><ele>778.0000000000001</ele><time>2026-04-23T13:06:55Z</time></trkpt><trkpt lat="45.99055268259497" lon="12.188054142567744"><ele>776.0</ele><time>2026-04-23T13:06:56Z</time></trkpt><trkpt lat="45.990447594863795" lon="12.187938493863573"><ele>776.0000000000001</ele><time>2026-04-23T13:06:58Z</time></trkpt><trkpt lat="45.990381628386004" lon="12.187893573992788"><ele>776.0</ele><time>2026-04-23T13:06:59Z</time></trkpt><trkpt lat="45.99032560114444" lon="12.187828549156455"><ele>776.0</ele><time>2026-04-23T13:07:00Z</time></trkpt><trkpt lat="45.99026447683223" lon="12.187765723998018"><ele>776.0</ele><time>2026-04-23T13:07:01Z</time></trkpt><trkpt lat="45.99020448510038" lon="12.187701727758492"><ele>776.0000000000001</ele><time>2026-04-23T13:07:02Z</time></trkpt><trkpt lat="45.990141840755975" lon="12.187633205141815"><ele>776.0</ele><time>2026-04-23T13:07:03Z</time></trkpt><trkpt lat="45.99005559471027" lon="12.187564033580163"><ele>772.8333333333334</ele><time>2026-04-23T13:07:04Z</time></trkpt><trkpt lat="45.98998121372997" lon="12.187502816314733"><ele>769.6666666666667</ele><time>2026-04-23T13:07:05Z</time></trkpt><trkpt lat="45.98990846723876" lon="12.187443057038092"><ele>766.5</ele><time>2026-04-23T13:07:06Z</time></trkpt><trkpt lat="45.98985761599165" lon="12.18735644739611"><ele>763.3333333333334</ele><time>2026-04-23T13:07:07Z</time></trkpt><trkpt lat="45.989806400612764" lon="12.187274896136236"><ele>760.1666666666667</ele><time>2026-04-23T13:07:08Z</time></trkpt><trkpt lat="45.9897418649473" lon="12.187206314963047"><ele>757.0</ele><time>2026-04-23T13:07:09Z</time></trkpt><trkpt lat="45.98966668867019" lon="12.187155375760112"><ele>757.0</ele><time>2026-04-23T13:07:10Z</time></trkpt><trkpt lat="45.98961432279055" lon="12.187079245755731"><ele>757.0</ele><time>2026-04-23T13:07:11Z</time></trkpt><trkpt lat="45.98955643254795" lon="12.186961677861236"><ele>757.0</ele><time>2026-04-23T13:07:12Z</time></trkpt><trkpt lat="45.98949299554987" lon="12.186891613895874"><ele>757.0</ele><time>2026-04-23T13:07:13Z</time></trkpt><trkpt lat="45.9894124613965" lon="12.186828582668532"><ele>757.0</ele><time>2026-04-23T13:07:14Z</time></trkpt><trkpt lat="45.98934930079177" lon="12.186775325094475"><ele>757.0</ele><time>2026-04-23T13:07:15Z</time></trkpt><trkpt lat="45.98927731956465" lon="12.186691078217544"><ele>757.0</ele><time>2026-04-23T13:07:16Z</time></trkpt><trkpt lat="45.989215067384336" lon="12.186593413031813"><ele>757.0</ele><time>2026-04-23T13:07:17Z</time></trkpt><trkpt lat="45.98915675706458" lon="12.186512304710309"><ele>757.0</ele><time>2026-04-23T13:07:18Z</time></trkpt><trkpt lat="45.98908683971395" lon="12.186424321918695"><ele>757.0</ele><time>2026-04-23T13:07:19Z</time></trkpt><trkpt lat="45.989023657875386" lon="12.186344153996101"><ele>757.0</ele><time>2026-04-23T13:07:20Z</time></trkpt><trkpt lat="45.98895937878465" lon="12.186264466009868"><ele>757.0</ele><time>2026-04-23T13:07:21Z</time></trkpt><trkpt lat="45.988894589483984" lon="12.18617949326793"><ele>753.2</ele><time>2026-04-23T13:07:22Z</time></trkpt><trkpt lat="45.98883488677412" lon="12.186102195341476"><ele>749.4000000000001</ele><time>2026-04-23T13:07:23Z</time></trkpt><trkpt lat="45.9887710483516" lon="12.186032184889807"><ele>745.5999999999999</ele><time>2026-04-23T13:07:24Z</time></trkpt><trkpt lat="45.988616646697956" lon="12.186032246671154"><ele>741.8</ele><time>2026-04-23T13:07:26Z</time></trkpt><trkpt lat="45.988509257101825" lon="12.186072834225278"><ele>738.0</ele><time>2026-04-23T13:07:27Z</time></trkpt><trkpt lat="45.988412437312896" lon="12.186093802877522"><ele>734.6666666666666</ele><time>2026-04-23T13:07:28Z</time></trkpt><trkpt lat="45.98833214839098" lon="12.18609854119383"><ele>731.3333333333334</ele><time>2026-04-23T13:07:29Z</time></trkpt><trkpt lat="45.98825475039555" lon="12.186103137441402"><ele>728.0</ele><time>2026-04-23T13:07:30Z</time></trkpt><trkpt lat="45.98817581437604" lon="12.186104041383446"><ele>724.6666666666667</ele><time>2026-04-23T13:07:31Z</time></trkpt><trkpt lat="45.98809291949174" lon="12.18608604055918"><ele>721.3333333333334</ele><time>2026-04-23T13:07:32Z</time></trkpt><trkpt lat="45.988016260448866" lon="12.186065114400755"><ele>718.0</ele><time>2026-04-23T13:07:33Z</time></trkpt><trkpt lat="45.98794931148871" lon="12.186049092775846"><ele>718.0</ele><time>2026-04-23T13:07:34Z</time></trkpt><trkpt lat="45.98787481696259" lon="12.186047029829702"><ele>718.0</ele><time>2026-04-23T13:07:35Z</time></trkpt><trkpt lat="45.98780298144807" lon="12.186050530249524"><ele>718.0</ele><time>2026-04-23T13:07:36Z</time></trkpt><trkpt lat="45.98772841232903" lon="12.186018865193741"><ele>718.0</ele><time>2026-04-23T13:07:37Z</time></trkpt><trkpt lat="45.98763578321218" lon="12.186024607980912"><ele>718.0</ele><time>2026-04-23T13:07:38Z</time></trkpt><trkpt lat="45.98754896055755" lon="12.186014610175103"><ele>718.0</ele><time>2026-04-23T13:07:39Z</time></trkpt><trkpt lat="45.98745982705462" lon="12.186029094773668"><ele>716.6666666666667</ele><time>2026-04-23T13:07:40Z</time></trkpt><trkpt lat="45.98739308809756" lon="12.18597632570691"><ele>715.3333333333334</ele><time>2026-04-23T13:07:41Z</time></trkpt><trkpt lat="45.987322481389995" lon="12.185938759437722"><ele>714.0</ele><time>2026-04-23T13:07:42Z</time></trkpt><trkpt lat="45.98724305265959" lon="12.185905376655917"><ele>712.6666666666666</ele><time>2026-04-23T13:07:43Z</time></trkpt><trkpt lat="45.987156815215016" lon="12.185893885235258"><ele>711.3333333333333</ele><time>2026-04-23T13:07:44Z</time></trkpt><trkpt lat="45.98706584330729" lon="12.185854479086878"><ele>710.0</ele><time>2026-04-23T13:07:45Z</time></trkpt><trkpt lat="45.986992550613294" lon="12.185827556518522"><ele>710.0</ele><time>2026-04-23T13:07:46Z</time></trkpt><trkpt lat="45.986902717091475" lon="12.1858115517175"><ele>710.0</ele><time>2026-04-23T13:07:47Z</time></trkpt><trkpt lat="45.98682560176735" lon="12.185793243736299"><ele>710.0</ele><time>2026-04-23T13:07:48Z</time></trkpt><trkpt lat="45.98675119671928" lon="12.185737542272815"><ele>710.0</ele><time>2026-04-23T13:07:49Z</time></trkpt><trkpt lat="45.986668855683554" lon="12.185717764113841"><ele>710.0</ele><time>2026-04-23T13:07:50Z</time></trkpt><trkpt lat="45.986579722267734" lon="12.18568415065598"><ele>710.0</ele><time>2026-04-23T13:07:51Z</time></trkpt><trkpt lat="45.986499571272034" lon="12.185643807417879"><ele>709.3333333333333</ele><time>2026-04-23T13:07:52Z</time></trkpt><trkpt lat="45.986437063606395" lon="12.185583948556667"><ele>708.6666666666666</ele><time>2026-04-23T13:07:53Z</time></trkpt><trkpt lat="45.98637114951426" lon="12.18552953428873"><ele>708.0</ele><time>2026-04-23T13:07:54Z</time></trkpt><trkpt lat="45.98629363080188" lon="12.185479809988225"><ele>707.3333333333334</ele><time>2026-04-23T13:07:55Z</time></trkpt><trkpt lat="45.986230388064655" lon="12.185406539083672"><ele>706.6666666666667</ele><time>2026-04-23T13:07:56Z</time></trkpt><trkpt lat="45.986168489322424" lon="12.185353836130327"><ele>706.0</ele><time>2026-04-23T13:07:57Z</time></trkpt><trkpt lat="45.98610597633519" lon="12.185302375789378"><ele>706.0</ele><time>2026-04-23T13:07:58Z</time></trkpt><trkpt lat="45.98604779124472" lon="12.185230891422014"><ele>706.0</ele><time>2026-04-23T13:07:59Z</time></trkpt><trkpt lat="45.98599591207503" lon="12.185145000669387"><ele>706.0</ele><time>2026-04-23T13:08:00Z</time></trkpt><trkpt lat="45.98594180715849" lon="12.185030766722388"><ele>706.0</ele><time>2026-04-23T13:08:01Z</time></trkpt><trkpt lat="45.98589413236631" lon="12.18493584748863"><ele>706.0</ele><time>2026-04-23T13:08:02Z</time></trkpt><trkpt lat="45.98585346676126" lon="12.18483094405502"><ele>706.0</ele><time>2026-04-23T13:08:03Z</time></trkpt><trkpt lat="45.98582359442593" lon="12.184723579451152"><ele>703.1666666666667</ele><time>2026-04-23T13:08:04Z</time></trkpt><trkpt lat="45.985788425843545" lon="12.184622982282217"><ele>700.3333333333334</ele><time>2026-04-23T13:08:05Z</time></trkpt><trkpt lat="45.98573691121175" lon="12.184527443454215"><ele>697.5</ele><time>2026-04-23T13:08:06Z</time></trkpt><trkpt lat="45.98566878098716" lon="12.184451412921252"><ele>694.6666666666666</ele><time>2026-04-23T13:08:07Z</time></trkpt><trkpt lat="45.98561115534326" lon="12.184373689448595"><ele>691.8333333333333</ele><time>2026-04-23T13:08:08Z</time></trkpt><trkpt lat="45.98556701015968" lon="12.184286393642152"><ele>689.0</ele><time>2026-04-23T13:08:09Z</time></trkpt><trkpt lat="45.985522851360294" lon="12.184137887827921"><ele>689.0</ele><time>2026-04-23T13:08:11Z</time></trkpt><trkpt lat="45.985501423930216" lon="12.184046317911848"><ele>689.0</ele><time>2026-04-23T13:08:12Z</time></trkpt><trkpt lat="45.98551443385881" lon="12.183943574602816"><ele>689.0</ele><time>2026-04-23T13:08:13Z</time></trkpt><trkpt lat="45.98554868238257" lon="12.183837178178374"><ele>689.0</ele><time>2026-04-23T13:08:14Z</time></trkpt><trkpt lat="45.98559898300157" lon="12.183709367030282"><ele>689.0</ele><time>2026-04-23T13:08:16Z</time></trkpt><trkpt lat="45.98565324201831" lon="12.18363185704493"><ele>689.0</ele><time>2026-04-23T13:08:18Z</time></trkpt><trkpt lat="45.98561001000935" lon="12.183534350896222"><ele>685.0</ele><time>2026-04-23T13:08:21Z</time></trkpt><trkpt lat="45.98554016028326" lon="12.183586270229373"><ele>681.0</ele><time>2026-04-23T13:08:23Z</time></trkpt><trkpt lat="45.98544416597705" lon="12.183706092849453"><ele>677.0</ele><time>2026-04-23T13:08:25Z</time></trkpt><trkpt lat="45.98536087958471" lon="12.183836139983102"><ele>673.0</ele><time>2026-04-23T13:08:27Z</time></trkpt><trkpt lat="45.985322190824476" lon="12.183911777904388"><ele>669.0</ele><time>2026-04-23T13:08:28Z</time></trkpt><trkpt lat="45.985269108264866" lon="12.183986529216073"><ele>672.3333333333334</ele><time>2026-04-23T13:08:29Z</time></trkpt><trkpt lat="45.98518840219395" lon="12.184136555069726"><ele>675.6666666666666</ele><time>2026-04-23T13:08:31Z</time></trkpt><trkpt lat="45.98515610644098" lon="12.184226040034293"><ele>679.0</ele><time>2026-04-23T13:08:32Z</time></trkpt><trkpt lat="45.98513690587881" lon="12.184326271975802"><ele>682.3333333333333</ele><time>2026-04-23T13:08:33Z</time></trkpt><trkpt lat="45.9851264108643" lon="12.184435350450421"><ele>685.6666666666666</ele><time>2026-04-23T13:08:34Z</time></trkpt><trkpt lat="45.98512965008122" lon="12.184538975452002"><ele>689.0</ele><time>2026-04-23T13:08:35Z</time></trkpt><trkpt lat="45.985147706926135" lon="12.184723367918124"><ele>687.6666666666666</ele><time>2026-04-23T13:08:37Z</time></trkpt><trkpt lat="45.98521772006229" lon="12.184873935804717"><ele>686.3333333333333</ele><time>2026-04-23T13:08:39Z</time></trkpt><trkpt lat="45.985269424717316" lon="12.184969280627195"><ele>685.0</ele><time>2026-04-23T13:08:40Z</time></trkpt><trkpt lat="45.98530280872017" lon="12.185073536318006"><ele>683.6666666666666</ele><time>2026-04-23T13:08:41Z</time></trkpt><trkpt lat="45.985302029732274" lon="12.185167015661694"><ele>682.3333333333334</ele><time>2026-04-23T13:08:42Z</time></trkpt><trkpt lat="45.98530330638104" lon="12.185275205863192"><ele>681.0</ele><time>2026-04-23T13:08:43Z</time></trkpt><trkpt lat="45.98531399403279" lon="12.185393473491887"><ele>681.0</ele><time>2026-04-23T13:08:44Z</time></trkpt><trkpt lat="45.98534399498055" lon="12.185484466958092"><ele>681.0</ele><time>2026-04-23T13:08:45Z</time></trkpt><trkpt lat="45.98538395066763" lon="12.18555533542745"><ele>681.0</ele><time>2026-04-23T13:08:46Z</time></trkpt><trkpt lat="45.9854445164186" lon="12.185619199633031"><ele>681.0</ele><time>2026-04-23T13:08:47Z</time></trkpt><trkpt lat="45.98550474123135" lon="12.185694977321573"><ele>681.0</ele><time>2026-04-23T13:08:48Z</time></trkpt><trkpt lat="45.985571569409956" lon="12.185799546997265"><ele>681.0</ele><time>2026-04-23T13:08:49Z</time></trkpt><trkpt lat="45.985650491871986" lon="12.18590461196964"><ele>682.5</ele><time>2026-04-23T13:08:50Z</time></trkpt><trkpt lat="45.98571322820048" lon="12.186019313098694"><ele>684.0</ele><time>2026-04-23T13:08:51Z</time></trkpt><trkpt lat="45.985759141359885" lon="12.186108029057017"><ele>685.5</ele><time>2026-04-23T13:08:52Z</time></trkpt><trkpt lat="45.98580065791909" lon="12.186206080110107"><ele>687.0</ele><time>2026-04-23T13:08:53Z</time></trkpt><trkpt lat="45.98584450843447" lon="12.186289161801543"><ele>688.5</ele><time>2026-04-23T13:08:54Z</time></trkpt><trkpt lat="45.98590232100442" lon="12.186380480701956"><ele>690.0</ele><time>2026-04-23T13:08:55Z</time></trkpt><trkpt lat="45.98596720197127" lon="12.186461345067709"><ele>685.5</ele><time>2026-04-23T13:08:56Z</time></trkpt><trkpt lat="45.98604094226069" lon="12.186544296766204"><ele>681.0</ele><time>2026-04-23T13:08:57Z</time></trkpt><trkpt lat="45.98610688169279" lon="12.186624212261119"><ele>676.5</ele><time>2026-04-23T13:08:58Z</time></trkpt><trkpt lat="45.98616488783189" lon="12.186701902039921"><ele>672.0</ele><time>2026-04-23T13:08:59Z</time></trkpt><trkpt lat="45.9862252379149" lon="12.186797184579941"><ele>667.5</ele><time>2026-04-23T13:09:00Z</time></trkpt><trkpt lat="45.98628939160973" lon="12.186873270271025"><ele>663.0</ele><time>2026-04-23T13:09:01Z</time></trkpt><trkpt lat="45.98636375909946" lon="12.186950935926236"><ele>663.0</ele><time>2026-04-23T13:09:02Z</time></trkpt><trkpt lat="45.986441708859196" lon="12.187005160404508"><ele>663.0</ele><time>2026-04-23T13:09:03Z</time></trkpt><trkpt lat="45.98651898996488" lon="12.18706202676517"><ele>663.0</ele><time>2026-04-23T13:09:04Z</time></trkpt><trkpt lat="45.98659708071592" lon="12.187086488904699"><ele>663.0</ele><time>2026-04-23T13:09:05Z</time></trkpt><trkpt lat="45.98666969442451" lon="12.187133541587885"><ele>663.0</ele><time>2026-04-23T13:09:06Z</time></trkpt><trkpt lat="45.98673795150143" lon="12.187199631881795"><ele>663.0</ele><time>2026-04-23T13:09:07Z</time></trkpt><trkpt lat="45.98680118341548" lon="12.187274220186097"><ele>665.6666666666666</ele><time>2026-04-23T13:09:08Z</time></trkpt><trkpt lat="45.986862585376386" lon="12.187340133161172"><ele>668.3333333333334</ele><time>2026-04-23T13:09:09Z</time></trkpt><trkpt lat="45.986940127997364" lon="12.187386225045824"><ele>671.0</ele><time>2026-04-23T13:09:10Z</time></trkpt><trkpt lat="45.986998972552584" lon="12.187459099623336"><ele>673.6666666666667</ele><time>2026-04-23T13:09:11Z</time></trkpt><trkpt lat="45.98706574976384" lon="12.187512131527589"><ele>676.3333333333334</ele><time>2026-04-23T13:09:12Z</time></trkpt><trkpt lat="45.98714022352893" lon="12.187522600993338"><ele>679.0</ele><time>2026-04-23T13:09:13Z</time></trkpt><trkpt lat="45.987232714630366" lon="12.187540537067484"><ele>676.5</ele><time>2026-04-23T13:09:14Z</time></trkpt><trkpt lat="45.98730606522938" lon="12.187563155498516"><ele>674.0</ele><time>2026-04-23T13:09:15Z</time></trkpt><trkpt lat="45.98738549841389" lon="12.187575147653764"><ele>671.5</ele><time>2026-04-23T13:09:16Z</time></trkpt><trkpt lat="45.98745920079051" lon="12.187585591346988"><ele>669.0</ele><time>2026-04-23T13:09:17Z</time></trkpt><trkpt lat="45.98753292878171" lon="12.187593105051928"><ele>666.5</ele><time>2026-04-23T13:09:18Z</time></trkpt><trkpt lat="45.98761127018345" lon="12.18763911474296"><ele>664.0</ele><time>2026-04-23T13:09:20Z</time></trkpt><trkpt lat="45.98757025447357" lon="12.187739081222984"><ele>660.0</ele><time>2026-04-23T13:09:22Z</time></trkpt><trkpt lat="45.98749696646535" lon="12.187772275963765"><ele>656.0</ele><time>2026-04-23T13:09:23Z</time></trkpt><trkpt lat="45.98742203920155" lon="12.187780519455098"><ele>652.0</ele><time>2026-04-23T13:09:24Z</time></trkpt><trkpt lat="45.98730848179882" lon="12.187796707812861"><ele>648.0</ele><time>2026-04-23T13:09:26Z</time></trkpt><trkpt lat="45.98724585661874" lon="12.187809925910054"><ele>644.0</ele><time>2026-04-23T13:09:27Z</time></trkpt><trkpt lat="45.987184062312686" lon="12.187840369813163"><ele>640.0</ele><time>2026-04-23T13:09:28Z</time></trkpt><trkpt lat="45.98704618241609" lon="12.187869594520317"><ele>640.0</ele><time>2026-04-23T13:09:30Z</time></trkpt><trkpt lat="45.98696780193671" lon="12.18790209119674"><ele>640.0</ele><time>2026-04-23T13:09:31Z</time></trkpt><trkpt lat="45.98688680739162" lon="12.187929614486887"><ele>640.0</ele><time>2026-04-23T13:09:32Z</time></trkpt><trkpt lat="45.986804688773006" lon="12.187968325656882"><ele>640.0</ele><time>2026-04-23T13:09:33Z</time></trkpt><trkpt lat="45.98671428819891" lon="12.188031168147957"><ele>640.0</ele><time>2026-04-23T13:09:34Z</time></trkpt><trkpt lat="45.98663457277968" lon="12.188063152671724"><ele>640.0</ele><time>2026-04-23T13:09:35Z</time></trkpt><trkpt lat="45.9865395343319" lon="12.188102640437439"><ele>638.8</ele><time>2026-04-23T13:09:36Z</time></trkpt><trkpt lat="45.986460286029356" lon="12.188139846747891"><ele>637.6</ele><time>2026-04-23T13:09:37Z</time></trkpt><trkpt lat="45.98637563556482" lon="12.188189976797624"><ele>636.4</ele><time>2026-04-23T13:09:38Z</time></trkpt><trkpt lat="45.986295652314546" lon="12.188244773029043"><ele>635.2</ele><time>2026-04-23T13:09:39Z</time></trkpt><trkpt lat="45.98622744319226" lon="12.188287580878814"><ele>634.0</ele><time>2026-04-23T13:09:40Z</time></trkpt><trkpt lat="45.9861159290608" lon="12.188300747775678"><ele>627.4</ele><time>2026-04-23T13:09:42Z</time></trkpt><trkpt lat="45.986065813087286" lon="12.188392414470158"><ele>620.8</ele><time>2026-04-23T13:09:44Z</time></trkpt><trkpt lat="45.9861569578716" lon="12.18849353611171"><ele>614.2</ele><time>2026-04-23T13:09:46Z</time></trkpt><trkpt lat="45.98623575798604" lon="12.188500453209976"><ele>607.6</ele><time>2026-04-23T13:09:47Z</time></trkpt><trkpt lat="45.986318747075444" lon="12.188495340213228"><ele>601.0</ele><time>2026-04-23T13:09:48Z</time></trkpt><trkpt lat="45.9864316214212" lon="12.188484190291591"><ele>601.0</ele><time>2026-04-23T13:09:49Z</time></trkpt><trkpt lat="45.98653175282195" lon="12.188488003644046"><ele>601.0</ele><time>2026-04-23T13:09:50Z</time></trkpt><trkpt lat="45.98660800601197" lon="12.18852190106405"><ele>601.0</ele><time>2026-04-23T13:09:51Z</time></trkpt><trkpt lat="45.986703959459575" lon="12.188583113569289"><ele>601.0</ele><time>2026-04-23T13:09:52Z</time></trkpt><trkpt lat="45.98680489329264" lon="12.188645357764974"><ele>601.0</ele><time>2026-04-23T13:09:53Z</time></trkpt><trkpt lat="45.986894490703506" lon="12.188708945421155"><ele>601.6666666666667</ele><time>2026-04-23T13:09:54Z</time></trkpt><trkpt lat="45.98696867432461" lon="12.188757203161812"><ele>602.3333333333334</ele><time>2026-04-23T13:09:55Z</time></trkpt><trkpt lat="45.987049189745235" lon="12.188789767910158"><ele>603.0</ele><time>2026-04-23T13:09:56Z</time></trkpt><trkpt lat="45.98711871999304" lon="12.188783185163857"><ele>603.6666666666666</ele><time>2026-04-23T13:09:57Z</time></trkpt><trkpt lat="45.9872057022265" lon="12.188731908441229"><ele>604.3333333333333</ele><time>2026-04-23T13:09:58Z</time></trkpt><trkpt lat="45.987299491732834" lon="12.188709326259445"><ele>605.0</ele><time>2026-04-23T13:09:59Z</time></trkpt><trkpt lat="45.98737780676948" lon="12.18869117094925"><ele>605.0</ele><time>2026-04-23T13:10:00Z</time></trkpt><trkpt lat="45.98746201759957" lon="12.188865444573828"><ele>605.0</ele><time>2026-04-23T13:10:02Z</time></trkpt><trkpt lat="45.98749666688032" lon="12.188986597277735"><ele>605.0</ele><time>2026-04-23T13:10:03Z</time></trkpt><trkpt lat="45.98754359026364" lon="12.18909153850049"><ele>605.0</ele><time>2026-04-23T13:10:04Z</time></trkpt><trkpt lat="45.98761996850212" lon="12.189174184498006"><ele>605.0</ele><time>2026-04-23T13:10:05Z</time></trkpt><trkpt lat="45.98771588722747" lon="12.189241627812585"><ele>605.5</ele><time>2026-04-23T13:10:06Z</time></trkpt><trkpt lat="45.98781351597357" lon="12.189292568318002"><ele>606.0</ele><time>2026-04-23T13:10:07Z</time></trkpt><trkpt lat="45.98787462922344" lon="12.189341269218128"><ele>606.5</ele><time>2026-04-23T13:10:08Z</time></trkpt><trkpt lat="45.9879224196014" lon="12.189406058417571"><ele>607.0</ele><time>2026-04-23T13:10:09Z</time></trkpt><trkpt lat="45.98796773521691" lon="12.18954147949649"><ele>607.5</ele><time>2026-04-23T13:10:11Z</time></trkpt><trkpt lat="45.98787746926221" lon="12.189582409734665"><ele>608.0</ele><time>2026-04-23T13:10:13Z</time></trkpt><trkpt lat="45.98782395280661" lon="12.189516754184643"><ele>608.0</ele><time>2026-04-23T13:10:14Z</time></trkpt><trkpt lat="45.98773845847782" lon="12.18943468290325"><ele>608.0</ele><time>2026-04-23T13:10:15Z</time></trkpt><trkpt lat="45.98765710896616" lon="12.189407444297911"><ele>608.0</ele><time>2026-04-23T13:10:16Z</time></trkpt><trkpt lat="45.987578331343734" lon="12.18940429730884"><ele>608.0</ele><time>2026-04-23T13:10:17Z</time></trkpt><trkpt lat="45.98749813065607" lon="12.18936140641831"><ele>608.0</ele><time>2026-04-23T13:10:18Z</time></trkpt><trkpt lat="45.98743233930997" lon="12.18930035347035"><ele>608.0</ele><time>2026-04-23T13:10:19Z</time></trkpt><trkpt lat="45.98737356045006" lon="12.189212263598494"><ele>602.3333333333333</ele><time>2026-04-23T13:10:20Z</time></trkpt><trkpt lat="45.9873115741564" lon="12.189123061940013"><ele>596.6666666666666</ele><time>2026-04-23T13:10:21Z</time></trkpt><trkpt lat="45.98724962229013" lon="12.189081929103892"><ele>591.0</ele><time>2026-04-23T13:10:22Z</time></trkpt><trkpt lat="45.98717169439014" lon="12.189090774079997"><ele>585.3333333333334</ele><time>2026-04-23T13:10:23Z</time></trkpt><trkpt lat="45.987089924905796" lon="12.18913505301537"><ele>579.6666666666667</ele><time>2026-04-23T13:10:24Z</time></trkpt><trkpt lat="45.987000178275736" lon="12.189210358774545"><ele>574.0</ele><time>2026-04-23T13:10:25Z</time></trkpt><trkpt lat="45.98691641294015" lon="12.189292455689747"><ele>574.0</ele><time>2026-04-23T13:10:26Z</time></trkpt><trkpt lat="45.98683370649704" lon="12.189310386069213"><ele>574.0</ele><time>2026-04-23T13:10:27Z</time></trkpt><trkpt lat="45.986738919900894" lon="12.189297828652759"><ele>574.0</ele><time>2026-04-23T13:10:28Z</time></trkpt><trkpt lat="45.986633598471" lon="12.189291832937354"><ele>574.0</ele><time>2026-04-23T13:10:29Z</time></trkpt><trkpt lat="45.98656282311247" lon="12.189276563384716"><ele>574.0</ele><time>2026-04-23T13:10:30Z</time></trkpt><trkpt lat="45.986464942408325" lon="12.189315067384086"><ele>572.4</ele><time>2026-04-23T13:10:31Z</time></trkpt><trkpt lat="45.98638526071643" lon="12.189407397501672"><ele>570.8</ele><time>2026-04-23T13:10:32Z</time></trkpt><trkpt lat="45.98628870480499" lon="12.189462477726666"><ele>569.2</ele><time>2026-04-23T13:10:33Z</time></trkpt><trkpt lat="45.986187604198186" lon="12.189512521436624"><ele>567.6</ele><time>2026-04-23T13:10:34Z</time></trkpt><trkpt lat="45.98608906688679" lon="12.18958274818665"><ele>566.0</ele><time>2026-04-23T13:10:35Z</time></trkpt><trkpt lat="45.986002544860526" lon="12.189631382830132"><ele>566.0</ele><time>2026-04-23T13:10:36Z</time></trkpt><trkpt lat="45.98592110563007" lon="12.189671637329303"><ele>566.0</ele><time>2026-04-23T13:10:37Z</time></trkpt><trkpt lat="45.985844942724235" lon="12.189676852804594"><ele>566.0</ele><time>2026-04-23T13:10:38Z</time></trkpt><trkpt lat="45.98575527862704" lon="12.189672518452792"><ele>566.0</ele><time>2026-04-23T13:10:39Z</time></trkpt><trkpt lat="45.98566333493578" lon="12.189666488107422"><ele>566.0</ele><time>2026-04-23T13:10:40Z</time></trkpt><trkpt lat="45.98557548740573" lon="12.18965168208317"><ele>566.0</ele><time>2026-04-23T13:10:41Z</time></trkpt><trkpt lat="45.98549380868978" lon="12.189633430827563"><ele>564.6</ele><time>2026-04-23T13:10:42Z</time></trkpt><trkpt lat="45.985415775024265" lon="12.189599013226404"><ele>563.2</ele><time>2026-04-23T13:10:43Z</time></trkpt><trkpt lat="45.98533204031603" lon="12.18954948231237"><ele>561.8</ele><time>2026-04-23T13:10:44Z</time></trkpt><trkpt lat="45.985254222528496" lon="12.189472247392754"><ele>560.4</ele><time>2026-04-23T13:10:45Z</time></trkpt><trkpt lat="45.98517794564135" lon="12.189383096644516"><ele>559.0</ele><time>2026-04-23T13:10:46Z</time></trkpt><trkpt lat="45.98509082807788" lon="12.189309458872778"><ele>557.4</ele><time>2026-04-23T13:10:47Z</time></trkpt><trkpt lat="45.98499578761826" lon="12.189255649510237"><ele>555.8</ele><time>2026-04-23T13:10:48Z</time></trkpt><trkpt lat="45.98490513215011" lon="12.189205068281213"><ele>554.2</ele><time>2026-04-23T13:10:49Z</time></trkpt><trkpt lat="45.984815750027714" lon="12.189157104374923"><ele>552.6</ele><time>2026-04-23T13:10:50Z</time></trkpt><trkpt lat="45.98470788967967" lon="12.18908391889296"><ele>551.0</ele><time>2026-04-23T13:10:51Z</time></trkpt><trkpt lat="45.98462271071484" lon="12.188985381344555"><ele>551.0</ele><time>2026-04-23T13:10:52Z</time></trkpt><trkpt lat="45.984526894794286" lon="12.188908957239653"><ele>551.0</ele><time>2026-04-23T13:10:53Z</time></trkpt><trkpt lat="45.984430534137566" lon="12.188850293153655"><ele>551.0</ele><time>2026-04-23T13:10:54Z</time></trkpt><trkpt lat="45.984320384157876" lon="12.18880320245206"><ele>551.0</ele><time>2026-04-23T13:10:55Z</time></trkpt><trkpt lat="45.98421601005911" lon="12.188748230216055"><ele>551.0</ele><time>2026-04-23T13:10:56Z</time></trkpt><trkpt lat="45.98412211208102" lon="12.188693563962111"><ele>545.4</ele><time>2026-04-23T13:10:57Z</time></trkpt><trkpt lat="45.98402636612141" lon="12.188658723106883"><ele>539.8</ele><time>2026-04-23T13:10:58Z</time></trkpt><trkpt lat="45.983921100470006" lon="12.188635690582757"><ele>534.1999999999999</ele><time>2026-04-23T13:10:59Z</time></trkpt><trkpt lat="45.983852065128644" lon="12.188618171623233"><ele>528.6</ele><time>2026-04-23T13:11:00Z</time></trkpt><trkpt lat="45.98375203780558" lon="12.188666261029287"><ele>523.0</ele><time>2026-04-23T13:11:02Z</time></trkpt><trkpt lat="45.98378114269984" lon="12.188812327593896"><ele>523.0</ele><time>2026-04-23T13:11:04Z</time></trkpt><trkpt lat="45.983856741906834" lon="12.188841354985227"><ele>523.0</ele><time>2026-04-23T13:11:05Z</time></trkpt><trkpt lat="45.98395433004412" lon="12.18884395610789"><ele>523.0</ele><time>2026-04-23T13:11:06Z</time></trkpt><trkpt lat="45.984030577645406" lon="12.188860559072848"><ele>523.0</ele><time>2026-04-23T13:11:07Z</time></trkpt><trkpt lat="45.98410574675599" lon="12.188925492728723"><ele>523.0</ele><time>2026-04-23T13:11:08Z</time></trkpt><trkpt lat="45.984180877827605" lon="12.189047490999654"><ele>524.5</ele><time>2026-04-23T13:11:09Z</time></trkpt><trkpt lat="45.984237861983544" lon="12.189157424599788"><ele>526.0</ele><time>2026-04-23T13:11:10Z</time></trkpt><trkpt lat="45.98431798291688" lon="12.18926984424329"><ele>527.5</ele><time>2026-04-23T13:11:11Z</time></trkpt><trkpt lat="45.984413161715565" lon="12.189384792267708"><ele>529.0</ele><time>2026-04-23T13:11:12Z</time></trkpt><trkpt lat="45.98450909466026" lon="12.189497462993145"><ele>529.0</ele><time>2026-04-23T13:11:13Z</time></trkpt><trkpt lat="45.98459822434528" lon="12.189618989939218"><ele>529.0</ele><time>2026-04-23T13:11:14Z</time></trkpt><trkpt lat="45.98469422755782" lon="12.189759240371673"><ele>529.0</ele><time>2026-04-23T13:11:15Z</time></trkpt><trkpt lat="45.98479805377413" lon="12.189855359920019"><ele>529.0</ele><time>2026-04-23T13:11:16Z</time></trkpt><trkpt lat="45.9848909597215" lon="12.189937924302225"><ele>528.4</ele><time>2026-04-23T13:11:17Z</time></trkpt><trkpt lat="45.98497802390722" lon="12.190059952975815"><ele>527.8</ele><time>2026-04-23T13:11:18Z</time></trkpt><trkpt lat="45.98505659257236" lon="12.190164279340756"><ele>527.2</ele><time>2026-04-23T13:11:19Z</time></trkpt><trkpt lat="45.98513177152744" lon="12.190288365049401"><ele>526.6</ele><time>2026-04-23T13:11:20Z</time></trkpt><trkpt lat="45.98520045284625" lon="12.190397443599448"><ele>526.0</ele><time>2026-04-23T13:11:21Z</time></trkpt><trkpt lat="45.98525808188916" lon="12.190527748299733"><ele>526.0</ele><time>2026-04-23T13:11:22Z</time></trkpt><trkpt lat="45.98531718932866" lon="12.190625320123631"><ele>526.0</ele><time>2026-04-23T13:11:23Z</time></trkpt><trkpt lat="45.985388970089524" lon="12.190729725283306"><ele>526.0</ele><time>2026-04-23T13:11:24Z</time></trkpt><trkpt lat="45.985464539142846" lon="12.190808164980549"><ele>526.0</ele><time>2026-04-23T13:11:25Z</time></trkpt><trkpt lat="45.98553046777136" lon="12.190854737271653"><ele>526.0</ele><time>2026-04-23T13:11:26Z</time></trkpt><trkpt lat="45.985617450769126" lon="12.190923342443948"><ele>521.5</ele><time>2026-04-23T13:11:28Z</time></trkpt><trkpt lat="45.985535551499694" lon="12.191001086293566"><ele>517.0</ele><time>2026-04-23T13:11:30Z</time></trkpt><trkpt lat="45.985445325729195" lon="12.190975281903631"><ele>512.5</ele><time>2026-04-23T13:11:31Z</time></trkpt><trkpt lat="45.985344616443484" lon="12.190927587760719"><ele>508.0</ele><time>2026-04-23T13:11:32Z</time></trkpt><trkpt lat="45.98526971228736" lon="12.190892160568566"><ele>503.50000000000006</ele><time>2026-04-23T13:11:33Z</time></trkpt><trkpt lat="45.98520378019147" lon="12.190859068977945"><ele>499.0</ele><time>2026-04-23T13:11:34Z</time></trkpt><trkpt lat="45.985134376445714" lon="12.190813562221523"><ele>499.0</ele><time>2026-04-23T13:11:35Z</time></trkpt><trkpt lat="45.98506892238935" lon="12.19072981723264"><ele>499.0</ele><time>2026-04-23T13:11:36Z</time></trkpt><trkpt lat="45.98499814848407" lon="12.190655563862126"><ele>499.0</ele><time>2026-04-23T13:11:37Z</time></trkpt><trkpt lat="45.98490047795635" lon="12.190610353896506"><ele>499.0</ele><time>2026-04-23T13:11:38Z</time></trkpt><trkpt lat="45.984791960553615" lon="12.190576964111015"><ele>499.0</ele><time>2026-04-23T13:11:39Z</time></trkpt><trkpt lat="45.984694033199695" lon="12.19054562637892"><ele>498.5</ele><time>2026-04-23T13:11:40Z</time></trkpt><trkpt lat="45.984594170052965" lon="12.19051054603818"><ele>498.0</ele><time>2026-04-23T13:11:41Z</time></trkpt><trkpt lat="45.9844845460827" lon="12.190474891188842"><ele>497.5</ele><time>2026-04-23T13:11:42Z</time></trkpt><trkpt lat="45.98436548179618" lon="12.190450288099532"><ele>497.0</ele><time>2026-04-23T13:11:43Z</time></trkpt><trkpt lat="45.98424239842494" lon="12.190429161470036"><ele>491.8</ele><time>2026-04-23T13:11:44Z</time></trkpt><trkpt lat="45.984123508152166" lon="12.190429415256114"><ele>486.6</ele><time>2026-04-23T13:11:45Z</time></trkpt><trkpt lat="45.98400634225352" lon="12.190422020406581"><ele>481.40000000000003</ele><time>2026-04-23T13:11:46Z</time></trkpt><trkpt lat="45.98389654380134" lon="12.190390258729577"><ele>476.20000000000005</ele><time>2026-04-23T13:11:47Z</time></trkpt><trkpt lat="45.98380801454953" lon="12.190382529508595"><ele>471.0</ele><time>2026-04-23T13:11:48Z</time></trkpt><trkpt lat="45.983708775751246" lon="12.19039247069684"><ele>471.0</ele><time>2026-04-23T13:11:49Z</time></trkpt><trkpt lat="45.98362031410151" lon="12.19041716697368"><ele>471.0</ele><time>2026-04-23T13:11:50Z</time></trkpt><trkpt lat="45.98351829414028" lon="12.190443361973166"><ele>471.0</ele><time>2026-04-23T13:11:51Z</time></trkpt><trkpt lat="45.98341511527356" lon="12.190458790016008"><ele>471.0</ele><time>2026-04-23T13:11:52Z</time></trkpt><trkpt lat="45.98330831598349" lon="12.190478383772298"><ele>471.0</ele><time>2026-04-23T13:11:53Z</time></trkpt><trkpt lat="45.98320441629641" lon="12.190477530252362"><ele>466.75</ele><time>2026-04-23T13:11:54Z</time></trkpt><trkpt lat="45.98311105861582" lon="12.19043427100675"><ele>462.5</ele><time>2026-04-23T13:11:55Z</time></trkpt><trkpt lat="45.98300426567363" lon="12.190375461306473"><ele>458.25</ele><time>2026-04-23T13:11:56Z</time></trkpt><trkpt lat="45.98287163482592" lon="12.190303523628698"><ele>454.0</ele><time>2026-04-23T13:11:57Z</time></trkpt><trkpt lat="45.982719828471154" lon="12.190227629336826"><ele>454.0</ele><time>2026-04-23T13:11:58Z</time></trkpt><trkpt lat="45.98258255271752" lon="12.190181778028254"><ele>454.0</ele><time>2026-04-23T13:11:59Z</time></trkpt><trkpt lat="45.98247030613633" lon="12.190137406870214"><ele>454.0</ele><time>2026-04-23T13:12:00Z</time></trkpt><trkpt lat="45.98236818324067" lon="12.190099491902014"><ele>454.0</ele><time>2026-04-23T13:12:01Z</time></trkpt><trkpt lat="45.982258783409094" lon="12.190066334326069"><ele>451.0</ele><time>2026-04-23T13:12:02Z</time></trkpt><trkpt lat="45.98215966515484" lon="12.19003243062299"><ele>448.0</ele><time>2026-04-23T13:12:03Z</time></trkpt><trkpt lat="45.982056110626175" lon="12.190021004946345"><ele>445.0</ele><time>2026-04-23T13:12:04Z</time></trkpt><trkpt lat="45.98196101761092" lon="12.190015887457683"><ele>442.0</ele><time>2026-04-23T13:12:05Z</time></trkpt><trkpt lat="45.98186351677501" lon="12.190000427074352"><ele>439.0</ele><time>2026-04-23T13:12:06Z</time></trkpt><trkpt lat="45.98176084751509" lon="12.189966044611772"><ele>443.0</ele><time>2026-04-23T13:12:07Z</time></trkpt><trkpt lat="45.98163899749439" lon="12.189909040182538"><ele>447.0</ele><time>2026-04-23T13:12:08Z</time></trkpt><trkpt lat="45.98151269191774" lon="12.189864686245475"><ele>451.0</ele><time>2026-04-23T13:12:09Z</time></trkpt><trkpt lat="45.9813952067022" lon="12.189824392229706"><ele>455.0</ele><time>2026-04-23T13:12:10Z</time></trkpt><trkpt lat="45.98129673615888" lon="12.189801966785888"><ele>455.0</ele><time>2026-04-23T13:12:11Z</time></trkpt><trkpt lat="45.981194244052205" lon="12.189776543945637"><ele>455.0</ele><time>2026-04-23T13:12:12Z</time></trkpt><trkpt lat="45.981097748076195" lon="12.189739394244818"><ele>455.0</ele><time>2026-04-23T13:12:13Z</time></trkpt><trkpt lat="45.98100346407606" lon="12.189716549296477"><ele>455.0</ele><time>2026-04-23T13:12:14Z</time></trkpt><trkpt lat="45.98090174458465" lon="12.189684065202089"><ele>455.0</ele><time>2026-04-23T13:12:15Z</time></trkpt><trkpt lat="45.98078706708733" lon="12.189675238166448"><ele>449.2</ele><time>2026-04-23T13:12:16Z</time></trkpt><trkpt lat="45.98066998733588" lon="12.189657734491435"><ele>443.4</ele><time>2026-04-23T13:12:17Z</time></trkpt><trkpt lat="45.98057329223998" lon="12.189629106971008"><ele>437.6</ele><time>2026-04-23T13:12:18Z</time></trkpt><trkpt lat="45.98049204144151" lon="12.189588771561162"><ele>431.8</ele><time>2026-04-23T13:12:19Z</time></trkpt><trkpt lat="45.98040511595113" lon="12.189559315039952"><ele>426.0</ele><time>2026-04-23T13:12:20Z</time></trkpt><trkpt lat="45.98031935863138" lon="12.189529112861717"><ele>426.0</ele><time>2026-04-23T13:12:21Z</time></trkpt><trkpt lat="45.980238103259275" lon="12.189489610479372"><ele>426.0</ele><time>2026-04-23T13:12:22Z</time></trkpt><trkpt lat="45.980168207055385" lon="12.189427452960482"><ele>426.0</ele><time>2026-04-23T13:12:23Z</time></trkpt><trkpt lat="45.980099806306875" lon="12.189351573148215"><ele>426.0</ele><time>2026-04-23T13:12:24Z</time></trkpt><trkpt lat="45.98002515036043" lon="12.189244641052364"><ele>426.0</ele><time>2026-04-23T13:12:25Z</time></trkpt><trkpt lat="45.97994372655924" lon="12.18914128350309"><ele>419.8</ele><time>2026-04-23T13:12:26Z</time></trkpt><trkpt lat="45.97986422571196" lon="12.18904624348561"><ele>413.6</ele><time>2026-04-23T13:12:27Z</time></trkpt><trkpt lat="45.97980253677619" lon="12.188959164340993"><ele>407.4</ele><time>2026-04-23T13:12:28Z</time></trkpt><trkpt lat="45.97974645193113" lon="12.188872256180277"><ele>401.2</ele><time>2026-04-23T13:12:29Z</time></trkpt><trkpt lat="45.97970948171776" lon="12.188759443456371"><ele>395.0</ele><time>2026-04-23T13:12:30Z</time></trkpt><trkpt lat="45.979679974026084" lon="12.188594450460496"><ele>395.0</ele><time>2026-04-23T13:12:31Z</time></trkpt><trkpt lat="45.97965464884394" lon="12.188443872697402"><ele>395.0</ele><time>2026-04-23T13:12:32Z</time></trkpt><trkpt lat="45.97961915904324" lon="12.188310712935605"><ele>395.0</ele><time>2026-04-23T13:12:33Z</time></trkpt><trkpt lat="45.97955870894009" lon="12.188185584418381"><ele>395.0</ele><time>2026-04-23T13:12:34Z</time></trkpt><trkpt lat="45.979456998758884" lon="12.1880656005418"><ele>395.0</ele><time>2026-04-23T13:12:35Z</time></trkpt><trkpt lat="45.97933862846754" lon="12.187931540845334"><ele>397.2</ele><time>2026-04-23T13:12:36Z</time></trkpt><trkpt lat="45.97923381112667" lon="12.187824589489605"><ele>399.4</ele><time>2026-04-23T13:12:37Z</time></trkpt><trkpt lat="45.979150511982226" lon="12.187746509129902"><ele>401.6</ele><time>2026-04-23T13:12:38Z</time></trkpt><trkpt lat="45.97908630755659" lon="12.187670130779635"><ele>403.8</ele><time>2026-04-23T13:12:39Z</time></trkpt><trkpt lat="45.979022056527654" lon="12.187559468760409"><ele>406.0</ele><time>2026-04-23T13:12:40Z</time></trkpt><trkpt lat="45.97894344528455" lon="12.18743045507655"><ele>400.5</ele><time>2026-04-23T13:12:41Z</time></trkpt><trkpt lat="45.978862185576816" lon="12.187307171831307"><ele>395.0</ele><time>2026-04-23T13:12:42Z</time></trkpt><trkpt lat="45.978790352465346" lon="12.187183353307011"><ele>389.5</ele><time>2026-04-23T13:12:43Z</time></trkpt><trkpt lat="45.97871148841158" lon="12.187064027612216"><ele>384.0</ele><time>2026-04-23T13:12:44Z</time></trkpt><trkpt lat="45.97863455543604" lon="12.186951420047158"><ele>384.0</ele><time>2026-04-23T13:12:45Z</time></trkpt><trkpt lat="45.97854475028278" lon="12.186854898922899"><ele>384.0</ele><time>2026-04-23T13:12:46Z</time></trkpt><trkpt lat="45.978469098306775" lon="12.186798936488406"><ele>384.0</ele><time>2026-04-23T13:12:47Z</time></trkpt><trkpt lat="45.97840024645405" lon="12.186742322575803"><ele>384.0</ele><time>2026-04-23T13:12:48Z</time></trkpt><trkpt lat="45.978347954563645" lon="12.186662875757001"><ele>384.0</ele><time>2026-04-23T13:12:49Z</time></trkpt><trkpt lat="45.978303876934945" lon="12.186546306972074"><ele>384.0</ele><time>2026-04-23T13:12:50Z</time></trkpt><trkpt lat="45.978244830914846" lon="12.1864433152329"><ele>378.79999999999995</ele><time>2026-04-23T13:12:51Z</time></trkpt><trkpt lat="45.97815510236179" lon="12.186358350068542"><ele>373.59999999999997</ele><time>2026-04-23T13:12:52Z</time></trkpt><trkpt lat="45.978068867919156" lon="12.186272838220388"><ele>368.4</ele><time>2026-04-23T13:12:53Z</time></trkpt><trkpt lat="45.977972494701866" lon="12.186197138330089"><ele>363.2</ele><time>2026-04-23T13:12:54Z</time></trkpt><trkpt lat="45.97788644588563" lon="12.186120683003939"><ele>358.0</ele><time>2026-04-23T13:12:55Z</time></trkpt><trkpt lat="45.97782061779246" lon="12.18604914959231"><ele>358.0</ele><time>2026-04-23T13:12:56Z</time></trkpt><trkpt lat="45.977769716416695" lon="12.185981083774816"><ele>358.0</ele><time>2026-04-23T13:12:57Z</time></trkpt><trkpt lat="45.97773987761256" lon="12.185893205991679"><ele>358.0</ele><time>2026-04-23T13:12:58Z</time></trkpt><trkpt lat="45.97772218279165" lon="12.185794410400877"><ele>358.0</ele><time>2026-04-23T13:12:59Z</time></trkpt><trkpt lat="45.97770038935542" lon="12.185705138364542"><ele>358.0</ele><time>2026-04-23T13:13:00Z</time></trkpt><trkpt lat="45.97765449352017" lon="12.185590037645298"><ele>358.0</ele><time>2026-04-23T13:13:01Z</time></trkpt><trkpt lat="45.97756418181636" lon="12.185492724549743"><ele>353.0</ele><time>2026-04-23T13:13:02Z</time></trkpt><trkpt lat="45.977469954941455" lon="12.185414627052491"><ele>348.0</ele><time>2026-04-23T13:13:03Z</time></trkpt><trkpt lat="45.97738620680264" lon="12.185336272976905"><ele>343.0</ele><time>2026-04-23T13:13:04Z</time></trkpt><trkpt lat="45.97731372934767" lon="12.185269028140253"><ele>338.0</ele><time>2026-04-23T13:13:05Z</time></trkpt><trkpt lat="45.97722389511989" lon="12.185183115839685"><ele>333.0</ele><time>2026-04-23T13:13:06Z</time></trkpt><trkpt lat="45.977157121608535" lon="12.1851055485734"><ele>333.0</ele><time>2026-04-23T13:13:07Z</time></trkpt><trkpt lat="45.977097524446755" lon="12.185016767156785"><ele>333.0</ele><time>2026-04-23T13:13:08Z</time></trkpt><trkpt lat="45.97702684110929" lon="12.184893535418874"><ele>333.0</ele><time>2026-04-23T13:13:09Z</time></trkpt><trkpt lat="45.97695765307795" lon="12.18476586809883"><ele>333.0</ele><time>2026-04-23T13:13:10Z</time></trkpt><trkpt lat="45.97688452993672" lon="12.18463875698565"><ele>333.0</ele><time>2026-04-23T13:13:11Z</time></trkpt><trkpt lat="45.97681928301688" lon="12.184524919068082"><ele>337.4</ele><time>2026-04-23T13:13:12Z</time></trkpt><trkpt lat="45.97675707962568" lon="12.184413540267915"><ele>341.79999999999995</ele><time>2026-04-23T13:13:13Z</time></trkpt><trkpt lat="45.97670196681137" lon="12.184303835147585"><ele>346.2</ele><time>2026-04-23T13:13:14Z</time></trkpt><trkpt lat="45.97665351959688" lon="12.184170747950535"><ele>350.6</ele><time>2026-04-23T13:13:15Z</time></trkpt><trkpt lat="45.97661072437801" lon="12.184043197484995"><ele>355.0</ele><time>2026-04-23T13:13:16Z</time></trkpt><trkpt lat="45.97657251353195" lon="12.183926130144844"><ele>345.0</ele><time>2026-04-23T13:13:17Z</time></trkpt><trkpt lat="45.97654720954345" lon="12.183787080754241"><ele>335.0</ele><time>2026-04-23T13:13:18Z</time></trkpt><trkpt lat="45.976525541822745" lon="12.183632075967566"><ele>325.0</ele><time>2026-04-23T13:13:19Z</time></trkpt><trkpt lat="45.976507712366015" lon="12.183483318491689"><ele>315.0</ele><time>2026-04-23T13:13:20Z</time></trkpt><trkpt lat="45.976484230394746" lon="12.183341803987581"><ele>305.0</ele><time>2026-04-23T13:13:21Z</time></trkpt><trkpt lat="45.97647751456261" lon="12.183216717944159"><ele>302.2</ele><time>2026-04-23T13:13:22Z</time></trkpt><trkpt lat="45.97648855980707" lon="12.183108570988535"><ele>299.4</ele><time>2026-04-23T13:13:23Z</time></trkpt><trkpt lat="45.97651294230347" lon="12.182989165241937"><ele>296.6</ele><time>2026-04-23T13:13:24Z</time></trkpt><trkpt lat="45.97656007750714" lon="12.182836485251771"><ele>293.8</ele><time>2026-04-23T13:13:25Z</time></trkpt><trkpt lat="45.97660425724655" lon="12.182644205342749"><ele>291.0</ele><time>2026-04-23T13:13:26Z</time></trkpt><trkpt lat="45.976637799609136" lon="12.182477258575387"><ele>287.6</ele><time>2026-04-23T13:13:27Z</time></trkpt><trkpt lat="45.97666975099295" lon="12.182326782978155"><ele>284.20000000000005</ele><time>2026-04-23T13:13:28Z</time></trkpt><trkpt lat="45.976705510464065" lon="12.18219449474183"><ele>280.79999999999995</ele><time>2026-04-23T13:13:29Z</time></trkpt><trkpt lat="45.976757603282806" lon="12.182070268251744"><ele>277.4</ele><time>2026-04-23T13:13:30Z</time></trkpt><trkpt lat="45.976812533248555" lon="12.181953994170323"><ele>274.0</ele><time>2026-04-23T13:13:31Z</time></trkpt><trkpt lat="45.97686154215682" lon="12.181843616754024"><ele>276.8</ele><time>2026-04-23T13:13:32Z</time></trkpt><trkpt lat="45.97689200781795" lon="12.181715663686937"><ele>279.59999999999997</ele><time>2026-04-23T13:13:33Z</time></trkpt><trkpt lat="45.97690195747266" lon="12.181549699617815"><ele>282.4</ele><time>2026-04-23T13:13:34Z</time></trkpt><trkpt lat="45.97696139005544" lon="12.181392902859711"><ele>285.2</ele><time>2026-04-23T13:13:35Z</time></trkpt><trkpt lat="45.9769830926799" lon="12.181258975600628"><ele>288.0</ele><time>2026-04-23T13:13:36Z</time></trkpt><trkpt lat="45.97700525109977" lon="12.181152641685356"><ele>288.0</ele><time>2026-04-23T13:13:37Z</time></trkpt><trkpt lat="45.97703559958932" lon="12.181064603206124"><ele>288.0</ele><time>2026-04-23T13:13:38Z</time></trkpt><trkpt lat="45.97709839889484" lon="12.180956317239554"><ele>288.0</ele><time>2026-04-23T13:13:39Z</time></trkpt><trkpt lat="45.97720536327001" lon="12.180847263717169"><ele>288.0</ele><time>2026-04-23T13:13:40Z</time></trkpt><trkpt lat="45.97733044792314" lon="12.180739075715367"><ele>288.0</ele><time>2026-04-23T13:13:41Z</time></trkpt><trkpt lat="45.97743493425421" lon="12.180637871831784"><ele>284.8</ele><time>2026-04-23T13:13:42Z</time></trkpt><trkpt lat="45.97752991312875" lon="12.180530596513433"><ele>281.6</ele><time>2026-04-23T13:13:43Z</time></trkpt><trkpt lat="45.97760758307803" lon="12.180418299664815"><ele>278.4</ele><time>2026-04-23T13:13:44Z</time></trkpt><trkpt lat="45.97767789646511" lon="12.1803269843675"><ele>275.2</ele><time>2026-04-23T13:13:45Z</time></trkpt><trkpt lat="45.97776670409103" lon="12.180270883802912"><ele>272.0</ele><time>2026-04-23T13:13:46Z</time></trkpt><trkpt lat="45.97787588699144" lon="12.180218529255491"><ele>272.0</ele><time>2026-04-23T13:13:47Z</time></trkpt><trkpt lat="45.97799719212231" lon="12.180172400770992"><ele>272.0</ele><time>2026-04-23T13:13:48Z</time></trkpt><trkpt lat="45.978108859748794" lon="12.180117170988181"><ele>272.0</ele><time>2026-04-23T13:13:49Z</time></trkpt><trkpt lat="45.97820286763578" lon="12.180059059312628"><ele>272.0</ele><time>2026-04-23T13:13:50Z</time></trkpt><trkpt lat="45.97829728901804" lon="12.179993881722485"><ele>270.8</ele><time>2026-04-23T13:13:51Z</time></trkpt><trkpt lat="45.97838652920767" lon="12.17989407577326"><ele>269.6</ele><time>2026-04-23T13:13:52Z</time></trkpt><trkpt lat="45.97847054758574" lon="12.179788226985115"><ele>268.40000000000003</ele><time>2026-04-23T13:13:53Z</time></trkpt><trkpt lat="45.9785424307833" lon="12.179679566249028"><ele>267.2</ele><time>2026-04-23T13:13:54Z</time></trkpt><trkpt lat="45.978613299249055" lon="12.179578131590613"><ele>266.0</ele><time>2026-04-23T13:13:55Z</time></trkpt><trkpt lat="45.978675935065816" lon="12.179462710905844"><ele>266.0</ele><time>2026-04-23T13:13:56Z</time></trkpt><trkpt lat="45.97872789754301" lon="12.179343512352018"><ele>266.0</ele><time>2026-04-23T13:13:57Z</time></trkpt><trkpt lat="45.97876376385808" lon="12.179217683160338"><ele>266.0</ele><time>2026-04-23T13:13:58Z</time></trkpt><trkpt lat="45.97876403559957" lon="12.179075879414363"><ele>266.0</ele><time>2026-04-23T13:13:59Z</time></trkpt><trkpt lat="45.97873907559841" lon="12.178920800850413"><ele>266.0</ele><time>2026-04-23T13:14:00Z</time></trkpt><trkpt lat="45.978680838217" lon="12.178752101942893"><ele>264.0</ele><time>2026-04-23T13:14:01Z</time></trkpt><trkpt lat="45.97860869582656" lon="12.1785705792403"><ele>262.0</ele><time>2026-04-23T13:14:02Z</time></trkpt><trkpt lat="45.9785474050331" lon="12.17839276596182"><ele>260.0</ele><time>2026-04-23T13:14:03Z</time></trkpt><trkpt lat="45.97849900332159" lon="12.178233992393222"><ele>258.0</ele><time>2026-04-23T13:14:04Z</time></trkpt><trkpt lat="45.97844934452686" lon="12.17808658978431"><ele>258.0</ele><time>2026-04-23T13:14:05Z</time></trkpt><trkpt lat="45.97840120124431" lon="12.177957186686575"><ele>258.0</ele><time>2026-04-23T13:14:06Z</time></trkpt><trkpt lat="45.978360669378574" lon="12.177833151743455"><ele>258.0</ele><time>2026-04-23T13:14:07Z</time></trkpt><trkpt lat="45.97832902462138" lon="12.177725202775125"><ele>258.0</ele><time>2026-04-23T13:14:08Z</time></trkpt><trkpt lat="45.97828623692893" lon="12.177599110469298"><ele>258.0</ele><time>2026-04-23T13:14:09Z</time></trkpt><trkpt lat="45.97822337585082" lon="12.177452402724033"><ele>257.0</ele><time>2026-04-23T13:14:10Z</time></trkpt><trkpt lat="45.978130992654094" lon="12.177316872395622"><ele>256.0</ele><time>2026-04-23T13:14:11Z</time></trkpt><trkpt lat="45.97802420952028" lon="12.177210118088563"><ele>255.0</ele><time>2026-04-23T13:14:12Z</time></trkpt><trkpt lat="45.977942436832" lon="12.177115958489061"><ele>254.0</ele><time>2026-04-23T13:14:13Z</time></trkpt><trkpt lat="45.9778779959288" lon="12.177040180449529"><ele>254.0</ele><time>2026-04-23T13:14:14Z</time></trkpt><trkpt lat="45.9778150218297" lon="12.176930092196585"><ele>253.99999999999997</ele><time>2026-04-23T13:14:16Z</time></trkpt><trkpt lat="45.977727166905055" lon="12.176923172917208"><ele>253.99999999999997</ele><time>2026-04-23T13:14:18Z</time></trkpt><trkpt lat="45.97763897282853" lon="12.176901906203856"><ele>254.0</ele><time>2026-04-23T13:14:19Z</time></trkpt><trkpt lat="45.97753620458447" lon="12.176903828625758"><ele>254.0</ele><time>2026-04-23T13:14:20Z</time></trkpt><trkpt lat="45.97741963346006" lon="12.176930030762538"><ele>253.0</ele><time>2026-04-23T13:14:21Z</time></trkpt><trkpt lat="45.97730878168927" lon="12.176995283582064"><ele>252.0</ele><time>2026-04-23T13:14:22Z</time></trkpt><trkpt lat="45.97717721578009" lon="12.177053364923038"><ele>251.0</ele><time>2026-04-23T13:14:23Z</time></trkpt><trkpt lat="45.97703893668932" lon="12.177129260331512"><ele>250.0</ele><time>2026-04-23T13:14:24Z</time></trkpt><trkpt lat="45.976892835500536" lon="12.177172272032907"><ele>250.0</ele><time>2026-04-23T13:14:25Z</time></trkpt><trkpt lat="45.97674395924506" lon="12.17723770068245"><ele>250.0</ele><time>2026-04-23T13:14:26Z</time></trkpt><trkpt lat="45.976614636682235" lon="12.177337414392442"><ele>250.0</ele><time>2026-04-23T13:14:27Z</time></trkpt><trkpt lat="45.97650406134822" lon="12.177425226892366"><ele>250.0</ele><time>2026-04-23T13:14:28Z</time></trkpt><trkpt lat="45.976417377252936" lon="12.177564624358942"><ele>249.0</ele><time>2026-04-23T13:14:29Z</time></trkpt><trkpt lat="45.97636614185813" lon="12.17773321125278"><ele>248.0</ele><time>2026-04-23T13:14:30Z</time></trkpt><trkpt lat="45.97633947185291" lon="12.17793297549203"><ele>247.0</ele><time>2026-04-23T13:14:31Z</time></trkpt><trkpt lat="45.976338356702136" lon="12.178154533797244"><ele>246.0</ele><time>2026-04-23T13:14:32Z</time></trkpt><trkpt lat="45.97631025332575" lon="12.178381003940705"><ele>246.0</ele><time>2026-04-23T13:14:33Z</time></trkpt><trkpt lat="45.97626081355752" lon="12.178607714107445"><ele>246.0</ele><time>2026-04-23T13:14:34Z</time></trkpt><trkpt lat="45.976188293347306" lon="12.178833511786426"><ele>246.0</ele><time>2026-04-23T13:14:35Z</time></trkpt><trkpt lat="45.97610830839699" lon="12.179054334333099"><ele>247.0</ele><time>2026-04-23T13:14:36Z</time></trkpt><trkpt lat="45.97602672595722" lon="12.179264184459113"><ele>248.0</ele><time>2026-04-23T13:14:37Z</time></trkpt><trkpt lat="45.97594546053994" lon="12.179450333485343"><ele>249.0</ele><time>2026-04-23T13:14:38Z</time></trkpt><trkpt lat="45.97586159626952" lon="12.179627631702841"><ele>245.33333333333331</ele><time>2026-04-23T13:14:39Z</time></trkpt><trkpt lat="45.97575825890529" lon="12.179813489378946"><ele>241.66666666666666</ele><time>2026-04-23T13:14:40Z</time></trkpt><trkpt lat="45.97564671009141" lon="12.180021721560813"><ele>238.0</ele><time>2026-04-23T13:14:41Z</time></trkpt><trkpt lat="45.97549911563732" lon="12.180198155554276"><ele>238.0</ele><time>2026-04-23T13:14:42Z</time></trkpt><trkpt lat="45.97535657673147" lon="12.180401682052175"><ele>238.0</ele><time>2026-04-23T13:14:43Z</time></trkpt><trkpt lat="45.97526568724852" lon="12.180631036986844"><ele>238.0</ele><time>2026-04-23T13:14:44Z</time></trkpt><trkpt lat="45.975194384469276" lon="12.180869590368054"><ele>238.0</ele><time>2026-04-23T13:14:45Z</time></trkpt><trkpt lat="45.97515504471717" lon="12.181145303662507"><ele>238.0</ele><time>2026-04-23T13:14:46Z</time></trkpt><trkpt lat="45.97512780836497" lon="12.181440464900085"><ele>238.0</ele><time>2026-04-23T13:14:47Z</time></trkpt><trkpt lat="45.975077325561244" lon="12.18173017434904"><ele>238.33333333333331</ele><time>2026-04-23T13:14:48Z</time></trkpt><trkpt lat="45.9750367771892" lon="12.182003993474432"><ele>238.66666666666669</ele><time>2026-04-23T13:14:49Z</time></trkpt><trkpt lat="45.97500039802487" lon="12.182245771250871"><ele>239.0</ele><time>2026-04-23T13:14:50Z</time></trkpt><trkpt lat="45.97496669838872" lon="12.182469740717943"><ele>238.39999999999998</ele><time>2026-04-23T13:14:51Z</time></trkpt><trkpt lat="45.97493983575298" lon="12.182648271153116"><ele>237.79999999999998</ele><time>2026-04-23T13:14:52Z</time></trkpt><trkpt lat="45.9749163410842" lon="12.18279837424281"><ele>237.20000000000002</ele><time>2026-04-23T13:14:53Z</time></trkpt><trkpt lat="45.974895416634574" lon="12.182929126538559"><ele>236.60000000000002</ele><time>2026-04-23T13:14:54Z</time></trkpt><trkpt lat="45.97487739123612" lon="12.183030106370516"><ele>236.0</ele><time>2026-04-23T13:14:55Z</time></trkpt><trkpt lat="45.97481742727318" lon="12.18307889316481"><ele>236.0</ele><time>2026-04-23T13:14:57Z</time></trkpt><trkpt lat="45.974769037694436" lon="12.18285559110668"><ele>236.0</ele><time>2026-04-23T13:14:59Z</time></trkpt><trkpt lat="45.97474531771649" lon="12.182698274632608"><ele>236.0</ele><time>2026-04-23T13:15:00Z</time></trkpt><trkpt lat="45.97472913294231" lon="12.182513000545041"><ele>236.0</ele><time>2026-04-23T13:15:01Z</time></trkpt><trkpt lat="45.974697220072386" lon="12.18229574131688"><ele>234.33333333333334</ele><time>2026-04-23T13:15:02Z</time></trkpt><trkpt lat="45.97466143567208" lon="12.18205487460353"><ele>232.66666666666669</ele><time>2026-04-23T13:15:03Z</time></trkpt><trkpt lat="45.97462681115548" lon="12.18180645147807"><ele>231.0</ele><time>2026-04-23T13:15:04Z</time></trkpt><trkpt lat="45.974585256471265" lon="12.181527369963954"><ele>231.33333333333331</ele><time>2026-04-23T13:15:05Z</time></trkpt><trkpt lat="45.97453839206504" lon="12.181233369995752"><ele>231.66666666666666</ele><time>2026-04-23T13:15:06Z</time></trkpt><trkpt lat="45.97449387110669" lon="12.180939509197307"><ele>232.0</ele><time>2026-04-23T13:15:07Z</time></trkpt><trkpt lat="45.97444872183975" lon="12.180636437634403"><ele>232.66666666666666</ele><time>2026-04-23T13:15:08Z</time></trkpt><trkpt lat="45.9744007093253" lon="12.180332644393408"><ele>233.33333333333331</ele><time>2026-04-23T13:15:09Z</time></trkpt><trkpt lat="45.97435566801817" lon="12.180016705202174"><ele>234.0</ele><time>2026-04-23T13:15:10Z</time></trkpt><trkpt lat="45.9743122498841" lon="12.179690096765405"><ele>235.5</ele><time>2026-04-23T13:15:11Z</time></trkpt><trkpt lat="45.97426869234102" lon="12.179354044529209"><ele>237.0</ele><time>2026-04-23T13:15:12Z</time></trkpt><trkpt lat="45.974220344277526" lon="12.179009008947878"><ele>237.0</ele><time>2026-04-23T13:15:13Z</time></trkpt><trkpt lat="45.97416848746128" lon="12.178663361148867"><ele>237.0</ele><time>2026-04-23T13:15:14Z</time></trkpt><trkpt lat="45.97411995101181" lon="12.17834368864249"><ele>236.66666666666669</ele><time>2026-04-23T13:15:15Z</time></trkpt><trkpt lat="45.97407771945709" lon="12.178062376050748"><ele>236.33333333333334</ele><time>2026-04-23T13:15:16Z</time></trkpt><trkpt lat="45.97404061946047" lon="12.177800838931594"><ele>236.0</ele><time>2026-04-23T13:15:17Z</time></trkpt><trkpt lat="45.974003565969305" lon="12.177559031375273"><ele>235.66666666666669</ele><time>2026-04-23T13:15:18Z</time></trkpt><trkpt lat="45.97398779045027" lon="12.177329960758486"><ele>235.33333333333331</ele><time>2026-04-23T13:15:19Z</time></trkpt><trkpt lat="45.973964921379284" lon="12.17711720681356"><ele>235.0</ele><time>2026-04-23T13:15:20Z</time></trkpt><trkpt lat="45.9739385473701" lon="12.176917707364053"><ele>235.0</ele><time>2026-04-23T13:15:21Z</time></trkpt><trkpt lat="45.97396032184576" lon="12.176734815663805"><ele>235.0</ele><time>2026-04-23T13:15:22Z</time></trkpt><trkpt lat="45.973982240720055" lon="12.176554519431576"><ele>235.0</ele><time>2026-04-23T13:15:23Z</time></trkpt><trkpt lat="45.97384710170691" lon="12.176328066876229"><ele>235.33333333333331</ele><time>2026-04-23T13:15:24Z</time></trkpt><trkpt lat="45.97379286587044" lon="12.176109640466716"><ele>235.66666666666669</ele><time>2026-04-23T13:15:25Z</time></trkpt><trkpt lat="45.97375162226053" lon="12.175864883356365"><ele>236.0</ele><time>2026-04-23T13:15:26Z</time></trkpt><trkpt lat="45.97371741626498" lon="12.175611682545536"><ele>236.66666666666669</ele><time>2026-04-23T13:15:27Z</time></trkpt><trkpt lat="45.97368544494619" lon="12.17534062758568"><ele>237.33333333333331</ele><time>2026-04-23T13:15:28Z</time></trkpt><trkpt lat="45.973652372818115" lon="12.175063055081964"><ele>238.0</ele><time>2026-04-23T13:15:29Z</time></trkpt><trkpt lat="45.973615199764666" lon="12.174781067492185"><ele>238.0</ele><time>2026-04-23T13:15:30Z</time></trkpt><trkpt lat="45.97356593590916" lon="12.174483753982813"><ele>238.0</ele><time>2026-04-23T13:15:31Z</time></trkpt><trkpt lat="45.973509696891995" lon="12.17418086723314"><ele>238.0</ele><time>2026-04-23T13:15:32Z</time></trkpt><trkpt lat="45.973446638324205" lon="12.173878375982444"><ele>238.66666666666666</ele><time>2026-04-23T13:15:33Z</time></trkpt><trkpt lat="45.97337397888053" lon="12.173588208336168"><ele>239.33333333333331</ele><time>2026-04-23T13:15:34Z</time></trkpt><trkpt lat="45.97329419903526" lon="12.173302836451947"><ele>240.0</ele><time>2026-04-23T13:15:35Z</time></trkpt><trkpt lat="45.97320767864309" lon="12.173018666234887"><ele>244.0</ele><time>2026-04-23T13:15:36Z</time></trkpt><trkpt lat="45.97312297054482" lon="12.17273459866283"><ele>248.0</ele><time>2026-04-23T13:15:37Z</time></trkpt><trkpt lat="45.97304298150822" lon="12.172458679403082"><ele>252.0</ele><time>2026-04-23T13:15:38Z</time></trkpt><trkpt lat="45.97296019680248" lon="12.172184595358488"><ele>259.6666666666667</ele><time>2026-04-23T13:15:39Z</time></trkpt><trkpt lat="45.972875165651175" lon="12.171913912812467"><ele>267.33333333333337</ele><time>2026-04-23T13:15:40Z</time></trkpt><trkpt lat="45.97279457522976" lon="12.171640207248968"><ele>275.0</ele><time>2026-04-23T13:15:41Z</time></trkpt><trkpt lat="45.97271586647934" lon="12.171360486724511"><ele>282.33333333333337</ele><time>2026-04-23T13:15:42Z</time></trkpt><trkpt lat="45.97263613184461" lon="12.171069612271927"><ele>289.6666666666667</ele><time>2026-04-23T13:15:43Z</time></trkpt><trkpt lat="45.97255816478491" lon="12.170765465895773"><ele>297.0</ele><time>2026-04-23T13:15:44Z</time></trkpt><trkpt lat="45.97250720684591" lon="12.170451030816913"><ele>276.5</ele><time>2026-04-23T13:15:45Z</time></trkpt><trkpt lat="45.972435271187244" lon="12.17013871037725"><ele>256.0</ele><time>2026-04-23T13:15:46Z</time></trkpt><trkpt lat="45.97238409000165" lon="12.169824044014959"><ele>256.0</ele><time>2026-04-23T13:15:47Z</time></trkpt><trkpt lat="45.972332836114184" lon="12.169512974213298"><ele>256.0</ele><time>2026-04-23T13:15:48Z</time></trkpt><trkpt lat="45.97227908368613" lon="12.169207683546208"><ele>256.0</ele><time>2026-04-23T13:15:49Z</time></trkpt><trkpt lat="45.97222027751574" lon="12.168899570134219"><ele>258.66666666666663</ele><time>2026-04-23T13:15:50Z</time></trkpt><trkpt lat="45.97216267025162" lon="12.168590367402096"><ele>261.3333333333333</ele><time>2026-04-23T13:15:51Z</time></trkpt><trkpt lat="45.972104984752214" lon="12.168282627639403"><ele>264.0</ele><time>2026-04-23T13:15:52Z</time></trkpt><trkpt lat="45.97204986138399" lon="12.167975929841164"><ele>265.3333333333333</ele><time>2026-04-23T13:15:53Z</time></trkpt><trkpt lat="45.97199744408911" lon="12.167669377806725"><ele>266.66666666666663</ele><time>2026-04-23T13:15:54Z</time></trkpt><trkpt lat="45.97194771614218" lon="12.167371624635527"><ele>268.0</ele><time>2026-04-23T13:15:55Z</time></trkpt><trkpt lat="45.97189984408375" lon="12.167094958307667"><ele>268.66666666666663</ele><time>2026-04-23T13:15:56Z</time></trkpt><trkpt lat="45.971849647364" lon="12.166820436738421"><ele>269.3333333333333</ele><time>2026-04-23T13:15:57Z</time></trkpt><trkpt lat="45.971801791457985" lon="12.166543999955516"><ele>270.0</ele><time>2026-04-23T13:15:58Z</time></trkpt><trkpt lat="45.97179068165643" lon="12.166248197327256"><ele>268.3333333333333</ele><time>2026-04-23T13:15:59Z</time></trkpt><trkpt lat="45.97176305953992" lon="12.165951295662008"><ele>266.66666666666663</ele><time>2026-04-23T13:16:00Z</time></trkpt><trkpt lat="45.97175849535197" lon="12.165651507561135"><ele>265.0</ele><time>2026-04-23T13:16:01Z</time></trkpt><trkpt lat="45.97174999399864" lon="12.165340917092264"><ele>263.66666666666663</ele><time>2026-04-23T13:16:02Z</time></trkpt><trkpt lat="45.97174035349419" lon="12.165029633995877"><ele>262.3333333333333</ele><time>2026-04-23T13:16:03Z</time></trkpt><trkpt lat="45.97173596739084" lon="12.164748311230973"><ele>261.0</ele><time>2026-04-23T13:16:04Z</time></trkpt><trkpt lat="45.97173441045719" lon="12.164493905238263"><ele>261.0</ele><time>2026-04-23T13:16:05Z</time></trkpt><trkpt lat="45.97173302107829" lon="12.164258304332309"><ele>261.0</ele><time>2026-04-23T13:16:06Z</time></trkpt><trkpt lat="45.97173145017293" lon="12.164034938452618"><ele>261.0</ele><time>2026-04-23T13:16:07Z</time></trkpt><trkpt lat="45.97172613401732" lon="12.163811593934614"><ele>261.0</ele><time>2026-04-23T13:16:08Z</time></trkpt><trkpt lat="45.971721502876434" lon="12.163586010738005"><ele>261.0</ele><time>2026-04-23T13:16:09Z</time></trkpt><trkpt lat="45.97171411160029" lon="12.163355456602007"><ele>261.0</ele><time>2026-04-23T13:16:10Z</time></trkpt><trkpt lat="45.97171049014025" lon="12.163127652565022"><ele>261.0</ele><time>2026-04-23T13:16:11Z</time></trkpt><trkpt lat="45.97171438554888" lon="12.16292572739091"><ele>261.0</ele><time>2026-04-23T13:16:12Z</time></trkpt><trkpt lat="45.971716677415984" lon="12.162730798390802"><ele>261.0</ele><time>2026-04-23T13:16:13Z</time></trkpt><trkpt lat="45.97172266396932" lon="12.162517521728132"><ele>261.0</ele><time>2026-04-23T13:16:14Z</time></trkpt><trkpt lat="45.971727589386106" lon="12.162292998671072"><ele>261.0</ele><time>2026-04-23T13:16:15Z</time></trkpt><trkpt lat="45.971718076268736" lon="12.162057527649544"><ele>261.0</ele><time>2026-04-23T13:16:16Z</time></trkpt><trkpt lat="45.97170715765967" lon="12.161827200068235"><ele>261.0</ele><time>2026-04-23T13:16:17Z</time></trkpt><trkpt lat="45.97169210816539" lon="12.161603840430159"><ele>254.0</ele><time>2026-04-23T13:16:18Z</time></trkpt><trkpt lat="45.971664313857424" lon="12.161390414860252"><ele>247.0</ele><time>2026-04-23T13:16:19Z</time></trkpt><trkpt lat="45.97161627083983" lon="12.161173529555176"><ele>240.0</ele><time>2026-04-23T13:16:20Z</time></trkpt><trkpt lat="45.971564942670646" lon="12.160947204074537"><ele>240.0</ele><time>2026-04-23T13:16:21Z</time></trkpt><trkpt lat="45.97151246378603" lon="12.160720040574004"><ele>240.0</ele><time>2026-04-23T13:16:22Z</time></trkpt><trkpt lat="45.97145513160648" lon="12.160498967796643"><ele>240.0</ele><time>2026-04-23T13:16:23Z</time></trkpt><trkpt lat="45.97139411247594" lon="12.160284080953081"><ele>244.33333333333331</ele><time>2026-04-23T13:16:24Z</time></trkpt><trkpt lat="45.97133581246644" lon="12.160067853043302"><ele>248.66666666666666</ele><time>2026-04-23T13:16:25Z</time></trkpt><trkpt lat="45.97128078366925" lon="12.159853453913083"><ele>253.0</ele><time>2026-04-23T13:16:26Z</time></trkpt><trkpt lat="45.971225700713966" lon="12.159640715882658"><ele>258.3333333333333</ele><time>2026-04-23T13:16:27Z</time></trkpt><trkpt lat="45.971170939569" lon="12.159432334759856"><ele>263.6666666666667</ele><time>2026-04-23T13:16:28Z</time></trkpt><trkpt lat="45.97111911684936" lon="12.15922765640662"><ele>269.0</ele><time>2026-04-23T13:16:29Z</time></trkpt><trkpt lat="45.971060234188606" lon="12.159014203306947"><ele>272.0</ele><time>2026-04-23T13:16:30Z</time></trkpt><trkpt lat="45.970999101131994" lon="12.158790186480037"><ele>275.0</ele><time>2026-04-23T13:16:31Z</time></trkpt><trkpt lat="45.97093851956711" lon="12.158563577566827"><ele>278.0</ele><time>2026-04-23T13:16:32Z</time></trkpt><trkpt lat="45.9708771553065" lon="12.158339183997876"><ele>271.0</ele><time>2026-04-23T13:16:33Z</time></trkpt><trkpt lat="45.970795428882155" lon="12.158124103925598"><ele>264.0</ele><time>2026-04-23T13:16:34Z</time></trkpt><trkpt lat="45.97070687937511" lon="12.157914296587487"><ele>257.0</ele><time>2026-04-23T13:16:35Z</time></trkpt><trkpt lat="45.97060218217143" lon="12.157697447019734"><ele>257.0</ele><time>2026-04-23T13:16:36Z</time></trkpt><trkpt lat="45.970495226289955" lon="12.157483311214095"><ele>257.0</ele><time>2026-04-23T13:16:37Z</time></trkpt><trkpt lat="45.9703945554724" lon="12.157294628865486"><ele>257.0</ele><time>2026-04-23T13:16:38Z</time></trkpt><trkpt lat="45.970289887987" lon="12.157113446372461"><ele>261.33333333333337</ele><time>2026-04-23T13:16:39Z</time></trkpt><trkpt lat="45.97018470511747" lon="12.156932669479477"><ele>265.6666666666667</ele><time>2026-04-23T13:16:40Z</time></trkpt><trkpt lat="45.970081870027514" lon="12.156737766408439"><ele>270.0</ele><time>2026-04-23T13:16:41Z</time></trkpt><trkpt lat="45.969980719384466" lon="12.15653862189062"><ele>263.6666666666667</ele><time>2026-04-23T13:16:42Z</time></trkpt><trkpt lat="45.96987644902729" lon="12.15634576988961"><ele>257.33333333333337</ele><time>2026-04-23T13:16:43Z</time></trkpt><trkpt lat="45.969771779959856" lon="12.156160502070378"><ele>251.0</ele><time>2026-04-23T13:16:44Z</time></trkpt><trkpt lat="45.96966342194176" lon="12.155975087003037"><ele>251.0</ele><time>2026-04-23T13:16:45Z</time></trkpt><trkpt lat="45.96955821541783" lon="12.155784886007078"><ele>251.0</ele><time>2026-04-23T13:16:46Z</time></trkpt><trkpt lat="45.969454999140616" lon="12.155590546378082"><ele>251.0</ele><time>2026-04-23T13:16:47Z</time></trkpt><trkpt lat="45.96935191164637" lon="12.155399049127231"><ele>249.66666666666669</ele><time>2026-04-23T13:16:48Z</time></trkpt><trkpt lat="45.969245995981645" lon="12.155202359460622"><ele>248.33333333333331</ele><time>2026-04-23T13:16:49Z</time></trkpt><trkpt lat="45.9691351735436" lon="12.155006200802655"><ele>247.0</ele><time>2026-04-23T13:16:50Z</time></trkpt><trkpt lat="45.96903235550871" lon="12.154818846662597"><ele>249.0</ele><time>2026-04-23T13:16:51Z</time></trkpt><trkpt lat="45.96893979518912" lon="12.154641411244882"><ele>251.0</ele><time>2026-04-23T13:16:52Z</time></trkpt><trkpt lat="45.96885168001907" lon="12.154480235693633"><ele>253.0</ele><time>2026-04-23T13:16:53Z</time></trkpt><trkpt lat="45.968767840556026" lon="12.15432890845163"><ele>255.0</ele><time>2026-04-23T13:16:54Z</time></trkpt><trkpt lat="45.96868647418131" lon="12.154173782695803"><ele>256.75</ele><time>2026-04-23T13:16:55Z</time></trkpt><trkpt lat="45.96860255367812" lon="12.15401361494535"><ele>258.5</ele><time>2026-04-23T13:16:56Z</time></trkpt><trkpt lat="45.9685229737229" lon="12.153860991874119"><ele>260.25</ele><time>2026-04-23T13:16:57Z</time></trkpt><trkpt lat="45.96843214412672" lon="12.153691280813387"><ele>262.0</ele><time>2026-04-23T13:16:58Z</time></trkpt><trkpt lat="45.968356212424105" lon="12.15354316177161"><ele>259.75</ele><time>2026-04-23T13:16:59Z</time></trkpt><trkpt lat="45.96828506431104" lon="12.153374335620502"><ele>257.5</ele><time>2026-04-23T13:17:00Z</time></trkpt><trkpt lat="45.968227436920415" lon="12.153207234360238"><ele>255.25</ele><time>2026-04-23T13:17:01Z</time></trkpt><trkpt lat="45.96817164233567" lon="12.153030091145677"><ele>253.0</ele><time>2026-04-23T13:17:02Z</time></trkpt><trkpt lat="45.968114116373044" lon="12.152853170074325"><ele>253.0</ele><time>2026-04-23T13:17:03Z</time></trkpt><trkpt lat="45.96806046981347" lon="12.152668707346715"><ele>253.0</ele><time>2026-04-23T13:17:04Z</time></trkpt><trkpt lat="45.968006230366726" lon="12.152477932676465"><ele>253.0</ele><time>2026-04-23T13:17:05Z</time></trkpt><trkpt lat="45.96794723367625" lon="12.15228420629195"><ele>253.0</ele><time>2026-04-23T13:17:06Z</time></trkpt><trkpt lat="45.967883272351095" lon="12.152092911927866"><ele>255.0</ele><time>2026-04-23T13:17:07Z</time></trkpt><trkpt lat="45.9678296995925" lon="12.151902780197785"><ele>257.0</ele><time>2026-04-23T13:17:08Z</time></trkpt><trkpt lat="45.967777699160635" lon="12.151713599607733"><ele>259.0</ele><time>2026-04-23T13:17:09Z</time></trkpt><trkpt lat="45.96772649434606" lon="12.151519277940249"><ele>261.0</ele><time>2026-04-23T13:17:10Z</time></trkpt><trkpt lat="45.967670388650866" lon="12.151320393175938"><ele>261.0</ele><time>2026-04-23T13:17:11Z</time></trkpt><trkpt lat="45.96760606596672" lon="12.151125316599659"><ele>261.0</ele><time>2026-04-23T13:17:12Z</time></trkpt><trkpt lat="45.96754015321204" lon="12.150932956738192"><ele>261.0</ele><time>2026-04-23T13:17:13Z</time></trkpt><trkpt lat="45.96748056538379" lon="12.150744846147795"><ele>261.0</ele><time>2026-04-23T13:17:14Z</time></trkpt><trkpt lat="45.96742497895337" lon="12.150552527284578"><ele>257.6666666666667</ele><time>2026-04-23T13:17:15Z</time></trkpt><trkpt lat="45.9673652321445" lon="12.150346150874682"><ele>254.33333333333334</ele><time>2026-04-23T13:17:16Z</time></trkpt><trkpt lat="45.96730427105682" lon="12.15013589533954"><ele>251.0</ele><time>2026-04-23T13:17:17Z</time></trkpt><trkpt lat="45.96723741013369" lon="12.149933808618304"><ele>251.0</ele><time>2026-04-23T13:17:18Z</time></trkpt><trkpt lat="45.96717182143624" lon="12.149741033305741"><ele>251.0</ele><time>2026-04-23T13:17:19Z</time></trkpt><trkpt lat="45.967104169948755" lon="12.149556391570938"><ele>251.0</ele><time>2026-04-23T13:17:20Z</time></trkpt><trkpt lat="45.96704264619777" lon="12.149371461284678"><ele>251.0</ele><time>2026-04-23T13:17:21Z</time></trkpt><trkpt lat="45.966981486543936" lon="12.14919066146238"><ele>250.66666666666669</ele><time>2026-04-23T13:17:22Z</time></trkpt><trkpt lat="45.96692050544634" lon="12.148998304411156"><ele>250.33333333333331</ele><time>2026-04-23T13:17:23Z</time></trkpt><trkpt lat="45.96684923466607" lon="12.148791826152658"><ele>250.0</ele><time>2026-04-23T13:17:24Z</time></trkpt><trkpt lat="45.96677644923091" lon="12.14860546025447"><ele>250.0</ele><time>2026-04-23T13:17:25Z</time></trkpt><trkpt lat="45.9667016631947" lon="12.148424401188196"><ele>250.0</ele><time>2026-04-23T13:17:26Z</time></trkpt><trkpt lat="45.96663055220268" lon="12.148248469851987"><ele>250.0</ele><time>2026-04-23T13:17:27Z</time></trkpt><trkpt lat="45.966562969732315" lon="12.148075415217246"><ele>250.0</ele><time>2026-04-23T13:17:28Z</time></trkpt><trkpt lat="45.96649441929437" lon="12.147900420340882"><ele>248.25</ele><time>2026-04-23T13:17:29Z</time></trkpt><trkpt lat="45.966427792436065" lon="12.14772649118101"><ele>246.5</ele><time>2026-04-23T13:17:30Z</time></trkpt><trkpt lat="45.96635745162306" lon="12.147555231316947"><ele>244.75</ele><time>2026-04-23T13:17:31Z</time></trkpt><trkpt lat="45.96628723767681" lon="12.147392231485808"><ele>243.0</ele><time>2026-04-23T13:17:32Z</time></trkpt><trkpt lat="45.96621718685056" lon="12.147230125886988"><ele>242.5</ele><time>2026-04-23T13:17:33Z</time></trkpt><trkpt lat="45.966159603051715" lon="12.14707573551202"><ele>242.0</ele><time>2026-04-23T13:17:34Z</time></trkpt><trkpt lat="45.966102129763506" lon="12.1469253338909"><ele>241.5</ele><time>2026-04-23T13:17:35Z</time></trkpt><trkpt lat="45.96603949762317" lon="12.146775984058161"><ele>241.0</ele><time>2026-04-23T13:17:36Z</time></trkpt><trkpt lat="45.96598029184395" lon="12.146635697408527"><ele>240.8</ele><time>2026-04-23T13:17:37Z</time></trkpt><trkpt lat="45.965925636110086" lon="12.146495760001109"><ele>240.60000000000002</ele><time>2026-04-23T13:17:38Z</time></trkpt><trkpt lat="45.965874657891604" lon="12.14635737195989"><ele>240.4</ele><time>2026-04-23T13:17:39Z</time></trkpt><trkpt lat="45.96582802695468" lon="12.146222739426815"><ele>240.2</ele><time>2026-04-23T13:17:40Z</time></trkpt><trkpt lat="45.96578609726884" lon="12.146088801700843"><ele>240.0</ele><time>2026-04-23T13:17:41Z</time></trkpt><trkpt lat="45.965753578587844" lon="12.145952912318021"><ele>239.4</ele><time>2026-04-23T13:17:42Z</time></trkpt><trkpt lat="45.96572191729632" lon="12.145821167163774"><ele>238.8</ele><time>2026-04-23T13:17:43Z</time></trkpt><trkpt lat="45.96569143713385" lon="12.145686744526184"><ele>238.2</ele><time>2026-04-23T13:17:44Z</time></trkpt><trkpt lat="45.965656160644876" lon="12.14554146001547"><ele>237.6</ele><time>2026-04-23T13:17:45Z</time></trkpt><trkpt lat="45.965626212428155" lon="12.1453973035643"><ele>237.0</ele><time>2026-04-23T13:17:46Z</time></trkpt><trkpt lat="45.965603343308054" lon="12.145257961376542"><ele>237.0</ele><time>2026-04-23T13:17:47Z</time></trkpt><trkpt lat="45.96558410545929" lon="12.145124747396054"><ele>237.0</ele><time>2026-04-23T13:17:48Z</time></trkpt><trkpt lat="45.965567165977944" lon="12.145004183072253"><ele>237.0</ele><time>2026-04-23T13:17:49Z</time></trkpt><trkpt lat="45.96554876315053" lon="12.14488241826413"><ele>237.0</ele><time>2026-04-23T13:17:50Z</time></trkpt><trkpt lat="45.96553656172548" lon="12.144763885284092"><ele>237.0</ele><time>2026-04-23T13:17:51Z</time></trkpt><trkpt lat="45.965530195237626" lon="12.1446503665023"><ele>237.0</ele><time>2026-04-23T13:17:52Z</time></trkpt><trkpt lat="45.96552126493884" lon="12.144526819208814"><ele>237.0</ele><time>2026-04-23T13:17:53Z</time></trkpt><trkpt lat="45.96551259903026" lon="12.144400892673955"><ele>237.0</ele><time>2026-04-23T13:17:54Z</time></trkpt><trkpt lat="45.96549811639379" lon="12.144252236013124"><ele>237.0</ele><time>2026-04-23T13:17:55Z</time></trkpt><trkpt lat="45.96548680781653" lon="12.144105312743559"><ele>237.0</ele><time>2026-04-23T13:17:56Z</time></trkpt><trkpt lat="45.965496083531455" lon="12.143967434195956"><ele>237.0</ele><time>2026-04-23T13:17:57Z</time></trkpt><trkpt lat="45.9654897354366" lon="12.143837676145576"><ele>237.6</ele><time>2026-04-23T13:17:58Z</time></trkpt><trkpt lat="45.96548183743156" lon="12.143710764176072"><ele>238.2</ele><time>2026-04-23T13:17:59Z</time></trkpt><trkpt lat="45.96546577407765" lon="12.14358144158826"><ele>238.8</ele><time>2026-04-23T13:18:00Z</time></trkpt><trkpt lat="45.96545891005231" lon="12.143452043972792"><ele>239.4</ele><time>2026-04-23T13:18:01Z</time></trkpt><trkpt lat="45.965456492815974" lon="12.143313809968685"><ele>240.0</ele><time>2026-04-23T13:18:02Z</time></trkpt><trkpt lat="45.96544968906089" lon="12.143186853771857"><ele>240.16666666666666</ele><time>2026-04-23T13:18:03Z</time></trkpt><trkpt lat="45.96544247928844" lon="12.14308105831874"><ele>240.33333333333331</ele><time>2026-04-23T13:18:04Z</time></trkpt><trkpt lat="45.965437792820936" lon="12.142979889941596"><ele>240.5</ele><time>2026-04-23T13:18:05Z</time></trkpt><trkpt lat="45.965432167751295" lon="12.14288583361114"><ele>240.66666666666666</ele><time>2026-04-23T13:18:06Z</time></trkpt><trkpt lat="45.96542415260738" lon="12.142721464676256"><ele>240.83333333333331</ele><time>2026-04-23T13:18:08Z</time></trkpt><trkpt lat="45.96541890416762" lon="12.142591957491474"><ele>241.0</ele><time>2026-04-23T13:18:10Z</time></trkpt><trkpt lat="45.96541641301568" lon="12.142484485556883"><ele>241.16666666666666</ele><time>2026-04-23T13:18:12Z</time></trkpt><trkpt lat="45.96541808605159" lon="12.14236771729636"><ele>241.33333333333331</ele><time>2026-04-23T13:18:14Z</time></trkpt><trkpt lat="45.965420222383855" lon="12.142226418365116"><ele>241.5</ele><time>2026-04-23T13:18:16Z</time></trkpt><trkpt lat="45.96542662647074" lon="12.142041369982838"><ele>241.66666666666669</ele><time>2026-04-23T13:18:18Z</time></trkpt><trkpt lat="45.96540749336497" lon="12.141954043630074"><ele>241.83333333333334</ele><time>2026-04-23T13:18:19Z</time></trkpt><trkpt lat="45.9654353330913" lon="12.141850045829756"><ele>242.0</ele><time>2026-04-23T13:18:20Z</time></trkpt><trkpt lat="45.96543114477121" lon="12.14173977342609"><ele>242.00000000000003</ele><time>2026-04-23T13:18:21Z</time></trkpt><trkpt lat="45.96541553196477" lon="12.141639439807422"><ele>242.0</ele><time>2026-04-23T13:18:22Z</time></trkpt><trkpt lat="45.96540118235194" lon="12.141535707777175"><ele>242.0</ele><time>2026-04-23T13:18:23Z</time></trkpt><trkpt lat="45.96539718544059" lon="12.141413512420874"><ele>242.0</ele><time>2026-04-23T13:18:24Z</time></trkpt><trkpt lat="45.96540688840912" lon="12.141268976535555"><ele>242.00000000000003</ele><time>2026-04-23T13:18:25Z</time></trkpt><trkpt lat="45.96542278825955" lon="12.141121118722856"><ele>242.0</ele><time>2026-04-23T13:18:26Z</time></trkpt><trkpt lat="45.96543373711969" lon="12.140967861940181"><ele>242.0</ele><time>2026-04-23T13:18:27Z</time></trkpt><trkpt lat="45.96545084969858" lon="12.140792821320487"><ele>242.0</ele><time>2026-04-23T13:18:28Z</time></trkpt><trkpt lat="45.9654685193691" lon="12.140636707004088"><ele>242.0</ele><time>2026-04-23T13:18:29Z</time></trkpt><trkpt lat="45.965490021810034" lon="12.140475196966673"><ele>242.0</ele><time>2026-04-23T13:18:30Z</time></trkpt><trkpt lat="45.96550979104566" lon="12.140311808206349"><ele>241.39999999999998</ele><time>2026-04-23T13:18:31Z</time></trkpt><trkpt lat="45.965532883639504" lon="12.140159180183108"><ele>240.79999999999998</ele><time>2026-04-23T13:18:32Z</time></trkpt><trkpt lat="45.96555125098063" lon="12.140003690616856"><ele>240.2</ele><time>2026-04-23T13:18:33Z</time></trkpt><trkpt lat="45.96556474298269" lon="12.139843915335755"><ele>239.6</ele><time>2026-04-23T13:18:34Z</time></trkpt><trkpt lat="45.96558254827731" lon="12.13968560722299"><ele>239.0</ele><time>2026-04-23T13:18:35Z</time></trkpt><trkpt lat="45.96560640933772" lon="12.139531361184876"><ele>239.0</ele><time>2026-04-23T13:18:36Z</time></trkpt><trkpt lat="45.96563161675549" lon="12.139379620730756"><ele>238.99999999999997</ele><time>2026-04-23T13:18:37Z</time></trkpt><trkpt lat="45.965655168851164" lon="12.139230495180334"><ele>238.99999999999997</ele><time>2026-04-23T13:18:38Z</time></trkpt><trkpt lat="45.96567274455037" lon="12.139087255784409"><ele>239.0</ele><time>2026-04-23T13:18:39Z</time></trkpt><trkpt lat="45.965691701331615" lon="12.138947319699032"><ele>239.0</ele><time>2026-04-23T13:18:40Z</time></trkpt><trkpt lat="45.965708166885356" lon="12.138802734853755"><ele>239.0</ele><time>2026-04-23T13:18:41Z</time></trkpt><trkpt lat="45.96572311373098" lon="12.138656550954043"><ele>238.99999999999997</ele><time>2026-04-23T13:18:42Z</time></trkpt><trkpt lat="45.96573887961891" lon="12.138517949474252"><ele>238.99999999999997</ele><time>2026-04-23T13:18:43Z</time></trkpt><trkpt lat="45.96575441098972" lon="12.138388159435632"><ele>239.0</ele><time>2026-04-23T13:18:44Z</time></trkpt><trkpt lat="45.96577150345116" lon="12.138250540711104"><ele>239.0</ele><time>2026-04-23T13:18:45Z</time></trkpt><trkpt lat="45.965792948324385" lon="12.138109485370737"><ele>238.6</ele><time>2026-04-23T13:18:46Z</time></trkpt><trkpt lat="45.965825711446705" lon="12.137965975023283"><ele>238.2</ele><time>2026-04-23T13:18:47Z</time></trkpt><trkpt lat="45.96586222686153" lon="12.13783789033155"><ele>237.79999999999998</ele><time>2026-04-23T13:18:48Z</time></trkpt><trkpt lat="45.9658997634124" lon="12.137722209359897"><ele>237.39999999999998</ele><time>2026-04-23T13:18:49Z</time></trkpt><trkpt lat="45.96592855258158" lon="12.137609189577685"><ele>237.0</ele><time>2026-04-23T13:18:50Z</time></trkpt><trkpt lat="45.965928973416155" lon="12.137479374402211"><ele>237.6</ele><time>2026-04-23T13:18:51Z</time></trkpt><trkpt lat="45.96590528482458" lon="12.13735043401614"><ele>238.2</ele><time>2026-04-23T13:18:52Z</time></trkpt><trkpt lat="45.96588001057021" lon="12.137219292357504"><ele>238.8</ele><time>2026-04-23T13:18:53Z</time></trkpt><trkpt lat="45.965864667726436" lon="12.137089019570482"><ele>239.4</ele><time>2026-04-23T13:18:54Z</time></trkpt><trkpt lat="45.9658596353113" lon="12.136954363281397"><ele>240.0</ele><time>2026-04-23T13:18:55Z</time></trkpt><trkpt lat="45.96586289858926" lon="12.136813825955914"><ele>240.4</ele><time>2026-04-23T13:18:56Z</time></trkpt><trkpt lat="45.96586543273141" lon="12.136661721431096"><ele>240.8</ele><time>2026-04-23T13:18:57Z</time></trkpt><trkpt lat="45.96585951151516" lon="12.136500202841601"><ele>241.2</ele><time>2026-04-23T13:18:58Z</time></trkpt><trkpt lat="45.96584523434489" lon="12.136348606193492"><ele>241.6</ele><time>2026-04-23T13:18:59Z</time></trkpt><trkpt lat="45.96582461707899" lon="12.136193177364328"><ele>242.0</ele><time>2026-04-23T13:19:00Z</time></trkpt><trkpt lat="45.96579596937108" lon="12.136035433535406"><ele>242.0</ele><time>2026-04-23T13:19:01Z</time></trkpt><trkpt lat="45.96576343592537" lon="12.135876469247181"><ele>242.0</ele><time>2026-04-23T13:19:02Z</time></trkpt><trkpt lat="45.96573036129334" lon="12.135726746492944"><ele>242.0</ele><time>2026-04-23T13:19:03Z</time></trkpt><trkpt lat="45.965698483191524" lon="12.135580667858001"><ele>242.0</ele><time>2026-04-23T13:19:04Z</time></trkpt><trkpt lat="45.96566514154332" lon="12.135437743230867"><ele>242.0</ele><time>2026-04-23T13:19:05Z</time></trkpt><trkpt lat="45.96562418057391" lon="12.135292545307966"><ele>241.25</ele><time>2026-04-23T13:19:06Z</time></trkpt><trkpt lat="45.96557317102376" lon="12.135150551653313"><ele>240.5</ele><time>2026-04-23T13:19:07Z</time></trkpt><trkpt lat="45.965513705573414" lon="12.135012056798352"><ele>239.75</ele><time>2026-04-23T13:19:08Z</time></trkpt><trkpt lat="45.96544671803713" lon="12.134865264567974"><ele>239.0</ele><time>2026-04-23T13:19:09Z</time></trkpt><trkpt lat="45.96537320870539" lon="12.13471766274613"><ele>238.0</ele><time>2026-04-23T13:19:10Z</time></trkpt><trkpt lat="45.96529290647977" lon="12.134575950540462"><ele>237.0</ele><time>2026-04-23T13:19:11Z</time></trkpt><trkpt lat="45.96520259843883" lon="12.134437014677975"><ele>236.0</ele><time>2026-04-23T13:19:12Z</time></trkpt><trkpt lat="45.96510243609085" lon="12.1342974369025"><ele>235.0</ele><time>2026-04-23T13:19:13Z</time></trkpt><trkpt lat="45.96500331292297" lon="12.134162301040728"><ele>234.25</ele><time>2026-04-23T13:19:14Z</time></trkpt><trkpt lat="45.96490018413096" lon="12.134028162946931"><ele>233.5</ele><time>2026-04-23T13:19:15Z</time></trkpt><trkpt lat="45.96479393486776" lon="12.133886951131041"><ele>232.75</ele><time>2026-04-23T13:19:16Z</time></trkpt><trkpt lat="45.964683962548044" lon="12.133741478480268"><ele>232.0</ele><time>2026-04-23T13:19:17Z</time></trkpt><trkpt lat="45.964574514847975" lon="12.13359167730913"><ele>232.0</ele><time>2026-04-23T13:19:18Z</time></trkpt><trkpt lat="45.96446683266306" lon="12.133453040940319"><ele>232.0</ele><time>2026-04-23T13:19:19Z</time></trkpt><trkpt lat="45.96435824620397" lon="12.133304100819911"><ele>232.0</ele><time>2026-04-23T13:19:20Z</time></trkpt><trkpt lat="45.96425321907697" lon="12.133153762699068"><ele>232.0</ele><time>2026-04-23T13:19:21Z</time></trkpt><trkpt lat="45.96414466847731" lon="12.133011889409591"><ele>231.0</ele><time>2026-04-23T13:19:22Z</time></trkpt><trkpt lat="45.96403799986815" lon="12.132870558891103"><ele>230.0</ele><time>2026-04-23T13:19:23Z</time></trkpt><trkpt lat="45.963927125892894" lon="12.132724833258356"><ele>229.0</ele><time>2026-04-23T13:19:24Z</time></trkpt><trkpt lat="45.963819719203855" lon="12.132588185782554"><ele>228.0</ele><time>2026-04-23T13:19:25Z</time></trkpt><trkpt lat="45.96371697989274" lon="12.132450444867445"><ele>227.75</ele><time>2026-04-23T13:19:26Z</time></trkpt><trkpt lat="45.96361652336352" lon="12.132310503123996"><ele>227.5</ele><time>2026-04-23T13:19:27Z</time></trkpt><trkpt lat="45.96351200254787" lon="12.132172648719026"><ele>227.25</ele><time>2026-04-23T13:19:28Z</time></trkpt><trkpt lat="45.963425351514466" lon="12.132030666316522"><ele>227.0</ele><time>2026-04-23T13:19:29Z</time></trkpt><trkpt lat="45.96335931343773" lon="12.131965281989944"><ele>227.00000000000003</ele><time>2026-04-23T13:19:30Z</time></trkpt><trkpt lat="45.96331318605435" lon="12.1319008492876"><ele>227.0</ele><time>2026-04-23T13:19:31Z</time></trkpt><trkpt lat="45.96325555392303" lon="12.131830731133391"><ele>227.0</ele><time>2026-04-23T13:19:32Z</time></trkpt><trkpt lat="45.96319473244394" lon="12.13174142449289"><ele>227.0</ele><time>2026-04-23T13:19:33Z</time></trkpt><trkpt lat="45.96313449259105" lon="12.131658284051005"><ele>227.00000000000003</ele><time>2026-04-23T13:19:34Z</time></trkpt><trkpt lat="45.96306335392122" lon="12.131570139755107"><ele>227.0</ele><time>2026-04-23T13:19:35Z</time></trkpt><trkpt lat="45.962990950575175" lon="12.131443716822172"><ele>226.0</ele><time>2026-04-23T13:19:36Z</time></trkpt><trkpt lat="45.96289288483341" lon="12.1313125174421"><ele>225.0</ele><time>2026-04-23T13:19:37Z</time></trkpt><trkpt lat="45.96278821943747" lon="12.131171800188763"><ele>224.0</ele><time>2026-04-23T13:19:38Z</time></trkpt><trkpt lat="45.96268718105895" lon="12.131035349019335"><ele>223.0</ele><time>2026-04-23T13:19:39Z</time></trkpt><trkpt lat="45.96260019594835" lon="12.13091787669091"><ele>222.75</ele><time>2026-04-23T13:19:40Z</time></trkpt><trkpt lat="45.962494163224484" lon="12.130805788183364"><ele>222.5</ele><time>2026-04-23T13:19:41Z</time></trkpt><trkpt lat="45.96239482328979" lon="12.130640524770179"><ele>222.25</ele><time>2026-04-23T13:19:42Z</time></trkpt><trkpt lat="45.96227414550672" lon="12.130477549667532"><ele>222.0</ele><time>2026-04-23T13:19:43Z</time></trkpt><trkpt lat="45.962150143118905" lon="12.130310081987249"><ele>221.33333333333331</ele><time>2026-04-23T13:19:44Z</time></trkpt><trkpt lat="45.962026598545314" lon="12.130174643687335"><ele>220.66666666666666</ele><time>2026-04-23T13:19:45Z</time></trkpt><trkpt lat="45.96191459136141" lon="12.130016819108748"><ele>220.0</ele><time>2026-04-23T13:19:46Z</time></trkpt><trkpt lat="45.96180883280938" lon="12.129854488865012"><ele>220.33333333333331</ele><time>2026-04-23T13:19:47Z</time></trkpt><trkpt lat="45.961697115242984" lon="12.129687188866141"><ele>220.66666666666669</ele><time>2026-04-23T13:19:48Z</time></trkpt><trkpt lat="45.96158484098963" lon="12.129531204198141"><ele>221.0</ele><time>2026-04-23T13:19:49Z</time></trkpt><trkpt lat="45.96147572155646" lon="12.129387190538134"><ele>221.0</ele><time>2026-04-23T13:19:50Z</time></trkpt><trkpt lat="45.961369583359776" lon="12.12924497458478"><ele>221.0</ele><time>2026-04-23T13:19:51Z</time></trkpt><trkpt lat="45.96126658689893" lon="12.12911034960118"><ele>221.0</ele><time>2026-04-23T13:19:52Z</time></trkpt><trkpt lat="45.96116909499272" lon="12.12898265695409"><ele>221.0</ele><time>2026-04-23T13:19:53Z</time></trkpt><trkpt lat="45.961075333519126" lon="12.12885836228759"><ele>220.25</ele><time>2026-04-23T13:19:54Z</time></trkpt><trkpt lat="45.96098538484283" lon="12.12873245663166"><ele>219.5</ele><time>2026-04-23T13:19:55Z</time></trkpt><trkpt lat="45.96088855611561" lon="12.128590274475668"><ele>218.75</ele><time>2026-04-23T13:19:56Z</time></trkpt><trkpt lat="45.960787483153894" lon="12.128447236958813"><ele>218.0</ele><time>2026-04-23T13:19:57Z</time></trkpt><trkpt lat="45.96068921102537" lon="12.12832164897082"><ele>218.0</ele><time>2026-04-23T13:19:58Z</time></trkpt><trkpt lat="45.960592959641346" lon="12.128193603183373"><ele>218.0</ele><time>2026-04-23T13:19:59Z</time></trkpt><trkpt lat="45.96050356795121" lon="12.128053780483897"><ele>218.0</ele><time>2026-04-23T13:20:00Z</time></trkpt><trkpt lat="45.960415309773744" lon="12.127908537009702"><ele>218.0</ele><time>2026-04-23T13:20:01Z</time></trkpt><trkpt lat="45.96033332290697" lon="12.12776090267273"><ele>218.0</ele><time>2026-04-23T13:20:02Z</time></trkpt><trkpt lat="45.96026215467335" lon="12.127622137937887"><ele>218.0</ele><time>2026-04-23T13:20:03Z</time></trkpt><trkpt lat="45.960195704439386" lon="12.1274773584014"><ele>218.0</ele><time>2026-04-23T13:20:04Z</time></trkpt><trkpt lat="45.960124370877736" lon="12.127308441348566"><ele>218.0</ele><time>2026-04-23T13:20:05Z</time></trkpt><trkpt lat="45.96005500364343" lon="12.12712590399434"><ele>217.25</ele><time>2026-04-23T13:20:06Z</time></trkpt><trkpt lat="45.95999677201904" lon="12.126966798774797"><ele>216.5</ele><time>2026-04-23T13:20:07Z</time></trkpt><trkpt lat="45.95994090170999" lon="12.12679792181326"><ele>215.75</ele><time>2026-04-23T13:20:08Z</time></trkpt><trkpt lat="45.95988413165171" lon="12.12662163587647"><ele>215.0</ele><time>2026-04-23T13:20:09Z</time></trkpt><trkpt lat="45.95982594052209" lon="12.126447960855772"><ele>215.0</ele><time>2026-04-23T13:20:10Z</time></trkpt><trkpt lat="45.95976569338263" lon="12.126274053784842"><ele>215.0</ele><time>2026-04-23T13:20:11Z</time></trkpt><trkpt lat="45.959711837349296" lon="12.126110405872291"><ele>215.0</ele><time>2026-04-23T13:20:12Z</time></trkpt><trkpt lat="45.959658134757504" lon="12.125942614067375"><ele>215.0</ele><time>2026-04-23T13:20:13Z</time></trkpt><trkpt lat="45.9596008678844" lon="12.125767182098985"><ele>214.75</ele><time>2026-04-23T13:20:14Z</time></trkpt><trkpt lat="45.959537937239325" lon="12.125591269104588"><ele>214.5</ele><time>2026-04-23T13:20:15Z</time></trkpt><trkpt lat="45.95947442621731" lon="12.125423069603602"><ele>214.25</ele><time>2026-04-23T13:20:16Z</time></trkpt><trkpt lat="45.9594100478791" lon="12.125257243993815"><ele>214.0</ele><time>2026-04-23T13:20:17Z</time></trkpt><trkpt lat="45.95934402972275" lon="12.125086496510113"><ele>214.0</ele><time>2026-04-23T13:20:18Z</time></trkpt><trkpt lat="45.959277329729" lon="12.124929787075706"><ele>214.0</ele><time>2026-04-23T13:20:19Z</time></trkpt><trkpt lat="45.95920257094254" lon="12.124776449034954"><ele>214.0</ele><time>2026-04-23T13:20:20Z</time></trkpt><trkpt lat="45.95912124464222" lon="12.12462465559388"><ele>214.0</ele><time>2026-04-23T13:20:21Z</time></trkpt><trkpt lat="45.959038082238735" lon="12.124486360703665"><ele>213.5</ele><time>2026-04-23T13:20:22Z</time></trkpt><trkpt lat="45.95894946005977" lon="12.124355547400134"><ele>213.0</ele><time>2026-04-23T13:20:23Z</time></trkpt><trkpt lat="45.95886083607886" lon="12.124223729501946"><ele>212.5</ele><time>2026-04-23T13:20:24Z</time></trkpt><trkpt lat="45.95876660676177" lon="12.1240925116843"><ele>212.0</ele><time>2026-04-23T13:20:25Z</time></trkpt><trkpt lat="45.958668943006586" lon="12.123967772374206"><ele>211.0</ele><time>2026-04-23T13:20:26Z</time></trkpt><trkpt lat="45.958566847287976" lon="12.123843080880729"><ele>210.0</ele><time>2026-04-23T13:20:27Z</time></trkpt><trkpt lat="45.95846207702755" lon="12.123729085705184"><ele>209.0</ele><time>2026-04-23T13:20:28Z</time></trkpt><trkpt lat="45.95834894280881" lon="12.12361435555847"><ele>208.0</ele><time>2026-04-23T13:20:29Z</time></trkpt><trkpt lat="45.95823266241637" lon="12.123504779790869"><ele>207.75</ele><time>2026-04-23T13:20:30Z</time></trkpt><trkpt lat="45.95812022679891" lon="12.123402542256125"><ele>207.5</ele><time>2026-04-23T13:20:31Z</time></trkpt><trkpt lat="45.95800854360441" lon="12.123299722963413"><ele>207.25</ele><time>2026-04-23T13:20:32Z</time></trkpt><trkpt lat="45.95789569386509" lon="12.123188627836074"><ele>207.0</ele><time>2026-04-23T13:20:33Z</time></trkpt><trkpt lat="45.95777963804115" lon="12.123080963295548"><ele>206.25</ele><time>2026-04-23T13:20:34Z</time></trkpt><trkpt lat="45.95766236193154" lon="12.122976129560419"><ele>205.5</ele><time>2026-04-23T13:20:35Z</time></trkpt><trkpt lat="45.95754554352558" lon="12.122870718754417"><ele>204.75</ele><time>2026-04-23T13:20:36Z</time></trkpt><trkpt lat="45.957428993903974" lon="12.122763077617744"><ele>204.0</ele><time>2026-04-23T13:20:37Z</time></trkpt><trkpt lat="45.957315665235484" lon="12.122650565866255"><ele>203.75</ele><time>2026-04-23T13:20:38Z</time></trkpt><trkpt lat="45.957202371514455" lon="12.122544392284148"><ele>203.5</ele><time>2026-04-23T13:20:39Z</time></trkpt><trkpt lat="45.95708460465912" lon="12.12244278017671"><ele>203.25</ele><time>2026-04-23T13:20:40Z</time></trkpt><trkpt lat="45.95696970972003" lon="12.122334011679175"><ele>203.0</ele><time>2026-04-23T13:20:41Z</time></trkpt><trkpt lat="45.956856224994425" lon="12.122222453310187"><ele>203.0</ele><time>2026-04-23T13:20:42Z</time></trkpt><trkpt lat="45.95674382613403" lon="12.122114700972757"><ele>203.0</ele><time>2026-04-23T13:20:43Z</time></trkpt><trkpt lat="45.95662478575828" lon="12.122004277567623"><ele>203.0</ele><time>2026-04-23T13:20:44Z</time></trkpt><trkpt lat="45.956508564390774" lon="12.121899819349613"><ele>203.0</ele><time>2026-04-23T13:20:45Z</time></trkpt><trkpt lat="45.956394997150724" lon="12.121795987576734"><ele>203.0</ele><time>2026-04-23T13:20:46Z</time></trkpt><trkpt lat="45.95627395503027" lon="12.12168382140717"><ele>203.0</ele><time>2026-04-23T13:20:47Z</time></trkpt><trkpt lat="45.95615246981695" lon="12.121567705452719"><ele>203.0</ele><time>2026-04-23T13:20:48Z</time></trkpt><trkpt lat="45.95603380003085" lon="12.12145837296877"><ele>203.0</ele><time>2026-04-23T13:20:49Z</time></trkpt><trkpt lat="45.95592770856882" lon="12.12135996693918"><ele>202.0</ele><time>2026-04-23T13:20:50Z</time></trkpt><trkpt lat="45.95583098162123" lon="12.121270434137426"><ele>201.0</ele><time>2026-04-23T13:20:51Z</time></trkpt><trkpt lat="45.95572821131233" lon="12.121177219789283"><ele>200.0</ele><time>2026-04-23T13:20:52Z</time></trkpt><trkpt lat="45.95562573534746" lon="12.121088400520307"><ele>199.0</ele><time>2026-04-23T13:20:53Z</time></trkpt><trkpt lat="45.95552891904733" lon="12.121005464411075"><ele>199.0</ele><time>2026-04-23T13:20:54Z</time></trkpt><trkpt lat="45.95543341018821" lon="12.120916462263873"><ele>199.0</ele><time>2026-04-23T13:20:55Z</time></trkpt><trkpt lat="45.95533448791724" lon="12.120817133447652"><ele>199.0</ele><time>2026-04-23T13:20:56Z</time></trkpt><trkpt lat="45.95523039055545" lon="12.120719698169363"><ele>199.0</ele><time>2026-04-23T13:20:57Z</time></trkpt><trkpt lat="45.955123434721266" lon="12.120623590511787"><ele>198.5</ele><time>2026-04-23T13:20:58Z</time></trkpt><trkpt lat="45.95501966315288" lon="12.120520227071648"><ele>198.0</ele><time>2026-04-23T13:20:59Z</time></trkpt><trkpt lat="45.954920108057955" lon="12.12041330546386"><ele>197.5</ele><time>2026-04-23T13:21:00Z</time></trkpt><trkpt lat="45.95481962367515" lon="12.12031365896645"><ele>197.0</ele><time>2026-04-23T13:21:01Z</time></trkpt><trkpt lat="45.954720437831256" lon="12.12021589020117"><ele>197.0</ele><time>2026-04-23T13:21:02Z</time></trkpt><trkpt lat="45.9546243486871" lon="12.120118544104338"><ele>197.0</ele><time>2026-04-23T13:21:03Z</time></trkpt><trkpt lat="45.954537285926286" lon="12.120005257911645"><ele>197.0</ele><time>2026-04-23T13:21:04Z</time></trkpt><trkpt lat="45.954433519324645" lon="12.119915236885532"><ele>197.0</ele><time>2026-04-23T13:21:05Z</time></trkpt><trkpt lat="45.95433929104833" lon="12.119810144081015"><ele>197.75</ele><time>2026-04-23T13:21:06Z</time></trkpt><trkpt lat="45.95424616337612" lon="12.119714565695208"><ele>198.5</ele><time>2026-04-23T13:21:07Z</time></trkpt><trkpt lat="45.95415386666591" lon="12.119613513129721"><ele>199.25</ele><time>2026-04-23T13:21:08Z</time></trkpt><trkpt lat="45.95405830361608" lon="12.119505404102519"><ele>200.0</ele><time>2026-04-23T13:21:09Z</time></trkpt><trkpt lat="45.95396051131701" lon="12.119407810001208"><ele>200.0</ele><time>2026-04-23T13:21:10Z</time></trkpt><trkpt lat="45.95387286590457" lon="12.119311254835539"><ele>200.0</ele><time>2026-04-23T13:21:11Z</time></trkpt><trkpt lat="45.95379453329127" lon="12.119198807518845"><ele>200.0</ele><time>2026-04-23T13:21:12Z</time></trkpt><trkpt lat="45.95372419193286" lon="12.119073214863283"><ele>200.0</ele><time>2026-04-23T13:21:13Z</time></trkpt><trkpt lat="45.95366456884712" lon="12.118947725996186"><ele>200.0</ele><time>2026-04-23T13:21:14Z</time></trkpt><trkpt lat="45.95361557259319" lon="12.118838073400719"><ele>199.33333333333334</ele><time>2026-04-23T13:21:15Z</time></trkpt><trkpt lat="45.953577889074516" lon="12.11870906229867"><ele>198.66666666666669</ele><time>2026-04-23T13:21:16Z</time></trkpt><trkpt lat="45.95352731129369" lon="12.11860453971587"><ele>198.0</ele><time>2026-04-23T13:21:17Z</time></trkpt><trkpt lat="45.95346069824406" lon="12.118514491613489"><ele>197.33333333333331</ele><time>2026-04-23T13:21:18Z</time></trkpt><trkpt lat="45.95340038504959" lon="12.118422608871876"><ele>196.66666666666666</ele><time>2026-04-23T13:21:19Z</time></trkpt><trkpt lat="45.953338726334614" lon="12.118339811519546"><ele>196.0</ele><time>2026-04-23T13:21:20Z</time></trkpt><trkpt lat="45.95327623867395" lon="12.118264745731903"><ele>195.60000000000002</ele><time>2026-04-23T13:21:21Z</time></trkpt><trkpt lat="45.95320712663816" lon="12.118183054143325"><ele>195.2</ele><time>2026-04-23T13:21:22Z</time></trkpt><trkpt lat="45.9531381541672" lon="12.118092627696571"><ele>194.8</ele><time>2026-04-23T13:21:23Z</time></trkpt><trkpt lat="45.95307384264137" lon="12.117986069991382"><ele>194.39999999999998</ele><time>2026-04-23T13:21:24Z</time></trkpt><trkpt lat="45.9530129619231" lon="12.117875887064864"><ele>194.0</ele><time>2026-04-23T13:21:25Z</time></trkpt><trkpt lat="45.952951834475876" lon="12.117761380137551"><ele>194.0</ele><time>2026-04-23T13:21:26Z</time></trkpt><trkpt lat="45.95288799858754" lon="12.117631856456722"><ele>194.0</ele><time>2026-04-23T13:21:27Z</time></trkpt><trkpt lat="45.952819725665215" lon="12.117488986150946"><ele>194.0</ele><time>2026-04-23T13:21:28Z</time></trkpt><trkpt lat="45.952746395688735" lon="12.117336487704307"><ele>194.0</ele><time>2026-04-23T13:21:29Z</time></trkpt><trkpt lat="45.95267492345423" lon="12.117188165902029"><ele>194.0</ele><time>2026-04-23T13:21:30Z</time></trkpt><trkpt lat="45.95260920194232" lon="12.117052841820001"><ele>194.0</ele><time>2026-04-23T13:21:31Z</time></trkpt><trkpt lat="45.952545131706906" lon="12.116914111318815"><ele>194.0</ele><time>2026-04-23T13:21:32Z</time></trkpt><trkpt lat="45.95248107120163" lon="12.116783112518183"><ele>194.0</ele><time>2026-04-23T13:21:33Z</time></trkpt><trkpt lat="45.952418369975184" lon="12.116668781544957"><ele>194.0</ele><time>2026-04-23T13:21:34Z</time></trkpt><trkpt lat="45.95236031208267" lon="12.116558161875352"><ele>194.33333333333334</ele><time>2026-04-23T13:21:35Z</time></trkpt><trkpt lat="45.95230788350963" lon="12.116457549623249"><ele>194.66666666666669</ele><time>2026-04-23T13:21:36Z</time></trkpt><trkpt lat="45.952280001040805" lon="12.116360549866892"><ele>195.0</ele><time>2026-04-23T13:21:37Z</time></trkpt><trkpt lat="45.95221231458468" lon="12.11625810633544"><ele>195.33333333333331</ele><time>2026-04-23T13:21:39Z</time></trkpt><trkpt lat="45.9521785157202" lon="12.116179184351518"><ele>195.66666666666666</ele><time>2026-04-23T13:21:41Z</time></trkpt><trkpt lat="45.95214074828748" lon="12.116087303392073"><ele>196.0</ele><time>2026-04-23T13:21:45Z</time></trkpt><trkpt lat="45.952086930846775" lon="12.115964266060521"><ele>195.99999999999997</ele><time>2026-04-23T13:21:54Z</time></trkpt><trkpt lat="45.95204050569209" lon="12.115827604590685"><ele>196.0</ele><time>2026-04-23T13:21:56Z</time></trkpt><trkpt lat="45.95200921961743" lon="12.115747162698016"><ele>196.0</ele><time>2026-04-23T13:21:57Z</time></trkpt><trkpt lat="45.9519735496779" lon="12.115638328814825"><ele>196.0</ele><time>2026-04-23T13:21:58Z</time></trkpt><trkpt lat="45.95193892434252" lon="12.115513536677804"><ele>195.99999999999997</ele><time>2026-04-23T13:21:59Z</time></trkpt><trkpt lat="45.95190752839021" lon="12.115384513769923"><ele>196.0</ele><time>2026-04-23T13:22:00Z</time></trkpt><trkpt lat="45.95188038899394" lon="12.115257055364468"><ele>196.60000000000002</ele><time>2026-04-23T13:22:01Z</time></trkpt><trkpt lat="45.95185709249926" lon="12.115123963632753"><ele>197.2</ele><time>2026-04-23T13:22:02Z</time></trkpt><trkpt lat="45.95183671904157" lon="12.114986541359233"><ele>197.8</ele><time>2026-04-23T13:22:03Z</time></trkpt><trkpt lat="45.95182321663627" lon="12.114847503085286"><ele>198.39999999999998</ele><time>2026-04-23T13:22:04Z</time></trkpt><trkpt lat="45.95181385669357" lon="12.114708471735947"><ele>199.0</ele><time>2026-04-23T13:22:05Z</time></trkpt><trkpt lat="45.951802525713816" lon="12.11455139663833"><ele>199.75</ele><time>2026-04-23T13:22:06Z</time></trkpt><trkpt lat="45.95178648676736" lon="12.114378813459163"><ele>200.5</ele><time>2026-04-23T13:22:07Z</time></trkpt><trkpt lat="45.95178658538051" lon="12.114186304685811"><ele>201.25</ele><time>2026-04-23T13:22:08Z</time></trkpt><trkpt lat="45.951774481642936" lon="12.113988636512454"><ele>202.0</ele><time>2026-04-23T13:22:09Z</time></trkpt><trkpt lat="45.95176163276193" lon="12.113786881217724"><ele>203.0</ele><time>2026-04-23T13:22:10Z</time></trkpt><trkpt lat="45.95174818941827" lon="12.113578373043103"><ele>204.0</ele><time>2026-04-23T13:22:11Z</time></trkpt><trkpt lat="45.951734570187966" lon="12.11336641709569"><ele>205.0</ele><time>2026-04-23T13:22:12Z</time></trkpt><trkpt lat="45.95170639069722" lon="12.113154018701286"><ele>206.0</ele><time>2026-04-23T13:22:13Z</time></trkpt><trkpt lat="45.95169241690882" lon="12.112940436453343"><ele>206.0</ele><time>2026-04-23T13:22:14Z</time></trkpt><trkpt lat="45.95169413686193" lon="12.112727011851424"><ele>206.0</ele><time>2026-04-23T13:22:15Z</time></trkpt><trkpt lat="45.95168099194595" lon="12.112518949847265"><ele>206.0</ele><time>2026-04-23T13:22:16Z</time></trkpt><trkpt lat="45.95166714984951" lon="12.112313001324978"><ele>206.0</ele><time>2026-04-23T13:22:17Z</time></trkpt><trkpt lat="45.951653850704645" lon="12.112116031332874"><ele>206.60000000000002</ele><time>2026-04-23T13:22:18Z</time></trkpt><trkpt lat="45.9516385354505" lon="12.111930242411022"><ele>207.2</ele><time>2026-04-23T13:22:19Z</time></trkpt><trkpt lat="45.95161776389924" lon="12.111767684964965"><ele>207.8</ele><time>2026-04-23T13:22:20Z</time></trkpt><trkpt lat="45.95159572368728" lon="12.111629160462492"><ele>208.39999999999998</ele><time>2026-04-23T13:22:21Z</time></trkpt><trkpt lat="45.951567780083444" lon="12.111506198197308"><ele>209.0</ele><time>2026-04-23T13:22:22Z</time></trkpt><trkpt lat="45.9515362954111" lon="12.111403768271781"><ele>209.79999999999998</ele><time>2026-04-23T13:22:23Z</time></trkpt><trkpt lat="45.951543000884236" lon="12.111308331225704"><ele>210.6</ele><time>2026-04-23T13:22:24Z</time></trkpt><trkpt lat="45.95166557478322" lon="12.11120693311424"><ele>211.4</ele><time>2026-04-23T13:22:26Z</time></trkpt><trkpt lat="45.95174747643684" lon="12.111138013902872"><ele>212.2</ele><time>2026-04-23T13:22:27Z</time></trkpt><trkpt lat="45.95183642447783" lon="12.111100410173542"><ele>213.0</ele><time>2026-04-23T13:22:28Z</time></trkpt><trkpt lat="45.95189410959138" lon="12.111054667386748"><ele>216.25</ele><time>2026-04-23T13:22:29Z</time></trkpt><trkpt lat="45.95198663594531" lon="12.111030091674781"><ele>219.5</ele><time>2026-04-23T13:22:31Z</time></trkpt><trkpt lat="45.95206508350573" lon="12.11131057230645"><ele>222.75</ele><time>2026-04-23T13:22:33Z</time></trkpt><trkpt lat="45.952097039273944" lon="12.111453592252017"><ele>226.0</ele><time>2026-04-23T13:22:34Z</time></trkpt><trkpt lat="45.952133796181975" lon="12.111564903806485"><ele>226.0</ele><time>2026-04-23T13:22:35Z</time></trkpt><trkpt lat="45.952168276119735" lon="12.111646855668496"><ele>219.0</ele><time>2026-04-23T13:22:36Z</time></trkpt><trkpt lat="45.952218967074984" lon="12.111785588556886"><ele>219.0</ele><time>2026-04-23T13:22:38Z</time></trkpt><trkpt lat="45.95225584942628" lon="12.111865123999873"><ele>219.0</ele><time>2026-04-23T13:22:40Z</time></trkpt><trkpt lat="45.952347537381414" lon="12.11167842400061"><ele>219.0</ele><time>2026-04-23T13:25:51.172Z</time></trkpt></trkseg></trk></gpx>